# Wetter Temperatur Luftdruck Luftfeuchtigkeit Sichtweite Windgeschwindigkeit Windrichtung Zeit
1 Clouds 28 1004 78 9000 1 0 21:58 12.07.2020
2 Clouds 29 1004 70 9000 2.1 130 21:40 12.07.2020
3 Clouds 29 1004 70 9000 2.1 130 21:40 12.07.2020
4 Rain 29 1004 70 10000 2.1 140 21:20 12.07.2020
5 Rain 29 1004 70 10000 2.1 140 20:58 12.07.2020
6 Rain 30 1004 62 10000 2.6 160 20:39 12.07.2020
7 Rain 30 1004 62 10000 2.6 160 20:19 12.07.2020
8 Rain 30 1005 62 10000 2.6 180 19:55 12.07.2020
9 Rain 30 1005 62 10000 2.1 200 19:36 12.07.2020
10 Rain 30 1005 58 10000 2.1 210 19:18 12.07.2020
11 Rain 30 1005 58 10000 2.6 210 18:40 12.07.2020
12 Rain 30 1005 58 10000 3.1 200 18:19 12.07.2020
13 Rain 30 1004 58 10000 2.6 210 17:42 12.07.2020
14 Rain 30 1004 58 10000 2.6 210 17:22 12.07.2020
15 Rain 30 1004 58 10000 2.6 190 16:58 12.07.2020
16 Rain 30 1004 58 10000 3.1 170 16:40 12.07.2020
17 Rain 30 1004 58 10000 3.1 170 16:19 12.07.2020
18 Rain 31 1003 52 10000 3.1 200 15:43 12.07.2020
19 Clouds 31 1003 52 10000 3.1 200 15:23 12.07.2020
20 Clouds 31 1002 52 10000 4.1 220 14:44 12.07.2020
21 Clouds 31 1002 52 10000 4.1 220 14:25 12.07.2020
22 Clouds 31 1002 52 10000 3.6 230 13:54 12.07.2020
23 Clouds 31 1002 62 10000 3.1 220 13:36 12.07.2020
24 Clouds 31 1002 62 10000 3.1 220 13:18 12.07.2020
25 Clouds 32 1002 55 10000 3.1 260 12:42 12.07.2020
26 Clouds 32 1002 55 10000 3.1 270 12:20 12.07.2020
27 Clouds 32 1002 55 10000 3.1 270 11:58 12.07.2020
28 Clouds 32 1002 55 10000 4.1 250 11:40 12.07.2020
29 Clouds 32 1002 55 10000 4.1 250 11:18 12.07.2020
30 Clouds 32 1002 55 10000 4.6 260 10:41 12.07.2020
31 Clouds 32 1002 55 10000 4.6 260 10:20 12.07.2020
32 Clouds 32 1002 55 10000 4.1 270 09:43 12.07.2020
33 Clouds 32 1002 55 10000 4.1 270 09:22 12.07.2020
34 Clouds 32 1002 55 10000 4.1 270 09:22 12.07.2020
35 Rain 32 1003 62 10000 3.6 260 08:58 12.07.2020
36 Rain 33 1003 52 10000 5.1 260 08:39 12.07.2020
37 Rain 33 1003 52 10000 5.1 260 08:21 12.07.2020
38 Clouds 33 1003 59 10000 2.1 250 07:50 12.07.2020
39 Clouds 33 1003 59 10000 2.1 250 07:31 12.07.2020
40 Clouds 33 1003 59 10000 2.1 260 06:55 12.07.2020
41 Clouds 32 1004 66 10000 1 0 06:37 12.07.2020
42 Clouds 32 1004 66 10000 2.1 0 06:18 12.07.2020
43 Clouds 31 1004 74 10000 2.1 100 04:58 12.07.2020
44 Clouds 31 1003 74 10000 2.6 90 04:29 12.07.2020
45 Clouds 31 1003 74 10000 2.6 90 03:45 12.07.2020
46 Clouds 30 1003 79 10000 2.6 110 03:24 12.07.2020
47 Clouds 29 1003 83 9000 2.1 90 02:26 12.07.2020
48 Rain 29 1002 83 8000 2.1 80 01:28 12.07.2020
49 Rain 29 1002 79 10000 2.6 100 00:39 12.07.2020
50 Rain 29 1002 79 10000 1.5 70 00:20 12.07.2020
51 Rain 29 1002 79 10000 1 0 23:41 11.07.2020
52 Rain 29 1002 79 10000 1 0 23:21 11.07.2020
53 Rain 30 1002 74 10000 2.1 130 22:57 11.07.2020
54 Rain 30 1002 74 10000 2.6 130 22:38 11.07.2020
55 Rain 30 1002 74 10000 2.6 130 22:20 11.07.2020
56 Rain 30 1003 74 8000 2.6 120 21:44 11.07.2020
57 Clouds 30 1003 74 7000 2.6 120 21:25 11.07.2020
58 Rain 29 1003 79 6000 2.1 100 20:59 11.07.2020
59 Rain 29 1003 79 8000 1.5 60 20:41 11.07.2020
60 Rain 29 1003 79 8000 1.5 60 20:21 11.07.2020
61 Rain 29 1003 79 9000 1.5 70 19:59 11.07.2020
62 Rain 29 1003 79 9000 1 0 19:41 11.07.2020
63 Clouds 29 1003 79 9000 1 0 19:23 11.07.2020
64 Clouds 29 1003 74 10000 1.5 30 18:57 11.07.2020
65 Clouds 31 1003 66 10000 1.5 140 18:39 11.07.2020
66 Clouds 31 1003 66 10000 1.5 140 18:39 11.07.2020
67 Clouds 31 1003 62 10000 2.1 130 18:19 11.07.2020
68 Clouds 31 1003 62 10000 2.1 130 17:55 11.07.2020
69 Clouds 30 1003 66 10000 2.1 120 17:37 11.07.2020
70 Clouds 30 1003 66 10000 2.1 120 17:19 11.07.2020
71 Clouds 30 1002 62 10000 2.1 50 16:43 11.07.2020
72 Clouds 30 1002 62 10000 2.1 50 16:24 11.07.2020
73 Clouds 30 1002 62 10000 1 0 15:58 11.07.2020
74 Clouds 31 1001 55 10000 1 0 15:40 11.07.2020
75 Clouds 31 1001 55 10000 1 0 15:20 11.07.2020
76 Clouds 31 1001 55 10000 1.5 190 14:56 11.07.2020
77 Clouds 31 1001 55 10000 2.1 190 14:36 11.07.2020
78 Clouds 31 1001 55 10000 2.1 190 14:36 11.07.2020
79 Clouds 31 1001 55 10000 2.1 190 14:18 11.07.2020
80 Clouds 32 1001 52 10000 2.6 190 13:42 11.07.2020
81 Rain 32 1001 52 10000 2.6 190 13:21 11.07.2020
82 Rain 32 1001 52 10000 3.1 200 12:55 11.07.2020
83 Rain 32 1001 55 10000 2.6 190 12:37 11.07.2020
84 Rain 32 1001 55 10000 1.5 200 12:18 11.07.2020
85 Rain 32 1002 55 10000 2.6 280 11:41 11.07.2020
86 Rain 32 1002 55 10000 2.6 280 11:21 11.07.2020
87 Clouds 32 1002 55 10000 4.6 270 10:56 11.07.2020
88 Clouds 32 1002 55 10000 5.1 250 10:38 11.07.2020
89 Clouds 32 1002 55 10000 5.1 250 10:19 11.07.2020
90 Clouds 32 1002 55 10000 3.6 280 09:39 11.07.2020
91 Clouds 32 1002 55 10000 3.6 280 09:20 11.07.2020
92 Clouds 32 1002 59 10000 3.6 300 08:46 11.07.2020
93 Clouds 32 1002 55 10000 4.1 290 08:28 11.07.2020
94 Rain 31 1003 66 10000 2.1 310 07:56 11.07.2020
95 Rain 31 1003 66 10000 3.1 330 07:36 11.07.2020
96 Clouds 32 1003 59 10000 3.6 300 07:18 11.07.2020
97 Clouds 33 1003 52 10000 4.1 270 06:27 11.07.2020
98 Clouds 34 1003 49 10000 3.6 280 05:54 11.07.2020
99 Clouds 34 1003 49 10000 3.6 260 05:19 11.07.2020
100 Clouds 33 1003 55 10000 2.6 260 04:50 11.07.2020
101 Clouds 33 1003 55 10000 1.5 260 04:19 11.07.2020
102 Clouds 30 1002 70 8000 2.1 50 02:54 11.07.2020
103 Clouds 30 1002 70 10000 1 30 02:25 11.07.2020
104 Clouds 29 1001 66 10000 1 0 01:24 11.07.2020
105 Clouds 29 1001 70 10000 1 0 00:57 11.07.2020
106 Clouds 30 1001 62 10000 0.5 0 00:37 11.07.2020
107 Clouds 30 1001 62 10000 0.5 0 00:18 11.07.2020
108 Clouds 30 1001 62 10000 1 0 23:45 10.07.2020
109 Clouds 30 1001 62 10000 1 0 23:26 10.07.2020
110 Clouds 31 1000 58 10000 1.5 200 22:56 10.07.2020
111 Clouds 30 1000 62 10000 3.1 170 22:38 10.07.2020
112 Clouds 30 1000 62 10000 3.1 170 22:18 10.07.2020
113 Clouds 31 1000 58 10000 3.1 170 21:39 10.07.2020
114 Clouds 31 1000 58 10000 3.1 170 21:20 10.07.2020
115 Clouds 31 1001 58 10000 3.1 170 20:56 10.07.2020
116 Clouds 31 1001 58 10000 3.1 180 20:37 10.07.2020
117 Clouds 31 1001 58 10000 3.1 180 20:19 10.07.2020
118 Clouds 31 1001 62 10000 3.6 170 19:55 10.07.2020
119 Clouds 32 1001 62 10000 2.1 170 19:36 10.07.2020
120 Clouds 32 1001 59 10000 2.6 190 19:18 10.07.2020
121 Clouds 32 1001 55 10000 2.6 230 18:38 10.07.2020
122 Clouds 32 1001 55 10000 2.6 260 18:19 10.07.2020
123 Clouds 32 1001 55 10000 2.6 260 17:55 10.07.2020
124 Clouds 32 1001 55 10000 2.6 240 17:37 10.07.2020
125 Clouds 32 1001 55 10000 2.6 240 17:18 10.07.2020
126 Clouds 32 1001 59 10000 2.6 250 16:40 10.07.2020
127 Clouds 32 1001 59 10000 2.6 250 16:19 10.07.2020
128 Clouds 33 1000 52 10000 2.6 220 15:44 10.07.2020
129 Clouds 33 1001 52 10000 2.6 230 15:44 10.07.2020
130 Rain 33 1000 52 10000 2.6 220 15:22 10.07.2020
131 Rain 34 1000 46 10000 4.1 250 14:55 10.07.2020
132 Rain 34 1000 49 10000 2.6 230 14:36 10.07.2020
133 Rain 34 1000 49 10000 2.6 230 14:18 10.07.2020
134 Rain 34 999 49 10000 2.6 230 13:55 10.07.2020
135 Rain 35 999 47 10000 3.1 250 13:36 10.07.2020
136 Rain 35 999 47 10000 3.1 250 13:36 10.07.2020
137 Rain 35 999 47 10000 4.1 250 13:18 10.07.2020
138 Rain 36 999 41 10000 4.6 230 12:43 10.07.2020
139 Rain 36 999 41 10000 4.6 230 12:24 10.07.2020
140 Rain 36 999 44 10000 4.1 230 11:58 10.07.2020
141 Rain 36 999 41 10000 4.6 220 11:38 10.07.2020
142 Rain 37 999 39 10000 5.1 230 11:18 10.07.2020
143 Rain 35 1000 47 10000 4.6 220 10:42 10.07.2020
144 Clouds 35 1000 47 10000 4.6 220 10:21 10.07.2020
145 Clouds 35 1000 47 10000 4.6 220 09:59 10.07.2020
146 Clouds 36 1000 44 10000 5.1 230 09:37 10.07.2020
147 Clouds 36 1000 41 10000 5.7 220 09:19 10.07.2020
148 Clouds 36 1000 41 10000 5.7 220 08:55 10.07.2020
149 Clouds 36 1001 44 10000 5.7 250 08:36 10.07.2020
150 Clouds 36 1001 41 10000 5.7 240 08:18 10.07.2020
151 Clouds 36 1001 44 10000 4.6 240 07:41 10.07.2020
152 Clouds 36 1001 44 10000 4.6 250 07:20 10.07.2020
153 Clouds 36 1001 44 10000 5.1 240 06:48 10.07.2020
154 Clouds 36 1001 41 10000 4.6 230 05:55 10.07.2020
155 Clouds 34 1001 49 10000 4.1 200 04:32 10.07.2020
156 Clouds 33 1000 52 10000 3.1 170 03:31 10.07.2020
157 Clouds 32 1000 59 10000 2.6 160 02:49 10.07.2020
158 Clouds 31 1000 66 10000 2.1 160 01:47 10.07.2020
159 Clouds 30 999 74 10000 1.5 140 00:45 10.07.2020
160 Clouds 30 999 74 10000 2.1 150 00:18 10.07.2020
161 Clouds 30 999 74 10000 2.1 150 23:45 09.07.2020
162 Clouds 30 999 74 10000 2.6 130 23:21 09.07.2020
163 Clouds 29 999 79 10000 2.1 110 22:58 09.07.2020
164 Clouds 29 999 79 10000 2.6 90 22:39 09.07.2020
165 Clouds 29 999 79 10000 2.6 90 22:21 09.07.2020
166 Clouds 30 999 74 10000 2.1 90 21:56 09.07.2020
167 Clouds 29 999 79 10000 2.1 90 21:37 09.07.2020
168 Clouds 29 999 79 10000 2.1 90 21:37 09.07.2020
169 Clouds 29 999 79 10000 2.1 90 21:18 09.07.2020
170 Clouds 30 999 74 10000 1.5 140 20:43 09.07.2020
171 Clouds 30 999 74 10000 1.5 140 20:24 09.07.2020
172 Clouds 31 1000 70 10000 1 0 19:56 09.07.2020
173 Clouds 32 1000 66 10000 1.5 0 19:38 09.07.2020
174 Clouds 32 1000 66 10000 1.5 0 19:20 09.07.2020
175 Clouds 32 1000 62 10000 3.1 160 18:42 09.07.2020
176 Clouds 33 1000 59 10000 3.6 160 18:20 09.07.2020
177 Clouds 33 1000 59 10000 3.6 160 17:55 09.07.2020
178 Clouds 33 1000 63 10000 4.6 160 17:37 09.07.2020
179 Clouds 33 1000 63 10000 4.6 160 17:18 09.07.2020
180 Clouds 33 1000 63 10000 3.6 160 16:54 09.07.2020
181 Clouds 33 999 63 10000 2.6 150 16:36 09.07.2020
182 Rain 33 999 63 10000 2.6 150 16:18 09.07.2020
183 Rain 35 999 47 10000 3.1 200 15:45 09.07.2020
184 Rain 35 999 47 10000 3.1 200 15:45 09.07.2020
185 Rain 35 999 47 10000 3.1 200 15:27 09.07.2020
186 Rain 35 999 47 10000 3.1 200 14:59 09.07.2020
187 Rain 36 998 44 10000 2.6 220 14:40 09.07.2020
188 Rain 36 998 44 10000 2.6 220 14:22 09.07.2020
189 Rain 36 998 44 10000 3.1 200 13:58 09.07.2020
190 Rain 37 998 39 10000 2.6 210 13:39 09.07.2020
191 Clouds 37 998 39 10000 2.6 210 13:20 09.07.2020
192 Clouds 37 997 39 10000 4.6 220 12:43 09.07.2020
193 Clouds 37 997 39 10000 4.6 220 12:24 09.07.2020
194 Clouds 37 998 37 10000 4.1 230 11:59 09.07.2020
195 Clouds 37 998 37 10000 5.1 240 11:41 09.07.2020
196 Clouds 37 998 37 10000 5.1 240 11:22 09.07.2020
197 Clouds 38 998 37 10000 4.1 260 10:58 09.07.2020
198 Clouds 37 998 39 10000 5.7 260 10:40 09.07.2020
199 Clouds 37 998 39 10000 5.7 260 10:21 09.07.2020
200 Clouds 37 999 37 10000 6.2 260 09:44 09.07.2020
201 Clouds 38 999 35 10000 6.2 260 09:24 09.07.2020
202 Clouds 38 999 37 10000 6.7 270 08:54 09.07.2020
203 Clouds 38 999 39 10000 5.7 260 08:36 09.07.2020
204 Clouds 37 1000 39 10000 6.7 270 08:18 09.07.2020
205 Clouds 37 1000 42 10000 5.7 270 07:42 09.07.2020
206 Clouds 37 1000 42 10000 5.7 270 07:21 09.07.2020
207 Clouds 35 1001 47 10000 4.6 250 06:21 09.07.2020
208 Clouds 35 1001 47 10000 4.6 250 05:57 09.07.2020
209 Clouds 33 1002 55 10000 3.1 210 04:29 09.07.2020
210 Clouds 31 1002 74 9000 2.1 100 03:24 09.07.2020
211 Clouds 29 1001 83 6000 2.1 60 01:56 09.07.2020
212 Mist 29 1001 79 5000 2.1 80 01:19 09.07.2020
213 Clouds 29 1001 79 8000 2.1 80 00:41 09.07.2020
214 Clouds 29 1001 79 10000 2.1 80 00:22 09.07.2020
215 Clouds 29 1001 79 10000 1.5 60 23:43 08.07.2020
216 Clouds 29 1001 79 10000 1.5 60 23:25 08.07.2020
217 Clouds 30 1001 74 10000 2.6 150 22:56 08.07.2020
218 Clouds 30 1001 74 10000 3.1 140 22:38 08.07.2020
219 Clouds 30 1001 74 10000 3.1 140 22:19 08.07.2020
220 Clouds 30 1001 74 10000 3.6 130 21:56 08.07.2020
221 Clouds 30 1002 74 10000 2.6 100 21:36 08.07.2020
222 Clouds 30 1002 74 10000 2.6 100 21:18 08.07.2020
223 Clouds 30 1002 74 10000 2.1 90 20:41 08.07.2020
224 Clouds 30 1002 74 10000 2.1 90 20:23 08.07.2020
225 Clouds 30 1002 74 10000 3.1 130 19:55 08.07.2020
226 Clouds 31 1002 70 10000 3.6 140 19:37 08.07.2020
227 Clouds 31 1002 70 10000 3.6 140 19:18 08.07.2020
228 Clouds 31 1003 66 10000 4.1 130 18:41 08.07.2020
229 Rain 31 1003 66 10000 4.1 130 18:21 08.07.2020
230 Rain 31 1003 66 10000 4.6 150 17:57 08.07.2020
231 Rain 31 1003 66 10000 5.7 150 17:38 08.07.2020
232 Rain 31 1003 66 10000 5.7 150 17:20 08.07.2020
233 Rain 32 1002 62 10000 5.7 150 16:57 08.07.2020
234 Rain 32 1002 62 10000 5.7 150 16:38 08.07.2020
235 Rain 32 1002 62 10000 5.7 150 16:18 08.07.2020
236 Rain 33 1002 59 10000 5.7 150 15:57 08.07.2020
237 Rain 33 1002 59 10000 6.7 150 15:38 08.07.2020
238 Clouds 33 1002 59 10000 6.7 150 15:19 08.07.2020
239 Clouds 35 1001 53 10000 4.6 150 14:42 08.07.2020
240 Clouds 35 1001 53 10000 4.6 150 14:21 08.07.2020
241 Clouds 35 1001 50 10000 3.6 150 13:46 08.07.2020
242 Clouds 36 1001 47 10000 4.6 150 13:28 08.07.2020
243 Clouds 37 1001 44 10000 3.6 160 12:58 08.07.2020
244 Clouds 37 1001 47 10000 4.1 140 12:40 08.07.2020
245 Clouds 37 1001 44 10000 3.1 170 12:19 08.07.2020
246 Clouds 37 1001 42 10000 3.1 180 11:39 08.07.2020
247 Clouds 37 1001 42 10000 3.1 180 11:21 08.07.2020
248 Clouds 37 1002 47 10000 2.6 200 10:59 08.07.2020
249 Clouds 37 1002 44 10000 2.6 200 10:41 08.07.2020
250 Clouds 37 1002 44 10000 2.6 200 10:22 08.07.2020
251 Clouds 36 1002 47 10000 3.6 180 09:44 08.07.2020
252 Clouds 36 1002 47 10000 2.6 180 09:24 08.07.2020
253 Clouds 37 1003 44 10000 2.6 230 08:44 08.07.2020
254 Clouds 37 1003 44 10000 2.6 230 08:25 08.07.2020
255 Clouds 37 1003 44 10000 2.6 230 08:25 08.07.2020
256 Clouds 37 1003 44 10000 2.1 0 07:48 08.07.2020
257 Clouds 36 1004 47 10000 3.1 190 07:24 08.07.2020
258 Clouds 35 1004 50 10000 2.6 160 06:57 08.07.2020
259 Clouds 35 1004 56 10000 1.5 0 06:37 08.07.2020
260 Clouds 34 1005 59 10000 2.6 140 06:19 08.07.2020
261 Clouds 34 1005 59 10000 1.5 0 05:33 08.07.2020
262 Clouds 32 1005 70 10000 2.6 150 04:38 08.07.2020
263 Clouds 31 1005 74 10000 2.6 140 02:55 08.07.2020
264 Clouds 30 1005 79 10000 3.1 130 01:57 08.07.2020
265 Clouds 29 1005 83 10000 3.1 150 01:37 08.07.2020
266 Clouds 29 1005 79 10000 3.1 130 00:37 08.07.2020
267 Clouds 29 1005 83 10000 3.6 130 00:18 08.07.2020
268 Clouds 29 1005 83 10000 3.6 130 23:41 07.07.2020
269 Clouds 29 1005 83 10000 3.6 130 23:20 07.07.2020
270 Clouds 29 1005 83 10000 3.1 110 22:45 07.07.2020
271 Clouds 29 1005 83 10000 2.1 130 22:24 07.07.2020
272 Clouds 29 1005 83 10000 3.1 120 21:59 07.07.2020
273 Clouds 29 1005 83 10000 3.1 110 21:41 07.07.2020
274 Clouds 29 1005 83 10000 3.1 110 21:21 07.07.2020
275 Rain 30 1006 74 10000 2.1 130 20:57 07.07.2020
276 Clouds 30 1006 79 10000 1.5 150 20:39 07.07.2020
277 Clouds 30 1006 79 10000 1.5 150 20:21 07.07.2020
278 Clouds 30 1007 74 10000 3.1 150 19:42 07.07.2020
279 Clouds 30 1007 74 10000 3.6 140 19:21 07.07.2020
280 Clouds 30 1007 74 10000 3.6 140 18:59 07.07.2020
281 Clouds 31 1007 70 10000 3.6 150 18:40 07.07.2020
282 Clouds 31 1007 70 10000 3.6 150 18:22 07.07.2020
283 Clouds 31 1007 70 10000 3.6 130 17:58 07.07.2020
284 Clouds 31 1006 74 10000 4.1 130 17:39 07.07.2020
285 Clouds 31 1006 74 10000 4.1 130 17:21 07.07.2020
286 Clouds 31 1006 74 10000 4.1 130 16:58 07.07.2020
287 Clouds 31 1006 70 10000 2.6 130 16:38 07.07.2020
288 Clouds 31 1006 70 10000 2.6 130 16:20 07.07.2020
289 Clouds 31 1005 58 10000 5.1 150 15:42 07.07.2020
290 Clouds 31 1005 58 10000 5.1 150 15:21 07.07.2020
291 Clouds 32 1004 70 10000 5.1 140 14:47 07.07.2020
292 Clouds 32 1004 70 10000 5.1 140 14:27 07.07.2020
293 Clouds 33 1003 66 10000 7.2 140 13:59 07.07.2020
294 Clouds 34 1003 63 10000 7.2 130 13:38 07.07.2020
295 Clouds 34 1003 63 10000 7.2 130 13:38 07.07.2020
296 Clouds 34 1003 63 10000 7.2 130 13:18 07.07.2020
297 Clouds 35 1002 56 10000 2.1 280 12:40 07.07.2020
298 Clouds 35 1002 56 10000 2.1 280 12:22 07.07.2020
299 Clouds 36 1003 56 10000 1.5 270 11:50 07.07.2020
300 Clouds 36 1003 56 10000 4.6 120 11:26 07.07.2020
301 Clouds 36 1003 53 10000 4.6 130 10:59 07.07.2020
302 Clouds 36 1003 56 10000 5.1 110 10:41 07.07.2020
303 Clouds 36 1003 56 10000 5.1 110 10:22 07.07.2020
304 Clouds 36 1004 56 10000 4.6 120 09:59 07.07.2020
305 Clouds 35 1004 56 10000 3.6 120 09:38 07.07.2020
306 Clouds 35 1004 56 10000 3.6 120 09:19 07.07.2020
307 Clouds 36 1005 56 10000 2.6 0 08:42 07.07.2020
308 Clouds 36 1005 56 10000 2.6 0 08:23 07.07.2020
309 Clouds 35 1005 59 10000 4.1 150 07:43 07.07.2020
310 Clouds 35 1005 59 10000 4.1 150 07:22 07.07.2020
311 Clouds 34 1006 63 10000 3.6 150 06:49 07.07.2020
312 Clouds 34 1006 63 10000 3.6 150 06:29 07.07.2020
313 Clouds 34 1007 63 10000 3.6 160 05:53 07.07.2020
314 Clouds 33 1007 66 10000 4.1 160 05:22 07.07.2020
315 Clouds 31 1007 74 10000 5.1 150 04:38 07.07.2020
316 Clouds 31 1007 70 10000 4.6 140 03:35 07.07.2020
317 Clouds 30 1006 79 10000 5.7 130 02:21 07.07.2020
318 Clouds 29 1006 83 10000 4.1 120 01:22 07.07.2020
319 Clouds 29 1006 83 10000 4.1 120 00:42 07.07.2020
320 Clouds 29 1006 83 10000 4.1 120 00:24 07.07.2020
321 Clouds 29 1006 83 10000 3.1 110 23:46 06.07.2020
322 Clouds 29 1005 83 10000 3.1 110 23:26 06.07.2020
323 Clouds 29 1005 83 10000 3.6 120 22:59 06.07.2020
324 Clouds 29 1005 83 10000 4.1 120 22:40 06.07.2020
325 Clouds 29 1005 83 10000 4.1 120 22:40 06.07.2020
326 Clouds 29 1005 83 10000 4.1 120 22:19 06.07.2020
327 Clouds 29 1005 79 10000 4.1 120 21:57 06.07.2020
328 Clouds 29 1005 83 10000 3.1 110 21:37 06.07.2020
329 Clouds 29 1005 83 10000 3.1 110 21:19 06.07.2020
330 Clouds 30 1005 74 10000 2.6 130 20:55 06.07.2020
331 Clouds 30 1005 74 10000 2.6 150 20:36 06.07.2020
332 Clouds 30 1005 74 10000 2.6 150 20:18 06.07.2020
333 Clouds 30 1005 74 10000 4.1 140 19:54 06.07.2020
334 Clouds 30 1005 74 10000 4.6 130 19:36 06.07.2020
335 Clouds 28 1006 78 10000 2.6 100 19:18 06.07.2020
336 Clouds 27 1005 78 10000 2.1 60 18:41 06.07.2020
337 Clouds 26 1005 78 10000 1.5 10 18:23 06.07.2020
338 Clouds 26 1005 78 10000 1.5 10 17:58 06.07.2020
339 Clouds 26 1005 78 10000 1 0 17:39 06.07.2020
340 Clouds 26 1005 78 10000 1 0 17:20 06.07.2020
341 Clouds 28 1005 65 10000 7.7 280 16:43 06.07.2020
342 Clouds 28 1005 65 10000 7.7 280 16:24 06.07.2020
343 Clouds 31 1004 70 10000 5.1 140 15:57 06.07.2020
344 Clouds 32 1003 66 10000 5.1 130 15:39 06.07.2020
345 Clouds 32 1003 66 10000 5.1 130 15:20 06.07.2020
346 Clouds 32 1003 66 10000 5.1 130 14:55 06.07.2020
347 Clouds 32 1002 66 10000 5.1 130 14:36 06.07.2020
348 Clouds 32 1002 66 10000 5.1 130 14:18 06.07.2020
349 Clouds 33 1001 63 10000 5.7 120 13:40 06.07.2020
350 Clouds 33 1001 63 10000 5.7 120 13:21 06.07.2020
351 Clouds 34 1001 59 10000 5.7 130 12:44 06.07.2020
352 Clouds 34 1001 59 10000 5.7 130 12:20 06.07.2020
353 Clouds 34 1001 59 10000 6.2 130 11:59 06.07.2020
354 Clouds 34 1001 59 10000 6.2 130 11:40 06.07.2020
355 Clouds 34 1001 59 10000 6.2 130 11:22 06.07.2020
356 Clouds 35 1001 56 10000 5.1 120 10:58 06.07.2020
357 Clouds 35 1001 56 10000 5.1 120 10:58 06.07.2020
358 Clouds 35 1002 56 10000 4.6 110 10:40 06.07.2020
359 Clouds 35 1002 53 10000 5.1 120 10:19 06.07.2020
360 Clouds 35 1002 53 10000 5.1 120 09:46 06.07.2020
361 Clouds 34 1002 56 10000 4.6 130 09:22 06.07.2020
362 Clouds 34 1002 56 10000 4.6 130 09:22 06.07.2020
363 Clouds 35 1003 59 10000 3.1 140 08:59 06.07.2020
364 Clouds 34 1003 59 10000 3.6 130 08:40 06.07.2020
365 Clouds 34 1003 59 10000 3.6 130 08:20 06.07.2020
366 Clouds 34 1004 63 10000 3.1 150 07:47 06.07.2020
367 Clouds 34 1004 63 10000 3.1 150 07:29 06.07.2020
368 Clouds 33 1004 63 10000 4.1 150 06:45 06.07.2020
369 Clouds 33 1004 63 10000 4.1 150 06:27 06.07.2020
370 Clouds 32 1004 66 10000 3.1 160 05:44 06.07.2020
371 Clouds 32 1004 66 10000 3.1 160 05:22 06.07.2020
372 Clouds 31 1004 70 10000 4.6 150 03:52 06.07.2020
373 Clouds 29 1003 79 10000 4.6 140 02:24 06.07.2020
374 Clouds 28 1003 83 10000 3.1 130 01:42 06.07.2020
375 Clouds 29 1002 79 10000 3.1 120 00:39 06.07.2020
376 Clouds 29 1002 79 10000 3.1 120 00:20 06.07.2020
377 Clouds 29 1002 79 10000 3.1 120 23:44 05.07.2020
378 Clouds 29 1002 79 10000 3.1 120 23:26 05.07.2020
379 Clouds 29 1003 79 10000 2.6 120 22:59 05.07.2020
380 Clouds 29 1003 79 10000 3.1 130 22:40 05.07.2020
381 Clouds 29 1003 79 10000 3.1 130 22:20 05.07.2020
382 Clouds 29 1003 79 10000 3.1 130 21:57 05.07.2020
383 Clouds 29 1003 79 10000 2.6 130 21:39 05.07.2020
384 Clouds 29 1003 79 10000 2.6 130 21:18 05.07.2020
385 Clouds 29 1003 79 10000 3.1 120 20:58 05.07.2020
386 Clouds 29 1003 79 10000 2.6 130 20:39 05.07.2020
387 Clouds 29 1003 79 10000 2.6 130 20:20 05.07.2020
388 Clouds 29 1003 79 10000 3.1 130 19:43 05.07.2020
389 Clouds 29 1003 79 10000 3.1 130 19:21 05.07.2020
390 Clouds 29 1003 79 10000 4.6 130 18:58 05.07.2020
391 Clouds 29 1003 79 10000 4.6 130 18:58 05.07.2020
392 Clouds 29 1004 79 10000 3.1 110 18:39 05.07.2020
393 Rain 29 1004 79 10000 3.6 110 18:20 05.07.2020
394 Rain 29 1004 79 10000 3.6 110 17:54 05.07.2020
395 Clouds 30 1003 74 10000 3.6 120 17:36 05.07.2020
396 Clouds 30 1003 74 10000 3.6 120 17:18 05.07.2020
397 Clouds 30 1003 74 10000 4.6 110 16:41 05.07.2020
398 Clouds 30 1003 74 10000 4.6 110 16:23 05.07.2020
399 Clouds 30 1002 74 10000 3.1 120 15:41 05.07.2020
400 Rain 30 1002 74 10000 3.1 120 15:20 05.07.2020
401 Rain 30 1002 74 10000 3.6 130 14:59 05.07.2020
402 Rain 31 1002 70 10000 4.1 130 14:40 05.07.2020
403 Rain 31 1002 70 10000 4.1 130 14:20 05.07.2020
404 Rain 31 1002 70 10000 4.1 130 14:20 05.07.2020
405 Rain 31 1001 66 10000 5.7 130 13:41 05.07.2020
406 Clouds 31 1001 66 10000 5.7 130 13:23 05.07.2020
407 Clouds 32 1001 66 10000 7.2 140 12:46 05.07.2020
408 Clouds 32 1001 66 10000 7.2 140 12:26 05.07.2020
409 Clouds 34 1001 59 10000 4.6 110 11:58 05.07.2020
410 Clouds 34 1001 56 10000 3.1 110 11:39 05.07.2020
411 Clouds 34 1001 56 10000 3.1 110 11:21 05.07.2020
412 Clouds 33 1001 59 10000 4.1 130 10:57 05.07.2020
413 Clouds 33 1001 63 10000 4.1 150 10:38 05.07.2020
414 Clouds 33 1001 63 10000 4.1 150 10:19 05.07.2020
415 Clouds 34 1002 59 10000 4.1 150 09:42 05.07.2020
416 Clouds 34 1002 59 10000 4.1 150 09:21 05.07.2020
417 Clouds 34 1003 59 10000 3.6 130 08:58 05.07.2020
418 Clouds 34 1003 59 10000 4.1 120 08:38 05.07.2020
419 Clouds 34 1003 59 10000 4.1 120 08:38 05.07.2020
420 Clouds 34 1003 59 10000 4.1 120 08:38 05.07.2020
421 Clouds 34 1003 59 10000 4.1 120 08:19 05.07.2020
422 Clouds 33 1004 63 10000 2.6 140 07:43 05.07.2020
423 Clouds 34 1004 59 10000 2.6 150 07:22 05.07.2020
424 Clouds 32 1004 66 10000 2.6 130 06:47 05.07.2020
425 Clouds 32 1005 66 10000 4.6 120 04:37 05.07.2020
426 Clouds 30 1005 79 10000 4.1 110 03:19 05.07.2020
427 Clouds 29 1005 83 10000 3.6 90 02:41 05.07.2020
428 Clouds 29 1005 83 10000 3.6 90 02:41 05.07.2020
429 Clouds 29 1005 83 8000 2.6 80 01:59 05.07.2020
430 Clouds 28 1005 88 8000 2.1 90 01:28 05.07.2020
431 Rain 28 1005 83 10000 2.1 60 00:53 05.07.2020
432 Clouds 28 1005 83 10000 3.1 90 00:31 05.07.2020
433 Clouds 28 1004 83 9000 3.1 80 23:57 04.07.2020
434 Clouds 28 1004 83 10000 1.5 80 23:39 04.07.2020
435 Clouds 28 1004 83 10000 1.5 80 23:20 04.07.2020
436 Clouds 28 1005 83 10000 2.1 80 22:42 04.07.2020
437 Clouds 28 1005 83 10000 2.1 80 22:24 04.07.2020
438 Clouds 28 1005 83 8000 2.6 100 21:58 04.07.2020
439 Clouds 28 1005 83 8000 3.1 100 21:40 04.07.2020
440 Clouds 28 1005 83 8000 3.1 100 21:22 04.07.2020
441 Clouds 29 1006 79 10000 2.6 130 20:43 04.07.2020
442 Clouds 29 1006 79 10000 2.6 130 20:22 04.07.2020
443 Clouds 29 1006 79 10000 2.6 130 20:22 04.07.2020
444 Clouds 28 1005 83 10000 2.1 120 19:58 04.07.2020
445 Clouds 28 1006 83 10000 2.6 110 19:39 04.07.2020
446 Clouds 29 1006 79 10000 3.1 130 19:21 04.07.2020
447 Clouds 29 1006 79 10000 3.1 130 19:21 04.07.2020
448 Clouds 29 1006 79 10000 3.1 100 18:46 04.07.2020
449 Clouds 29 1007 79 10000 2.6 100 18:23 04.07.2020
450 Clouds 29 1007 79 10000 2.6 100 17:55 04.07.2020
451 Clouds 28 1006 88 10000 2.1 80 17:37 04.07.2020
452 Clouds 28 1006 88 10000 2.1 80 17:18 04.07.2020
453 Clouds 28 1006 88 10000 2.1 80 16:55 04.07.2020
454 Clouds 28 1005 83 10000 1.5 80 16:36 04.07.2020
455 Clouds 28 1005 83 10000 1.5 80 16:18 04.07.2020
456 Clouds 28 1005 83 10000 4.1 130 15:41 04.07.2020
457 Clouds 28 1005 83 10000 4.1 130 15:21 04.07.2020
458 Clouds 28 1005 78 10000 4.6 140 14:57 04.07.2020
459 Clouds 28 1004 78 10000 7.7 130 14:37 04.07.2020
460 Clouds 30 1003 74 10000 3.1 70 14:18 04.07.2020
461 Clouds 30 1003 74 10000 4.1 60 13:41 04.07.2020
462 Clouds 30 1003 74 10000 4.1 60 13:19 04.07.2020
463 Clouds 31 1003 74 10000 3.1 60 12:55 04.07.2020
464 Clouds 31 1003 74 10000 2.6 70 12:37 04.07.2020
465 Clouds 31 1003 74 10000 2.6 70 12:18 04.07.2020
466 Clouds 30 1003 79 10000 2.6 70 11:42 04.07.2020
467 Clouds 30 1003 79 10000 2.6 70 11:22 04.07.2020
468 Clouds 31 1003 70 10000 2.1 70 10:55 04.07.2020
469 Clouds 31 1003 70 10000 2.1 30 10:36 04.07.2020
470 Clouds 31 1003 70 10000 2.1 30 10:18 04.07.2020
471 Clouds 31 1004 70 10000 2.1 80 09:40 04.07.2020
472 Clouds 31 1004 70 10000 2.1 80 09:21 04.07.2020
473 Clouds 30 1005 74 10000 2.1 70 08:57 04.07.2020
474 Clouds 30 1005 74 10000 2.6 90 08:39 04.07.2020
475 Clouds 30 1005 74 10000 2.6 90 08:19 04.07.2020
476 Clouds 30 1006 79 10000 3.1 110 07:39 04.07.2020
477 Thunderstorm 29 1007 79 7000 3.1 120 06:59 04.07.2020
478 Thunderstorm 31 1007 70 10000 3.6 80 06:37 04.07.2020
479 Thunderstorm 31 1007 70 10000 4.1 60 06:18 04.07.2020
480 Thunderstorm 29 1007 79 10000 3.1 40 05:24 04.07.2020
481 Clouds 28 1007 83 10000 3.1 80 03:49 04.07.2020
482 Clouds 26 1007 88 10000 2.6 60 02:40 04.07.2020
483 Thunderstorm 26 1006 88 10000 2.6 90 01:39 04.07.2020
484 Thunderstorm 27 1006 88 2300 2.6 90 00:47 04.07.2020
485 Thunderstorm 27 1006 88 2300 2.6 90 00:29 04.07.2020
486 Rain 27 1005 88 10000 2.1 10 23:54 03.07.2020
487 Thunderstorm 26 1005 94 10000 1.7 100 23:36 03.07.2020
488 Thunderstorm 26 1005 94 10000 1.7 100 23:36 03.07.2020
489 Thunderstorm 26 1005 94 10000 1.7 100 23:36 03.07.2020
490 Thunderstorm 26 1005 94 10000 1.85 112 23:18 03.07.2020
491 Rain 26 1005 88 2500 4.1 170 22:41 03.07.2020
492 Rain 26 1005 88 2500 4.1 170 22:41 03.07.2020
493 Rain 26 1005 88 2500 4.1 170 22:23 03.07.2020
494 Clouds 28 1005 83 10000 1.5 70 21:56 03.07.2020
495 Clouds 28 1005 83 10000 1.5 60 21:37 03.07.2020
496 Clouds 28 1005 83 10000 1.5 60 21:18 03.07.2020
497 Clouds 28 1006 83 9000 2.6 100 20:42 03.07.2020
498 Clouds 28 1006 83 9000 2.6 100 20:24 03.07.2020
499 Clouds 28 1006 83 10000 3.1 110 19:42 03.07.2020
500 Clouds 28 1006 83 10000 3.1 110 19:22 03.07.2020
501 Clouds 28 1006 83 10000 3.1 110 18:59 03.07.2020
502 Clouds 29 1007 79 10000 3.6 110 18:41 03.07.2020
503 Clouds 29 1007 79 10000 3.1 120 18:22 03.07.2020
504 Clouds 30 1007 70 10000 3.6 130 17:46 03.07.2020
505 Clouds 30 1007 70 10000 3.6 130 17:23 03.07.2020
506 Clouds 29 1006 79 10000 3.6 120 16:59 03.07.2020
507 Clouds 30 1006 74 10000 3.6 120 16:39 03.07.2020
508 Clouds 30 1006 74 10000 3.6 120 16:19 03.07.2020
509 Clouds 30 1005 74 10000 4.1 120 15:39 03.07.2020
510 Clouds 30 1005 74 10000 4.1 120 15:20 03.07.2020
511 Clouds 30 1004 70 10000 5.1 130 14:55 03.07.2020
512 Clouds 31 1004 66 10000 4.1 130 14:36 03.07.2020
513 Clouds 31 1004 66 10000 4.1 130 14:36 03.07.2020
514 Clouds 31 1004 66 10000 4.1 130 14:18 03.07.2020
515 Clouds 31 1003 66 10000 4.1 130 13:41 03.07.2020
516 Clouds 31 1003 66 10000 4.1 130 13:22 03.07.2020
517 Clouds 30 1002 79 10000 1 0 12:43 03.07.2020
518 Clouds 30 1002 79 10000 1 0 12:22 03.07.2020
519 Rain 28 1002 83 8000 2.6 0 11:54 03.07.2020
520 Clouds 31 1002 66 10000 2.6 350 11:36 03.07.2020
521 Clouds 31 1002 66 10000 2.6 350 11:18 03.07.2020
522 Clouds 30 1003 66 10000 5.1 210 10:42 03.07.2020
523 Clouds 30 1003 66 10000 5.1 210 10:21 03.07.2020
524 Clouds 30 1003 66 10000 5.1 210 10:21 03.07.2020
525 Clouds 32 1003 62 10000 5.7 120 09:58 03.07.2020
526 Clouds 33 1003 63 10000 5.7 100 09:39 03.07.2020
527 Clouds 33 1003 63 10000 5.7 100 09:19 03.07.2020
528 Clouds 34 1003 59 10000 3.1 100 08:56 03.07.2020
529 Clouds 33 1004 63 10000 3.6 110 08:37 03.07.2020
530 Clouds 33 1004 63 10000 3.6 110 08:37 03.07.2020
531 Clouds 33 1004 63 10000 3.6 110 08:18 03.07.2020
532 Clouds 32 1005 62 10000 4.6 100 07:41 03.07.2020
533 Clouds 32 1005 62 10000 4.6 100 07:21 03.07.2020
534 Clouds 32 1006 66 10000 4.6 110 06:25 03.07.2020
535 Clouds 31 1005 74 10000 3.1 80 05:28 03.07.2020
536 Clouds 30 1005 74 10000 3.1 90 03:54 03.07.2020
537 Clouds 29 1005 79 10000 3.1 80 02:50 03.07.2020
538 Clouds 28 1004 83 10000 2.6 60 02:30 03.07.2020
539 Rain 28 1004 88 5000 2.6 80 01:30 03.07.2020
540 Mist 28 1003 88 5000 2.1 90 00:58 03.07.2020
541 Clouds 28 1003 88 7000 2.1 80 00:40 03.07.2020
542 Mist 28 1003 88 5000 1.5 90 23:53 02.07.2020
543 Mist 28 1003 88 5000 1.5 90 23:53 02.07.2020
544 Clouds 28 1003 88 6000 2.1 90 23:21 02.07.2020
545 Clouds 28 1003 88 7000 2.6 80 22:59 02.07.2020
546 Mist 28 1003 88 5000 2.6 100 22:41 02.07.2020
547 Mist 28 1003 88 5000 2.6 100 22:21 02.07.2020
548 Mist 28 1003 88 4700 2.1 80 21:57 02.07.2020
549 Mist 28 1003 88 4500 2.1 90 21:39 02.07.2020
550 Mist 28 1003 88 4500 2.1 90 21:19 02.07.2020
551 Mist 28 1003 88 5000 2.6 100 20:57 02.07.2020
552 Clouds 28 1003 88 6000 2.6 110 20:39 02.07.2020
553 Clouds 28 1003 88 6000 2.6 110 20:39 02.07.2020
554 Clouds 28 1003 88 6000 2.6 110 20:18 02.07.2020
555 Clouds 29 1004 83 7000 3.1 120 19:42 02.07.2020
556 Clouds 28 1004 88 8000 2.6 90 19:23 02.07.2020
557 Clouds 28 1004 88 8000 2.6 90 19:23 02.07.2020
558 Clouds 28 1004 88 8000 2.6 90 18:58 02.07.2020
559 Clouds 28 1003 88 10000 3.1 110 18:40 02.07.2020
560 Clouds 28 1003 88 10000 3.1 110 18:21 02.07.2020
561 Clouds 28 1003 83 10000 2.1 100 17:54 02.07.2020
562 Rain 27 1003 88 7000 4.6 120 17:36 02.07.2020
563 Rain 27 1003 88 7000 4.6 120 17:36 02.07.2020
564 Rain 27 1003 88 7000 4.6 120 17:18 02.07.2020
565 Clouds 30 1002 79 10000 3.6 100 16:40 02.07.2020
566 Clouds 30 1002 79 10000 3.6 100 16:20 02.07.2020
567 Clouds 30 1002 79 10000 3.1 100 15:55 02.07.2020
568 Clouds 31 1002 70 10000 4.1 120 15:36 02.07.2020
569 Clouds 31 1002 70 10000 4.1 120 15:18 02.07.2020
570 Clouds 32 1001 66 10000 5.1 120 14:43 02.07.2020
571 Clouds 32 1001 66 10000 5.1 120 14:21 02.07.2020
572 Clouds 32 1001 66 10000 5.1 120 13:56 02.07.2020
573 Rain 32 1000 66 10000 4.1 130 13:37 02.07.2020
574 Clouds 32 1000 62 10000 5.1 130 13:18 02.07.2020
575 Clouds 32 1000 66 10000 2.6 50 12:41 02.07.2020
576 Clouds 31 999 74 10000 2.6 60 12:22 02.07.2020
577 Clouds 31 999 70 10000 2.6 70 11:46 02.07.2020
578 Clouds 31 999 70 10000 2.6 70 11:27 02.07.2020
579 Clouds 31 999 70 10000 3.6 80 10:59 02.07.2020
580 Clouds 31 1000 74 10000 3.6 70 10:41 02.07.2020
581 Clouds 31 1000 74 10000 3.6 70 10:23 02.07.2020
582 Clouds 31 1000 74 10000 4.6 60 09:44 02.07.2020
583 Clouds 31 1000 74 10000 4.6 60 09:22 02.07.2020
584 Clouds 33 1000 59 10000 1.5 70 08:58 02.07.2020
585 Clouds 34 1001 59 10000 2.6 50 08:40 02.07.2020
586 Clouds 33 1001 63 10000 1 0 08:19 02.07.2020
587 Clouds 33 1002 63 10000 2.1 110 07:42 02.07.2020
588 Clouds 33 1002 63 10000 2.1 110 07:21 02.07.2020
589 Clouds 32 1002 66 10000 1.5 150 06:45 02.07.2020
590 Clouds 32 1002 66 10000 1.5 150 06:26 02.07.2020
591 Clouds 32 1002 66 10000 2.1 150 05:48 02.07.2020
592 Clouds 32 1002 66 10000 3.1 120 04:50 02.07.2020
593 Clouds 30 1002 74 8000 3.1 80 03:34 02.07.2020
594 Mist 27 1001 83 4900 2.6 70 01:50 02.07.2020
595 Clouds 26 1001 88 6000 2.1 70 00:28 02.07.2020
596 Clouds 27 1001 83 6000 1.5 60 23:57 01.07.2020
597 Clouds 27 1000 83 7000 2.1 50 23:39 01.07.2020
598 Clouds 27 1000 83 7000 2.1 50 23:21 01.07.2020
599 Clouds 27 1000 83 6000 2.1 60 22:55 01.07.2020
600 Clouds 27 1000 83 6000 2.6 60 22:36 01.07.2020
601 Clouds 27 1000 83 6000 2.6 60 22:18 01.07.2020
602 Mist 27 1001 83 4800 2.1 60 21:55 01.07.2020
603 Rain 26 1001 88 9000 2.1 80 21:37 01.07.2020
604 Rain 26 1001 88 9000 2.1 80 21:19 01.07.2020
605 Clouds 26 1001 88 10000 1.5 80 20:44 01.07.2020
606 Clouds 27 1001 83 9000 2.1 60 20:25 01.07.2020
607 Clouds 27 1001 83 9000 1.5 70 19:56 01.07.2020
608 Clouds 27 1002 83 10000 1.5 90 19:38 01.07.2020
609 Clouds 27 1002 83 10000 1.5 90 19:20 01.07.2020
610 Clouds 27 1002 83 10000 2.1 80 18:54 01.07.2020
611 Clouds 27 1002 78 10000 2.6 120 18:36 01.07.2020
612 Clouds 27 1002 78 10000 1 0 18:18 01.07.2020
613 Clouds 28 1003 74 10000 2.6 130 17:41 01.07.2020
614 Clouds 28 1003 74 10000 2.6 130 17:19 01.07.2020
615 Clouds 27 1002 83 10000 1.5 80 16:48 01.07.2020
616 Clouds 28 1002 74 10000 1.5 130 16:29 01.07.2020
617 Clouds 29 1001 70 10000 2.6 170 15:57 01.07.2020
618 Clouds 29 1001 66 10000 1.5 150 15:39 01.07.2020
619 Rain 29 1001 66 10000 1.5 150 15:20 01.07.2020
620 Clouds 30 1001 62 10000 3.1 150 14:44 01.07.2020
621 Clouds 29 1000 74 10000 3.1 120 14:22 01.07.2020
622 Clouds 29 1000 74 10000 3.1 120 13:59 01.07.2020
623 Clouds 28 1000 78 10000 3.1 90 13:39 01.07.2020
624 Clouds 29 999 70 10000 3.1 60 13:20 01.07.2020
625 Clouds 29 999 70 10000 3.1 60 12:57 01.07.2020
626 Clouds 29 999 74 10000 3.1 50 12:38 01.07.2020
627 Clouds 30 999 70 10000 2.6 60 12:20 01.07.2020
628 Clouds 29 999 79 10000 3.1 40 11:42 01.07.2020
629 Clouds 29 999 79 10000 3.1 40 11:23 01.07.2020
630 Clouds 29 999 79 10000 2.6 70 10:58 01.07.2020
631 Clouds 29 999 79 10000 3.6 70 10:40 01.07.2020
632 Clouds 29 999 79 10000 3.6 70 10:21 01.07.2020
633 Clouds 28 1000 83 10000 2.6 70 09:54 01.07.2020
634 Clouds 28 1000 83 10000 2.6 70 09:36 01.07.2020
635 Clouds 28 1000 83 10000 2.6 70 09:18 01.07.2020
636 Clouds 28 1000 78 10000 3.6 50 08:40 01.07.2020
637 Clouds 28 1000 78 10000 3.6 50 08:21 01.07.2020
638 Clouds 28 1001 83 10000 4.1 40 07:45 01.07.2020
639 Clouds 28 1001 83 10000 4.1 40 07:27 01.07.2020
640 Thunderstorm 29 1001 79 10000 3.6 40 06:59 01.07.2020
641 Rain 28 1002 83 2200 2.1 10 06:41 01.07.2020
642 Rain 28 1002 83 2200 2.1 10 06:21 01.07.2020
643 Clouds 32 1002 70 10000 3.6 80 04:30 01.07.2020
644 Clouds 31 1003 74 10000 2.6 80 03:44 01.07.2020
645 Clouds 31 1002 74 10000 2.6 70 03:26 01.07.2020
646 Clouds 30 1002 79 10000 3.1 90 02:33 01.07.2020
647 Clouds 29 1001 79 8000 2.6 90 01:25 01.07.2020
648 Clouds 28 1001 83 10000 3.1 90 00:38 01.07.2020
649 Clouds 28 1001 83 10000 3.1 90 00:20 01.07.2020
650 Clouds 28 1001 78 9000 2.1 80 23:40 30.06.2020
651 Clouds 28 1001 78 9000 2.1 80 23:40 30.06.2020
652 Clouds 28 1001 78 9000 2.1 80 23:20 30.06.2020
653 Clouds 29 1001 70 7000 2.1 60 22:42 30.06.2020
654 Clouds 29 1001 70 7000 2.1 60 22:19 30.06.2020
655 Clouds 28 1001 78 7000 2.1 80 21:55 30.06.2020
656 Clouds 29 1002 70 10000 2.1 80 21:37 30.06.2020
657 Clouds 29 1002 70 10000 2.1 80 21:18 30.06.2020
658 Clouds 30 1002 66 10000 2.6 140 20:42 30.06.2020
659 Clouds 30 1002 66 10000 2.6 140 20:42 30.06.2020
660 Clouds 30 1002 66 10000 2.6 140 20:21 30.06.2020
661 Clouds 30 1003 70 10000 2.6 160 19:44 30.06.2020
662 Clouds 30 1003 70 10000 2.6 160 19:21 30.06.2020
663 Clouds 31 1003 66 10000 2.6 140 18:58 30.06.2020
664 Clouds 30 1003 70 10000 2.1 170 18:40 30.06.2020
665 Clouds 30 1003 70 10000 2.1 170 18:20 30.06.2020
666 Clouds 31 1003 66 10000 3.1 130 17:39 30.06.2020
667 Clouds 31 1003 66 10000 3.1 130 17:20 30.06.2020
668 Clouds 31 1003 62 10000 3.1 160 16:57 30.06.2020
669 Clouds 31 1002 70 10000 4.6 150 16:38 30.06.2020
670 Clouds 31 1002 70 10000 4.6 150 16:19 30.06.2020
671 Clouds 32 1002 66 10000 6.2 140 15:54 30.06.2020
672 Clouds 32 1001 66 10000 5.1 130 15:36 30.06.2020
673 Clouds 32 1000 66 10000 7.7 130 15:18 30.06.2020
674 Clouds 33 1000 63 10000 7.2 130 14:42 30.06.2020
675 Clouds 33 1000 63 10000 7.2 130 14:21 30.06.2020
676 Clouds 34 999 63 10000 6.7 120 13:42 30.06.2020
677 Clouds 34 999 63 10000 6.7 120 13:21 30.06.2020
678 Clouds 35 999 53 10000 2.6 70 13:21 30.06.2020
679 Clouds 35 999 53 10000 2.6 70 12:59 30.06.2020
680 Clouds 36 999 50 10000 2.6 70 12:41 30.06.2020
681 Clouds 36 999 50 10000 2.6 70 12:23 30.06.2020
682 Clouds 36 999 50 10000 2.6 70 11:59 30.06.2020
683 Clouds 36 999 50 10000 1.5 50 11:39 30.06.2020
684 Clouds 36 999 50 10000 1.5 50 11:20 30.06.2020
685 Clouds 36 999 50 10000 1.5 50 11:20 30.06.2020
686 Clouds 36 999 50 10000 1.5 90 10:59 30.06.2020
687 Clouds 31 1004 70 10000 3.6 150 16:45 28.06.2020
688 Clear 31 1003 70 10000 6.7 140 16:26 28.06.2020
689 Clear 32 1003 66 10000 5.1 130 15:58 28.06.2020
690 Clear 32 1002 66 10000 5.1 130 15:39 28.06.2020
691 Clear 32 1002 66 10000 5.1 130 15:19 28.06.2020
692 Clear 33 1001 59 10000 6.2 130 14:47 28.06.2020
693 Clear 33 1001 59 10000 6.2 130 14:47 28.06.2020
694 Clouds 33 1001 59 10000 6.2 130 14:28 28.06.2020
695 Clouds 34 1001 56 10000 7.2 130 13:59 28.06.2020
696 Clouds 34 1000 56 10000 6.7 130 13:38 28.06.2020
697 Clouds 34 1000 56 10000 6.7 130 13:38 28.06.2020
698 Clouds 35 1000 53 10000 6.7 130 13:20 28.06.2020
699 Clouds 35 1000 53 10000 6.7 130 13:20 28.06.2020
700 Clouds 35 1000 53 10000 6.7 130 12:56 28.06.2020
701 Clouds 35 1000 56 10000 6.2 130 12:37 28.06.2020
702 Clouds 35 1000 53 10000 7.2 130 12:19 28.06.2020
703 Clouds 35 1000 53 10000 7.2 130 11:56 28.06.2020
704 Clouds 36 1000 50 10000 4.6 140 11:37 28.06.2020
705 Clouds 36 1000 50 10000 4.6 140 11:19 28.06.2020
706 Clouds 37 1001 42 10000 4.1 140 10:42 28.06.2020
707 Clouds 37 1001 42 10000 4.1 140 10:42 28.06.2020
708 Clouds 37 1001 42 10000 4.1 140 10:23 28.06.2020
709 Clouds 38 1001 39 10000 2.6 190 09:59 28.06.2020
710 Clouds 37 1002 42 10000 3.6 190 09:39 28.06.2020
711 Clouds 37 1002 42 10000 3.6 190 09:20 28.06.2020
712 Clouds 37 1002 39 10000 2.1 0 08:46 28.06.2020
713 Clouds 37 1002 44 10000 2.6 140 08:25 28.06.2020
714 Clouds 36 1003 47 10000 3.1 150 07:46 28.06.2020
715 Clouds 36 1003 47 10000 3.1 150 07:28 28.06.2020
716 Clouds 35 1004 50 10000 3.6 150 06:34 28.06.2020
717 Clouds 35 1004 53 10000 3.6 150 05:57 28.06.2020
718 Clouds 34 1004 59 10000 3.6 130 05:26 28.06.2020
719 Clouds 31 1005 70 10000 4.1 140 03:23 28.06.2020
720 Clouds 30 1005 74 10000 4.1 140 02:36 28.06.2020
721 Clouds 29 1005 79 10000 3.6 150 01:48 28.06.2020
722 Clouds 29 1005 79 10000 4.1 140 01:25 28.06.2020
723 Clouds 29 1004 79 10000 4.6 140 00:43 28.06.2020
724 Clouds 29 1004 74 10000 4.6 140 00:22 28.06.2020
725 Clouds 29 1004 74 10000 4.6 140 23:40 27.06.2020
726 Clouds 29 1004 74 10000 4.6 140 23:22 27.06.2020
727 Clouds 29 1004 74 10000 4.6 140 22:56 27.06.2020
728 Clouds 29 1004 74 10000 3.6 140 22:38 27.06.2020
729 Clouds 29 1004 74 10000 3.6 140 22:19 27.06.2020
730 Rain 30 1004 70 10000 4.6 130 21:42 27.06.2020
731 Clouds 30 1004 70 10000 4.6 130 21:20 27.06.2020
732 Clouds 30 1004 70 10000 4.1 130 20:56 27.06.2020
733 Clouds 30 1004 74 10000 3.1 130 20:37 27.06.2020
734 Clouds 30 1004 74 10000 3.1 130 20:18 27.06.2020
735 Clouds 30 1004 74 10000 4.1 130 19:39 27.06.2020
736 Clouds 30 1004 74 10000 4.1 130 19:20 27.06.2020
737 Clouds 31 1005 70 10000 5.1 140 18:59 27.06.2020
738 Clouds 31 1005 66 10000 5.1 140 18:40 27.06.2020
739 Clouds 31 1005 66 10000 5.7 140 18:20 27.06.2020
740 Clouds 31 1005 66 10000 5.7 130 17:41 27.06.2020
741 Clouds 31 1005 66 10000 5.7 130 17:21 27.06.2020
742 Clouds 31 1004 66 10000 4.6 130 16:57 27.06.2020
743 Clouds 31 1003 66 10000 5.1 130 16:39 27.06.2020
744 Clear 31 1003 66 10000 5.1 130 16:20 27.06.2020
745 Clear 32 1003 62 10000 6.2 120 15:45 27.06.2020
746 Clear 32 1002 59 10000 6.2 130 15:24 27.06.2020
747 Clear 33 1002 55 10000 7.2 130 14:58 27.06.2020
748 Clear 33 1001 55 10000 7.7 130 14:39 27.06.2020
749 Clouds 33 1001 55 10000 7.7 130 14:20 27.06.2020
750 Clouds 34 1001 52 10000 6.7 130 13:54 27.06.2020
751 Clouds 35 1001 53 10000 7.2 120 13:36 27.06.2020
752 Clouds 35 1000 53 10000 7.2 130 13:18 27.06.2020
753 Clouds 36 1000 47 10000 6.2 120 12:41 27.06.2020
754 Clouds 36 1000 47 10000 6.2 120 12:22 27.06.2020
755 Clouds 37 1000 44 10000 6.2 120 11:59 27.06.2020
756 Clouds 37 1000 47 10000 5.1 120 11:38 27.06.2020
757 Clouds 37 1000 47 10000 5.1 120 11:19 27.06.2020
758 Clouds 37 1002 42 10000 4.1 150 10:41 27.06.2020
759 Clouds 37 1002 42 10000 4.1 150 10:19 27.06.2020
760 Clouds 37 1002 42 10000 4.1 150 09:57 27.06.2020
761 Clouds 38 1002 42 10000 3.6 120 09:38 27.06.2020
762 Clouds 38 1002 42 10000 3.6 120 09:20 27.06.2020
763 Clouds 37 1003 42 10000 5.1 140 08:42 27.06.2020
764 Clouds 37 1003 42 10000 5.1 140 08:22 27.06.2020
765 Clouds 36 1003 44 10000 4.6 190 07:47 27.06.2020
766 Clouds 36 1003 44 10000 3.6 160 07:25 27.06.2020
767 Clouds 36 1004 47 10000 2.6 0 06:51 27.06.2020
768 Clouds 36 1004 47 10000 2.6 0 06:33 27.06.2020
769 Clouds 32 1004 66 10000 4.6 160 04:24 27.06.2020
770 Clouds 32 1004 62 10000 4.6 160 03:59 27.06.2020
771 Clouds 31 1004 66 10000 5.1 160 03:41 27.06.2020
772 Clouds 30 1004 70 10000 3.6 140 02:39 27.06.2020
773 Clouds 30 1004 70 10000 3.6 140 02:20 27.06.2020
774 Clouds 29 1004 74 10000 3.6 120 01:24 27.06.2020
775 Clouds 29 1003 74 10000 4.1 130 00:41 27.06.2020
776 Clouds 29 1003 74 10000 5.1 130 23:47 26.06.2020
777 Clouds 29 1003 74 10000 4.6 130 23:27 26.06.2020
778 Clouds 29 1003 74 10000 5.7 140 22:57 26.06.2020
779 Clouds 29 1003 74 10000 5.1 130 22:39 26.06.2020
780 Clouds 29 1003 74 10000 5.1 130 22:20 26.06.2020
781 Clouds 30 1003 70 10000 4.1 140 21:57 26.06.2020
782 Clouds 30 1003 70 10000 4.6 130 21:38 26.06.2020
783 Rain 30 1003 70 10000 4.6 130 21:20 26.06.2020
784 Rain 30 1003 70 10000 5.7 140 20:43 26.06.2020
785 Rain 30 1003 70 10000 5.7 140 20:23 26.06.2020
786 Rain 30 1003 70 10000 5.1 140 19:47 26.06.2020
787 Rain 30 1003 70 10000 5.1 140 19:47 26.06.2020
788 Rain 30 1003 70 10000 3.1 140 19:24 26.06.2020
789 Rain 30 1003 70 10000 3.1 140 18:58 26.06.2020
790 Rain 30 1003 70 10000 3.1 140 18:58 26.06.2020
791 Rain 30 1003 70 10000 4.6 150 18:38 26.06.2020
792 Clouds 30 1003 70 10000 4.6 150 18:19 26.06.2020
793 Clouds 31 1003 66 10000 6.2 150 17:44 26.06.2020
794 Clouds 31 1003 66 10000 6.2 150 17:25 26.06.2020
795 Clouds 31 1003 62 10000 6.7 150 16:49 26.06.2020
796 Clouds 32 1002 59 10000 7.2 150 16:28 26.06.2020
797 Clouds 32 1002 55 10000 6.7 140 15:55 26.06.2020
798 Clouds 33 1002 52 10000 6.7 140 15:37 26.06.2020
799 Clouds 33 1002 52 10000 6.7 140 15:19 26.06.2020
800 Clouds 33 1001 52 10000 7.7 150 14:57 26.06.2020
801 Clouds 33 1001 52 10000 7.2 150 14:38 26.06.2020
802 Clouds 33 1001 52 10000 7.2 150 14:19 26.06.2020
803 Clouds 35 1001 50 10000 7.7 150 13:44 26.06.2020
804 Clouds 35 1001 50 10000 7.7 150 13:22 26.06.2020
805 Clouds 35 1000 53 10000 6.7 140 12:43 26.06.2020
806 Clouds 35 1000 53 10000 6.7 140 12:24 26.06.2020
807 Clouds 38 1000 39 10000 4.6 190 11:59 26.06.2020
808 Clouds 38 1000 37 10000 3.6 200 11:41 26.06.2020
809 Clouds 38 1000 37 10000 3.6 200 11:22 26.06.2020
810 Clouds 38 1000 37 10000 4.1 190 10:58 26.06.2020
811 Clouds 38 1000 37 10000 4.1 190 10:58 26.06.2020
812 Clouds 38 1000 37 10000 3.6 190 10:39 26.06.2020
813 Clouds 38 1000 37 10000 3.6 190 10:19 26.06.2020
814 Clouds 38 1000 37 10000 3.6 190 09:45 26.06.2020
815 Clouds 38 1000 39 10000 3.1 170 09:26 26.06.2020
816 Clouds 38 1001 37 10000 3.1 200 08:57 26.06.2020
817 Clouds 37 1001 39 10000 4.1 180 08:37 26.06.2020
818 Clouds 37 1001 39 10000 4.1 180 08:19 26.06.2020
819 Clouds 37 1002 39 10000 4.6 190 07:44 26.06.2020
820 Clouds 37 1002 39 10000 4.6 190 07:22 26.06.2020
821 Clouds 35 1002 47 10000 4.6 170 06:44 26.06.2020
822 Clouds 35 1002 47 10000 4.6 170 06:26 26.06.2020
823 Clouds 34 1003 56 10000 4.1 150 05:48 26.06.2020
824 Clouds 31 1003 66 10000 3.1 130 04:39 26.06.2020
825 Clouds 29 1002 79 10000 2.1 80 02:22 26.06.2020
826 Clouds 29 1002 83 8000 3.1 70 01:21 26.06.2020
827 Clouds 28 1001 88 8000 2.6 90 00:41 26.06.2020
828 Clouds 28 1001 83 9000 3.1 90 00:20 26.06.2020
829 Clouds 28 1001 83 10000 2.6 110 23:43 25.06.2020
830 Clouds 28 1001 83 10000 2.6 110 23:19 25.06.2020
831 Clouds 28 1002 83 10000 3.1 100 22:56 25.06.2020
832 Clouds 29 1002 79 10000 3.6 130 22:37 25.06.2020
833 Clouds 29 1002 79 10000 3.6 130 22:19 25.06.2020
834 Clouds 28 1002 78 10000 2.6 110 21:56 25.06.2020
835 Clouds 28 1001 78 10000 3.1 110 21:38 25.06.2020
836 Clouds 28 1001 78 10000 3.1 110 21:19 25.06.2020
837 Clouds 29 1001 70 10000 4.1 130 20:45 25.06.2020
838 Clouds 30 1002 70 10000 4.6 140 20:24 25.06.2020
839 Clouds 30 1002 74 10000 4.6 130 19:58 25.06.2020
840 Clouds 30 1002 74 10000 4.6 130 19:39 25.06.2020
841 Clouds 29 1002 79 10000 2.6 80 19:19 25.06.2020
842 Clouds 29 1002 79 10000 3.1 100 18:56 25.06.2020
843 Clouds 29 1002 79 10000 3.1 100 18:37 25.06.2020
844 Clouds 29 1002 79 10000 3.1 100 18:19 25.06.2020
845 Clouds 29 1002 79 8000 3.1 70 17:41 25.06.2020
846 Clouds 29 1002 79 8000 3.1 70 17:19 25.06.2020
847 Mist 30 1002 79 5000 2.6 60 16:42 25.06.2020
848 Mist 30 1002 79 5000 2.6 60 16:22 25.06.2020
849 Mist 30 1001 79 5000 2.6 60 15:59 25.06.2020
850 Clouds 30 1001 79 6000 2.1 50 15:40 25.06.2020
851 Clouds 30 1001 79 6000 2.1 50 15:19 25.06.2020
852 Smoke 30 1001 79 5000 1.5 20 14:43 25.06.2020
853 Smoke 30 1001 79 5000 1.5 20 14:23 25.06.2020
854 Rain 30 1000 79 4200 1.5 100 13:56 25.06.2020
855 Clouds 31 1000 74 6000 2.6 70 13:37 25.06.2020
856 Clouds 31 1000 74 6000 2.6 70 13:19 25.06.2020
857 Clouds 31 1001 74 6000 3.1 60 12:44 25.06.2020
858 Clouds 31 1001 74 6000 3.1 50 12:20 25.06.2020
859 Clouds 31 1001 74 6000 3.1 50 11:58 25.06.2020
860 Rain 31 1001 74 4700 2.1 60 11:38 25.06.2020
861 Rain 31 1001 74 4700 2.1 60 11:20 25.06.2020
862 Rain 31 1001 74 4700 2.1 60 11:20 25.06.2020
863 Rain 31 1001 70 9000 3.1 90 10:42 25.06.2020
864 Rain 31 1001 70 9000 3.1 90 10:23 25.06.2020
865 Clouds 31 1001 74 7000 2.1 80 09:41 25.06.2020
866 Clouds 31 1001 74 7000 2.1 80 09:41 25.06.2020
867 Clouds 31 1001 74 7000 2.1 80 09:23 25.06.2020
868 Rain 30 1001 79 6000 2.6 30 08:47 25.06.2020
869 Rain 30 1001 84 5000 1.5 360 08:20 25.06.2020
870 Rain 30 1001 79 6000 2.1 30 07:46 25.06.2020
871 Rain 30 1001 79 6000 2.1 30 07:28 25.06.2020
872 Rain 31 1002 74 8000 2.6 50 06:54 25.06.2020
873 Clouds 31 1002 74 9000 3.6 20 06:27 25.06.2020
874 Clouds 31 1002 74 9000 4.1 20 05:51 25.06.2020
875 Clouds 31 1002 74 9000 3.6 30 04:29 25.06.2020
876 Clouds 30 1002 79 9000 2.1 70 03:35 25.06.2020
877 Clouds 30 1001 79 10000 2.6 60 02:43 25.06.2020
878 Clouds 30 1001 79 10000 2.6 100 01:59 25.06.2020
879 Clouds 29 1001 83 10000 3.6 90 01:26 25.06.2020
880 Clouds 29 1001 83 10000 3.1 100 00:44 25.06.2020
881 Clouds 29 1001 83 10000 3.1 90 00:21 25.06.2020
882 Clouds 29 1001 79 10000 2.6 80 23:44 24.06.2020
883 Clouds 29 1001 79 10000 2.6 80 23:26 24.06.2020
884 Clouds 29 1001 79 10000 3.1 80 22:59 24.06.2020
885 Clouds 29 1001 83 10000 4.1 110 22:41 24.06.2020
886 Clouds 29 1001 83 10000 4.1 110 22:20 24.06.2020
887 Clouds 29 1001 79 10000 4.1 100 21:56 24.06.2020
888 Clouds 30 1001 74 10000 3.6 100 21:37 24.06.2020
889 Clouds 30 1001 74 10000 3.6 100 21:18 24.06.2020
890 Clouds 30 1001 74 10000 4.1 100 20:58 24.06.2020
891 Clouds 30 1001 74 10000 3.6 100 20:38 24.06.2020
892 Clouds 30 1001 74 10000 3.6 100 20:20 24.06.2020
893 Clouds 30 1002 70 10000 4.6 120 19:55 24.06.2020
894 Clouds 31 1002 66 10000 4.1 120 19:36 24.06.2020
895 Clouds 31 1002 62 10000 3.6 120 19:18 24.06.2020
896 Clouds 31 1002 62 10000 3.6 120 18:57 24.06.2020
897 Clouds 31 1002 62 10000 4.1 130 18:38 24.06.2020
898 Clouds 31 1002 62 10000 5.7 140 18:19 24.06.2020
899 Clouds 32 1002 55 10000 5.1 140 17:43 24.06.2020
900 Clouds 32 1002 55 10000 5.1 140 17:21 24.06.2020
901 Clouds 33 1001 59 10000 4.1 140 16:58 24.06.2020
902 Clouds 33 1001 63 10000 5.1 130 16:40 24.06.2020
903 Clouds 34 1001 59 10000 4.6 120 16:21 24.06.2020
904 Clouds 34 1001 59 10000 4.6 120 15:57 24.06.2020
905 Clouds 34 1000 56 10000 3.6 130 15:39 24.06.2020
906 Clouds 35 1000 50 10000 2.1 110 15:20 24.06.2020
907 Clouds 35 1000 50 10000 2.1 110 15:20 24.06.2020
908 Clouds 35 1000 50 10000 2.1 110 14:54 24.06.2020
909 Clouds 35 1000 50 10000 2.6 130 14:36 24.06.2020
910 Clouds 35 1000 50 10000 2.6 130 14:18 24.06.2020
911 Clouds 35 999 50 10000 3.1 100 13:41 24.06.2020
912 Clouds 36 999 47 10000 4.1 100 13:19 24.06.2020
913 Clouds 37 999 42 10000 2.6 160 12:41 24.06.2020
914 Clouds 37 999 42 10000 2.6 160 12:20 24.06.2020
915 Clouds 36 999 47 10000 3.1 120 11:57 24.06.2020
916 Clouds 37 1000 44 10000 2.1 0 11:38 24.06.2020
917 Clouds 37 1000 44 10000 2.1 0 11:38 24.06.2020
918 Clouds 37 1000 44 10000 2.1 0 11:19 24.06.2020
919 Clouds 38 1000 39 10000 1.5 0 10:43 24.06.2020
920 Clouds 38 1000 39 10000 1.5 0 10:19 24.06.2020
921 Clouds 37 1001 39 10000 2.1 150 09:43 24.06.2020
922 Clouds 37 1001 39 10000 2.1 150 09:22 24.06.2020
923 Clouds 37 1001 42 10000 2.6 160 08:44 24.06.2020
924 Clouds 37 1001 42 10000 2.6 160 08:26 24.06.2020
925 Clouds 36 1002 44 10000 2.1 260 07:55 24.06.2020
926 Clouds 36 1002 44 10000 2.1 260 07:37 24.06.2020
927 Clouds 36 1003 41 10000 2.6 220 07:18 24.06.2020
928 Clouds 36 1003 41 10000 1.5 0 06:39 24.06.2020
929 Clouds 36 1003 44 10000 2.6 160 06:21 24.06.2020
930 Clouds 35 1003 44 10000 2.1 170 05:30 24.06.2020
931 Clouds 34 1003 49 10000 3.1 200 04:36 24.06.2020
932 Clouds 32 1003 55 10000 3.1 160 03:36 24.06.2020
933 Clouds 31 1003 66 10000 3.1 130 02:51 24.06.2020
934 Clouds 29 1002 79 10000 2.1 110 01:45 24.06.2020
935 Clouds 29 1003 79 10000 3.1 130 00:48 24.06.2020
936 Clouds 29 1003 79 10000 3.1 130 00:29 24.06.2020
937 Clouds 28 1003 83 10000 2.6 80 23:46 23.06.2020
938 Clouds 29 1003 79 10000 2.6 90 23:20 23.06.2020
939 Clouds 29 1003 79 10000 2.6 90 22:57 23.06.2020
940 Clouds 29 1002 74 10000 2.1 80 22:36 23.06.2020
941 Clouds 29 1002 74 10000 2.6 110 22:18 23.06.2020
942 Clouds 30 1002 70 10000 2.6 140 21:41 23.06.2020
943 Clouds 30 1002 70 10000 3.1 140 21:20 23.06.2020
944 Clouds 30 1002 70 10000 3.1 140 20:56 23.06.2020
945 Clouds 30 1002 66 10000 3.6 140 20:37 23.06.2020
946 Clouds 30 1003 66 10000 2.6 140 20:19 23.06.2020
947 Clouds 30 1003 62 10000 2.6 130 19:49 23.06.2020
948 Clouds 29 1003 66 10000 2.1 60 19:28 23.06.2020
949 Clouds 30 1004 58 10000 3.1 140 18:42 23.06.2020
950 Clouds 30 1004 58 10000 3.6 150 18:19 23.06.2020
951 Clouds 30 1004 58 10000 3.6 150 17:58 23.06.2020
952 Clouds 31 1003 55 10000 3.1 150 17:39 23.06.2020
953 Clouds 31 1003 55 10000 3.1 150 17:20 23.06.2020
954 Clouds 30 1003 55 10000 2.1 150 16:55 23.06.2020
955 Clouds 30 1003 55 10000 1 0 16:37 23.06.2020
956 Clouds 30 1003 55 10000 1 0 16:37 23.06.2020
957 Clouds 30 1003 55 10000 1 0 16:18 23.06.2020
958 Clouds 34 1003 56 10000 6.7 150 15:45 23.06.2020
959 Clouds 34 1003 56 10000 6.7 150 15:25 23.06.2020
960 Clouds 34 1002 59 10000 6.2 120 14:58 23.06.2020
961 Clouds 35 1001 56 10000 6.2 130 14:40 23.06.2020
962 Clouds 35 1001 56 10000 6.2 130 14:18 23.06.2020
963 Clouds 36 1000 53 10000 5.7 130 13:54 23.06.2020
964 Clouds 36 1000 53 10000 5.7 130 13:54 23.06.2020
965 Clouds 36 1000 53 10000 5.7 130 13:36 23.06.2020
966 Clouds 37 1000 47 10000 5.7 110 13:18 23.06.2020
967 Clouds 37 1000 44 10000 5.1 120 12:40 23.06.2020
968 Clouds 38 1000 42 10000 3.6 130 12:21 23.06.2020
969 Clouds 38 1001 47 10000 3.6 100 11:44 23.06.2020
970 Clouds 38 1001 47 10000 3.6 100 11:23 23.06.2020
971 Clouds 38 1001 42 10000 2.6 160 10:59 23.06.2020
972 Clouds 38 1001 39 10000 1.5 0 10:41 23.06.2020
973 Clouds 38 1001 39 10000 1.5 0 10:22 23.06.2020
974 Clouds 39 1002 42 10000 1 0 09:57 23.06.2020
975 Clouds 38 1002 42 10000 1.5 0 09:38 23.06.2020
976 Clouds 37 1002 44 10000 2.1 0 09:20 23.06.2020
977 Clouds 36 1003 47 10000 2.1 80 08:46 23.06.2020
978 Clouds 36 1003 47 10000 2.1 80 08:26 23.06.2020
979 Clouds 36 1003 47 10000 2.6 130 07:47 23.06.2020
980 Clouds 36 1004 50 10000 2.6 0 07:24 23.06.2020
981 Clouds 35 1004 56 10000 3.1 60 06:53 23.06.2020
982 Clouds 35 1004 56 10000 3.1 60 06:32 23.06.2020
983 Clouds 34 1004 59 10000 2.6 110 05:56 23.06.2020
984 Clouds 34 1004 59 10000 2.1 80 04:52 23.06.2020
985 Clouds 31 1004 74 10000 2.6 100 03:21 23.06.2020
986 Clouds 30 1004 74 10000 3.1 120 02:48 23.06.2020
987 Clouds 30 1004 74 10000 3.6 110 02:29 23.06.2020
988 Clouds 29 1003 79 10000 3.1 120 01:46 23.06.2020
989 Rain 28 1003 83 10000 3.1 100 01:22 23.06.2020
990 Rain 29 1003 79 10000 3.6 120 00:41 23.06.2020
991 Rain 29 1003 79 10000 3.1 120 00:20 23.06.2020
992 Rain 29 1002 74 10000 3.1 110 23:39 22.06.2020
993 Rain 29 1002 74 10000 3.1 110 23:19 22.06.2020
994 Rain 29 1002 74 10000 3.1 110 22:59 22.06.2020
995 Rain 29 1002 70 10000 3.1 110 22:41 22.06.2020
996 Clouds 29 1002 70 10000 3.1 110 22:20 22.06.2020
997 Clouds 29 1003 70 10000 3.1 130 21:58 22.06.2020
998 Clouds 29 1003 70 10000 3.1 130 21:58 22.06.2020
999 Clouds 29 1003 70 10000 3.1 130 21:58 22.06.2020
1000 Clouds 30 1003 62 10000 3.6 140 21:40 22.06.2020
1001 Clouds 30 1003 62 10000 3.6 140 21:21 22.06.2020
1002 Clouds 29 1003 66 10000 3.6 140 20:55 22.06.2020
1003 Clouds 28 1003 78 10000 3.6 100 20:36 22.06.2020
1004 Clouds 28 1004 74 10000 2.6 80 20:18 22.06.2020
1005 Clouds 28 1004 74 10000 2.6 90 19:43 22.06.2020
1006 Clouds 28 1004 74 10000 2.6 90 19:19 22.06.2020
1007 Clouds 29 1004 70 10000 2.6 340 18:56 22.06.2020
1008 Clouds 29 1004 70 10000 2.6 340 18:36 22.06.2020
1009 Thunderstorm 31 1004 58 10000 7.2 270 18:18 22.06.2020
1010 Thunderstorm 32 1004 62 10000 3.1 170 17:39 22.06.2020
1011 Thunderstorm 32 1004 62 10000 3.1 170 17:21 22.06.2020
1012 Clouds 32 1002 62 10000 5.1 130 16:59 22.06.2020
1013 Rain 33 1002 59 10000 6.7 130 16:41 22.06.2020
1014 Rain 33 1001 63 10000 6.2 130 16:18 22.06.2020
1015 Rain 33 1001 63 10000 6.2 130 15:54 22.06.2020
1016 Rain 33 1001 63 10000 6.2 130 15:36 22.06.2020
1017 Clouds 34 1000 59 10000 6.2 120 15:18 22.06.2020
1018 Clouds 35 1000 56 10000 7.2 130 14:39 22.06.2020
1019 Clouds 35 1000 56 10000 7.2 130 14:20 22.06.2020
1020 Clouds 36 999 53 10000 6.2 130 13:55 22.06.2020
1021 Clouds 37 999 42 10000 4.1 120 13:37 22.06.2020
1022 Clouds 38 999 42 10000 3.1 140 13:19 22.06.2020
1023 Clouds 38 999 39 10000 2.1 160 12:41 22.06.2020
1024 Clouds 38 999 39 10000 2.1 160 12:22 22.06.2020
1025 Clouds 39 999 40 10000 1.5 0 11:39 22.06.2020
1026 Clouds 39 1000 37 10000 1.5 0 11:20 22.06.2020
1027 Clouds 39 1000 37 10000 1.5 0 10:57 22.06.2020
1028 Clouds 39 1000 37 10000 1.5 0 10:57 22.06.2020
1029 Clouds 39 1000 37 10000 3.6 310 10:39 22.06.2020
1030 Clouds 38 1000 42 10000 2.1 270 10:19 22.06.2020
1031 Clouds 38 1000 42 10000 2.1 270 09:59 22.06.2020
1032 Clouds 38 1001 42 10000 2.6 290 09:41 22.06.2020
1033 Clouds 38 1001 42 10000 2.6 290 09:20 22.06.2020
1034 Clouds 37 1001 42 10000 3.6 250 08:57 22.06.2020
1035 Clouds 37 1001 44 10000 3.6 210 08:38 22.06.2020
1036 Clouds 37 1001 44 10000 3.6 210 08:19 22.06.2020
1037 Clouds 37 1002 44 10000 2.6 280 07:49 22.06.2020
1038 Clouds 37 1002 42 10000 3.6 230 07:30 22.06.2020
1039 Clouds 36 1002 47 10000 2.1 240 06:43 22.06.2020
1040 Clouds 35 1002 53 10000 2.6 0 06:24 22.06.2020
1041 Clouds 34 1002 59 10000 4.1 130 05:43 22.06.2020
1042 Clouds 31 1002 74 10000 4.1 100 03:48 22.06.2020
1043 Clouds 30 1002 79 10000 3.6 110 02:23 22.06.2020
1044 Clouds 28 1001 88 10000 2.6 80 01:18 22.06.2020
1045 Clouds 29 1001 83 10000 3.1 110 00:39 22.06.2020
1046 Clouds 29 1001 79 10000 3.1 110 23:58 21.06.2020
1047 Clouds 29 1001 79 10000 3.1 110 23:39 21.06.2020
1048 Clouds 29 1001 79 10000 3.1 110 23:39 21.06.2020
1049 Clouds 29 1001 79 10000 3.1 110 23:20 21.06.2020
1050 Clouds 29 1001 79 10000 3.6 120 22:56 21.06.2020
1051 Clouds 29 1001 79 10000 2.6 100 22:37 21.06.2020
1052 Clouds 29 1001 79 10000 2.6 100 22:19 21.06.2020
1053 Clouds 29 1001 79 10000 2.6 100 22:19 21.06.2020
1054 Clouds 29 1001 79 10000 2.6 100 21:56 21.06.2020
1055 Clouds 29 1001 79 10000 2.6 100 21:56 21.06.2020
1056 Clouds 29 1001 79 10000 2.6 90 21:37 21.06.2020
1057 Clouds 29 1001 79 10000 2.6 90 21:19 21.06.2020
1058 Clouds 30 1001 74 10000 4.1 130 20:57 21.06.2020
1059 Clouds 30 1001 74 10000 4.1 130 20:57 21.06.2020
1060 Clouds 29 1001 79 10000 2.1 100 20:36 21.06.2020
1061 Clouds 30 1001 70 10000 2.6 110 20:18 21.06.2020
1062 Clouds 30 1001 70 10000 4.1 140 19:41 21.06.2020
1063 Clouds 30 1001 70 10000 4.1 140 19:22 21.06.2020
1064 Clouds 31 1001 66 10000 5.1 140 18:57 21.06.2020
1065 Clouds 31 1001 66 10000 5.1 130 18:39 21.06.2020
1066 Clouds 31 1001 66 10000 5.1 140 18:21 21.06.2020
1067 Clouds 31 1001 66 10000 5.1 140 17:56 21.06.2020
1068 Clouds 31 1001 66 10000 4.6 130 17:38 21.06.2020
1069 Clouds 31 1001 66 10000 5.1 120 17:19 21.06.2020
1070 Clouds 32 1000 62 10000 6.2 130 16:40 21.06.2020
1071 Clouds 32 1000 62 10000 6.2 130 16:22 21.06.2020
1072 Clouds 32 1000 66 10000 4.6 130 15:42 21.06.2020
1073 Clouds 32 1000 66 10000 4.6 130 15:24 21.06.2020
1074 Clouds 33 1000 63 10000 4.6 130 14:59 21.06.2020
1075 Clouds 33 1000 63 10000 4.6 130 14:59 21.06.2020
1076 Clouds 33 1000 63 10000 5.1 130 14:38 21.06.2020
1077 Clouds 33 1000 63 10000 5.1 130 14:20 21.06.2020
1078 Clouds 33 999 66 10000 5.1 130 13:56 21.06.2020
1079 Clouds 33 999 66 10000 5.1 130 13:56 21.06.2020
1080 Clouds 34 999 63 10000 5.7 130 13:38 21.06.2020
1081 Clouds 35 999 59 10000 6.2 140 13:18 21.06.2020
1082 Clouds 35 999 56 10000 5.1 140 12:43 21.06.2020
1083 Clouds 35 999 56 10000 5.1 140 12:24 21.06.2020
1084 Clouds 36 999 53 10000 5.7 140 11:54 21.06.2020
1085 Clouds 35 999 53 10000 4.6 130 11:36 21.06.2020
1086 Clouds 35 999 53 10000 4.1 140 11:18 21.06.2020
1087 Clouds 36 999 47 10000 3.1 160 10:41 21.06.2020
1088 Clouds 36 1000 47 10000 3.1 200 10:23 21.06.2020
1089 Clouds 36 1000 47 10000 3.1 200 09:58 21.06.2020
1090 Clouds 37 1000 44 10000 3.1 170 09:37 21.06.2020
1091 Clouds 37 1001 47 10000 3.6 190 09:18 21.06.2020
1092 Clouds 37 1001 47 10000 3.6 190 08:55 21.06.2020
1093 Clouds 36 1001 47 10000 3.6 190 08:37 21.06.2020
1094 Clouds 36 1002 50 10000 3.6 190 08:18 21.06.2020
1095 Clouds 36 1002 47 10000 3.6 180 07:41 21.06.2020
1096 Clouds 36 1002 47 10000 3.6 180 07:21 21.06.2020
1097 Clouds 35 1003 53 10000 3.1 180 06:48 21.06.2020
1098 Clouds 34 1003 59 10000 3.6 150 05:59 21.06.2020
1099 Clouds 32 1003 70 10000 4.1 130 04:50 21.06.2020
1100 Clouds 30 1004 74 10000 4.6 140 03:20 21.06.2020
1101 Clouds 30 1004 74 10000 4.6 140 02:53 21.06.2020
1102 Clouds 29 1003 79 10000 3.6 130 01:48 21.06.2020
1103 Clouds 29 1003 79 10000 3.6 130 01:21 21.06.2020
1104 Clouds 29 1003 79 10000 3.6 130 00:55 21.06.2020
1105 Rain 29 1002 79 10000 4.1 130 00:36 21.06.2020
1106 Rain 29 1003 79 10000 3.1 130 00:18 21.06.2020
1107 Rain 29 1003 79 10000 3.1 120 23:41 20.06.2020
1108 Clouds 29 1003 79 10000 3.1 120 23:21 20.06.2020
1109 Clouds 29 1003 79 10000 4.1 140 22:55 20.06.2020
1110 Clouds 29 1002 79 10000 5.1 140 22:37 20.06.2020
1111 Rain 29 1003 79 10000 4.1 130 22:18 20.06.2020
1112 Rain 29 1003 79 10000 4.1 130 21:55 20.06.2020
1113 Thunderstorm 29 1004 79 10000 1.5 150 21:37 20.06.2020
1114 Clouds 29 1004 79 10000 2.1 90 21:18 20.06.2020
1115 Clouds 29 1004 79 10000 2.1 90 20:54 20.06.2020
1116 Thunderstorm 29 1004 79 10000 1.5 0 20:36 20.06.2020
1117 Thunderstorm 30 1004 74 10000 2.1 160 20:18 20.06.2020
1118 Thunderstorm 30 1004 74 10000 3.1 140 19:41 20.06.2020
1119 Thunderstorm 30 1004 74 10000 3.1 140 19:21 20.06.2020
1120 Rain 30 1004 74 10000 6.2 140 18:43 20.06.2020
1121 Rain 30 1004 74 10000 6.2 140 18:21 20.06.2020
1122 Clouds 30 1004 74 10000 4.1 140 17:58 20.06.2020
1123 Clouds 30 1004 74 10000 4.6 130 17:39 20.06.2020
1124 Clear 30 1003 74 10000 4.6 130 17:20 20.06.2020
1125 Clear 30 1003 74 10000 4.6 130 16:55 20.06.2020
1126 Clear 31 1003 70 10000 5.1 130 16:37 20.06.2020
1127 Clear 31 1003 66 10000 5.1 130 16:18 20.06.2020
1128 Clear 31 1003 66 10000 5.7 130 15:41 20.06.2020
1129 Clear 32 1002 62 10000 7.2 130 15:18 20.06.2020
1130 Clouds 32 1002 62 10000 6.7 130 14:43 20.06.2020
1131 Clouds 32 1002 62 10000 6.7 130 14:21 20.06.2020
1132 Clouds 34 1001 59 10000 7.7 130 13:46 20.06.2020
1133 Clouds 34 1001 59 10000 7.7 130 13:27 20.06.2020
1134 Clouds 35 1001 53 10000 5.1 140 12:59 20.06.2020
1135 Clear 35 1001 53 10000 4.6 150 12:40 20.06.2020
1136 Clouds 35 1001 50 10000 4.1 140 12:20 20.06.2020
1137 Clouds 35 1001 50 10000 4.1 140 11:55 20.06.2020
1138 Clouds 35 1002 50 10000 2.6 160 11:37 20.06.2020
1139 Clouds 36 1002 50 10000 3.1 150 11:19 20.06.2020
1140 Clouds 36 1003 44 10000 2.6 150 10:46 20.06.2020
1141 Clouds 35 1003 53 10000 3.1 140 10:22 20.06.2020
1142 Clouds 35 1003 53 10000 3.1 140 09:55 20.06.2020
1143 Clouds 35 1004 56 10000 3.6 150 09:36 20.06.2020
1144 Clouds 35 1004 56 10000 3.1 150 09:18 20.06.2020
1145 Clouds 34 1005 59 10000 2.6 170 08:45 20.06.2020
1146 Clouds 34 1005 59 10000 2.6 170 08:27 20.06.2020
1147 Clouds 34 1005 56 10000 2.6 160 07:51 20.06.2020
1148 Clouds 34 1006 56 10000 3.6 160 07:27 20.06.2020
1149 Clouds 33 1006 63 10000 3.6 170 06:54 20.06.2020
1150 Clouds 32 1006 66 10000 4.1 150 06:23 20.06.2020
1151 Clouds 32 1006 66 10000 4.1 150 06:23 20.06.2020
1152 Clouds 32 1007 66 10000 3.6 150 05:52 20.06.2020
1153 Clouds 32 1007 66 10000 3.6 130 04:52 20.06.2020
1154 Clouds 29 1007 79 10000 3.1 140 02:27 20.06.2020
1155 Clouds 29 1006 83 10000 4.1 120 01:48 20.06.2020
1156 Clouds 28 1006 83 9000 3.6 120 00:52 20.06.2020
1157 Clouds 29 1006 79 10000 4.1 120 00:21 20.06.2020
1158 Clouds 29 1006 79 10000 4.1 120 23:55 19.06.2020
1159 Clouds 29 1006 79 10000 3.1 110 23:36 19.06.2020
1160 Clouds 29 1005 79 9000 2.6 110 23:18 19.06.2020
1161 Clouds 29 1005 79 10000 3.6 130 22:40 19.06.2020
1162 Clouds 29 1005 79 10000 4.6 120 22:22 19.06.2020
1163 Clouds 29 1005 79 10000 4.6 120 21:58 19.06.2020
1164 Rain 29 1006 79 10000 3.1 130 21:38 19.06.2020
1165 Rain 29 1006 79 10000 3.1 130 21:38 19.06.2020
1166 Clouds 29 1006 74 9000 3.6 130 21:18 19.06.2020
1167 Clouds 29 1006 74 9000 3.6 130 20:58 19.06.2020
1168 Clouds 29 1006 74 10000 3.6 130 20:40 19.06.2020
1169 Clouds 29 1006 74 10000 3.6 130 20:20 19.06.2020
1170 Clouds 29 1006 74 10000 3.1 120 19:55 19.06.2020
1171 Clouds 29 1006 79 9000 4.1 120 19:37 19.06.2020
1172 Clouds 29 1006 79 9000 4.1 120 19:37 19.06.2020
1173 Clouds 29 1006 79 10000 3.6 100 19:18 19.06.2020
1174 Clouds 29 1006 74 10000 4.1 120 18:41 19.06.2020
1175 Clouds 29 1006 74 10000 4.1 120 18:21 19.06.2020
1176 Clouds 29 1006 74 10000 3.6 120 17:55 19.06.2020
1177 Clouds 30 1006 70 10000 3.6 110 17:36 19.06.2020
1178 Clouds 30 1006 70 10000 4.6 130 17:18 19.06.2020
1179 Clouds 30 1005 70 10000 4.1 130 16:41 19.06.2020
1180 Clouds 30 1005 70 10000 4.1 130 16:23 19.06.2020
1181 Clouds 30 1005 70 10000 4.1 130 15:58 19.06.2020
1182 Clouds 30 1005 70 10000 4.6 120 15:40 19.06.2020
1183 Clouds 30 1005 70 10000 4.6 120 15:19 19.06.2020
1184 Clouds 31 1004 66 10000 4.1 120 14:42 19.06.2020
1185 Clouds 32 1003 62 10000 5.1 130 14:22 19.06.2020
1186 Clouds 31 1004 66 10000 4.1 120 14:22 19.06.2020
1187 Clouds 32 1003 62 10000 5.1 130 13:59 19.06.2020
1188 Clouds 32 1003 62 10000 6.2 120 13:41 19.06.2020
1189 Clouds 32 1003 62 10000 6.2 120 13:23 19.06.2020
1190 Clouds 33 1003 63 10000 5.7 120 12:46 19.06.2020
1191 Clouds 33 1003 63 10000 5.7 120 12:22 19.06.2020
1192 Clouds 33 1003 59 10000 5.7 110 11:57 19.06.2020
1193 Clouds 34 1003 56 10000 5.1 130 11:37 19.06.2020
1194 Clouds 34 1003 56 10000 5.1 130 11:37 19.06.2020
1195 Clouds 35 1003 53 10000 5.1 120 11:18 19.06.2020
1196 Clouds 34 1004 52 10000 5.1 110 10:45 19.06.2020
1197 Clouds 34 1004 52 10000 5.1 110 10:26 19.06.2020
1198 Clouds 35 1004 53 10000 4.1 110 09:57 19.06.2020
1199 Clouds 33 1005 55 10000 4.6 110 09:39 19.06.2020
1200 Clouds 34 1005 56 10000 4.6 100 09:19 19.06.2020
1201 Clouds 34 1005 56 10000 3.6 130 08:41 19.06.2020
1202 Clouds 34 1005 56 10000 3.6 130 08:23 19.06.2020
1203 Clouds 33 1006 59 10000 3.1 120 07:45 19.06.2020
1204 Clouds 32 1007 66 10000 3.1 140 07:22 19.06.2020
1205 Clouds 32 1007 66 10000 3.1 140 06:59 19.06.2020
1206 Clouds 32 1007 62 10000 3.1 140 06:23 19.06.2020
1207 Clouds 31 1007 70 10000 3.1 160 05:34 19.06.2020
1208 Clouds 31 1007 66 10000 4.1 130 04:21 19.06.2020
1209 Clouds 29 1006 79 10000 3.6 110 02:24 19.06.2020
1210 Clouds 28 1005 83 10000 3.1 100 00:46 19.06.2020
1211 Clouds 28 1005 83 10000 2.6 100 00:22 19.06.2020
1212 Clouds 28 1005 83 10000 2.6 100 23:58 18.06.2020
1213 Clouds 28 1005 83 10000 3.1 90 23:39 18.06.2020
1214 Clouds 28 1005 83 10000 3.1 90 23:21 18.06.2020
1215 Rain 28 1005 83 10000 3.6 90 22:41 18.06.2020
1216 Rain 28 1005 83 10000 3.6 90 22:21 18.06.2020
1217 Rain 28 1005 83 10000 2.6 100 21:57 18.06.2020
1218 Rain 28 1005 83 10000 3.6 100 21:38 18.06.2020
1219 Rain 28 1005 83 10000 3.6 110 21:19 18.06.2020
1220 Rain 28 1005 83 10000 3.6 110 20:43 18.06.2020
1221 Rain 28 1005 83 10000 3.6 110 20:22 18.06.2020
1222 Rain 28 1005 83 10000 3.6 100 19:58 18.06.2020
1223 Clouds 29 1006 79 10000 3.1 100 19:40 18.06.2020
1224 Clouds 29 1006 79 10000 3.1 100 19:20 18.06.2020
1225 Clouds 29 1006 79 10000 3.1 100 18:42 18.06.2020
1226 Clouds 29 1006 79 10000 3.1 100 18:23 18.06.2020
1227 Clouds 28 1006 78 10000 3.1 100 17:58 18.06.2020
1228 Clouds 29 1005 79 10000 3.1 100 17:39 18.06.2020
1229 Clouds 29 1005 79 10000 3.1 100 17:21 18.06.2020
1230 Clouds 30 1005 70 10000 4.1 110 16:44 18.06.2020
1231 Clear 30 1005 70 10000 4.1 110 16:25 18.06.2020
1232 Clear 30 1005 70 10000 4.6 110 15:59 18.06.2020
1233 Clear 30 1004 70 10000 4.6 110 15:40 18.06.2020
1234 Clouds 31 1004 62 10000 3.6 120 15:20 18.06.2020
1235 Clouds 31 1004 62 10000 3.6 120 14:57 18.06.2020
1236 Clear 32 1004 59 10000 3.6 130 14:38 18.06.2020
1237 Clouds 32 1004 59 10000 3.6 130 14:20 18.06.2020
1238 Clouds 32 1003 62 10000 5.1 120 13:48 18.06.2020
1239 Clouds 32 1003 62 10000 5.1 120 13:29 18.06.2020
1240 Clouds 32 1002 62 10000 6.7 110 12:58 18.06.2020
1241 Clouds 32 1002 66 10000 6.2 110 12:40 18.06.2020
1242 Clouds 32 1002 66 10000 6.2 110 12:20 18.06.2020
1243 Clouds 33 1001 59 10000 7.7 110 11:57 18.06.2020
1244 Clouds 33 1001 63 10000 5.1 110 11:38 18.06.2020
1245 Clouds 33 1001 59 10000 5.7 110 11:19 18.06.2020
1246 Clouds 34 1002 59 10000 6.2 110 10:40 18.06.2020
1247 Clouds 34 1002 59 10000 5.1 100 10:19 18.06.2020
1248 Clouds 34 1002 59 10000 5.1 110 09:46 18.06.2020
1249 Clouds 34 1002 59 10000 5.1 110 09:27 18.06.2020
1250 Clouds 34 1003 56 10000 6.2 110 08:58 18.06.2020
1251 Clouds 34 1003 59 10000 4.6 130 08:38 18.06.2020
1252 Clouds 34 1003 59 10000 4.6 130 08:19 18.06.2020
1253 Clouds 33 1004 59 10000 3.6 90 07:45 18.06.2020
1254 Clouds 33 1004 59 10000 3.6 90 07:25 18.06.2020
1255 Clouds 34 1004 63 10000 4.1 100 06:42 18.06.2020
1256 Clouds 33 1005 66 10000 3.6 90 05:31 18.06.2020
1257 Clouds 32 1005 66 10000 4.1 110 04:20 18.06.2020
1258 Clouds 28 1004 83 10000 3.1 90 01:48 18.06.2020
1259 Clouds 28 1004 83 10000 3.1 90 01:22 18.06.2020
1260 Clouds 28 1003 78 10000 3.1 100 00:52 18.06.2020
1261 Clouds 28 1003 78 10000 3.1 100 00:30 18.06.2020
1262 Clouds 28 1003 83 10000 3.1 100 23:55 17.06.2020
1263 Clouds 28 1003 83 10000 3.1 90 23:36 17.06.2020
1264 Clouds 28 1002 83 10000 3.1 90 23:18 17.06.2020
1265 Clouds 28 1002 83 10000 3.1 90 22:54 17.06.2020
1266 Clouds 28 1002 83 10000 3.6 90 22:36 17.06.2020
1267 Clouds 28 1002 83 10000 2.6 80 22:18 17.06.2020
1268 Clouds 28 1002 83 10000 3.1 80 21:40 17.06.2020
1269 Clear 28 1002 78 10000 3.6 90 21:21 17.06.2020
1270 Clear 28 1002 78 10000 3.6 90 20:55 17.06.2020
1271 Clear 28 1002 78 10000 4.1 100 20:37 17.06.2020
1272 Clear 28 1003 78 10000 3.6 100 20:18 17.06.2020
1273 Clear 29 1003 74 10000 3.1 90 19:42 17.06.2020
1274 Clear 29 1003 74 10000 3.1 90 19:21 17.06.2020
1275 Clear 29 1003 74 10000 3.1 90 19:21 17.06.2020
1276 Clear 29 1003 74 10000 3.6 100 18:56 17.06.2020
1277 Clear 29 1003 74 10000 3.6 100 18:37 17.06.2020
1278 Clear 29 1003 74 10000 3.6 100 18:37 17.06.2020
1279 Clear 29 1003 74 10000 4.6 120 18:19 17.06.2020
1280 Clear 29 1003 74 10000 5.1 120 17:42 17.06.2020
1281 Rain 29 1003 74 10000 5.1 120 17:21 17.06.2020
1282 Rain 29 1003 74 10000 5.1 120 17:21 17.06.2020
1283 Rain 30 1003 70 10000 5.1 130 16:56 17.06.2020
1284 Clear 30 1003 70 10000 5.1 120 16:37 17.06.2020
1285 Clear 31 1003 66 10000 6.2 130 16:19 17.06.2020
1286 Clear 31 1002 66 10000 5.7 120 15:40 17.06.2020
1287 Clouds 31 1002 66 10000 5.7 120 15:21 17.06.2020
1288 Clouds 32 1002 66 10000 5.1 130 14:58 17.06.2020
1289 Clouds 32 1001 66 10000 4.6 120 14:40 17.06.2020
1290 Clouds 33 1001 59 10000 3.1 150 14:19 17.06.2020
1291 Clouds 33 1001 59 10000 3.1 150 13:57 17.06.2020
1292 Clouds 33 1000 55 10000 3.6 160 13:38 17.06.2020
1293 Clouds 33 1000 55 10000 3.6 160 13:20 17.06.2020
1294 Clouds 33 1000 55 10000 3.6 160 13:20 17.06.2020
1295 Clouds 33 1001 55 10000 4.6 170 12:43 17.06.2020
1296 Clouds 33 1001 55 10000 4.6 170 12:23 17.06.2020
1297 Clouds 33 1001 55 10000 4.6 170 11:58 17.06.2020
1298 Clouds 33 1001 55 10000 5.1 160 11:38 17.06.2020
1299 Clouds 34 1001 52 10000 5.7 150 11:20 17.06.2020
1300 Clouds 33 1001 55 10000 5.1 160 11:20 17.06.2020
1301 Clouds 34 1001 56 10000 5.1 160 10:38 17.06.2020
1302 Clouds 34 1001 56 10000 5.7 150 10:19 17.06.2020
1303 Clouds 34 1001 56 10000 5.7 150 10:19 17.06.2020
1304 Clouds 34 1001 56 10000 5.7 150 09:58 17.06.2020
1305 Clouds 34 1001 52 10000 5.7 160 09:40 17.06.2020
1306 Clouds 34 1001 52 10000 5.7 160 09:20 17.06.2020
1307 Clouds 34 1002 52 10000 5.1 170 08:45 17.06.2020
1308 Clouds 34 1002 52 10000 5.1 170 08:45 17.06.2020
1309 Clouds 34 1002 52 10000 5.1 170 08:21 17.06.2020
1310 Clouds 34 1002 56 10000 5.1 170 07:56 17.06.2020
1311 Clouds 34 1003 52 10000 4.6 160 07:37 17.06.2020
1312 Clouds 33 1003 55 10000 4.1 160 07:19 17.06.2020
1313 Clouds 33 1003 55 10000 4.1 160 06:55 17.06.2020
1314 Clouds 33 1003 59 10000 3.6 150 06:36 17.06.2020
1315 Clouds 32 1003 66 10000 3.6 160 06:18 17.06.2020
1316 Clouds 31 1004 70 10000 3.6 120 04:39 17.06.2020
1317 Clouds 30 1003 74 10000 4.1 110 02:48 17.06.2020
1318 Clouds 28 1003 83 10000 2.6 90 01:28 17.06.2020
1319 Clouds 27 1002 88 10000 3.1 100 00:37 17.06.2020
1320 Clouds 28 1002 83 10000 3.1 90 00:19 17.06.2020
1321 Clouds 28 1002 83 10000 3.1 90 23:55 16.06.2020
1322 Clouds 28 1002 83 10000 2.6 90 23:37 16.06.2020
1323 Clouds 28 1002 83 10000 2.6 90 23:18 16.06.2020
1324 Clouds 28 1002 83 10000 2.1 90 22:39 16.06.2020
1325 Clouds 28 1002 83 10000 2.6 80 22:19 16.06.2020
1326 Clouds 28 1002 83 10000 2.6 80 21:58 16.06.2020
1327 Clouds 28 1002 83 10000 3.1 90 21:40 16.06.2020
1328 Clouds 28 1002 83 10000 3.1 90 21:22 16.06.2020
1329 Clouds 28 1002 83 10000 3.1 90 20:55 16.06.2020
1330 Clouds 28 1003 83 10000 2.6 100 20:36 16.06.2020
1331 Clouds 28 1003 83 10000 2.6 90 20:18 16.06.2020
1332 Clouds 28 1003 83 10000 2.6 90 19:56 16.06.2020
1333 Clouds 28 1003 83 10000 3.1 90 19:37 16.06.2020
1334 Clouds 28 1003 83 10000 3.1 90 19:37 16.06.2020
1335 Clouds 28 1004 78 10000 3.1 100 19:18 16.06.2020
1336 Clouds 28 1004 83 10000 3.6 110 18:41 16.06.2020
1337 Clouds 28 1004 83 10000 3.6 110 18:41 16.06.2020
1338 Clouds 28 1004 78 10000 3.6 100 18:21 16.06.2020
1339 Clouds 28 1004 78 10000 3.6 100 17:58 16.06.2020
1340 Clouds 29 1004 79 10000 3.6 100 17:38 16.06.2020
1341 Clouds 29 1004 79 10000 4.1 110 17:20 16.06.2020
1342 Clouds 29 1004 79 10000 4.1 110 16:56 16.06.2020
1343 Clouds 29 1004 79 10000 3.1 100 16:38 16.06.2020
1344 Rain 29 1003 74 10000 3.1 120 16:19 16.06.2020
1345 Rain 29 1003 74 10000 3.1 120 15:56 16.06.2020
1346 Rain 29 1003 74 10000 4.6 120 15:38 16.06.2020
1347 Rain 29 1003 74 10000 4.6 120 15:38 16.06.2020
1348 Clouds 30 1003 66 10000 5.1 120 15:20 16.06.2020
1349 Thunderstorm 30 1003 66 10000 5.1 130 14:43 16.06.2020
1350 Thunderstorm 30 1003 66 10000 5.1 130 14:25 16.06.2020
1351 Clouds 31 1002 66 10000 5.7 120 13:58 16.06.2020
1352 Clouds 31 1002 66 10000 5.7 120 13:58 16.06.2020
1353 Clouds 31 1002 70 10000 6.7 120 13:40 16.06.2020
1354 Clouds 32 1002 62 10000 6.2 120 13:22 16.06.2020
1355 Clouds 32 1001 62 10000 6.7 120 12:42 16.06.2020
1356 Clouds 32 1001 62 10000 6.7 120 12:21 16.06.2020
1357 Clouds 33 1001 59 10000 5.7 130 11:56 16.06.2020
1358 Clouds 33 1001 59 10000 7.7 120 11:38 16.06.2020
1359 Clouds 33 1002 59 10000 6.7 130 11:19 16.06.2020
1360 Clouds 33 1002 59 10000 6.7 130 10:55 16.06.2020
1361 Clouds 35 1002 53 10000 3.6 140 10:37 16.06.2020
1362 Clouds 35 1002 53 10000 3.6 140 10:18 16.06.2020
1363 Clouds 35 1003 47 10000 3.6 140 09:43 16.06.2020
1364 Clouds 35 1003 47 10000 3.6 140 09:22 16.06.2020
1365 Clouds 34 1003 52 10000 3.6 170 08:48 16.06.2020
1366 Clouds 34 1003 52 10000 3.6 170 08:30 16.06.2020
1367 Clouds 34 1004 52 10000 3.1 160 07:51 16.06.2020
1368 Clouds 34 1004 59 10000 3.6 150 07:28 16.06.2020
1369 Clouds 33 1005 63 10000 3.6 160 06:56 16.06.2020
1370 Clouds 32 1005 62 10000 3.6 170 06:29 16.06.2020
1371 Clouds 32 1006 62 10000 4.6 140 05:46 16.06.2020
1372 Clouds 30 1006 74 10000 3.6 130 04:42 16.06.2020
1373 Clouds 30 1006 74 10000 3.6 140 03:31 16.06.2020
1374 Clouds 28 1006 83 10000 3.1 110 02:18 16.06.2020
1375 Clouds 28 1005 83 10000 2.6 90 01:31 16.06.2020
1376 Clouds 28 1005 83 10000 3.1 90 00:52 16.06.2020
1377 Clouds 28 1005 83 8000 3.1 100 00:22 16.06.2020
1378 Clouds 28 1005 88 7000 2.1 60 23:43 15.06.2020
1379 Clouds 28 1005 88 7000 2.1 60 23:23 15.06.2020
1380 Clouds 28 1005 83 6000 2.1 80 22:56 15.06.2020
1381 Clouds 28 1005 88 6000 2.6 90 22:38 15.06.2020
1382 Mist 28 1005 83 5000 1.5 100 22:18 15.06.2020
1383 Mist 28 1005 83 5000 1.5 100 22:18 15.06.2020
1384 Mist 28 1005 83 5000 1.5 100 21:55 15.06.2020
1385 Mist 28 1006 83 5000 1.5 90 21:37 15.06.2020
1386 Mist 28 1006 83 5000 1.5 90 21:37 15.06.2020
1387 Clouds 28 1005 83 10000 2.6 110 21:19 15.06.2020
1388 Clouds 28 1005 83 10000 2.6 110 20:55 15.06.2020
1389 Clouds 28 1006 83 10000 2.6 110 20:37 15.06.2020
1390 Clouds 28 1006 83 10000 3.1 110 20:18 15.06.2020
1391 Clouds 28 1006 83 10000 3.1 110 19:54 15.06.2020
1392 Clouds 28 1006 83 10000 3.1 120 19:36 15.06.2020
1393 Clouds 28 1006 83 10000 3.6 130 19:18 15.06.2020
1394 Clouds 29 1007 79 10000 4.1 130 18:43 15.06.2020
1395 Clouds 29 1007 79 10000 4.1 130 18:22 15.06.2020
1396 Clouds 29 1007 79 10000 3.6 130 17:59 15.06.2020
1397 Clouds 29 1007 74 10000 3.6 120 17:41 15.06.2020
1398 Clouds 29 1007 74 10000 3.6 120 17:20 15.06.2020
1399 Clouds 29 1006 79 10000 3.6 120 16:57 15.06.2020
1400 Clouds 29 1006 74 10000 4.1 130 16:39 15.06.2020
1401 Clouds 29 1006 79 10000 3.6 130 16:18 15.06.2020
1402 Clouds 29 1005 79 10000 3.1 120 15:41 15.06.2020
1403 Clouds 29 1005 79 10000 3.1 120 15:21 15.06.2020
1404 Clouds 30 1005 74 10000 2.6 130 14:59 15.06.2020
1405 Clouds 30 1004 70 10000 3.1 110 14:40 15.06.2020
1406 Clouds 30 1004 70 10000 3.1 130 14:20 15.06.2020
1407 Clouds 30 1004 70 10000 3.1 130 13:57 15.06.2020
1408 Clouds 30 1004 70 10000 3.6 140 13:38 15.06.2020
1409 Clouds 30 1004 70 10000 3.1 140 13:18 15.06.2020
1410 Clouds 30 1004 74 7000 2.6 110 12:43 15.06.2020
1411 Clouds 30 1004 74 7000 2.6 110 12:22 15.06.2020
1412 Clouds 30 1004 74 7000 2.6 70 11:58 15.06.2020
1413 Clouds 30 1004 74 7000 2.6 80 11:40 15.06.2020
1414 Clouds 30 1004 74 7000 2.6 80 11:22 15.06.2020
1415 Clouds 29 1005 79 7000 2.1 60 10:42 15.06.2020
1416 Clouds 29 1005 79 7000 2.1 60 10:22 15.06.2020
1417 Clouds 28 1006 83 8000 2.1 60 09:44 15.06.2020
1418 Clouds 28 1006 83 8000 2.1 60 09:23 15.06.2020
1419 Clouds 27 1007 83 10000 2.1 40 08:48 15.06.2020
1420 Clouds 27 1007 83 10000 2.1 40 08:27 15.06.2020
1421 Clouds 27 1008 83 10000 2.1 40 07:57 15.06.2020
1422 Clouds 26 1008 88 10000 2.1 40 07:39 15.06.2020
1423 Rain 26 1008 88 10000 3.1 70 07:19 15.06.2020
1424 Clouds 26 1009 88 10000 3.1 70 06:28 15.06.2020
1425 Clouds 25 1008 88 6000 2.6 60 05:51 15.06.2020
1426 Clouds 25 1008 88 10000 3.1 40 05:29 15.06.2020
1427 Rain 25 1009 88 7000 3.1 40 04:22 15.06.2020
1428 Rain 25 1008 88 9000 2.6 20 03:49 15.06.2020
1429 Rain 24 1008 94 7000 2.6 40 02:57 15.06.2020
1430 Rain 24 1008 94 6000 3.6 50 02:29 15.06.2020
1431 Rain 25 1007 88 6000 3.1 80 01:47 15.06.2020
1432 Rain 25 1007 88 6000 3.1 80 01:24 15.06.2020
1433 Clouds 24 1006 94 10000 2.1 50 00:45 15.06.2020
1434 Clouds 24 1006 94 10000 2.1 50 00:23 15.06.2020
1435 Rain 24 1006 94 7000 1.5 50 23:57 14.06.2020
1436 Rain 24 1006 94 8000 1 0 23:39 14.06.2020
1437 Rain 24 1006 94 8000 1 0 23:21 14.06.2020
1438 Rain 24 1005 88 9000 1 0 22:57 14.06.2020
1439 Thunderstorm 24 1005 88 3600 4.1 90 22:37 14.06.2020
1440 Thunderstorm 25 1005 94 4000 4.6 280 22:18 14.06.2020
1441 Thunderstorm 25 1005 94 4000 4.6 280 21:56 14.06.2020
1442 Rain 26 1005 88 2500 4.1 250 21:37 14.06.2020
1443 Rain 26 1005 88 7000 1 0 21:18 14.06.2020
1444 Rain 26 1005 88 7000 1 0 20:56 14.06.2020
1445 Clouds 26 1006 88 8000 1.5 50 20:37 14.06.2020
1446 Clouds 26 1006 88 7000 2.1 50 20:18 14.06.2020
1447 Clouds 26 1006 88 7000 2.1 50 19:55 14.06.2020
1448 Clouds 26 1007 88 8000 1.5 30 19:37 14.06.2020
1449 Clouds 26 1007 88 8000 1.5 30 19:18 14.06.2020
1450 Clouds 26 1007 88 8000 1.5 30 18:55 14.06.2020
1451 Clouds 26 1007 88 10000 2.6 40 18:37 14.06.2020
1452 Clouds 26 1007 83 10000 2.6 60 18:18 14.06.2020
1453 Clouds 26 1007 83 10000 2.6 50 17:40 14.06.2020
1454 Clouds 26 1007 83 10000 2.6 50 17:20 14.06.2020
1455 Clouds 26 1006 88 10000 2.1 70 16:59 14.06.2020
1456 Clouds 26 1006 88 10000 1.5 20 16:40 14.06.2020
1457 Clouds 26 1006 88 10000 2.1 350 16:20 14.06.2020
1458 Clouds 26 1006 88 10000 2.1 350 15:57 14.06.2020
1459 Clouds 27 1006 83 10000 1.5 340 15:37 14.06.2020
1460 Clouds 27 1006 83 10000 1.5 340 15:18 14.06.2020
1461 Clouds 27 1005 83 9000 1.5 350 14:41 14.06.2020
1462 Clouds 27 1005 83 9000 1.5 350 14:23 14.06.2020
1463 Clouds 26 1004 88 6000 2.1 20 13:59 14.06.2020
1464 Clouds 26 1004 88 8000 1 0 13:40 14.06.2020
1465 Clouds 26 1004 88 8000 1 0 13:22 14.06.2020
1466 Clouds 27 1003 83 10000 2.1 40 12:57 14.06.2020
1467 Clouds 27 1002 83 10000 2.6 90 12:39 14.06.2020
1468 Clouds 26 1002 83 10000 3.6 50 12:21 14.06.2020
1469 Clouds 26 1002 83 10000 3.6 50 12:21 14.06.2020
1470 Clouds 26 1002 83 10000 3.6 50 11:57 14.06.2020
1471 Rain 26 1003 83 10000 2.6 80 11:38 14.06.2020
1472 Thunderstorm 27 1004 74 10000 4.1 70 11:20 14.06.2020
1473 Clouds 27 1004 74 10000 4.1 20 10:42 14.06.2020
1474 Clouds 27 1004 74 10000 4.1 20 10:20 14.06.2020
1475 Clouds 26 1004 74 10000 4.1 360 09:56 14.06.2020
1476 Rain 26 1004 78 10000 7.2 340 09:38 14.06.2020
1477 Clouds 29 1003 79 10000 6.2 100 09:20 14.06.2020
1478 Clouds 30 1003 79 8000 6.2 100 08:41 14.06.2020
1479 Clouds 31 1004 70 10000 5.1 100 08:19 14.06.2020
1480 Clouds 32 1004 70 10000 4.1 80 07:52 14.06.2020
1481 Clouds 32 1004 70 10000 4.1 80 07:32 14.06.2020
1482 Clouds 33 1004 66 10000 2.6 40 06:39 14.06.2020
1483 Clouds 32 1004 70 10000 2.1 100 05:45 14.06.2020
1484 Clouds 31 1004 74 10000 3.1 110 04:59 14.06.2020
1485 Clouds 31 1004 74 10000 3.6 90 04:33 14.06.2020
1486 Clouds 31 1004 74 10000 3.1 110 03:27 14.06.2020
1487 Clouds 29 1004 79 10000 3.1 90 02:30 14.06.2020
1488 Clouds 28 1003 83 10000 3.6 80 01:45 14.06.2020
1489 Clouds 28 1003 83 10000 3.1 80 01:23 14.06.2020
1490 Clouds 28 1003 83 10000 2.6 80 00:39 14.06.2020
1491 Clouds 28 1003 83 10000 2.6 70 00:19 14.06.2020
1492 Clouds 29 1003 79 10000 3.1 80 23:43 13.06.2020
1493 Clouds 29 1003 79 10000 3.1 80 23:24 13.06.2020
1494 Clouds 29 1002 79 10000 3.6 80 22:57 13.06.2020
1495 Clouds 29 1002 79 10000 3.1 80 22:37 13.06.2020
1496 Clouds 29 1002 83 10000 3.1 70 22:18 13.06.2020
1497 Clouds 29 1002 83 10000 3.1 70 22:18 13.06.2020
1498 Clouds 29 1002 83 10000 3.1 70 21:55 13.06.2020
1499 Clouds 29 1002 83 10000 2.6 60 21:37 13.06.2020
1500 Clouds 29 1002 83 10000 2.6 100 21:18 13.06.2020
1501 Clouds 29 1002 83 10000 3.1 110 20:42 13.06.2020
1502 Clouds 29 1002 83 10000 3.1 110 20:42 13.06.2020
1503 Clouds 29 1002 83 10000 4.1 90 20:19 13.06.2020
1504 Clouds 29 1002 83 10000 4.1 90 20:19 13.06.2020
1505 Clouds 29 1003 83 10000 4.1 100 19:42 13.06.2020
1506 Clouds 29 1003 83 10000 4.1 100 19:22 13.06.2020
1507 Clouds 29 1003 83 10000 5.1 100 18:59 13.06.2020
1508 Clouds 29 1004 83 10000 5.1 110 18:41 13.06.2020
1509 Clouds 30 1004 79 10000 4.6 130 18:21 13.06.2020
1510 Clouds 30 1004 79 10000 4.6 130 17:59 13.06.2020
1511 Clouds 30 1004 79 10000 4.6 130 17:41 13.06.2020
1512 Clouds 30 1004 79 10000 4.6 130 17:22 13.06.2020
1513 Clouds 30 1003 79 10000 5.7 130 16:56 13.06.2020
1514 Clouds 30 1003 74 10000 5.7 130 16:38 13.06.2020
1515 Clouds 31 1003 70 10000 5.1 130 16:19 13.06.2020
1516 Clouds 31 1002 70 10000 5.1 130 15:44 13.06.2020
1517 Clouds 31 1002 70 10000 5.1 130 15:26 13.06.2020
1518 Clouds 31 1002 70 10000 6.2 130 14:58 13.06.2020
1519 Clouds 32 1001 66 10000 5.1 140 14:38 13.06.2020
1520 Rain 32 1000 66 10000 6.7 130 14:20 13.06.2020
1521 Clouds 33 999 63 10000 6.7 130 13:42 13.06.2020
1522 Clouds 33 999 63 10000 6.7 130 13:24 13.06.2020
1523 Clouds 34 999 59 10000 5.7 130 12:44 13.06.2020
1524 Clouds 34 999 59 10000 5.7 130 12:26 13.06.2020
1525 Clouds 34 999 59 10000 5.7 120 11:59 13.06.2020
1526 Clouds 35 999 53 10000 5.1 110 11:40 13.06.2020
1527 Clouds 35 999 56 10000 3.6 90 11:19 13.06.2020
1528 Clouds 35 999 56 10000 3.6 90 10:57 13.06.2020
1529 Clouds 35 999 53 10000 4.1 90 10:38 13.06.2020
1530 Clouds 35 1000 53 10000 3.6 120 10:19 13.06.2020
1531 Clouds 35 1000 59 10000 3.6 90 09:45 13.06.2020
1532 Clouds 35 1000 59 10000 3.6 90 09:27 13.06.2020
1533 Clouds 35 1001 56 10000 3.6 90 08:50 13.06.2020
1534 Clouds 35 1001 56 10000 3.6 90 08:32 13.06.2020
1535 Clouds 34 1001 56 10000 3.1 100 07:56 13.06.2020
1536 Clouds 34 1001 56 10000 3.1 100 07:30 13.06.2020
1537 Clouds 33 1002 63 10000 2.6 0 06:51 13.06.2020
1538 Clouds 33 1002 63 10000 2.6 0 06:33 13.06.2020
1539 Clouds 32 1002 66 10000 3.1 120 05:47 13.06.2020
1540 Clouds 32 1002 66 10000 3.1 120 05:25 13.06.2020
1541 Clouds 29 1002 74 10000 4.1 120 03:48 13.06.2020
1542 Clouds 29 1002 79 10000 3.6 100 02:54 13.06.2020
1543 Clouds 29 1002 79 10000 3.1 80 02:34 13.06.2020
1544 Clouds 27 1001 83 9000 2.6 60 01:45 13.06.2020
1545 Rain 27 1001 83 8000 2.6 60 01:19 13.06.2020
1546 Rain 27 1000 83 9000 2.6 70 00:42 13.06.2020
1547 Rain 27 1000 83 9000 3.1 70 00:23 13.06.2020
1548 Rain 27 1000 88 8000 2.6 60 23:41 12.06.2020
1549 Rain 27 1000 83 9000 4.1 80 23:19 12.06.2020
1550 Rain 27 1000 83 9000 4.1 80 22:58 12.06.2020
1551 Rain 27 1000 83 10000 3.6 60 22:39 12.06.2020
1552 Rain 27 1001 83 10000 3.1 60 22:19 12.06.2020
1553 Rain 27 1001 83 10000 3.6 70 21:47 12.06.2020
1554 Rain 27 1001 83 10000 3.6 70 21:24 12.06.2020
1555 Rain 27 1001 83 10000 3.1 60 20:58 12.06.2020
1556 Rain 27 1001 83 10000 3.1 80 20:39 12.06.2020
1557 Rain 27 1001 83 10000 3.1 80 20:39 12.06.2020
1558 Rain 27 1002 83 9000 3.6 90 20:21 12.06.2020
1559 Rain 27 1002 83 9000 3.6 90 19:54 12.06.2020
1560 Rain 27 1002 78 9000 4.1 110 19:36 12.06.2020
1561 Clouds 27 1003 78 10000 3.1 80 19:18 12.06.2020
1562 Clouds 27 1003 78 10000 3.1 80 18:37 12.06.2020
1563 Clouds 27 1003 74 10000 2.6 100 18:18 12.06.2020
1564 Clouds 27 1002 74 10000 3.1 120 17:45 12.06.2020
1565 Clouds 27 1002 74 10000 3.1 120 17:26 12.06.2020
1566 Clouds 27 1002 78 10000 3.6 110 16:58 12.06.2020
1567 Clouds 27 1001 78 10000 4.1 130 16:40 12.06.2020
1568 Clouds 28 1001 69 10000 4.1 150 16:19 12.06.2020
1569 Clouds 29 1000 66 10000 4.1 150 15:43 12.06.2020
1570 Clouds 30 1000 62 10000 2.1 190 15:19 12.06.2020
1571 Clouds 30 999 58 10000 2.1 200 14:43 12.06.2020
1572 Clouds 30 999 58 10000 2.1 200 14:23 12.06.2020
1573 Clouds 31 999 55 10000 5.1 200 13:58 12.06.2020
1574 Clouds 34 999 63 10000 5.1 130 13:40 12.06.2020
1575 Clouds 34 998 63 10000 5.1 140 13:19 12.06.2020
1576 Clouds 34 998 63 10000 6.2 130 12:40 12.06.2020
1577 Clouds 35 998 59 10000 3.1 130 12:19 12.06.2020
1578 Clouds 36 998 47 10000 3.1 170 11:56 12.06.2020
1579 Clouds 36 998 47 10000 3.1 170 11:36 12.06.2020
1580 Clouds 36 998 47 10000 3.1 170 11:36 12.06.2020
1581 Clouds 36 999 47 10000 3.1 150 11:18 12.06.2020
1582 Clouds 36 999 47 10000 3.1 160 10:42 12.06.2020
1583 Clouds 35 999 50 10000 3.1 150 10:23 12.06.2020
1584 Clouds 36 1000 47 10000 3.6 140 09:44 12.06.2020
1585 Clouds 35 1000 50 10000 3.6 140 09:21 12.06.2020
1586 Clouds 35 1000 53 10000 3.1 150 08:43 12.06.2020
1587 Clouds 35 1000 53 10000 3.1 150 08:24 12.06.2020
1588 Clouds 34 1001 56 10000 3.6 160 07:44 12.06.2020
1589 Clouds 34 1001 56 10000 3.6 160 07:25 12.06.2020
1590 Clouds 34 1002 56 10000 3.1 170 06:55 12.06.2020
1591 Clouds 33 1002 59 10000 3.1 160 06:25 12.06.2020
1592 Clouds 32 1003 70 10000 2.6 130 05:50 12.06.2020
1593 Clouds 32 1003 70 10000 2.6 130 05:26 12.06.2020
1594 Clouds 30 1004 70 10000 3.6 140 03:58 12.06.2020
1595 Clouds 27 1003 88 9000 3.1 80 02:46 12.06.2020
1596 Mist 26 1003 88 4200 3.6 70 01:52 12.06.2020
1597 Mist 26 1003 88 4200 3.6 70 01:23 12.06.2020
1598 Mist 26 1003 94 5000 2.6 60 00:41 12.06.2020
1599 Mist 26 1003 94 5000 2.6 60 00:22 12.06.2020
1600 Mist 26 1003 94 5000 2.6 70 23:58 11.06.2020
1601 Mist 26 1002 94 5000 2.6 70 23:39 11.06.2020
1602 Mist 26 1002 94 5000 2.6 70 23:20 11.06.2020
1603 Clouds 25 1002 94 9000 1 90 22:56 11.06.2020
1604 Clouds 25 1002 94 10000 1 20 22:38 11.06.2020
1605 Clouds 25 1002 94 10000 1 20 22:38 11.06.2020
1606 Rain 25 1002 88 10000 1 310 22:19 11.06.2020
1607 Rain 25 1002 88 10000 1 10 21:43 11.06.2020
1608 Rain 25 1002 88 10000 1 10 21:21 11.06.2020
1609 Rain 25 1003 88 10000 1.5 150 20:59 11.06.2020
1610 Rain 25 1003 88 10000 1.5 80 20:41 11.06.2020
1611 Rain 25 1003 88 10000 1.5 80 20:21 11.06.2020
1612 Rain 25 1004 83 10000 1 330 19:44 11.06.2020
1613 Rain 25 1004 83 10000 1 330 19:23 11.06.2020
1614 Rain 25 1004 83 10000 1 330 18:57 11.06.2020
1615 Rain 25 1005 88 10000 4.6 330 18:39 11.06.2020
1616 Rain 25 1005 88 10000 4.6 330 18:39 11.06.2020
1617 Rain 25 1005 83 10000 4.6 330 18:20 11.06.2020
1618 Thunderstorm 25 1005 83 10000 4.6 330 17:55 11.06.2020
1619 Thunderstorm 25 1005 88 9000 4.6 330 17:37 11.06.2020
1620 Rain 27 1004 88 7000 7.2 280 17:18 11.06.2020
1621 Rain 27 1004 88 10000 1.5 300 16:43 11.06.2020
1622 Rain 27 1004 88 10000 1.5 300 16:25 11.06.2020
1623 Thunderstorm 27 1003 83 10000 4.1 40 15:58 11.06.2020
1624 Thunderstorm 27 1003 83 10000 5.1 30 15:39 11.06.2020
1625 Thunderstorm 27 1003 83 10000 5.1 30 15:21 11.06.2020
1626 Thunderstorm 29 1001 66 10000 7.2 120 14:46 11.06.2020
1627 Thunderstorm 29 1001 66 10000 7.2 120 14:21 11.06.2020
1628 Clouds 32 1001 70 10000 9.3 120 13:57 11.06.2020
1629 Clouds 33 1001 66 10000 7.2 120 13:39 11.06.2020
1630 Clouds 35 1001 53 10000 3.6 150 13:21 11.06.2020
1631 Clouds 35 1001 53 10000 3.6 150 12:58 11.06.2020
1632 Clouds 34 1000 56 10000 3.1 130 12:39 11.06.2020
1633 Clouds 34 1000 56 10000 3.1 130 12:19 11.06.2020
1634 Clouds 34 1000 56 10000 3.1 130 12:19 11.06.2020
1635 Clouds 34 1000 56 10000 3.1 130 11:57 11.06.2020
1636 Clouds 34 1001 59 10000 2.6 130 11:38 11.06.2020
1637 Clouds 34 1001 59 10000 2.6 130 11:38 11.06.2020
1638 Clouds 34 1001 59 10000 2.6 130 11:20 11.06.2020
1639 Clouds 35 1001 59 10000 2.6 80 10:57 11.06.2020
1640 Clouds 34 1002 63 10000 3.1 50 10:38 11.06.2020
1641 Clouds 34 1002 63 10000 2.6 60 10:18 11.06.2020
1642 Clouds 34 1002 59 10000 2.1 90 09:40 11.06.2020
1643 Clouds 34 1002 59 10000 2.1 90 09:40 11.06.2020
1644 Clouds 34 1002 59 10000 2.1 90 09:22 11.06.2020
1645 Clouds 33 1004 66 10000 2.1 110 08:44 11.06.2020
1646 Clouds 32 1004 70 10000 3.1 70 08:20 11.06.2020
1647 Clouds 32 1004 66 10000 1.5 0 07:42 11.06.2020
1648 Clouds 32 1004 66 10000 1.5 0 07:24 11.06.2020
1649 Clouds 30 1005 79 10000 2.1 80 06:40 11.06.2020
1650 Clouds 29 1006 79 10000 2.6 80 06:21 11.06.2020
1651 Clouds 29 1006 74 10000 2.6 90 05:28 11.06.2020
1652 Clouds 27 1006 83 10000 3.1 80 03:28 11.06.2020
1653 Clouds 26 1006 83 10000 2.6 70 02:50 11.06.2020
1654 Clouds 26 1006 83 10000 2.6 70 02:31 11.06.2020
1655 Mist 25 1005 88 4200 2.6 90 01:43 11.06.2020
1656 Clouds 25 1005 88 8000 2.1 80 01:22 11.06.2020
1657 Clouds 25 1005 88 10000 1.5 100 00:45 11.06.2020
1658 Clouds 25 1005 88 10000 2.1 50 00:26 11.06.2020
1659 Clouds 25 1005 88 8000 3.1 90 23:43 10.06.2020
1660 Clouds 25 1005 88 8000 3.1 90 23:24 10.06.2020
1661 Mist 26 1005 88 5000 3.1 100 22:56 10.06.2020
1662 Clouds 26 1005 88 7000 2.6 60 22:37 10.06.2020
1663 Clouds 26 1006 88 8000 2.1 80 22:18 10.06.2020
1664 Clouds 26 1006 88 10000 4.43 165 21:55 10.06.2020
1665 Clouds 26 1006 88 10000 4.74 160 21:37 10.06.2020
1666 Rain 26 1007 88 10000 1 0 21:18 10.06.2020
1667 Rain 26 1007 88 10000 1 0 20:55 10.06.2020
1668 Rain 26 1007 88 10000 1 0 20:37 10.06.2020
1669 Clouds 26 1007 88 10000 1 0 20:19 10.06.2020
1670 Rain 26 1007 88 10000 1.5 230 19:39 10.06.2020
1671 Rain 26 1008 83 10000 2.6 240 19:18 10.06.2020
1672 Rain 25 1007 88 10000 1 0 18:57 10.06.2020
1673 Rain 25 1007 88 10000 1 0 18:38 10.06.2020
1674 Rain 25 1007 88 10000 0.5 0 18:19 10.06.2020
1675 Rain 25 1007 88 10000 1 0 17:55 10.06.2020
1676 Rain 25 1007 88 10000 1 0 17:36 10.06.2020
1677 Rain 25 1007 88 10000 1.5 40 17:18 10.06.2020
1678 Rain 25 1007 83 10000 1 0 16:41 10.06.2020
1679 Rain 25 1006 83 10000 2.1 70 16:22 10.06.2020
1680 Thunderstorm 25 1006 83 10000 2.1 70 16:22 10.06.2020
1681 Rain 25 1006 83 10000 2.1 70 15:59 10.06.2020
1682 Rain 24 1005 88 10000 4.1 100 15:38 10.06.2020
1683 Thunderstorm 25 1006 94 10000 4.6 120 15:20 10.06.2020
1684 Thunderstorm 24 1006 94 2800 7.2 260 14:41 10.06.2020
1685 Thunderstorm 25 1007 88 2300 8.2 270 14:22 10.06.2020
1686 Thunderstorm 25 1007 88 2300 8.2 270 13:58 10.06.2020
1687 Rain 32 1002 66 10000 6.7 110 13:39 10.06.2020
1688 Thunderstorm 32 1002 66 10000 6.7 110 13:21 10.06.2020
1689 Thunderstorm 34 1001 56 10000 4.6 170 12:42 10.06.2020
1690 Clouds 37 1001 50 10000 4.6 80 12:20 10.06.2020
1691 Clouds 37 1001 50 10000 4.6 80 11:56 10.06.2020
1692 Clouds 37 1002 44 10000 1.5 20 11:38 10.06.2020
1693 Clouds 37 1002 44 10000 1 0 11:19 10.06.2020
1694 Clouds 37 1002 44 10000 1 0 10:44 10.06.2020
1695 Clouds 36 1003 44 10000 2.1 120 10:25 10.06.2020
1696 Clouds 36 1003 47 10000 2.1 150 09:59 10.06.2020
1697 Clouds 36 1003 47 10000 2.1 150 09:39 10.06.2020
1698 Clouds 36 1004 50 10000 1.5 0 09:20 10.06.2020
1699 Clouds 36 1004 50 10000 1.5 0 09:20 10.06.2020
1700 Clouds 35 1005 56 10000 2.6 160 08:43 10.06.2020
1701 Clouds 36 1005 50 10000 1 0 08:23 10.06.2020
1702 Clouds 35 1006 59 10000 1.5 130 07:43 10.06.2020
1703 Clouds 35 1006 59 10000 1.5 130 07:24 10.06.2020
1704 Clouds 34 1006 59 10000 1 0 06:59 10.06.2020
1705 Clouds 34 1006 59 10000 1 0 06:39 10.06.2020
1706 Clouds 33 1006 63 10000 2.6 150 06:18 10.06.2020
1707 Clouds 33 1007 63 10000 2.6 160 05:51 10.06.2020
1708 Clouds 33 1007 63 10000 2.6 160 05:19 10.06.2020
1709 Clouds 31 1007 70 10000 3.1 140 04:29 10.06.2020
1710 Clouds 30 1006 79 10000 3.6 140 02:46 10.06.2020
1711 Clouds 29 1005 83 10000 4.1 130 01:48 10.06.2020
1712 Clouds 29 1005 83 10000 3.6 120 01:21 10.06.2020
1713 Clouds 29 1005 83 10000 4.1 120 00:38 10.06.2020
1714 Rain 29 1005 83 8000 4.1 100 00:20 10.06.2020
1715 Rain 29 1005 83 8000 3.1 80 23:42 09.06.2020
1716 Clouds 29 1005 83 8000 3.1 80 23:23 09.06.2020
1717 Clouds 29 1005 83 7000 3.6 90 22:57 09.06.2020
1718 Clouds 29 1005 79 6000 3.1 70 22:39 09.06.2020
1719 Clouds 29 1005 79 6000 3.1 70 22:20 09.06.2020
1720 Clouds 29 1005 79 6000 3.1 80 21:57 09.06.2020
1721 Clouds 29 1005 79 7000 3.1 80 21:39 09.06.2020
1722 Clouds 29 1005 79 7000 3.1 80 21:21 09.06.2020
1723 Clouds 29 1005 79 9000 2.1 70 20:58 09.06.2020
1724 Clouds 30 1005 70 10000 3.1 140 20:39 09.06.2020
1725 Clouds 30 1005 70 9000 3.6 140 20:20 09.06.2020
1726 Clouds 30 1005 70 9000 3.6 140 19:59 09.06.2020
1727 Clouds 30 1006 70 7000 2.6 130 19:39 09.06.2020
1728 Clouds 30 1006 70 7000 3.1 130 19:20 09.06.2020
1729 Clouds 30 1006 70 6000 3.1 130 18:58 09.06.2020
1730 Clouds 30 1006 70 6000 3.1 130 18:39 09.06.2020
1731 Clouds 28 1006 83 7000 2.6 80 18:21 09.06.2020
1732 Clouds 28 1006 83 7000 2.6 80 17:56 09.06.2020
1733 Clouds 28 1006 78 7000 1.5 80 17:37 09.06.2020
1734 Clouds 28 1006 78 7000 1.5 80 17:19 09.06.2020
1735 Clouds 28 1005 78 10000 2.1 90 16:43 09.06.2020
1736 Clouds 28 1005 78 10000 2.1 90 16:23 09.06.2020
1737 Clouds 28 1005 83 10000 3.1 70 15:57 09.06.2020
1738 Clouds 28 1004 78 10000 1.5 60 15:38 09.06.2020
1739 Clouds 28 1004 78 10000 1.5 60 15:20 09.06.2020
1740 Clouds 28 1004 78 10000 2.1 60 14:55 09.06.2020
1741 Thunderstorm 28 1003 78 9000 3.1 30 14:36 09.06.2020
1742 Thunderstorm 29 1003 62 8000 2.6 250 14:18 09.06.2020
1743 Clouds 33 1002 49 10000 8.7 250 13:42 09.06.2020
1744 Clouds 37 1002 42 10000 3.6 150 13:21 09.06.2020
1745 Clouds 37 1002 42 10000 3.6 150 12:58 09.06.2020
1746 Clouds 36 1001 44 10000 4.1 140 12:40 09.06.2020
1747 Clouds 37 1001 42 10000 4.6 110 12:18 09.06.2020
1748 Clouds 37 1001 42 10000 4.6 110 11:55 09.06.2020
1749 Clouds 37 1001 42 10000 2.6 80 11:36 09.06.2020
1750 Clouds 37 1001 44 10000 3.1 70 11:18 09.06.2020
1751 Clouds 38 1002 42 10000 4.1 90 10:42 09.06.2020
1752 Clouds 38 1002 42 10000 4.1 90 10:24 09.06.2020
1753 Clouds 38 1002 39 10000 1.5 210 09:44 09.06.2020
1754 Clouds 38 1002 39 10000 1.5 210 09:24 09.06.2020
1755 Clouds 38 1003 37 10000 2.1 220 08:56 09.06.2020
1756 Clouds 38 1003 37 10000 1 0 08:38 09.06.2020
1757 Clouds 37 1004 42 10000 2.1 0 08:19 09.06.2020
1758 Clouds 37 1004 42 10000 1.5 0 07:38 09.06.2020
1759 Clouds 36 1004 44 10000 2.6 330 07:19 09.06.2020
1760 Clouds 36 1004 44 10000 1 0 06:53 09.06.2020
1761 Clouds 36 1004 44 10000 1 0 06:34 09.06.2020
1762 Clouds 34 1005 49 10000 1.5 280 05:34 09.06.2020
1763 Clouds 32 1004 62 10000 2.6 90 03:21 09.06.2020
1764 Clouds 29 1003 74 10000 2.1 60 01:43 09.06.2020
1765 Clouds 28 1003 78 10000 2.1 70 01:19 09.06.2020
1766 Clouds 28 1002 78 10000 2.6 80 00:50 09.06.2020
1767 Clouds 29 1002 74 10000 2.6 90 00:21 09.06.2020
1768 Clouds 29 1002 74 10000 2.6 90 23:58 08.06.2020
1769 Clouds 28 1002 78 10000 2.6 80 23:38 08.06.2020
1770 Clouds 28 1002 78 10000 2.6 80 23:19 08.06.2020
1771 Clouds 29 1002 70 10000 3.1 90 22:42 08.06.2020
1772 Clouds 29 1002 70 10000 3.1 90 22:23 08.06.2020
1773 Clouds 29 1002 74 10000 2.6 80 21:58 08.06.2020
1774 Clouds 29 1002 74 10000 2.6 80 21:58 08.06.2020
1775 Clouds 29 1002 70 10000 3.1 80 21:40 08.06.2020
1776 Clouds 29 1002 70 10000 3.1 80 21:21 08.06.2020
1777 Rain 29 1002 74 10000 3.1 80 20:57 08.06.2020
1778 Rain 29 1002 70 9000 3.1 80 20:39 08.06.2020
1779 Clouds 30 1002 70 9000 2.6 70 20:20 08.06.2020
1780 Clouds 30 1002 70 8000 3.1 80 19:55 08.06.2020
1781 Clouds 30 1002 70 8000 3.1 80 19:37 08.06.2020
1782 Rain 30 1002 70 8000 2.6 70 19:18 08.06.2020
1783 Rain 30 1002 70 8000 3.1 80 18:40 08.06.2020
1784 Clouds 31 1002 66 6000 3.1 80 18:18 08.06.2020
1785 Clouds 31 1002 66 6000 3.1 80 17:56 08.06.2020
1786 Haze 31 1001 66 5000 3.1 80 17:37 08.06.2020
1787 Haze 31 1001 66 5000 3.1 80 17:19 08.06.2020
1788 Clouds 32 1001 62 6000 3.1 80 16:45 08.06.2020
1789 Clouds 32 1001 62 6000 3.1 80 16:25 08.06.2020
1790 Clouds 33 1001 55 9000 4.6 100 15:57 08.06.2020
1791 Clouds 34 1000 56 8000 4.1 130 15:39 08.06.2020
1792 Clouds 34 1000 56 8000 4.1 130 15:19 08.06.2020
1793 Clouds 35 1000 50 10000 4.6 150 14:41 08.06.2020
1794 Clouds 36 999 41 10000 2.1 280 14:22 08.06.2020
1795 Clouds 36 999 41 10000 2.1 280 13:56 08.06.2020
1796 Clouds 37 999 42 10000 2.6 280 13:38 08.06.2020
1797 Clouds 38 999 37 10000 3.1 250 13:19 08.06.2020
1798 Clouds 38 998 37 10000 5.1 260 12:40 08.06.2020
1799 Clouds 39 999 35 10000 3.1 240 12:19 08.06.2020
1800 Clouds 39 999 35 10000 3.6 230 11:42 08.06.2020
1801 Clouds 39 999 35 10000 3.6 230 11:24 08.06.2020
1802 Clear 39 999 35 10000 3.1 210 10:59 08.06.2020
1803 Clear 39 999 37 10000 3.6 250 10:40 08.06.2020
1804 Clear 39 999 37 10000 3.6 250 10:21 08.06.2020
1805 Clear 38 999 37 10000 3.6 260 09:59 08.06.2020
1806 Clear 38 999 37 10000 3.6 260 09:59 08.06.2020
1807 Clear 38 1000 37 10000 4.1 250 09:41 08.06.2020
1808 Clouds 38 1000 37 10000 4.1 250 09:22 08.06.2020
1809 Clouds 38 1000 39 10000 4.6 280 08:48 08.06.2020
1810 Clouds 38 1000 39 10000 4.6 280 08:23 08.06.2020
1811 Clouds 37 1001 42 10000 5.1 270 07:46 08.06.2020
1812 Clouds 37 1001 42 10000 5.7 270 07:24 08.06.2020
1813 Clouds 36 1002 44 10000 4.6 250 06:54 08.06.2020
1814 Clouds 36 1002 44 10000 4.6 250 06:35 08.06.2020
1815 Clouds 36 1002 44 10000 4.6 230 05:53 08.06.2020
1816 Clouds 35 1002 47 10000 3.6 230 04:32 08.06.2020
1817 Clouds 31 1001 58 10000 2.1 200 02:46 08.06.2020
1818 Clouds 31 1001 58 10000 2.1 200 02:21 08.06.2020
1819 Clouds 31 1000 58 10000 1.5 190 01:34 08.06.2020
1820 Clouds 29 1000 74 8000 2.6 170 00:33 08.06.2020
1821 Clouds 29 1000 74 8000 2.6 170 23:59 07.06.2020
1822 Clouds 28 1000 78 6000 1.5 90 23:37 07.06.2020
1823 Clouds 29 999 74 7000 1 0 23:18 07.06.2020
1824 Clouds 29 999 74 6000 1.5 60 22:39 07.06.2020
1825 Clouds 29 999 74 6000 1.5 60 22:20 07.06.2020
1826 Clouds 31 999 62 10000 2.1 190 21:59 07.06.2020
1827 Clouds 31 999 66 9000 2.1 170 21:39 07.06.2020
1828 Clouds 31 999 66 9000 2.1 170 21:20 07.06.2020
1829 Clouds 31 999 66 9000 2.1 170 21:20 07.06.2020
1830 Clouds 31 999 66 9000 2.1 170 21:20 07.06.2020
1831 Clouds 31 999 66 9000 2.1 170 21:20 07.06.2020
1832 Clouds 31 999 66 7000 2.1 160 20:57 07.06.2020
1833 Clouds 31 999 66 6000 2.6 180 20:38 07.06.2020
1834 Clouds 31 999 66 6000 2.6 150 20:18 07.06.2020
1835 Clouds 31 999 66 6000 2.1 150 19:55 07.06.2020
1836 Clouds 31 999 66 6000 2.6 150 19:55 07.06.2020
1837 Clouds 31 999 66 6000 2.1 150 19:37 07.06.2020
1838 Clouds 30 1000 74 6000 1.5 100 19:19 07.06.2020
1839 Clouds 31 1000 66 6000 2.6 130 18:54 07.06.2020
1840 Clouds 31 1000 66 6000 2.6 130 18:36 07.06.2020
1841 Clouds 31 1000 66 6000 4.1 130 18:18 07.06.2020
1842 Clouds 32 1000 62 6000 4.6 140 17:41 07.06.2020
1843 Clouds 32 1000 62 6000 4.6 140 17:22 07.06.2020
1844 Clouds 33 1000 59 8000 3.6 150 16:45 07.06.2020
1845 Clouds 33 1000 59 8000 3.6 150 16:23 07.06.2020
1846 Clouds 33 1000 59 8000 3.6 140 15:59 07.06.2020
1847 Clouds 34 999 49 7000 2.6 200 15:36 07.06.2020
1848 Clouds 35 999 47 8000 2.6 210 15:18 07.06.2020
1849 Clouds 36 998 41 9000 2.1 220 14:38 07.06.2020
1850 Clouds 36 998 41 9000 2.1 220 14:19 07.06.2020
1851 Clouds 36 998 44 9000 2.1 230 13:46 07.06.2020
1852 Clouds 36 998 44 9000 2.1 230 13:46 07.06.2020
1853 Clouds 36 998 44 9000 2.1 230 13:46 07.06.2020
1854 Clouds 36 998 44 9000 2.1 230 13:46 07.06.2020
1855 Clouds 36 998 44 10000 2.1 240 13:20 07.06.2020
1856 Clouds 36 998 41 10000 1.5 260 12:45 07.06.2020
1857 Clouds 37 998 39 10000 2.6 260 12:26 07.06.2020
1858 Clouds 37 998 39 10000 2.6 260 12:26 07.06.2020
1859 Clouds 37 998 39 10000 2.6 260 11:56 07.06.2020
1860 Clouds 37 998 39 10000 2.6 260 11:56 07.06.2020
1861 Clouds 37 998 39 10000 2.6 260 11:56 07.06.2020
1862 Clouds 37 998 39 10000 3.1 260 11:38 07.06.2020
1863 Clouds 37 998 39 10000 3.1 260 11:20 07.06.2020
1864 Clouds 37 999 39 10000 4.1 260 10:58 07.06.2020
1865 Clouds 37 999 39 10000 4.1 260 10:58 07.06.2020
1866 Clouds 38 999 37 10000 5.1 260 10:39 07.06.2020
1867 Clear 38 999 37 10000 5.1 260 10:19 07.06.2020
1868 Clouds 37 999 44 10000 4.6 270 09:56 07.06.2020
1869 Clear 38 1000 42 10000 3.1 280 09:38 07.06.2020
1870 Clear 38 1000 42 10000 3.1 280 09:19 07.06.2020
1871 Clouds 37 1000 44 10000 2.6 240 08:44 07.06.2020
1872 Clouds 37 1000 44 10000 2.6 240 08:23 07.06.2020
1873 Clouds 37 1000 44 10000 2.6 240 08:23 07.06.2020
1874 Clouds 37 1001 44 10000 2.6 260 07:46 07.06.2020
1875 Clouds 37 1001 44 10000 2.6 260 07:28 07.06.2020
1876 Clouds 36 1001 44 10000 2.1 0 06:25 07.06.2020
1877 Clouds 35 1001 53 10000 2.6 360 05:34 07.06.2020
1878 Clouds 33 1001 59 10000 1.5 50 04:19 07.06.2020
1879 Clouds 30 1002 70 10000 2.1 70 02:30 07.06.2020
1880 Clouds 28 1001 83 7000 2.1 80 01:43 07.06.2020
1881 Clouds 28 1001 83 7000 2.1 80 01:24 07.06.2020
1882 Clouds 28 1001 78 8000 2.1 60 00:40 07.06.2020
1883 Clouds 29 1001 74 10000 1.5 130 00:18 07.06.2020
1884 Clouds 29 1001 74 10000 1.5 130 23:55 06.06.2020
1885 Clouds 29 1001 74 8000 2.1 140 23:36 06.06.2020
1886 Clouds 28 1001 83 7000 1.5 90 23:18 06.06.2020
1887 Clouds 28 1001 83 7000 1.5 90 22:55 06.06.2020
1888 Clouds 28 1001 83 7000 1.5 90 22:37 06.06.2020
1889 Clouds 28 1001 83 7000 2.6 80 22:18 06.06.2020
1890 Clouds 28 1001 83 6000 2.6 60 21:42 06.06.2020
1891 Rain 28 1001 83 6000 2.6 60 21:20 06.06.2020
1892 Rain 29 1002 79 6000 2.6 70 20:42 06.06.2020
1893 Smoke 29 1002 79 5000 2.6 80 20:21 06.06.2020
1894 Smoke 29 1002 79 5000 2.6 80 19:59 06.06.2020
1895 Smoke 29 1002 79 5000 2.1 50 19:41 06.06.2020
1896 Smoke 29 1002 79 4700 2.6 90 19:23 06.06.2020
1897 Smoke 29 1002 79 4700 2.6 90 18:59 06.06.2020
1898 Smoke 29 1003 79 4800 2.6 70 18:41 06.06.2020
1899 Smoke 30 1003 74 4600 2.6 80 18:22 06.06.2020
1900 Smoke 30 1003 74 4700 3.1 80 17:44 06.06.2020
1901 Haze 31 1002 66 4700 3.6 130 17:21 06.06.2020
1902 Haze 31 1002 66 4700 3.6 130 16:58 06.06.2020
1903 Haze 32 1002 62 4800 4.1 130 16:39 06.06.2020
1904 Haze 32 1002 62 4800 4.1 130 16:21 06.06.2020
1905 Haze 32 1002 66 4700 3.6 130 15:54 06.06.2020
1906 Haze 32 1001 66 4600 3.1 130 15:36 06.06.2020
1907 Haze 32 1001 66 4600 3.1 130 15:18 06.06.2020
1908 Mist 32 1001 75 3600 2.1 30 14:39 06.06.2020
1909 Clouds 34 1001 56 8000 1 0 14:20 06.06.2020
1910 Clouds 34 1000 56 10000 1.5 200 13:49 06.06.2020
1911 Clouds 35 1000 53 10000 2.1 200 13:20 06.06.2020
1912 Clouds 35 1000 53 10000 2.1 200 12:59 06.06.2020
1913 Clouds 34 1000 56 10000 2.1 170 12:40 06.06.2020
1914 Clouds 34 1000 59 10000 1.5 0 12:21 06.06.2020
1915 Clouds 34 1000 59 10000 1.5 0 12:21 06.06.2020
1916 Clouds 34 1000 59 10000 1.5 0 11:57 06.06.2020
1917 Clouds 35 1000 59 10000 1.5 0 11:38 06.06.2020
1918 Clouds 35 1000 59 10000 1.5 0 11:19 06.06.2020
1919 Clouds 34 1001 63 10000 1.5 330 10:57 06.06.2020
1920 Clouds 34 1001 63 10000 2.1 330 10:38 06.06.2020
1921 Clouds 34 1002 63 10000 1.5 0 10:20 06.06.2020
1922 Clouds 34 1002 63 10000 1.5 0 09:45 06.06.2020
1923 Clouds 34 1002 63 10000 1.5 0 09:27 06.06.2020
1924 Clear 34 1003 63 10000 1.5 40 08:50 06.06.2020
1925 Clouds 34 1003 63 10000 1.5 40 08:25 06.06.2020
1926 Clouds 33 1003 66 9000 2.6 20 07:59 06.06.2020
1927 Clouds 34 1003 63 10000 2.6 40 07:40 06.06.2020
1928 Clouds 34 1003 63 10000 2.6 40 07:20 06.06.2020
1929 Clouds 34 1003 59 10000 2.1 80 06:46 06.06.2020
1930 Clouds 33 1004 63 9000 2.6 50 06:26 06.06.2020
1931 Clouds 32 1004 70 9000 2.1 70 05:44 06.06.2020
1932 Clouds 32 1004 70 9000 2.1 70 05:24 06.06.2020
1933 Clouds 31 1003 70 10000 2.6 80 04:24 06.06.2020
1934 Clouds 29 1003 83 10000 2.6 80 02:36 06.06.2020
1935 Clouds 28 1003 83 8000 2.6 70 01:24 06.06.2020
1936 Clouds 28 1003 83 7000 3.1 80 00:59 06.06.2020
1937 Clouds 28 1002 83 10000 3.1 60 00:40 06.06.2020
1938 Clouds 28 1002 83 10000 2.1 70 00:22 06.06.2020
1939 Clouds 28 1002 83 10000 2.1 60 23:40 05.06.2020
1940 Rain 28 1002 83 10000 2.1 60 23:20 05.06.2020
1941 Rain 28 1002 83 10000 2.1 80 22:58 05.06.2020
1942 Rain 28 1002 83 10000 2.6 70 22:39 05.06.2020
1943 Rain 28 1002 83 10000 2.6 70 22:21 05.06.2020
1944 Rain 28 1002 83 10000 3.1 70 21:55 05.06.2020
1945 Rain 28 1002 83 10000 4.1 70 21:37 05.06.2020
1946 Clouds 29 1003 79 10000 3.1 70 21:18 05.06.2020
1947 Clouds 28 1003 83 9000 2.6 70 20:44 05.06.2020
1948 Clouds 29 1003 79 9000 2.6 80 20:22 05.06.2020
1949 Clouds 29 1004 79 8000 2.6 90 19:57 05.06.2020
1950 Clouds 29 1003 79 9000 2.6 80 19:57 05.06.2020
1951 Clouds 29 1004 79 8000 2.6 90 19:39 05.06.2020
1952 Clouds 29 1004 74 7000 3.1 80 19:20 05.06.2020
1953 Clouds 30 1004 70 7000 3.6 80 18:40 05.06.2020
1954 Clouds 30 1004 70 7000 3.6 90 18:21 05.06.2020
1955 Clouds 30 1004 70 7000 3.6 90 17:59 05.06.2020
1956 Smoke 30 1004 70 5000 4.1 90 17:40 05.06.2020
1957 Smoke 30 1004 70 5000 4.1 90 17:20 05.06.2020
1958 Smoke 31 1003 66 5000 4.1 100 16:45 05.06.2020
1959 Smoke 31 1003 66 5000 4.1 100 16:26 05.06.2020
1960 Clouds 32 1002 66 6000 4.6 120 15:59 05.06.2020
1961 Clouds 31 1002 70 7000 4.1 100 15:38 05.06.2020
1962 Clouds 31 1002 70 7000 4.1 100 15:20 05.06.2020
1963 Clouds 32 1002 66 8000 5.1 100 14:56 05.06.2020
1964 Smoke 33 1002 63 4200 4.1 90 14:38 05.06.2020
1965 Smoke 33 1002 63 4200 4.1 90 14:19 05.06.2020
1966 Clouds 34 1001 56 10000 4.1 90 13:44 05.06.2020
1967 Clouds 34 1001 56 10000 4.1 90 13:26 05.06.2020
1968 Clouds 35 1001 53 10000 1.5 150 12:55 05.06.2020
1969 Clouds 36 1001 50 10000 1.5 0 12:37 05.06.2020
1970 Clouds 35 1001 50 10000 1.5 0 12:18 05.06.2020
1971 Clouds 35 1001 50 10000 2.6 80 11:42 05.06.2020
1972 Clouds 35 1001 50 10000 2.6 80 11:23 05.06.2020
1973 Clouds 36 1001 47 10000 1 0 10:56 05.06.2020
1974 Clouds 35 1002 50 10000 2.6 290 10:38 05.06.2020
1975 Clouds 35 1002 53 10000 2.1 280 10:19 05.06.2020
1976 Clouds 35 1002 53 10000 2.1 280 09:55 05.06.2020
1977 Clouds 34 1002 56 10000 1.5 0 09:37 05.06.2020
1978 Clouds 34 1002 56 10000 1.5 0 09:18 05.06.2020
1979 Clouds 35 1003 56 10000 1.5 0 08:55 05.06.2020
1980 Clouds 34 1003 59 10000 2.1 0 08:36 05.06.2020
1981 Clouds 33 1004 63 10000 2.6 50 08:18 05.06.2020
1982 Clouds 33 1004 63 10000 2.6 70 07:43 05.06.2020
1983 Clouds 32 1004 70 8000 2.1 40 07:20 05.06.2020
1984 Clouds 31 1005 70 8000 2.6 60 05:58 05.06.2020
1985 Clouds 31 1005 74 9000 2.1 40 05:19 05.06.2020
1986 Clouds 30 1004 74 10000 1.5 30 03:54 05.06.2020
1987 Clouds 29 1004 79 10000 2.1 50 02:53 05.06.2020
1988 Clouds 29 1004 79 10000 2.1 50 02:21 05.06.2020
1989 Clouds 28 1003 83 10000 3.1 80 01:52 05.06.2020
1990 Clouds 28 1002 83 10000 2.6 80 01:20 05.06.2020
1991 Clouds 28 1002 83 10000 3.6 110 00:41 05.06.2020
1992 Clouds 28 1002 83 10000 3.1 90 00:20 05.06.2020
1993 Clouds 28 1002 83 10000 2.6 80 23:46 04.06.2020
1994 Clouds 28 1002 83 10000 2.6 80 23:26 04.06.2020
1995 Clouds 29 1002 79 10000 3.6 90 22:55 04.06.2020
1996 Clouds 29 1002 79 9000 4.1 80 22:36 04.06.2020
1997 Clouds 29 1002 79 10000 3.1 80 22:18 04.06.2020
1998 Clouds 29 1002 79 10000 3.6 110 21:41 04.06.2020
1999 Clouds 29 1002 79 10000 3.6 110 21:23 04.06.2020
2000 Clouds 29 1002 79 10000 4.6 130 20:59 04.06.2020
2001 Clouds 30 1003 70 10000 5.1 120 20:39 04.06.2020
2002 Clouds 29 1003 74 10000 4.6 110 20:20 04.06.2020
2003 Clouds 30 1003 70 8000 4.1 120 19:57 04.06.2020
2004 Clouds 30 1003 70 8000 4.1 120 19:38 04.06.2020
2005 Clouds 30 1004 70 8000 4.6 110 19:20 04.06.2020
2006 Clouds 30 1004 70 9000 4.6 110 18:40 04.06.2020
2007 Clouds 30 1004 70 10000 4.6 120 18:21 04.06.2020
2008 Clouds 30 1004 70 10000 4.6 120 17:59 04.06.2020
2009 Clouds 30 1004 66 10000 4.1 120 17:41 04.06.2020
2010 Clouds 30 1004 66 10000 4.1 120 17:20 04.06.2020
2011 Clouds 31 1003 66 7000 4.6 120 16:41 04.06.2020
2012 Clouds 31 1003 66 7000 4.6 120 16:21 04.06.2020
2013 Clouds 31 1003 66 7000 4.6 120 16:21 04.06.2020
2014 Clouds 31 1002 66 7000 4.6 110 15:55 04.06.2020
2015 Clouds 32 1002 62 7000 5.1 100 15:37 04.06.2020
2016 Clouds 32 1001 62 9000 5.7 120 15:19 04.06.2020
2017 Clouds 33 1001 55 10000 6.2 120 14:38 04.06.2020
2018 Clouds 34 1000 56 10000 5.7 120 14:19 04.06.2020
2019 Clouds 34 1000 56 10000 6.7 130 13:43 04.06.2020
2020 Clouds 35 1000 56 10000 6.2 90 13:21 04.06.2020
2021 Clouds 35 1000 56 10000 6.2 90 13:21 04.06.2020
2022 Clouds 35 1000 56 10000 6.2 90 12:59 04.06.2020
2023 Clouds 35 1000 59 10000 5.7 100 12:41 04.06.2020
2024 Clouds 35 1000 59 10000 6.2 100 12:23 04.06.2020
2025 Clouds 35 1000 59 10000 6.2 100 11:58 04.06.2020
2026 Clouds 36 1000 50 10000 4.1 110 11:38 04.06.2020
2027 Clouds 36 1000 50 10000 4.1 110 11:20 04.06.2020
2028 Clouds 36 1000 50 10000 3.1 120 10:56 04.06.2020
2029 Clouds 36 1000 50 10000 3.1 120 10:56 04.06.2020
2030 Clouds 36 1001 53 10000 4.1 120 10:37 04.06.2020
2031 Clouds 37 1001 53 10000 3.6 120 10:18 04.06.2020
2032 Clouds 37 1002 50 10000 2.1 120 09:42 04.06.2020
2033 Clouds 37 1002 50 10000 2.1 120 09:23 04.06.2020
2034 Clouds 35 1003 53 10000 2.6 150 08:44 04.06.2020
2035 Clouds 35 1003 53 10000 2.6 150 08:26 04.06.2020
2036 Clouds 35 1003 53 10000 2.6 0 07:47 04.06.2020
2037 Clouds 34 1004 59 10000 1.5 0 07:27 04.06.2020
2038 Clouds 34 1004 59 10000 2.1 0 06:44 04.06.2020
2039 Clouds 33 1005 66 10000 2.1 0 06:25 04.06.2020
2040 Clouds 33 1005 66 10000 2.1 60 05:35 04.06.2020
2041 Clouds 31 1005 74 10000 3.1 80 04:33 04.06.2020
2042 Clouds 30 1005 79 10000 2.6 90 03:24 04.06.2020
2043 Clouds 29 1004 79 9000 3.6 100 01:56 04.06.2020
2044 Clouds 28 1004 83 10000 3.6 90 01:19 04.06.2020
2045 Clouds 28 1003 83 10000 3.6 100 00:40 04.06.2020
2046 Clouds 28 1003 83 10000 4.1 110 23:44 03.06.2020
2047 Clouds 28 1003 83 10000 3.6 100 23:21 03.06.2020
2048 Clouds 28 1003 83 10000 3.6 100 22:59 03.06.2020
2049 Clouds 28 1003 83 10000 4.6 110 22:39 03.06.2020
2050 Clouds 28 1003 83 10000 4.1 100 22:19 03.06.2020
2051 Clouds 28 1003 83 10000 4.1 100 21:57 03.06.2020
2052 Rain 28 1003 83 10000 4.6 110 21:38 03.06.2020
2053 Rain 28 1003 83 10000 4.6 110 21:20 03.06.2020
2054 Rain 28 1003 83 10000 4.6 100 20:54 03.06.2020
2055 Rain 28 1004 83 10000 4.1 100 20:36 03.06.2020
2056 Rain 28 1004 83 10000 4.1 100 20:36 03.06.2020
2057 Rain 28 1005 83 10000 4.1 90 20:18 03.06.2020
2058 Rain 28 1005 83 10000 4.1 100 19:54 03.06.2020
2059 Rain 28 1005 83 10000 4.1 100 19:36 03.06.2020
2060 Clouds 29 1005 74 10000 4.1 100 19:18 03.06.2020
2061 Clouds 29 1005 74 10000 4.6 90 18:41 03.06.2020
2062 Clouds 29 1005 74 10000 5.1 100 18:21 03.06.2020
2063 Clouds 29 1005 74 10000 5.1 100 17:55 03.06.2020
2064 Clouds 29 1005 74 10000 4.6 110 17:37 03.06.2020
2065 Clouds 29 1005 74 10000 4.6 110 17:18 03.06.2020
2066 Clouds 30 1004 70 9000 6.2 120 16:41 03.06.2020
2067 Clouds 30 1004 70 9000 6.2 120 16:20 03.06.2020
2068 Clouds 30 1004 70 9000 6.2 110 15:55 03.06.2020
2069 Clouds 30 1004 70 9000 6.2 110 15:55 03.06.2020
2070 Clouds 31 1004 66 9000 6.2 120 15:37 03.06.2020
2071 Clear 32 1003 66 8000 6.2 120 15:19 03.06.2020
2072 Clear 32 1002 66 6000 6.2 110 14:45 03.06.2020
2073 Clouds 32 1002 66 6000 6.2 110 14:24 03.06.2020
2074 Clouds 32 1001 70 9000 6.2 100 13:54 03.06.2020
2075 Clouds 33 1001 63 10000 6.2 100 13:36 03.06.2020
2076 Clouds 33 1001 55 10000 5.7 100 13:18 03.06.2020
2077 Clouds 34 1001 52 10000 4.6 110 12:42 03.06.2020
2078 Clouds 34 1001 52 10000 7.2 100 12:20 03.06.2020
2079 Clouds 34 1001 56 10000 5.7 110 11:44 03.06.2020
2080 Clouds 34 1001 56 10000 5.7 110 11:26 03.06.2020
2081 Clouds 36 1001 50 10000 2.1 70 10:55 03.06.2020
2082 Clouds 35 1003 56 10000 1.5 70 10:36 03.06.2020
2083 Clouds 35 1003 56 10000 1.5 70 10:18 03.06.2020
2084 Clouds 35 1003 56 10000 2.1 70 09:41 03.06.2020
2085 Clouds 35 1003 56 10000 2.1 70 09:19 03.06.2020
2086 Clouds 35 1004 56 10000 2.1 340 08:47 03.06.2020
2087 Clouds 34 1004 56 10000 2.1 20 08:22 03.06.2020
2088 Clouds 34 1004 56 10000 2.1 20 07:58 03.06.2020
2089 Clouds 34 1004 56 10000 1 0 07:36 03.06.2020
2090 Clouds 34 1004 56 10000 1 0 07:18 03.06.2020
2091 Clouds 33 1005 63 10000 2.1 20 06:44 03.06.2020
2092 Clouds 33 1005 59 10000 2.1 60 06:22 03.06.2020
2093 Clouds 33 1005 59 10000 2.1 60 05:44 03.06.2020
2094 Clouds 32 1005 66 10000 2.6 80 04:20 03.06.2020
2095 Clouds 30 1005 74 10000 2.6 80 03:41 03.06.2020
2096 Clouds 29 1005 79 10000 3.1 60 02:34 03.06.2020
2097 Clouds 28 1004 88 7000 3.1 60 01:42 03.06.2020
2098 Clouds 27 1003 88 6000 3.1 60 00:38 03.06.2020
2099 Clouds 28 1003 88 8000 3.1 60 00:19 03.06.2020
2100 Clouds 27 1003 88 9000 2.6 50 23:43 02.06.2020
2101 Clouds 27 1003 88 9000 2.6 50 23:24 02.06.2020
2102 Clouds 28 1002 83 9000 2.6 80 22:40 02.06.2020
2103 Clouds 28 1003 83 9000 2.6 80 22:19 02.06.2020
2104 Clouds 28 1003 83 9000 2.6 80 21:57 02.06.2020
2105 Clouds 28 1003 83 8000 2.6 80 21:39 02.06.2020
2106 Clouds 28 1003 83 8000 2.6 80 21:21 02.06.2020
2107 Clouds 28 1003 83 8000 3.1 100 20:59 02.06.2020
2108 Clouds 28 1003 83 8000 3.1 100 20:59 02.06.2020
2109 Clouds 28 1003 83 8000 3.1 80 20:41 02.06.2020
2110 Clouds 28 1003 83 8000 3.1 80 20:22 02.06.2020
2111 Clouds 28 1004 78 9000 2.6 70 19:46 02.06.2020
2112 Clouds 28 1005 78 9000 2.6 80 19:27 02.06.2020
2113 Clouds 28 1005 78 9000 2.6 80 18:59 02.06.2020
2114 Clouds 28 1005 74 10000 2.1 90 18:41 02.06.2020
2115 Clouds 28 1005 74 10000 2.6 90 18:21 02.06.2020
2116 Clouds 28 1005 74 10000 2.6 90 17:59 02.06.2020
2117 Clouds 28 1005 74 10000 3.1 80 17:40 02.06.2020
2118 Clear 28 1005 74 10000 3.1 80 17:21 02.06.2020
2119 Clear 28 1005 74 10000 3.6 100 16:56 02.06.2020
2120 Clear 28 1004 69 10000 3.6 100 16:38 02.06.2020
2121 Clear 29 1004 62 10000 5.1 110 16:19 02.06.2020
2122 Clear 29 1003 62 10000 4.1 120 15:41 02.06.2020
2123 Clear 29 1003 62 10000 4.1 120 15:22 02.06.2020
2124 Clear 29 1003 66 10000 5.1 100 14:48 02.06.2020
2125 Clouds 31 1002 55 10000 5.1 140 14:28 02.06.2020
2126 Clouds 31 1002 62 10000 4.1 150 13:57 02.06.2020
2127 Clouds 32 1001 55 10000 4.6 160 13:37 02.06.2020
2128 Clouds 32 1001 55 10000 4.6 160 13:37 02.06.2020
2129 Clouds 34 1001 52 10000 6.7 170 13:18 02.06.2020
2130 Clouds 34 1001 52 10000 6.7 170 12:56 02.06.2020
2131 Clouds 36 1001 44 10000 1.5 0 12:38 02.06.2020
2132 Clouds 36 1001 44 10000 2.6 150 12:19 02.06.2020
2133 Clouds 37 1001 44 10000 1.5 0 11:41 02.06.2020
2134 Clouds 37 1001 44 10000 1.5 0 11:23 02.06.2020
2135 Clouds 36 1002 44 10000 2.1 0 10:59 02.06.2020
2136 Clouds 36 1002 44 10000 2.1 0 10:41 02.06.2020
2137 Clouds 36 1002 44 10000 2.1 0 10:21 02.06.2020
2138 Clouds 36 1003 47 10000 2.6 250 09:43 02.06.2020
2139 Clouds 36 1003 47 10000 2.6 250 09:21 02.06.2020
2140 Clouds 36 1003 47 10000 2.1 0 08:55 02.06.2020
2141 Clouds 35 1004 50 10000 1.5 150 08:29 02.06.2020
2142 Clear 35 1005 50 10000 1 0 07:58 02.06.2020
2143 Clear 35 1005 50 10000 1 0 07:33 02.06.2020
2144 Clear 34 1005 52 10000 2.1 0 06:59 02.06.2020
2145 Clear 33 1005 59 10000 2.1 220 06:38 02.06.2020
2146 Clear 32 1006 66 10000 1 0 05:37 02.06.2020
2147 Clouds 30 1006 74 8000 2.1 0 04:24 02.06.2020
2148 Mist 28 1005 83 5000 2.6 50 02:37 02.06.2020
2149 Mist 27 1005 88 5000 1.5 50 01:55 02.06.2020
2150 Clouds 26 1004 88 7000 2.6 60 00:51 02.06.2020
2151 Clouds 26 1004 88 8000 3.1 50 00:21 02.06.2020
2152 Clouds 26 1004 83 8000 3.1 50 23:39 01.06.2020
2153 Clouds 26 1004 83 8000 3.1 50 23:20 01.06.2020
2154 Clouds 26 1004 88 8000 3.6 70 22:56 01.06.2020
2155 Clouds 26 1004 88 8000 3.6 50 22:38 01.06.2020
2156 Clouds 26 1004 88 8000 3.6 50 22:19 01.06.2020
2157 Clouds 26 1004 88 8000 4.1 60 22:19 01.06.2020
2158 Clouds 26 1005 88 9000 2.6 70 21:42 01.06.2020
2159 Clouds 26 1005 88 9000 2.6 70 21:21 01.06.2020
2160 Clouds 26 1005 83 10000 2.1 80 20:59 01.06.2020
2161 Clouds 28 1004 76 0 2.91 158 20:41 01.06.2020
2162 Clouds 28 1005 76 0 3.3 152 20:20 01.06.2020
2163 Clouds 28 1005 76 0 3.3 152 19:58 01.06.2020
2164 Clouds 26 1007 83 10000 3.1 60 19:39 01.06.2020
2165 Clouds 26 1007 83 10000 3.1 60 19:20 01.06.2020
2166 Clouds 26 1007 83 10000 3.1 60 18:57 01.06.2020
2167 Clouds 26 1007 83 10000 3.1 60 18:38 01.06.2020
2168 Clouds 26 1007 83 10000 3.1 70 18:19 01.06.2020
2169 Rain 26 1006 88 9000 3.6 80 17:41 01.06.2020
2170 Rain 26 1006 88 9000 3.6 80 17:21 01.06.2020
2171 Rain 26 1006 88 9000 3.6 80 16:58 01.06.2020
2172 Rain 26 1006 88 8000 3.6 90 16:39 01.06.2020
2173 Rain 26 1007 88 9000 4.1 70 16:18 01.06.2020
2174 Thunderstorm 26 1006 83 10000 4.6 100 15:45 01.06.2020
2175 Rain 26 1006 83 10000 4.6 100 15:21 01.06.2020
2176 Thunderstorm 27 1005 78 10000 4.6 140 14:59 01.06.2020
2177 Thunderstorm 28 1004 74 8000 2.1 170 14:41 01.06.2020
2178 Thunderstorm 28 1004 74 8000 2.1 170 14:21 01.06.2020
2179 Thunderstorm 26 1005 78 4500 7.2 220 13:56 01.06.2020
2180 Thunderstorm 26 1005 78 4500 7.2 220 13:38 01.06.2020
2181 Thunderstorm 26 1005 78 4500 7.2 220 13:19 01.06.2020
2182 Thunderstorm 31 1003 55 8000 8.7 210 12:57 01.06.2020
2183 Clouds 35 1002 50 10000 3.1 100 12:38 01.06.2020
2184 Clouds 35 1002 50 10000 3.1 100 12:20 01.06.2020
2185 Clouds 36 1003 41 10000 2.1 200 11:40 01.06.2020
2186 Clouds 36 1003 41 10000 2.1 200 11:22 01.06.2020
2187 Clouds 36 1003 44 10000 1.5 210 10:57 01.06.2020
2188 Clouds 36 1003 47 10000 2.1 200 10:38 01.06.2020
2189 Clouds 36 1003 47 10000 2.1 200 10:19 01.06.2020
2190 Clouds 36 1003 41 10000 1.5 0 09:55 01.06.2020
2191 Clouds 36 1004 47 10000 1 0 09:37 01.06.2020
2192 Clouds 36 1004 47 10000 1 0 09:37 01.06.2020
2193 Clouds 36 1004 47 10000 1 0 09:19 01.06.2020
2194 Clouds 35 1005 50 10000 1.5 340 08:42 01.06.2020
2195 Clouds 35 1005 50 10000 1.5 340 08:23 01.06.2020
2196 Clouds 35 1006 53 10000 1.5 0 07:44 01.06.2020
2197 Clouds 35 1006 53 10000 1.5 0 07:26 01.06.2020
2198 Clouds 34 1007 56 10000 2.1 0 06:52 01.06.2020
2199 Clouds 33 1007 59 10000 1 0 06:20 01.06.2020
2200 Clouds 33 1007 63 10000 1.5 0 05:49 01.06.2020
2201 Clouds 31 1008 70 10000 1.5 100 04:23 01.06.2020
2202 Clouds 30 1007 79 8000 2.6 80 03:44 01.06.2020
2203 Clouds 29 1007 83 9000 2.6 80 02:59 01.06.2020
2204 Clouds 28 1007 88 7000 2.6 70 01:47 01.06.2020
2205 Clouds 28 1007 88 7000 2.6 70 01:27 01.06.2020
2206 Clouds 28 1006 88 8000 2.6 60 00:57 01.06.2020
2207 Clouds 28 1006 88 8000 2.6 60 00:57 01.06.2020
2208 Clouds 28 1006 88 10000 2.1 60 00:38 01.06.2020
2209 Clouds 28 1006 88 10000 2.1 60 00:20 01.06.2020
2210 Clouds 28 1006 83 8000 2.6 60 23:42 31.05.2020
2211 Clear 28 1006 83 8000 2.6 60 23:23 31.05.2020
2212 Clear 28 1005 83 8000 2.6 80 22:59 31.05.2020
2213 Clear 28 1005 83 8000 2.1 80 22:41 31.05.2020
2214 Clear 28 1005 83 8000 2.1 80 22:41 31.05.2020
2215 Rain 28 1005 83 8000 2.1 80 22:22 31.05.2020
2216 Rain 28 1005 83 7000 2.6 100 21:57 31.05.2020
2217 Rain 28 1005 83 10000 3.1 100 21:39 31.05.2020
2218 Rain 28 1005 83 10000 3.1 100 21:20 31.05.2020
2219 Rain 29 1006 74 10000 2.1 130 20:45 31.05.2020
2220 Clouds 29 1006 74 10000 2.1 130 20:25 31.05.2020
2221 Clouds 29 1006 74 10000 3.1 140 19:56 31.05.2020
2222 Clouds 29 1007 74 10000 2.1 120 19:38 31.05.2020
2223 Clouds 30 1007 70 10000 3.1 130 19:20 31.05.2020
2224 Clouds 30 1007 70 10000 3.6 140 18:45 31.05.2020
2225 Clouds 30 1007 70 10000 3.6 140 18:25 31.05.2020
2226 Clouds 30 1007 70 10000 4.6 130 17:59 31.05.2020
2227 Clouds 30 1007 74 8000 4.1 120 17:40 31.05.2020
2228 Clouds 30 1007 74 8000 4.1 120 17:20 31.05.2020
2229 Clouds 31 1006 70 9000 4.6 120 16:41 31.05.2020
2230 Clouds 31 1006 70 9000 4.6 120 16:21 31.05.2020
2231 Clouds 31 1006 70 10000 5.1 110 15:42 31.05.2020
2232 Clear 31 1006 70 10000 5.1 110 15:23 31.05.2020
2233 Clear 32 1005 66 6000 4.6 110 14:59 31.05.2020
2234 Clear 34 1004 52 6000 3.1 130 14:40 31.05.2020
2235 Clouds 34 1004 52 6000 3.1 130 14:19 31.05.2020
2236 Clouds 34 1004 52 10000 2.1 150 13:55 31.05.2020
2237 Clouds 34 1003 52 10000 4.91 147 13:37 31.05.2020
2238 Clouds 34 1003 49 10000 1 0 13:18 31.05.2020
2239 Clouds 34 1003 52 10000 2.1 210 12:42 31.05.2020
2240 Clouds 34 1003 52 10000 2.1 210 12:23 31.05.2020
2241 Clouds 34 1003 52 10000 2.1 210 12:23 31.05.2020
2242 Clouds 35 1003 50 10000 1.5 0 11:54 31.05.2020
2243 Clouds 34 1003 52 10000 2.6 170 11:36 31.05.2020
2244 Clouds 35 1004 53 10000 1.5 0 11:18 31.05.2020
2245 Clouds 35 1005 53 10000 1.5 0 10:42 31.05.2020
2246 Clouds 35 1005 53 10000 1.5 0 10:23 31.05.2020
2247 Clouds 35 1005 53 10000 2.1 270 09:57 31.05.2020
2248 Clouds 35 1005 53 10000 1.5 0 09:39 31.05.2020
2249 Clear 35 1005 53 10000 1.5 0 09:19 31.05.2020
2250 Clouds 35 1007 53 10000 3.1 280 08:42 31.05.2020
2251 Clouds 35 1007 53 10000 3.1 280 08:23 31.05.2020
2252 Clouds 34 1008 52 10000 2.1 0 07:48 31.05.2020
2253 Clouds 34 1008 52 10000 2.1 0 07:22 31.05.2020
2254 Clouds 34 1008 59 10000 1.5 190 06:56 31.05.2020
2255 Clouds 33 1008 63 10000 2.6 0 06:34 31.05.2020
2256 Clouds 33 1009 66 8000 2.1 0 05:49 31.05.2020
2257 Clouds 32 1009 66 8000 1.5 320 05:31 31.05.2020
2258 Clouds 30 1009 79 7000 3.1 70 03:57 31.05.2020
2259 Clouds 29 1009 83 7000 2.1 70 03:22 31.05.2020
2260 Clouds 28 1009 88 8000 2.1 60 02:44 31.05.2020
2261 Clouds 28 1008 83 7000 2.6 60 01:45 31.05.2020
2262 Clouds 28 1008 83 8000 2.6 50 00:37 31.05.2020
2263 Clouds 27 1008 88 7000 2.6 90 00:19 31.05.2020
2264 Clouds 28 1007 83 9000 2.6 100 23:41 30.05.2020
2265 Clouds 28 1007 83 9000 2.6 100 23:23 30.05.2020
2266 Clouds 28 1008 88 8000 3.1 60 22:42 30.05.2020
2267 Clouds 28 1008 88 8000 3.1 60 22:23 30.05.2020
2268 Clouds 28 1008 88 10000 2.1 60 21:58 30.05.2020
2269 Clouds 28 1008 83 7000 2.1 70 21:40 30.05.2020
2270 Clouds 28 1008 83 7000 2.1 70 21:22 30.05.2020
2271 Clouds 28 1008 83 6000 1.5 60 20:57 30.05.2020
2272 Clouds 27 1008 88 6000 1.5 90 20:39 30.05.2020
2273 Clouds 27 1008 88 6000 1.5 90 20:21 30.05.2020
2274 Mist 27 1008 88 5000 2.6 100 19:44 30.05.2020
2275 Mist 27 1008 88 5000 2.6 100 19:22 30.05.2020
2276 Mist 27 1008 88 5000 3.1 100 18:57 30.05.2020
2277 Clouds 28 1009 83 7000 3.6 100 18:38 30.05.2020
2278 Clouds 29 1009 74 8000 4.1 140 18:18 30.05.2020
2279 Clouds 29 1009 70 10000 4.6 140 17:39 30.05.2020
2280 Clouds 29 1009 70 10000 5.1 150 17:20 30.05.2020
2281 Clouds 29 1008 70 10000 3.6 150 16:45 30.05.2020
2282 Clouds 29 1008 70 10000 3.6 150 16:23 30.05.2020
2283 Clouds 30 1008 70 10000 2.6 200 15:58 30.05.2020
2284 Clouds 29 1007 74 10000 3.6 110 15:39 30.05.2020
2285 Clouds 29 1007 74 10000 3.6 110 15:21 30.05.2020
2286 Rain 30 1006 70 10000 6.2 120 14:42 30.05.2020
2287 Rain 30 1006 70 10000 6.2 120 14:22 30.05.2020
2288 Clouds 35 1004 50 10000 1 0 13:42 30.05.2020
2289 Clouds 35 1004 50 10000 1 0 13:20 30.05.2020
2290 Clouds 35 1004 53 10000 2.6 340 12:42 30.05.2020
2291 Clouds 35 1004 53 10000 2.6 340 12:20 30.05.2020
2292 Clouds 35 1004 50 10000 2.6 320 11:56 30.05.2020
2293 Clouds 36 1004 50 10000 1.5 290 11:38 30.05.2020
2294 Clouds 36 1004 50 10000 1.5 290 11:20 30.05.2020
2295 Clouds 35 1005 47 10000 3.1 0 10:40 30.05.2020
2296 Clouds 35 1005 47 10000 3.1 0 10:21 30.05.2020
2297 Clouds 35 1006 50 10000 2.1 290 09:48 30.05.2020
2298 Clouds 35 1006 50 10000 2.1 290 09:30 30.05.2020
2299 Clouds 35 1006 50 10000 2.1 290 09:30 30.05.2020
2300 Clouds 35 1007 53 10000 2.1 260 08:47 30.05.2020
2301 Clouds 35 1007 53 10000 2.1 260 08:28 30.05.2020
2302 Clouds 34 1007 56 10000 1 0 07:45 30.05.2020
2303 Clouds 34 1007 56 10000 1 0 07:23 30.05.2020
2304 Clouds 33 1008 59 10000 2.1 0 06:39 30.05.2020
2305 Clouds 33 1008 59 10000 2.1 0 06:20 30.05.2020
2306 Clouds 32 1008 66 10000 2.1 90 05:49 30.05.2020
2307 Clouds 30 1009 79 10000 3.1 120 03:39 30.05.2020
2308 Clouds 29 1008 83 10000 2.1 80 02:30 30.05.2020
2309 Clouds 27 1007 88 8000 2.1 70 01:46 30.05.2020
2310 Clouds 27 1007 88 7000 1.5 80 00:38 30.05.2020
2311 Clouds 27 1007 88 7000 1.5 80 00:19 30.05.2020
2312 Clouds 27 1007 88 7000 2.6 80 23:55 29.05.2020
2313 Clouds 27 1007 88 9000 2.1 70 23:36 29.05.2020
2314 Clouds 27 1007 88 10000 2.6 80 23:18 29.05.2020
2315 Clouds 27 1007 88 9000 3.1 80 22:40 29.05.2020
2316 Clouds 27 1007 88 9000 3.1 80 22:19 29.05.2020
2317 Clouds 27 1007 88 10000 2.6 80 21:58 29.05.2020
2318 Clouds 27 1007 88 10000 3.6 90 21:36 29.05.2020
2319 Clouds 27 1007 88 8000 3.6 100 21:18 29.05.2020
2320 Clouds 27 1007 88 8000 3.6 100 20:44 29.05.2020
2321 Clear 28 1007 83 7000 3.6 90 20:20 29.05.2020
2322 Clear 28 1007 83 7000 3.6 90 19:56 29.05.2020
2323 Mist 28 1008 83 5000 2.6 90 19:37 29.05.2020
2324 Clear 28 1008 83 8000 3.6 100 19:19 29.05.2020
2325 Clear 28 1008 83 9000 3.6 130 18:44 29.05.2020
2326 Rain 28 1007 83 9000 3.6 120 18:19 29.05.2020
2327 Rain 28 1007 78 10000 4.1 120 17:40 29.05.2020
2328 Clear 28 1007 78 10000 4.1 120 17:22 29.05.2020
2329 Clear 28 1007 78 10000 4.1 120 17:22 29.05.2020
2330 Clear 29 1007 74 10000 4.1 130 16:58 29.05.2020
2331 Clouds 29 1006 70 10000 4.6 130 16:40 29.05.2020
2332 Clouds 29 1006 70 10000 4.6 130 16:22 29.05.2020
2333 Clouds 30 1006 66 10000 5.1 140 15:54 29.05.2020
2334 Clear 30 1005 70 10000 5.1 130 15:36 29.05.2020
2335 Clouds 31 1005 66 10000 5.7 130 15:18 29.05.2020
2336 Clouds 31 1005 66 10000 5.7 130 15:18 29.05.2020
2337 Clouds 31 1005 66 10000 6.2 130 14:39 29.05.2020
2338 Clouds 31 1005 66 10000 6.2 130 14:20 29.05.2020
2339 Clouds 33 1004 59 10000 5.1 140 13:43 29.05.2020
2340 Clouds 33 1004 59 10000 5.1 140 13:24 29.05.2020
2341 Clouds 33 1004 55 10000 3.6 150 12:58 29.05.2020
2342 Clouds 34 1003 52 10000 2.6 150 12:40 29.05.2020
2343 Clouds 34 1003 52 10000 2.1 170 12:21 29.05.2020
2344 Clouds 34 1004 56 10000 2.6 160 11:44 29.05.2020
2345 Clouds 34 1004 56 10000 2.6 160 11:25 29.05.2020
2346 Clouds 33 1004 55 10000 3.1 170 10:56 29.05.2020
2347 Clouds 34 1004 52 10000 2.1 190 10:36 29.05.2020
2348 Clouds 33 1005 55 10000 2.6 200 10:18 29.05.2020
2349 Clouds 33 1005 59 10000 3.1 170 09:42 29.05.2020
2350 Clouds 33 1005 55 10000 4.1 160 09:19 29.05.2020
2351 Clouds 33 1006 59 10000 4.1 170 08:48 29.05.2020
2352 Clouds 33 1006 59 10000 4.1 170 08:26 29.05.2020
2353 Clouds 32 1007 66 10000 3.6 170 07:52 29.05.2020
2354 Clouds 32 1007 66 10000 3.6 170 07:33 29.05.2020
2355 Clouds 31 1007 70 10000 3.6 170 06:58 29.05.2020
2356 -273 0 0 0 0 0 06:58 29.05.2020
2357 Clouds 31 1007 70 10000 3.6 160 06:40 29.05.2020
2358 Clouds 31 1007 70 10000 3.6 160 06:22 29.05.2020
2359 Clouds 29 1008 79 8000 3.6 150 05:40 29.05.2020
2360 Mist 27 1009 83 3400 3.1 90 02:20 29.05.2020
2361 Mist 26 1008 88 2700 1.5 70 01:28 29.05.2020
2362 Mist 26 1008 88 2800 2.1 100 00:53 29.05.2020
2363 Mist 26 1008 88 4400 2.1 90 00:33 29.05.2020
2364 Mist 26 1007 88 4800 2.6 110 23:57 28.05.2020
2365 Mist 26 1007 88 4400 1.5 110 23:39 28.05.2020
2366 Mist 26 1007 88 5000 2.6 110 23:18 28.05.2020
2367 Rain 27 1008 83 6000 2.6 120 22:42 28.05.2020
2368 Rain 27 1008 83 6000 2.6 120 22:24 28.05.2020
2369 Rain 27 1007 83 6000 2.6 100 21:56 28.05.2020
2370 Rain 27 1007 83 6000 2.6 100 21:56 28.05.2020
2371 Clouds 27 1008 83 10000 2.6 120 21:37 28.05.2020
2372 Clouds 27 1008 78 10000 2.6 130 21:19 28.05.2020
2373 Clouds 27 1008 78 10000 2.6 130 21:19 28.05.2020
2374 Clouds 27 1008 78 10000 2.6 130 20:56 28.05.2020
2375 Rain 28 1009 74 10000 3.1 140 20:37 28.05.2020
2376 Rain 28 1009 74 10000 3.6 140 20:18 28.05.2020
2377 Rain 28 1009 74 10000 2.6 140 19:43 28.05.2020
2378 Rain 28 1010 74 10000 3.6 140 19:21 28.05.2020
2379 Rain 28 1010 74 10000 3.6 140 18:57 28.05.2020
2380 Clouds 28 1010 74 9000 3.1 140 18:39 28.05.2020
2381 Clouds 28 1010 74 9000 3.1 140 18:21 28.05.2020
2382 Clouds 28 1010 74 8000 3.1 130 17:41 28.05.2020
2383 Clouds 28 1010 74 8000 3.1 130 17:41 28.05.2020
2384 Clouds 28 1010 74 8000 3.1 130 17:22 28.05.2020
2385 Clouds 28 1010 74 9000 3.1 130 16:56 28.05.2020
2386 Clouds 29 1009 70 8000 3.6 130 16:37 28.05.2020
2387 Mist 29 1009 74 5000 2.1 80 16:18 28.05.2020
2388 Mist 29 1008 74 5000 1 0 15:42 28.05.2020
2389 Mist 29 1008 74 5000 1 0 15:23 28.05.2020
2390 Mist 29 1007 74 5000 1 0 14:44 28.05.2020
2391 Mist 29 1007 74 5000 1 0 14:26 28.05.2020
2392 Clouds 29 1007 70 6000 1.5 340 13:58 28.05.2020
2393 Clouds 30 1007 66 6000 1.5 20 13:39 28.05.2020
2394 Haze 30 1006 66 4600 2.1 340 13:20 28.05.2020
2395 Clouds 31 1007 58 10000 1 0 12:42 28.05.2020
2396 Clouds 31 1007 58 10000 1 0 12:19 28.05.2020
2397 Clouds 31 1007 62 10000 1 0 11:43 28.05.2020
2398 Clouds 31 1007 62 10000 1 0 11:43 28.05.2020
2399 Clouds 31 1007 62 10000 1 0 11:24 28.05.2020
2400 Clouds 31 1007 58 10000 1 0 10:57 28.05.2020
2401 Clouds 30 1007 66 10000 1.5 170 10:39 28.05.2020
2402 Clouds 31 1008 62 10000 1 0 10:18 28.05.2020
2403 Clouds 30 1009 66 10000 1.5 0 09:39 28.05.2020
2404 Clouds 30 1009 62 10000 1.5 0 09:20 28.05.2020
2405 Clouds 30 1009 62 10000 1.5 0 08:49 28.05.2020
2406 Clouds 30 1010 62 10000 3.1 240 08:26 28.05.2020
2407 Clouds 30 1010 62 10000 2.6 240 07:45 28.05.2020
2408 Clouds 30 1010 62 10000 2.6 240 07:26 28.05.2020
2409 Clouds 30 1010 66 10000 2.6 240 06:57 28.05.2020
2410 Clouds 29 1010 70 7000 1 0 06:37 28.05.2020
2411 Clouds 29 1011 70 6000 3.6 310 05:56 28.05.2020
2412 Clouds 28 1011 74 6000 2.1 300 05:35 28.05.2020
2413 Mist 28 1011 74 5000 2.1 310 04:28 28.05.2020
2414 Clouds 27 1011 78 7000 1.5 320 03:45 28.05.2020
2415 Clouds 26 1011 78 8000 1 0 02:45 28.05.2020
2416 Clouds 26 1010 83 10000 1.92 103 01:51 28.05.2020
2417 Clouds 25 1010 78 10000 1 0 00:54 28.05.2020
2418 Clouds 25 1010 78 10000 1.5 360 00:26 28.05.2020
2419 Clouds 25 1010 78 10000 1 0 23:57 27.05.2020
2420 Clouds 25 1010 83 10000 1.5 80 23:39 27.05.2020
2421 Clouds 25 1010 83 10000 1.5 80 23:20 27.05.2020
2422 Clouds 25 1009 83 10000 1.5 30 22:56 27.05.2020
2423 Clouds 25 1009 83 9000 1.5 70 22:38 27.05.2020
2424 Clouds 25 1009 83 9000 1.5 70 22:19 27.05.2020
2425 Clouds 25 1010 83 10000 2.1 100 21:41 27.05.2020
2426 Clouds 25 1010 83 10000 2.1 100 21:22 27.05.2020
2427 Clouds 25 1010 83 10000 0.5 0 20:59 27.05.2020
2428 Clouds 25 1010 83 10000 0.5 0 20:59 27.05.2020
2429 Clouds 26 1010 78 10000 1.5 330 20:40 27.05.2020
2430 Clouds 26 1010 78 10000 1.5 330 20:21 27.05.2020
2431 Clouds 26 1011 83 10000 1.5 310 19:55 27.05.2020
2432 Clouds 26 1011 83 10000 2.6 320 19:37 27.05.2020
2433 Clouds 26 1011 83 10000 2.1 310 19:18 27.05.2020
2434 Clouds 26 1011 83 10000 2.1 310 18:39 27.05.2020
2435 Rain 26 1011 83 10000 2.1 310 18:19 27.05.2020
2436 Rain 26 1011 83 9000 1.5 310 17:45 27.05.2020
2437 Rain 26 1011 83 9000 1.5 310 17:26 27.05.2020
2438 Rain 26 1011 83 9000 1.5 310 16:57 27.05.2020
2439 Rain 26 1011 83 9000 2.6 290 16:38 27.05.2020
2440 Rain 26 1011 83 9000 2.6 290 16:20 27.05.2020
2441 Rain 26 1010 83 8000 1.5 300 15:55 27.05.2020
2442 Rain 26 1010 83 8000 2.6 290 15:37 27.05.2020
2443 Rain 26 1009 83 9000 1.5 310 15:18 27.05.2020
2444 Rain 26 1009 83 10000 3.1 290 14:42 27.05.2020
2445 Clouds 27 1008 78 10000 3.6 300 14:20 27.05.2020
2446 Clouds 27 1008 78 10000 3.6 300 13:44 27.05.2020
2447 Clouds 27 1008 78 10000 3.6 300 13:25 27.05.2020
2448 Clouds 27 1008 78 10000 3.1 290 12:56 27.05.2020
2449 Clouds 27 1008 78 10000 3.1 290 12:37 27.05.2020
2450 Clouds 27 1008 78 10000 3.1 290 12:18 27.05.2020
2451 Clouds 28 1007 69 10000 2.6 300 11:39 27.05.2020
2452 Clouds 28 1008 74 10000 2.6 320 11:21 27.05.2020
2453 Clouds 28 1008 74 10000 2.6 320 10:55 27.05.2020
2454 Clouds 28 1008 69 10000 2.1 300 10:37 27.05.2020
2455 Clouds 28 1009 69 10000 2.6 310 10:18 27.05.2020
2456 Clouds 29 1009 66 10000 4.1 300 09:40 27.05.2020
2457 Clouds 29 1009 66 10000 4.1 300 09:21 27.05.2020
2458 Clouds 29 1010 66 10000 3.1 300 08:43 27.05.2020
2459 Clouds 29 1010 66 10000 3.1 300 08:25 27.05.2020
2460 Clouds 29 1010 66 10000 2.1 300 07:59 27.05.2020
2461 Clouds 29 1010 66 10000 2.1 300 07:59 27.05.2020
2462 Clouds 30 1011 62 10000 1 0 07:40 27.05.2020
2463 Clouds 29 1011 66 10000 2.6 290 07:22 27.05.2020
2464 Clouds 29 1011 66 10000 2.1 330 06:43 27.05.2020
2465 Clouds 29 1011 66 10000 2.1 330 06:19 27.05.2020
2466 Clouds 27 1012 78 10000 2.6 320 05:47 27.05.2020
2467 Clouds 25 1012 83 9000 2.6 320 04:20 27.05.2020
2468 Rain 24 1011 88 7000 1.5 330 02:30 27.05.2020
2469 Clouds 23 1011 94 7000 2.1 300 01:53 27.05.2020
2470 Rain 23 1010 94 7000 2.1 320 01:24 27.05.2020
2471 Clouds 23 1010 88 10000 2.1 300 00:45 27.05.2020
2472 Rain 23 1010 88 10000 3.1 280 00:20 27.05.2020
2473 Rain 23 1010 88 10000 4.1 320 23:44 26.05.2020
2474 Rain 23 1010 88 10000 4.1 320 23:26 26.05.2020
2475 Rain 23 1010 94 10000 1.5 80 22:59 26.05.2020
2476 Rain 24 1010 88 8000 3.1 360 22:39 26.05.2020
2477 Rain 24 1010 88 8000 3.1 360 22:20 26.05.2020
2478 Rain 24 1010 88 8000 3.1 360 22:20 26.05.2020
2479 Thunderstorm 24 1012 88 10000 5.7 310 21:57 26.05.2020
2480 Thunderstorm 24 1011 83 10000 3.6 350 21:39 26.05.2020
2481 Thunderstorm 24 1011 83 10000 3.6 350 21:20 26.05.2020
2482 Thunderstorm 24 1010 83 10000 4.6 20 20:42 26.05.2020
2483 Thunderstorm 24 1010 83 10000 4.6 20 20:21 26.05.2020
2484 Thunderstorm 25 1011 78 10000 3.6 50 19:56 26.05.2020
2485 Thunderstorm 26 1012 74 10000 6.2 320 19:37 26.05.2020
2486 Clouds 26 1010 74 10000 3.1 80 19:18 26.05.2020
2487 Clouds 27 1010 69 10000 4.1 70 18:42 26.05.2020
2488 Clouds 27 1011 69 10000 3.1 60 18:22 26.05.2020
2489 Rain 27 1010 69 10000 3.1 70 17:44 26.05.2020
2490 Clouds 27 1010 69 10000 3.1 70 17:26 26.05.2020
2491 Clouds 27 1010 69 10000 3.1 70 16:59 26.05.2020
2492 Clouds 27 1010 74 10000 3.6 70 16:41 26.05.2020
2493 Clouds 27 1010 74 10000 3.6 70 16:19 26.05.2020
2494 Clouds 28 1009 69 10000 4.6 70 15:44 26.05.2020
2495 Clouds 28 1009 69 10000 4.6 70 15:21 26.05.2020
2496 Clouds 28 1008 69 10000 4.1 70 14:59 26.05.2020
2497 Clouds 28 1008 69 10000 4.1 80 14:41 26.05.2020
2498 Clouds 28 1008 69 10000 4.1 80 14:21 26.05.2020
2499 Clouds 29 1006 70 10000 4.1 90 13:42 26.05.2020
2500 Clouds 29 1006 70 10000 4.1 90 13:23 26.05.2020
2501 Clouds 30 1006 62 10000 4.1 80 12:57 26.05.2020
2502 Clouds 30 1006 62 10000 4.1 70 12:39 26.05.2020
2503 Clouds 31 1006 58 10000 4.1 80 12:19 26.05.2020
2504 Clouds 31 1006 58 10000 3.6 50 11:41 26.05.2020
2505 Clouds 31 1006 58 10000 3.6 50 11:21 26.05.2020
2506 Clouds 31 1006 58 10000 3.6 50 10:57 26.05.2020
2507 Clouds 31 1006 62 10000 3.6 50 10:38 26.05.2020
2508 Clouds 31 1007 58 10000 4.6 60 10:18 26.05.2020
2509 Clouds 30 1007 58 10000 4.1 20 09:38 26.05.2020
2510 Clouds 30 1007 58 10000 4.1 20 09:19 26.05.2020
2511 Clouds 29 1008 66 10000 3.6 40 08:42 26.05.2020
2512 Clouds 29 1008 62 10000 4.6 20 08:22 26.05.2020
2513 Clouds 30 1008 62 10000 4.6 10 07:44 26.05.2020
2514 Clouds 30 1008 62 10000 4.6 10 07:24 26.05.2020
2515 Clouds 29 1009 66 10000 4.6 30 06:54 26.05.2020
2516 Clouds 28 1009 65 10000 4.6 20 06:35 26.05.2020
2517 Clouds 28 1010 65 10000 4.1 10 05:44 26.05.2020
2518 Rain 28 1010 65 10000 4.1 10 05:25 26.05.2020
2519 Rain 27 1010 69 10000 4.6 10 04:49 26.05.2020
2520 Rain 26 1009 74 10000 3.6 10 04:31 26.05.2020
2521 Clouds 24 1010 88 10000 4.1 360 03:50 26.05.2020
2522 Rain 28 1009 70 0 4.62 6 02:40 26.05.2020
2523 Clouds 27 1008 69 10000 4.6 10 01:47 26.05.2020
2524 Clouds 27 1007 74 10000 3.6 10 00:48 26.05.2020
2525 Clouds 27 1007 74 10000 3.6 10 00:29 26.05.2020
2526 Clouds 27 1007 74 10000 2.6 30 23:59 25.05.2020
2527 Clouds 27 1007 78 10000 3.6 30 23:39 25.05.2020
2528 Clouds 27 1007 78 10000 3.6 30 23:20 25.05.2020
2529 Rain 27 1006 78 10000 4.6 60 22:56 25.05.2020
2530 Rain 27 1005 83 10000 3.6 50 22:38 25.05.2020
2531 Rain 27 1005 83 10000 4.1 60 22:19 25.05.2020
2532 -273 0 0 0 0 0 21:58 25.05.2020
2533 Rain 27 1006 78 10000 5.1 60 21:38 25.05.2020
2534 Rain 27 1006 78 10000 5.1 60 21:20 25.05.2020
2535 Rain 27 1006 78 10000 5.1 60 20:59 25.05.2020
2536 Rain 27 1006 78 10000 5.1 60 20:59 25.05.2020
2537 Rain 27 1006 78 10000 5.1 60 20:59 25.05.2020
2538 Rain 27 1006 78 10000 5.1 60 20:59 25.05.2020
2539 Rain 27 1006 78 10000 5.1 60 20:59 25.05.2020
2540 Rain 28 1006 74 10000 5.1 40 20:40 25.05.2020
2541 Rain 28 1006 74 10000 5.1 40 20:20 25.05.2020
2542 Rain 28 1006 78 10000 2.6 40 19:55 25.05.2020
2543 Rain 28 1006 78 10000 2.6 40 19:55 25.05.2020
2544 Rain 27 1006 78 10000 2.6 30 19:37 25.05.2020
2545 Rain 27 1006 78 10000 1.5 50 19:18 25.05.2020
2546 Rain 27 1007 78 10000 2.1 70 18:43 25.05.2020
2547 Rain 27 1007 78 10000 2.1 70 18:21 25.05.2020
2548 Clouds 27 1006 74 10000 4.6 160 17:55 25.05.2020
2549 Clouds 27 1008 78 10000 4.1 210 17:37 25.05.2020
2550 Thunderstorm 30 1007 84 9000 1.5 0 17:18 25.05.2020
2551 Thunderstorm 30 1006 84 10000 2.6 130 16:41 25.05.2020
2552 Thunderstorm 30 1006 84 10000 2.6 130 16:22 25.05.2020
2553 Thunderstorm 29 1005 74 10000 4.6 80 15:58 25.05.2020
2554 Thunderstorm 31 1005 58 10000 7.7 170 15:40 25.05.2020
2555 Clouds 33 1004 70 8000 4.1 80 15:18 25.05.2020
2556 Clouds 33 1004 66 9000 3.6 70 14:43 25.05.2020
2557 Clouds 33 1004 66 9000 3.6 70 14:24 25.05.2020
2558 Clouds 34 1003 63 10000 3.1 80 13:57 25.05.2020
2559 Clouds 34 1002 59 10000 2.6 70 13:37 25.05.2020
2560 Clouds 34 1002 59 10000 2.6 70 13:19 25.05.2020
2561 Clouds 35 1002 56 10000 2.6 60 12:54 25.05.2020
2562 Clouds 36 1002 50 10000 2.6 60 12:36 25.05.2020
2563 Clouds 36 1002 53 10000 3.6 80 12:18 25.05.2020
2564 Clouds 36 1002 53 10000 2.1 60 11:38 25.05.2020
2565 Clouds 36 1002 53 10000 2.1 60 11:19 25.05.2020
2566 Clouds 36 1003 50 10000 1.5 0 10:43 25.05.2020
2567 Clouds 36 1003 50 10000 1.5 0 10:21 25.05.2020
2568 Clouds 36 1003 50 10000 1.5 300 09:57 25.05.2020
2569 Clouds 36 1004 50 10000 2.1 0 09:38 25.05.2020
2570 Clouds 35 1004 56 10000 1 0 09:19 25.05.2020
2571 Clouds 35 1004 56 10000 1 0 08:57 25.05.2020
2572 Clouds 35 1005 53 10000 2.1 340 08:36 25.05.2020
2573 Clouds 35 1005 53 10000 2.1 340 08:36 25.05.2020
2574 Clouds 35 1005 53 10000 2.1 340 08:36 25.05.2020
2575 Clouds 35 1005 59 10000 1 0 08:18 25.05.2020
2576 Clouds 34 1005 63 10000 2.1 340 07:42 25.05.2020
2577 Clouds 33 1006 63 10000 0.5 0 07:20 25.05.2020
2578 Clouds 33 1006 63 10000 1.5 0 06:46 25.05.2020
2579 Clouds 33 1006 63 10000 1.5 0 06:27 25.05.2020
2580 Clouds 29 1007 83 10000 2.6 90 03:46 25.05.2020
2581 Clouds 29 1007 83 10000 2.6 90 03:22 25.05.2020
2582 Clouds 29 1007 83 10000 3.1 100 02:44 25.05.2020
2583 Mist 27 1006 94 4700 3.1 80 01:42 25.05.2020
2584 Mist 27 1006 94 4700 3.6 100 00:58 25.05.2020
2585 Clouds 27 1006 94 6000 3.1 90 00:33 25.05.2020
2586 Clouds 27 1006 94 6000 3.1 100 23:59 24.05.2020
2587 Clouds 27 1006 94 9000 2.6 80 23:40 24.05.2020
2588 Clouds 27 1006 94 9000 2.6 80 23:22 24.05.2020
2589 Clouds 27 1006 94 8000 2.6 80 22:58 24.05.2020
2590 Clouds 27 1006 88 7000 3.1 90 22:40 24.05.2020
2591 Mist 28 1006 83 5000 4.1 110 22:18 24.05.2020
2592 Mist 28 1006 83 5000 4.1 110 21:55 24.05.2020
2593 Mist 28 1006 83 5000 4.1 110 21:55 24.05.2020
2594 Clouds 28 1006 83 9000 4.1 120 21:37 24.05.2020
2595 Clouds 28 1006 83 8000 4.1 130 21:18 24.05.2020
2596 Clouds 28 1007 83 7000 4.1 110 20:43 24.05.2020
2597 Clouds 28 1007 83 7000 4.1 110 20:43 24.05.2020
2598 Mist 28 1007 83 5000 3.6 120 20:21 24.05.2020
2599 Mist 28 1007 83 5000 3.6 120 19:58 24.05.2020
2600 Clouds 28 1007 83 6000 3.6 110 19:40 24.05.2020
2601 Clouds 29 1007 79 10000 4.6 120 19:19 24.05.2020
2602 Clouds 29 1008 79 10000 3.6 130 18:43 24.05.2020
2603 Clouds 29 1008 79 10000 3.6 130 18:24 24.05.2020
2604 Clouds 29 1008 79 10000 4.1 130 17:59 24.05.2020
2605 Clouds 29 1007 79 10000 3.6 130 17:40 24.05.2020
2606 Clouds 29 1007 79 10000 3.6 130 17:21 24.05.2020
2607 Clouds 29 1007 79 10000 4.1 140 16:56 24.05.2020
2608 Clouds 30 1006 74 10000 4.6 140 16:38 24.05.2020
2609 Rain 30 1005 74 10000 4.1 140 16:19 24.05.2020
2610 Rain 30 1005 74 10000 4.1 140 15:55 24.05.2020
2611 Clouds 30 1005 74 10000 6.2 140 15:37 24.05.2020
2612 Clouds 30 1004 79 10000 6.2 130 15:18 24.05.2020
2613 Clouds 31 1004 74 10000 6.2 130 14:42 24.05.2020
2614 Clouds 31 1004 74 10000 6.2 130 14:22 24.05.2020
2615 Clouds 31 1003 74 10000 5.7 130 13:57 24.05.2020
2616 Clouds 32 1003 70 10000 5.1 130 13:38 24.05.2020
2617 Clouds 33 1003 66 10000 4.1 80 13:20 24.05.2020
2618 Clouds 33 1003 66 10000 4.1 80 12:57 24.05.2020
2619 Clouds 33 1003 66 10000 3.1 70 12:38 24.05.2020
2620 Clouds 33 1003 66 10000 2.6 90 12:19 24.05.2020
2621 Clouds 33 1003 66 10000 2.6 90 11:56 24.05.2020
2622 Clouds 33 1003 66 10000 2.6 90 11:56 24.05.2020
2623 Clouds 33 1003 66 9000 3.1 80 11:37 24.05.2020
2624 Clouds 33 1004 63 9000 3.1 90 11:19 24.05.2020
2625 Clouds 33 1004 63 9000 3.1 90 11:19 24.05.2020
2626 Clouds 32 1004 66 9000 2.1 60 10:43 24.05.2020
2627 Clouds 32 1004 66 9000 2.1 60 10:23 24.05.2020
2628 Clouds 33 1004 63 9000 2.6 20 09:58 24.05.2020
2629 Clouds 32 1005 66 9000 2.1 20 09:40 24.05.2020
2630 Clouds 32 1005 66 9000 2.6 40 09:18 24.05.2020
2631 Clouds 32 1006 66 8000 2.6 60 08:43 24.05.2020
2632 Clouds 32 1006 66 8000 2.6 60 08:24 24.05.2020
2633 Clouds 32 1006 66 8000 2.1 80 07:59 24.05.2020
2634 Clouds 32 1006 66 9000 2.1 90 07:40 24.05.2020
2635 Clouds 31 1007 70 10000 2.1 110 07:21 24.05.2020
2636 Clouds 31 1007 70 10000 2.6 90 06:45 24.05.2020
2637 Clouds 31 1008 70 10000 2.6 80 05:50 24.05.2020
2638 Rain 28 1008 78 7000 2.6 60 03:58 24.05.2020
2639 Rain 27 1008 83 7000 2.6 60 03:39 24.05.2020
2640 Clouds 26 1007 83 6000 4.1 60 02:26 24.05.2020
2641 Mist 25 1007 88 4300 3.1 60 01:21 24.05.2020
2642 Clouds 25 1006 88 7000 3.6 50 00:38 24.05.2020
2643 Clouds 25 1006 88 7000 3.6 60 00:20 24.05.2020
2644 Rain 25 1006 88 7000 3.6 60 23:40 23.05.2020
2645 Rain 25 1006 88 7000 3.6 60 23:20 23.05.2020
2646 Rain 25 1006 88 8000 2.6 70 22:56 23.05.2020
2647 Rain 25 1006 88 10000 1.5 60 22:37 23.05.2020
2648 Rain 25 1007 88 10000 2.6 40 22:19 23.05.2020
2649 Rain 25 1007 88 10000 2.6 40 21:56 23.05.2020
2650 Rain 25 1007 83 10000 3.1 50 21:37 23.05.2020
2651 Thunderstorm 24 1008 83 10000 4.1 50 21:18 23.05.2020
2652 Rain 25 1008 88 9000 2.6 310 20:41 23.05.2020
2653 Rain 25 1008 88 9000 2.6 310 20:20 23.05.2020
2654 Rain 26 1008 83 10000 1.5 50 19:59 23.05.2020
2655 Thunderstorm 26 1008 78 10000 2.1 140 19:41 23.05.2020
2656 Thunderstorm 26 1008 78 10000 2.1 140 19:19 23.05.2020
2657 Thunderstorm 26 1008 78 10000 2.1 140 19:19 23.05.2020
2658 Clouds 29 1008 70 10000 3.6 150 18:42 23.05.2020
2659 Clouds 29 1008 70 10000 3.6 150 18:23 23.05.2020
2660 Thunderstorm 29 1008 70 10000 3.1 140 17:58 23.05.2020
2661 Clouds 29 1007 70 10000 4.1 140 17:40 23.05.2020
2662 Clouds 29 1007 70 10000 4.1 140 17:21 23.05.2020
2663 Clouds 30 1007 66 10000 3.6 150 16:59 23.05.2020
2664 Clouds 30 1007 74 10000 3.1 140 16:41 23.05.2020
2665 Clouds 30 1007 74 10000 3.1 140 16:41 23.05.2020
2666 Clouds 30 1007 74 10000 3.1 140 16:20 23.05.2020
2667 Clouds 29 1006 79 10000 2.1 100 15:57 23.05.2020
2668 Clouds 29 1006 79 10000 2.1 100 15:57 23.05.2020
2669 Clouds 29 1005 79 10000 1.5 60 15:39 23.05.2020
2670 Clouds 29 1005 79 10000 1.5 60 15:20 23.05.2020
2671 Clouds 30 1004 74 10000 1.5 60 14:42 23.05.2020
2672 Clouds 30 1004 74 10000 1.5 60 14:24 23.05.2020
2673 Clouds 30 1004 74 10000 2.1 90 13:55 23.05.2020
2674 Clouds 30 1004 70 10000 2.1 70 13:37 23.05.2020
2675 Clouds 31 1003 70 10000 2.6 60 13:18 23.05.2020
2676 Clouds 31 1003 66 10000 2.6 50 12:41 23.05.2020
2677 Clouds 31 1003 66 10000 2.6 50 12:19 23.05.2020
2678 Clouds 31 1003 70 10000 2.6 50 11:57 23.05.2020
2679 Clouds 31 1003 66 10000 2.6 50 11:37 23.05.2020
2680 Clouds 31 1004 66 10000 3.6 0 11:18 23.05.2020
2681 Clouds 31 1004 66 10000 3.6 0 10:54 23.05.2020
2682 Clouds 31 1004 66 10000 3.1 70 10:36 23.05.2020
2683 Clouds 31 1004 70 10000 2.6 40 10:18 23.05.2020
2684 Clouds 31 1005 70 10000 2.1 40 09:41 23.05.2020
2685 Clouds 31 1005 70 10000 2.1 40 09:23 23.05.2020
2686 Clouds 30 1006 70 10000 2.1 0 08:56 23.05.2020
2687 Clouds 29 1006 79 10000 1.5 20 08:37 23.05.2020
2688 Clouds 28 1006 83 10000 2.1 30 08:18 23.05.2020
2689 Clouds 28 1007 83 10000 1.5 10 07:41 23.05.2020
2690 Clouds 28 1007 83 10000 1.5 10 07:21 23.05.2020
2691 Clouds 28 1008 78 10000 0.5 0 06:42 23.05.2020
2692 Clouds 27 1008 83 10000 2.1 30 05:51 23.05.2020
2693 Rain 26 1007 88 10000 1.5 0 03:51 23.05.2020
2694 Mist 27 1007 88 4100 1.5 60 03:21 23.05.2020
2695 Mist 27 1007 88 3400 1.5 50 02:24 23.05.2020
2696 Rain 27 1006 88 3500 1 0 01:27 23.05.2020
2697 Rain 27 1006 88 4500 1.5 20 00:49 23.05.2020
2698 Rain 27 1006 88 5000 1 0 00:29 23.05.2020
2699 Rain 27 1005 88 5000 2.1 60 23:58 22.05.2020
2700 Rain 27 1005 88 5000 2.1 60 23:58 22.05.2020
2701 Rain 27 1005 88 5000 2.6 40 23:39 22.05.2020
2702 Clouds 27 1005 88 6000 2.6 90 23:19 22.05.2020
2703 Clouds 27 1005 88 6000 2.6 90 22:55 22.05.2020
2704 Clouds 27 1005 88 6000 2.6 90 22:55 22.05.2020
2705 Clouds 27 1005 88 7000 1.5 90 22:37 22.05.2020
2706 Clouds 27 1005 88 6000 2.1 70 22:18 22.05.2020
2707 Clouds 27 1005 88 7000 1.5 100 21:42 22.05.2020
2708 Clouds 27 1005 88 7000 1.5 100 21:21 22.05.2020
2709 Rain 27 1006 88 8000 2.1 40 20:46 22.05.2020
2710 Rain 27 1006 88 8000 2.1 40 20:22 22.05.2020
2711 Rain 26 1006 94 8000 2.1 90 19:59 22.05.2020
2712 Thunderstorm 26 1006 88 7000 1 0 19:41 22.05.2020
2713 Thunderstorm 26 1006 88 5000 1.5 60 19:22 22.05.2020
2714 Thunderstorm 27 1007 78 10000 5.7 240 18:40 22.05.2020
2715 Thunderstorm 27 1007 78 10000 5.7 240 18:40 22.05.2020
2716 Rain 30 1007 70 10000 3.6 150 18:21 22.05.2020
2717 Rain 30 1007 70 10000 3.6 150 17:58 22.05.2020
2718 Clouds 31 1006 66 10000 4.1 150 17:38 22.05.2020
2719 Clouds 31 1006 70 10000 3.1 150 17:18 22.05.2020
2720 Clouds 31 1005 66 10000 3.6 130 16:44 22.05.2020
2721 Clouds 31 1005 66 10000 3.6 130 16:20 22.05.2020
2722 Clouds 30 1005 70 10000 2.6 100 15:59 22.05.2020
2723 Clouds 30 1004 74 10000 2.6 80 15:41 22.05.2020
2724 Clouds 30 1004 74 10000 2.6 80 15:19 22.05.2020
2725 Rain 31 1004 70 6000 3.1 100 14:43 22.05.2020
2726 Rain 31 1004 70 6000 3.1 100 14:24 22.05.2020
2727 Rain 32 1003 66 10000 2.6 70 13:46 22.05.2020
2728 Rain 32 1002 62 10000 4.1 90 13:20 22.05.2020
2729 Rain 32 1002 62 10000 4.1 90 12:54 22.05.2020
2730 Rain 33 1001 59 10000 4.6 90 12:36 22.05.2020
2731 Clouds 34 1002 59 10000 4.1 70 12:18 22.05.2020
2732 Clouds 33 1002 63 10000 4.6 80 11:42 22.05.2020
2733 Clouds 33 1002 63 10000 4.6 80 11:42 22.05.2020
2734 Clouds 33 1002 63 10000 4.6 80 11:20 22.05.2020
2735 Clouds 33 1002 59 10000 4.1 80 10:55 22.05.2020
2736 Clouds 33 1002 59 10000 3.6 90 10:36 22.05.2020
2737 Clouds 33 1003 63 10000 4.1 70 10:18 22.05.2020
2738 Clouds 33 1003 63 10000 4.1 80 09:41 22.05.2020
2739 Clouds 33 1003 63 10000 4.1 80 09:19 22.05.2020
2740 Clouds 32 1004 66 10000 4.6 80 08:44 22.05.2020
2741 Clouds 32 1004 66 10000 4.6 80 08:21 22.05.2020
2742 Clouds 32 1004 66 10000 4.6 80 08:21 22.05.2020
2743 Clouds 32 1004 62 10000 4.6 90 07:57 22.05.2020
2744 Clouds 33 1004 63 10000 4.1 60 07:27 22.05.2020
2745 Clouds 33 1004 63 10000 4.1 60 06:58 22.05.2020
2746 Clouds 33 1005 59 10000 4.1 70 06:36 22.05.2020
2747 Clouds 32 1005 62 10000 6.7 90 05:40 22.05.2020
2748 Rain 32 1004 62 10000 4.6 50 04:51 22.05.2020
2749 Rain 32 1004 62 10000 4.1 40 04:24 22.05.2020
2750 Rain 31 1003 74 9000 4.1 60 03:47 22.05.2020
2751 Rain 31 1003 74 9000 4.1 60 02:59 22.05.2020
2752 Rain 31 1002 70 10000 3.1 40 01:56 22.05.2020
2753 Clouds 31 1001 70 10000 3.1 10 01:28 22.05.2020
2754 Clouds 31 1000 70 9000 3.1 40 00:46 22.05.2020
2755 Clouds 31 1000 70 9000 3.1 40 00:27 22.05.2020
2756 Clouds 30 999 79 9000 2.6 30 23:42 21.05.2020
2757 Clouds 30 999 79 9000 2.6 30 23:24 21.05.2020
2758 Clouds 31 999 79 8000 2.6 50 22:58 21.05.2020
2759 Clouds 30 999 84 8000 2.6 60 22:38 21.05.2020
2760 Clouds 30 999 84 8000 2.6 60 22:20 21.05.2020
2761 Clouds 30 999 84 8000 2.6 60 21:55 21.05.2020
2762 Clouds 30 999 84 7000 2.6 110 21:37 21.05.2020
2763 Clouds 31 999 79 8000 1.5 60 21:18 21.05.2020
2764 Clouds 31 1000 79 9000 1 0 20:42 21.05.2020
2765 Clouds 31 1000 79 9000 1 0 20:22 21.05.2020
2766 Clouds 33 1000 66 10000 0.5 0 19:40 21.05.2020
2767 Clouds 33 1000 66 10000 0.5 0 19:20 21.05.2020
2768 Clouds 33 1000 66 10000 0.5 0 18:59 21.05.2020
2769 Clouds 34 1000 59 10000 1 0 18:37 21.05.2020
2770 Clouds 34 1000 59 10000 1 0 18:37 21.05.2020
2771 Clouds 34 1000 63 10000 1 0 18:18 21.05.2020
2772 Clouds 34 1000 63 10000 1 0 17:55 21.05.2020
2773 Clouds 34 1000 67 10000 2.1 170 17:36 21.05.2020
2774 Clouds 34 1000 67 10000 2.6 160 17:18 21.05.2020
2775 Clouds 35 999 59 10000 3.6 160 16:41 21.05.2020
2776 Clouds 35 999 59 10000 3.6 160 16:22 21.05.2020
2777 Clouds 36 999 50 10000 2.6 150 15:41 21.05.2020
2778 Clouds 36 999 50 10000 2.6 150 15:22 21.05.2020
2779 Clouds 37 998 44 10000 2.1 180 14:42 21.05.2020
2780 Clouds 37 998 44 10000 2.1 180 14:23 21.05.2020
2781 Clouds 38 998 42 10000 1.5 170 13:58 21.05.2020
2782 Clouds 38 998 42 10000 1.5 180 13:38 21.05.2020
2783 Clouds 39 998 37 10000 2.1 210 13:18 21.05.2020
2784 Clouds 39 998 40 10000 1.5 0 12:40 21.05.2020
2785 Clouds 39 998 40 10000 1.5 0 12:40 21.05.2020
2786 Clouds 39 998 40 10000 1.5 0 12:21 21.05.2020
2787 Clouds 39 998 42 10000 2.6 220 11:57 21.05.2020
2788 Clouds 39 998 42 10000 2.1 240 11:39 21.05.2020
2789 Clouds 38 998 42 10000 3.6 230 11:20 21.05.2020
2790 Clouds 39 999 42 10000 3.1 230 10:43 21.05.2020
2791 Clouds 39 999 42 10000 3.1 230 10:23 21.05.2020
2792 Clouds 39 999 42 10000 3.1 260 09:59 21.05.2020
2793 Clouds 38 999 42 10000 3.1 240 09:40 21.05.2020
2794 Clouds 38 999 42 10000 3.1 240 09:22 21.05.2020
2795 Clouds 38 1000 45 10000 2.6 230 08:50 21.05.2020
2796 Clouds 38 1000 45 10000 3.1 250 08:31 21.05.2020
2797 Clouds 38 1000 45 10000 3.6 260 07:54 21.05.2020
2798 Clouds 37 1000 44 10000 2.1 270 07:36 21.05.2020
2799 Clouds 36 1001 47 10000 2.1 290 07:18 21.05.2020
2800 Clouds 36 1001 50 10000 1 0 06:26 21.05.2020
2801 Clouds 34 1001 56 10000 1.5 0 05:49 21.05.2020
2802 Clouds 31 1001 74 8000 2.6 70 03:23 21.05.2020
2803 Clouds 31 1001 74 8000 2.6 70 03:23 21.05.2020
2804 Clouds 29 1001 83 7000 2.1 50 02:57 21.05.2020
2805 Clouds 29 1001 83 7000 2.1 50 02:31 21.05.2020
2806 Mist 28 1001 88 5000 2.6 60 01:49 21.05.2020
2807 Mist 28 1000 88 5000 2.6 70 01:24 21.05.2020
2808 Mist 28 1000 88 5000 3.1 60 00:53 21.05.2020
2809 Clouds 28 1000 88 6000 2.6 60 00:25 21.05.2020
2810 Clouds 29 999 83 6000 2.1 70 23:47 20.05.2020
2811 Clouds 29 999 83 6000 2.1 70 23:21 20.05.2020
2812 Clouds 29 999 83 6000 2.6 60 22:59 20.05.2020
2813 Clouds 29 999 83 6000 2.1 50 22:41 20.05.2020
2814 Clouds 29 999 83 6000 2.1 50 22:23 20.05.2020
2815 Clouds 29 999 83 6000 1.5 100 21:42 20.05.2020
2816 Clouds 29 999 83 6000 1.5 100 21:23 20.05.2020
2817 Clouds 29 1000 83 6000 2.1 70 20:55 20.05.2020
2818 Clouds 30 1001 79 9000 3.1 100 20:37 20.05.2020
2819 Clouds 30 1001 79 9000 3.1 100 20:19 20.05.2020
2820 Clouds 30 1001 79 9000 3.1 100 19:39 20.05.2020
2821 Clouds 30 1001 79 10000 2.6 100 19:20 20.05.2020
2822 Clouds 30 1001 79 10000 2.6 100 18:56 20.05.2020
2823 Clouds 30 1001 84 10000 2.1 90 18:38 20.05.2020
2824 Clouds 31 1001 74 10000 2.6 140 18:19 20.05.2020
2825 Clouds 32 1001 70 10000 3.6 140 17:38 20.05.2020
2826 Clouds 31 1001 74 10000 2.6 110 17:19 20.05.2020
2827 Clouds 33 1000 63 10000 2.6 160 16:42 20.05.2020
2828 Clouds 33 1000 63 10000 2.6 160 16:23 20.05.2020
2829 Clouds 33 1000 63 10000 3.1 150 15:57 20.05.2020
2830 Clouds 34 1000 56 10000 2.6 160 15:39 20.05.2020
2831 Clouds 34 1000 56 10000 2.6 160 15:20 20.05.2020
2832 Clouds 35 999 53 10000 2.6 150 14:42 20.05.2020
2833 Clouds 35 999 53 10000 2.6 150 14:20 20.05.2020
2834 Clouds 36 999 50 10000 2.6 140 13:41 20.05.2020
2835 Clouds 37 999 44 10000 1 0 13:19 20.05.2020
2836 Clouds 37 999 44 10000 1 0 12:56 20.05.2020
2837 Clouds 37 999 47 10000 0.5 0 12:37 20.05.2020
2838 Clouds 37 999 47 10000 2.1 250 12:18 20.05.2020
2839 Clouds 37 999 47 10000 2.1 250 11:36 20.05.2020
2840 Clouds 37 999 47 10000 2.1 250 11:36 20.05.2020
2841 Clouds 37 999 50 10000 1.5 320 11:18 20.05.2020
2842 Clouds 37 1000 50 10000 2.1 310 10:42 20.05.2020
2843 Clouds 37 1000 47 10000 2.6 320 10:20 20.05.2020
2844 Clouds 37 1000 50 10000 2.1 0 09:44 20.05.2020
2845 Clouds 37 1000 50 10000 2.1 0 09:44 20.05.2020
2846 Clouds 37 1000 50 10000 2.1 0 09:21 20.05.2020
2847 Clouds 37 1000 50 10000 2.1 0 09:21 20.05.2020
2848 Clouds 36 1000 53 10000 2.1 0 08:54 20.05.2020
2849 Clouds 36 1001 50 10000 2.1 210 08:36 20.05.2020
2850 Clouds 35 1001 53 10000 1.5 0 08:18 20.05.2020
2851 Clouds 34 1002 56 10000 1.5 0 07:41 20.05.2020
2852 Clouds 34 1002 63 10000 2.1 160 07:19 20.05.2020
2853 Clouds 34 1003 63 10000 2.1 200 06:34 20.05.2020
2854 Clouds 32 1003 70 10000 2.1 140 05:22 20.05.2020
2855 Clouds 31 1003 74 10000 3.6 150 04:26 20.05.2020
2856 Clouds 31 1003 74 9000 4.1 90 03:38 20.05.2020
2857 Clouds 28 1002 88 6000 4.6 100 01:58 20.05.2020
2858 Mist 28 1002 88 5000 3.6 100 01:26 20.05.2020
2859 Clouds 28 1001 88 7000 4.1 110 00:42 20.05.2020
2860 Clouds 28 1001 88 7000 4.1 110 00:42 20.05.2020
2861 Clouds 28 1001 88 7000 4.1 110 00:23 20.05.2020
2862 Clouds 28 1001 88 7000 2.6 150 23:39 19.05.2020
2863 Clouds 28 1001 88 8000 2.6 100 23:19 19.05.2020
2864 Clouds 28 1001 88 8000 2.6 100 22:55 19.05.2020
2865 Clouds 28 1002 88 7000 3.1 100 22:37 19.05.2020
2866 Clouds 28 1002 88 7000 3.1 100 22:18 19.05.2020
2867 Clouds 28 1002 88 7000 3.1 100 21:55 19.05.2020
2868 Clouds 28 1002 88 7000 3.6 100 21:36 19.05.2020
2869 Clouds 28 1002 88 7000 4.1 100 21:18 19.05.2020
2870 Clouds 28 1002 88 7000 4.1 100 20:56 19.05.2020
2871 Clouds 28 1003 88 7000 3.1 100 20:38 19.05.2020
2872 Clouds 28 1003 88 7000 3.1 100 20:19 19.05.2020
2873 Clouds 28 1003 88 9000 3.6 120 19:39 19.05.2020
2874 Clouds 28 1003 88 9000 3.6 120 19:20 19.05.2020
2875 Clouds 28 1004 83 10000 3.6 120 18:45 19.05.2020
2876 Clouds 28 1004 83 10000 3.6 120 18:24 19.05.2020
2877 Clouds 28 1004 83 10000 4.1 110 17:59 19.05.2020
2878 Clouds 29 1003 79 10000 4.6 130 17:40 19.05.2020
2879 Clouds 29 1003 79 10000 5.1 130 17:20 19.05.2020
2880 Clouds 29 1003 79 10000 5.1 130 16:56 19.05.2020
2881 Clouds 29 1002 79 10000 5.1 130 16:37 19.05.2020
2882 Clouds 29 1002 79 10000 5.1 130 16:19 19.05.2020
2883 Clouds 30 1002 74 10000 4.1 120 15:43 19.05.2020
2884 Clouds 30 1002 74 10000 4.1 120 15:20 19.05.2020
2885 Clouds 31 1001 70 10000 5.1 130 14:55 19.05.2020
2886 Clouds 31 1001 70 10000 5.1 140 14:37 19.05.2020
2887 Clouds 32 1001 66 10000 4.6 140 14:19 19.05.2020
2888 Clouds 32 1001 66 10000 4.6 140 13:55 19.05.2020
2889 Clouds 32 1000 66 10000 3.6 80 13:37 19.05.2020
2890 Clouds 32 999 66 7000 3.1 80 13:18 19.05.2020
2891 Clouds 32 999 66 7000 3.1 80 12:55 19.05.2020
2892 Clouds 32 1000 66 7000 3.1 80 12:36 19.05.2020
2893 Clouds 32 1000 70 7000 3.6 80 12:18 19.05.2020
2894 Clouds 33 1000 63 7000 3.6 90 11:41 19.05.2020
2895 Clouds 33 1000 63 7000 3.6 90 11:22 19.05.2020
2896 Clouds 33 1000 63 7000 3.6 90 11:22 19.05.2020
2897 Clouds 32 1000 66 7000 2.6 0 10:55 19.05.2020
2898 Clouds 33 1001 63 7000 2.6 70 10:37 19.05.2020
2899 Clouds 32 1001 62 7000 1.5 0 10:18 19.05.2020
2900 Clouds 32 1002 66 7000 1.5 180 09:42 19.05.2020
2901 Clouds 32 1002 66 7000 1.5 180 09:24 19.05.2020
2902 Clear 31 1003 66 8000 2.1 200 08:47 19.05.2020
2903 Clouds 31 1003 66 8000 2.1 200 08:25 19.05.2020
2904 Clouds 30 1004 70 8000 1.5 90 07:47 19.05.2020
2905 Clouds 30 1004 70 8000 1.5 90 07:27 19.05.2020
2906 Clouds 30 1004 70 9000 2.1 60 06:55 19.05.2020
2907 Mist 28 1005 83 5000 1 0 06:26 19.05.2020
2908 Clouds 27 1006 88 5000 2.1 320 05:42 19.05.2020
2909 Clouds 28 1006 78 8000 1 0 05:19 19.05.2020
2910 Clouds 27 1006 83 7000 0.5 0 04:35 19.05.2020
2911 Clouds 26 1004 83 9000 2.1 50 02:21 19.05.2020
2912 Clouds 26 1004 88 8000 3.1 90 00:48 19.05.2020
2913 Clouds 26 1004 88 8000 3.1 90 00:26 19.05.2020
2914 Clouds 26 1004 88 8000 2.6 60 23:58 18.05.2020
2915 Mist 26 1003 94 3700 3.6 80 23:40 18.05.2020
2916 Mist 26 1003 94 3700 3.6 80 23:20 18.05.2020
2917 Mist 26 1003 94 5000 3.1 60 22:41 18.05.2020
2918 Mist 26 1003 94 5000 3.1 60 22:22 18.05.2020
2919 Rain 27 1004 88 6000 3.6 70 21:58 18.05.2020
2920 Rain 27 1004 94 5000 2.1 60 21:40 18.05.2020
2921 Thunderstorm 27 1004 94 6000 1.5 40 21:20 18.05.2020
2922 Thunderstorm 27 1004 94 6000 1.5 40 20:56 18.05.2020
2923 Clouds 28 1005 88 10000 2.1 70 20:36 18.05.2020
2924 Clouds 28 1005 88 10000 2.1 70 20:18 18.05.2020
2925 Clouds 28 1004 83 10000 3.6 100 19:41 18.05.2020
2926 Clouds 28 1005 83 10000 4.1 110 19:19 18.05.2020
2927 Clouds 28 1005 83 10000 4.1 100 18:46 18.05.2020
2928 Clouds 28 1005 83 10000 4.1 100 18:25 18.05.2020
2929 Clouds 28 1005 83 10000 3.6 130 17:55 18.05.2020
2930 Clouds 29 1005 79 10000 4.6 120 17:37 18.05.2020
2931 Clouds 29 1004 79 10000 5.1 120 17:18 18.05.2020
2932 Clouds 29 1003 79 10000 4.1 130 16:44 18.05.2020
2933 Rain 29 1003 79 10000 4.1 130 16:22 18.05.2020
2934 Rain 29 1003 79 10000 4.1 130 15:58 18.05.2020
2935 Rain 29 1002 79 10000 5.7 130 15:39 18.05.2020
2936 Rain 29 1002 79 10000 5.7 130 15:21 18.05.2020
2937 Rain 30 1002 74 10000 5.1 130 14:57 18.05.2020
2938 Rain 30 1001 66 10000 3.1 110 14:38 18.05.2020
2939 Rain 30 1001 66 10000 3.1 110 14:20 18.05.2020
2940 Rain 32 1000 59 10000 2.6 90 13:41 18.05.2020
2941 Rain 32 1000 59 10000 2.6 90 13:21 18.05.2020
2942 Rain 32 1000 59 10000 3.1 90 12:58 18.05.2020
2943 Rain 32 1000 59 10000 3.1 60 12:40 18.05.2020
2944 Rain 32 1000 59 10000 3.1 60 12:19 18.05.2020
2945 Rain 33 1000 55 10000 3.1 70 11:58 18.05.2020
2946 Clouds 33 1000 55 10000 3.1 60 11:40 18.05.2020
2947 Clouds 33 1000 55 10000 3.1 60 11:21 18.05.2020
2948 Clouds 33 1001 55 10000 3.6 50 10:46 18.05.2020
2949 Clouds 33 1001 55 10000 3.6 50 10:23 18.05.2020
2950 Clouds 33 1001 55 10000 2.1 40 09:45 18.05.2020
2951 Clouds 33 1001 55 10000 2.1 40 09:26 18.05.2020
2952 Clouds 33 1002 55 10000 1.5 20 08:54 18.05.2020
2953 Clouds 33 1002 59 10000 1.5 0 08:36 18.05.2020
2954 Clouds 32 1003 59 10000 1.5 0 08:18 18.05.2020
2955 Clouds 31 1003 62 10000 2.1 290 07:41 18.05.2020
2956 Clouds 31 1003 62 10000 2.1 290 07:20 18.05.2020
2957 Clouds 31 1004 66 10000 4.1 280 06:46 18.05.2020
2958 Clouds 31 1005 66 10000 4.6 290 06:18 18.05.2020
2959 Clouds 29 1005 70 10000 4.6 280 05:42 18.05.2020
2960 Clouds 27 1005 78 10000 1.5 260 03:37 18.05.2020
2961 Clouds 26 1005 83 10000 1.5 310 02:31 18.05.2020
2962 Thunderstorm 25 1004 78 10000 2.1 140 01:34 18.05.2020
2963 Clouds 25 1004 78 10000 1.5 20 00:28 18.05.2020
2964 Clouds 24 1003 83 10000 3.1 0 23:58 17.05.2020
2965 Clouds 24 1003 88 10000 2.6 350 23:40 17.05.2020
2966 Clouds 24 1003 88 10000 1 0 23:20 17.05.2020
2967 Clouds 24 1003 88 10000 1 0 22:58 17.05.2020
2968 Clouds 24 1003 83 10000 0.5 0 22:39 17.05.2020
2969 Clouds 24 1003 83 10000 0.5 0 22:20 17.05.2020
2970 Clouds 23 1003 88 10000 1 0 21:57 17.05.2020
2971 Clouds 23 1003 88 10000 2.6 80 21:39 17.05.2020
2972 Clouds 23 1003 88 10000 2.6 80 21:19 17.05.2020
2973 Clouds 24 1004 83 10000 3.1 20 20:42 17.05.2020
2974 Clouds 24 1004 83 10000 3.1 20 20:22 17.05.2020
2975 Thunderstorm 24 1005 88 5000 5.1 350 19:58 17.05.2020
2976 Clouds 28 1004 74 10000 2.1 160 19:40 17.05.2020
2977 Clouds 28 1004 74 10000 2.1 160 19:21 17.05.2020
2978 Clouds 28 1004 74 10000 4.1 140 18:54 17.05.2020
2979 Clouds 28 1005 74 10000 3.6 130 18:36 17.05.2020
2980 Clouds 28 1005 74 10000 3.6 130 18:18 17.05.2020
2981 Clouds 28 1005 74 10000 3.6 130 17:40 17.05.2020
2982 Clouds 28 1005 74 10000 3.6 130 17:21 17.05.2020
2983 Clouds 28 1004 74 10000 4.1 110 16:40 17.05.2020
2984 Clouds 28 1004 74 10000 4.1 110 16:21 17.05.2020
2985 Clouds 29 1004 70 10000 4.1 130 15:59 17.05.2020
2986 Clouds 29 1003 70 10000 4.1 120 15:40 17.05.2020
2987 Clouds 29 1003 70 10000 4.1 120 15:22 17.05.2020
2988 Clouds 29 1003 70 10000 3.6 130 14:56 17.05.2020
2989 Clouds 28 1003 74 10000 3.1 100 14:37 17.05.2020
2990 Clouds 28 1003 74 10000 3.1 100 14:19 17.05.2020
2991 Clouds 29 1001 66 10000 3.6 80 13:41 17.05.2020
2992 Clouds 29 1001 66 10000 3.6 80 13:20 17.05.2020
2993 Clouds 30 1005 74 10000 2.1 130 04:51 17.05.2020
2994 Clouds 28 1005 83 10000 2.6 150 03:18 17.05.2020
2995 Clouds 28 1005 83 10000 3.1 130 02:20 17.05.2020
2996 Clouds 28 1004 83 10000 2.6 110 01:47 17.05.2020
2997 Clouds 28 1004 83 10000 3.6 130 00:41 17.05.2020
2998 Clouds 28 1004 83 10000 3.6 130 00:21 17.05.2020
2999 Clouds 27 1003 88 10000 3.1 100 23:40 16.05.2020
3000 Clouds 28 1003 83 10000 4.1 90 23:21 16.05.2020
3001 Clouds 28 1003 83 10000 4.1 90 22:59 16.05.2020
3002 Clouds 27 1003 88 10000 3.6 90 22:40 16.05.2020
3003 Clouds 27 1003 88 10000 3.6 90 22:20 16.05.2020
3004 Clouds 27 1004 88 10000 3.1 80 21:55 16.05.2020
3005 Clouds 27 1004 88 8000 2.6 90 21:36 16.05.2020
3006 Clouds 27 1004 88 8000 2.6 90 21:36 16.05.2020
3007 Clouds 27 1004 88 10000 2.6 90 21:18 16.05.2020
3008 Clouds 28 1004 83 10000 3.6 100 20:42 16.05.2020
3009 Clouds 28 1004 83 10000 3.6 100 20:22 16.05.2020
3010 Clouds 28 1004 83 10000 4.1 130 19:59 16.05.2020
3011 Clouds 28 1004 83 10000 4.6 100 19:40 16.05.2020
3012 Clouds 28 1004 83 10000 4.6 100 19:22 16.05.2020
3013 Clouds 28 1004 83 10000 4.6 100 19:22 16.05.2020
3014 Clouds 28 1005 83 10000 4.1 120 18:44 16.05.2020
3015 Clouds 28 1005 83 10000 4.1 120 18:25 16.05.2020
3016 Clouds 28 1005 83 10000 4.1 120 18:25 16.05.2020
3017 Clouds 28 1004 83 10000 3.6 100 17:57 16.05.2020
3018 Clouds 28 1004 83 10000 4.1 100 17:39 16.05.2020
3019 Clouds 28 1004 83 10000 4.1 100 17:20 16.05.2020
3020 Clouds 28 1004 83 10000 5.1 110 16:42 16.05.2020
3021 Clouds 29 1003 79 10000 5.7 130 16:23 16.05.2020
3022 Clouds 29 1003 79 10000 5.7 130 15:58 16.05.2020
3023 Clouds 29 1003 79 10000 5.1 120 15:40 16.05.2020
3024 Clouds 29 1003 79 10000 5.1 120 15:19 16.05.2020
3025 Clouds 30 1002 74 10000 6.7 120 14:48 16.05.2020
3026 Clouds 30 1002 79 10000 5.1 110 14:21 16.05.2020
3027 Clouds 30 1002 79 10000 5.1 110 13:58 16.05.2020
3028 Clouds 30 1002 79 10000 5.1 100 13:40 16.05.2020
3029 Clouds 31 1002 74 10000 5.7 100 13:22 16.05.2020
3030 Clouds 32 1001 70 10000 5.7 100 12:45 16.05.2020
3031 Clouds 32 1001 70 10000 5.7 100 12:22 16.05.2020
3032 Clouds 32 1001 66 10000 6.2 110 11:59 16.05.2020
3033 Clouds 32 1001 66 10000 5.7 120 11:38 16.05.2020
3034 Clouds 32 1001 66 10000 5.7 120 11:20 16.05.2020
3035 Clouds 34 1002 63 10000 5.7 110 10:56 16.05.2020
3036 Clouds 34 1002 63 10000 5.7 110 10:37 16.05.2020
3037 Clouds 33 1002 63 10000 5.7 120 10:18 16.05.2020
3038 Clouds 33 1002 63 10000 5.7 120 10:18 16.05.2020
3039 Clouds 33 1003 66 10000 5.1 130 09:44 16.05.2020
3040 Clouds 33 1003 66 10000 5.1 130 09:25 16.05.2020
3041 Clouds 32 1004 66 10000 5.1 130 08:43 16.05.2020
3042 Clouds 32 1004 66 10000 5.1 130 08:21 16.05.2020
3043 Clouds 32 1005 66 10000 4.6 140 07:46 16.05.2020
3044 Clouds 32 1005 66 10000 4.6 140 07:27 16.05.2020
3045 Clouds 32 1005 66 10000 4.1 120 06:58 16.05.2020
3046 Clouds 31 1006 70 10000 3.6 120 06:39 16.05.2020
3047 Clouds 30 1006 74 10000 3.6 120 06:18 16.05.2020
3048 Clouds 30 1006 74 10000 4.6 140 05:33 16.05.2020
3049 Clouds 28 1006 83 6000 4.1 90 03:37 16.05.2020
3050 Clouds 27 1006 83 6000 3.1 90 02:59 16.05.2020
3051 Mist 25 1006 88 4400 2.6 80 02:21 16.05.2020
3052 Mist 24 1005 94 5000 1.5 100 01:47 16.05.2020
3053 Mist 24 1005 94 5000 1.5 100 01:22 16.05.2020
3054 Clouds 24 1005 88 6000 1 80 00:46 16.05.2020
3055 Clouds 24 1005 88 6000 1 80 00:22 16.05.2020
3056 Clouds 24 1004 88 8000 1.5 90 23:41 15.05.2020
3057 Clouds 24 1004 88 8000 1.5 90 23:20 15.05.2020
3058 Clouds 24 1004 88 9000 2.1 70 22:58 15.05.2020
3059 Clouds 24 1004 88 10000 1 20 22:38 15.05.2020
3060 Clouds 24 1004 88 10000 1 30 22:18 15.05.2020
3061 Clouds 24 1004 88 10000 1.5 50 21:40 15.05.2020
3062 Clouds 24 1004 83 10000 1 40 21:21 15.05.2020
3063 Clouds 24 1004 83 10000 1 40 20:59 15.05.2020
3064 Clouds 23 1005 94 10000 1.5 40 20:40 15.05.2020
3065 Clouds 23 1005 94 10000 1.5 40 20:22 15.05.2020
3066 Clear 23 1005 88 10000 2.6 100 19:55 15.05.2020
3067 Clear 23 1004 88 10000 3.1 80 19:37 15.05.2020
3068 Clear 24 1005 88 10000 2.6 70 19:18 15.05.2020
3069 Clear 24 1006 88 10000 3.6 80 18:42 15.05.2020
3070 Clear 24 1006 88 10000 3.6 80 18:23 15.05.2020
3071 Rain 26 1006 88 10000 4.1 20 17:39 15.05.2020
3072 Rain 26 1006 88 10000 4.1 20 17:19 15.05.2020
3073 Thunderstorm 25 1005 78 10000 3.1 320 16:57 15.05.2020
3074 Thunderstorm 28 1002 58 8000 3.6 0 16:38 15.05.2020
3075 Clouds 29 1004 79 10000 6.7 140 16:19 15.05.2020
3076 Clouds 29 1004 79 10000 6.2 130 15:42 15.05.2020
3077 Clouds 29 1004 79 10000 6.2 130 15:42 15.05.2020
3078 Clouds 29 1004 79 10000 6.2 130 15:24 15.05.2020
3079 Clouds 29 1002 79 10000 6.2 120 14:59 15.05.2020
3080 Clouds 30 1002 74 10000 5.7 120 14:41 15.05.2020
3081 Clouds 30 1002 74 10000 5.7 120 14:23 15.05.2020
3082 Clouds 30 1002 74 10000 5.1 120 13:58 15.05.2020
3083 Clouds 31 1001 70 10000 6.2 110 13:38 15.05.2020
3084 Clouds 31 1001 70 10000 5.7 120 13:19 15.05.2020
3085 Clouds 32 1001 66 10000 6.2 120 12:39 15.05.2020
3086 Clouds 32 1001 66 10000 6.2 130 12:18 15.05.2020
3087 Clouds 32 1001 66 10000 6.2 130 11:56 15.05.2020
3088 Clouds 33 1001 63 10000 5.7 120 11:38 15.05.2020
3089 Clouds 33 1001 63 10000 5.7 120 11:19 15.05.2020
3090 Clouds 33 1001 63 10000 6.2 120 10:57 15.05.2020
3091 Clouds 33 1001 63 10000 5.7 120 10:38 15.05.2020
3092 Clouds 33 1001 63 10000 5.7 120 10:20 15.05.2020
3093 Clouds 33 1002 66 10000 5.1 110 09:41 15.05.2020
3094 Clouds 33 1003 63 10000 4.6 120 09:20 15.05.2020
3095 Clouds 33 1003 63 10000 4.6 120 08:59 15.05.2020
3096 Clouds 32 1003 66 10000 4.6 120 08:38 15.05.2020
3097 Clouds 32 1004 66 10000 4.6 130 08:20 15.05.2020
3098 Clouds 32 1004 66 10000 4.1 110 07:46 15.05.2020
3099 Clouds 32 1004 66 10000 4.1 110 07:28 15.05.2020
3100 Clouds 32 1005 66 10000 4.1 130 06:58 15.05.2020
3101 Clouds 31 1005 70 10000 4.1 130 05:56 15.05.2020
3102 Clouds 29 1006 79 10000 3.6 140 04:38 15.05.2020
3103 Clouds 28 1006 83 10000 3.6 120 03:49 15.05.2020
3104 Clouds 28 1006 83 7000 3.6 100 02:44 15.05.2020
3105 Clouds 27 1005 88 6000 3.1 110 01:32 15.05.2020
3106 Clouds 27 1005 88 6000 2.6 120 00:57 15.05.2020
3107 Clouds 27 1005 88 8000 3.1 140 00:39 15.05.2020
3108 Clouds 27 1004 88 9000 3.1 130 00:20 15.05.2020
3109 Clouds 27 1004 88 9000 3.1 130 23:40 14.05.2020
3110 Clouds 27 1004 88 8000 3.6 120 23:18 14.05.2020
3111 Clouds 27 1004 88 8000 3.6 120 23:18 14.05.2020
3112 Clouds 27 1004 88 8000 3.6 120 22:42 14.05.2020
3113 Clouds 27 1004 88 10000 3.6 110 22:21 14.05.2020
3114 Clouds 27 1004 88 10000 3.6 110 21:58 14.05.2020
3115 Clouds 27 1004 88 9000 3.6 120 21:40 14.05.2020
3116 Clouds 27 1004 88 9000 4.1 110 21:19 14.05.2020
3117 Clouds 27 1004 88 9000 4.1 110 20:56 14.05.2020
3118 Clouds 27 1005 88 9000 4.1 130 20:38 14.05.2020
3119 Clouds 27 1005 88 9000 3.6 130 20:18 14.05.2020
3120 Clouds 27 1005 88 9000 3.6 130 19:55 14.05.2020
3121 Clouds 27 1005 88 10000 4.1 120 19:36 14.05.2020
3122 Clouds 27 1005 88 10000 4.1 110 19:18 14.05.2020
3123 Clouds 27 1005 88 10000 4.1 110 18:54 14.05.2020
3124 Clouds 27 1005 88 10000 4.1 130 18:36 14.05.2020
3125 Clouds 27 1006 83 10000 3.6 120 18:18 14.05.2020
3126 Clouds 27 1006 83 10000 3.6 120 18:18 14.05.2020
3127 Clouds 27 1006 83 10000 3.6 120 17:55 14.05.2020
3128 Clouds 27 1006 83 10000 4.1 130 17:36 14.05.2020
3129 Clear 27 1006 83 10000 3.1 110 17:18 14.05.2020
3130 Clear 28 1005 74 10000 5.1 130 16:39 14.05.2020
3131 Clear 28 1005 74 10000 5.1 130 16:20 14.05.2020
3132 Clear 28 1005 69 10000 5.7 130 15:57 14.05.2020
3133 Clear 29 1005 70 10000 3.6 140 15:39 14.05.2020
3134 Clear 29 1005 66 10000 4.6 120 15:19 14.05.2020
3135 Clear 29 1005 66 10000 4.6 120 14:55 14.05.2020
3136 Clear 29 1004 70 10000 4.1 110 14:37 14.05.2020
3137 Clouds 30 1004 62 10000 4.1 120 14:19 14.05.2020
3138 Clouds 31 1004 58 10000 5.1 120 13:44 14.05.2020
3139 Clouds 32 1004 55 10000 4.6 120 13:20 14.05.2020
3140 Clouds 32 1004 55 10000 4.6 120 12:59 14.05.2020
3141 Clouds 32 1004 55 10000 5.7 140 12:40 14.05.2020
3142 Clouds 33 1004 46 10000 4.6 140 12:21 14.05.2020
3143 Clouds 33 1004 46 10000 4.6 140 11:59 14.05.2020
3144 Clouds 33 1004 49 10000 4.6 150 11:40 14.05.2020
3145 Clouds 33 1004 49 10000 4.6 150 11:22 14.05.2020
3146 Clouds 33 1004 49 10000 3.6 140 10:57 14.05.2020
3147 Clouds 32 1005 59 10000 3.6 150 10:38 14.05.2020
3148 Clouds 32 1005 59 10000 3.6 150 10:20 14.05.2020
3149 Clouds 32 1006 52 10000 4.6 150 09:42 14.05.2020
3150 Clouds 32 1006 52 10000 4.6 150 09:23 14.05.2020
3151 Clouds 33 1007 49 10000 3.1 170 08:42 14.05.2020
3152 Clouds 33 1007 49 10000 3.1 170 08:21 14.05.2020
3153 Clouds 31 1008 55 10000 3.1 140 07:47 14.05.2020
3154 Clouds 31 1008 55 10000 3.1 140 07:25 14.05.2020
3155 Clouds 31 1009 55 10000 2.6 110 06:55 14.05.2020
3156 Clouds 31 1009 55 10000 2.1 0 06:31 14.05.2020
3157 Clouds 29 1009 66 10000 2.1 190 05:57 14.05.2020
3158 Clouds 29 1010 66 10000 3.1 160 05:35 14.05.2020
3159 Clouds 28 1010 74 10000 2.6 100 04:32 14.05.2020
3160 Clouds 26 1010 83 8000 3.6 70 03:28 14.05.2020
3161 Clouds 24 1009 88 7000 4.1 10 02:42 14.05.2020
3162 Clouds 24 1009 88 7000 4.1 10 01:56 14.05.2020
3163 Rain 24 1007 88 4000 3.6 70 01:24 14.05.2020
3164 Clouds 24 1008 88 10000 3.1 90 00:48 14.05.2020
3165 Clouds 24 1008 88 10000 3.1 90 00:24 14.05.2020
3166 Clouds 25 1008 83 10000 2.6 130 23:44 13.05.2020
3167 Clouds 24 1008 88 10000 2.6 100 23:21 13.05.2020
3168 Clouds 24 1008 88 10000 2.6 100 22:54 13.05.2020
3169 Clouds 24 1008 88 10000 2.6 100 22:54 13.05.2020
3170 Clouds 24 1008 88 10000 2.1 130 22:36 13.05.2020
3171 Clouds 24 1008 88 10000 2.1 160 22:18 13.05.2020
3172 Clouds 24 1008 88 10000 2.1 160 21:55 13.05.2020
3173 Clouds 24 1009 88 10000 2.6 170 21:36 13.05.2020
3174 Clouds 24 1009 88 10000 3.1 160 21:18 13.05.2020
3175 Clouds 24 1009 88 10000 3.1 160 21:18 13.05.2020
3176 Clouds 24 1009 88 10000 2.6 180 20:40 13.05.2020
3177 Clouds 24 1010 88 10000 1.5 260 20:22 13.05.2020
3178 Clouds 24 1010 88 10000 1 0 19:43 13.05.2020
3179 Clouds 24 1010 88 10000 1 0 19:24 13.05.2020
3180 Clouds 24 1010 88 10000 1 290 18:55 13.05.2020
3181 Clouds 24 1011 88 10000 2.6 300 18:37 13.05.2020
3182 Clouds 24 1011 88 10000 2.6 280 18:18 13.05.2020
3183 Clouds 24 1011 88 10000 3.1 260 17:38 13.05.2020
3184 Clouds 24 1011 88 10000 2.6 270 17:19 13.05.2020
3185 Clouds 24 1011 88 10000 2.6 270 16:54 13.05.2020
3186 Clouds 24 1010 88 10000 5.7 240 16:36 13.05.2020
3187 Clouds 24 1010 88 10000 5.7 240 16:36 13.05.2020
3188 Rain 24 1009 88 10000 5.1 130 16:18 13.05.2020
3189 Rain 24 1010 88 10000 3.1 170 15:42 13.05.2020
3190 Rain 24 1010 88 10000 3.1 170 15:42 13.05.2020
3191 Thunderstorm 24 1010 88 10000 4.6 200 15:19 13.05.2020
3192 Thunderstorm 24 1010 88 10000 4.6 200 14:56 13.05.2020
3193 Rain 24 1009 94 10000 4.1 210 14:38 13.05.2020
3194 Rain 24 1009 94 10000 4.1 210 14:19 13.05.2020
3195 Rain 24 1008 83 10000 2.1 230 13:55 13.05.2020
3196 Thunderstorm 22 1008 100 6000 7.7 320 13:36 13.05.2020
3197 Thunderstorm 24 1008 94 1800 9.8 230 13:18 13.05.2020
3198 Thunderstorm 31 1007 66 10000 3.1 140 12:42 13.05.2020
3199 Thunderstorm 31 1007 66 10000 3.1 140 12:21 13.05.2020
3200 Clouds 31 1006 66 10000 4.6 120 11:57 13.05.2020
3201 Clouds 31 1006 66 10000 4.6 120 11:57 13.05.2020
3202 Clouds 31 1005 66 10000 4.1 130 11:38 13.05.2020
3203 Clouds 32 1005 66 10000 5.7 130 11:20 13.05.2020
3204 Clouds 32 1005 66 10000 5.7 130 10:58 13.05.2020
3205 Clouds 32 1006 62 10000 5.7 130 10:38 13.05.2020
3206 Clouds 33 1007 59 10000 4.1 140 10:19 13.05.2020
3207 Clouds 32 1006 62 10000 5.7 130 10:19 13.05.2020
3208 Clouds 33 1007 59 10000 4.1 140 09:49 13.05.2020
3209 Clouds 33 1007 59 10000 4.1 140 09:49 13.05.2020
3210 Clouds 31 1008 66 10000 5.1 140 09:25 13.05.2020
3211 Clouds 31 1008 66 10000 5.1 140 08:59 13.05.2020
3212 Clouds 32 1008 66 10000 5.1 140 08:39 13.05.2020
3213 Clouds 32 1008 66 10000 5.1 140 08:20 13.05.2020
3214 Clouds 31 1009 66 10000 3.1 140 07:52 13.05.2020
3215 Clouds 30 1010 66 10000 4.1 150 07:33 13.05.2020
3216 Clouds 30 1010 70 10000 4.1 140 06:55 13.05.2020
3217 Clouds 30 1010 70 10000 4.1 140 06:35 13.05.2020
3218 Clouds 29 1011 74 10000 3.6 140 05:43 13.05.2020
3219 Clouds 27 1011 83 8000 4.6 110 03:58 13.05.2020
3220 Mist 26 1011 88 4800 3.1 100 02:38 13.05.2020
3221 Mist 26 1011 88 3700 2.6 90 01:46 13.05.2020
3222 Mist 26 1010 88 3800 3.1 90 00:58 13.05.2020
3223 Mist 26 1010 83 5000 3.6 90 00:23 13.05.2020
3224 Mist 26 1009 88 5000 4.6 120 23:58 12.05.2020
3225 Clouds 26 1009 83 6000 3.6 120 23:39 12.05.2020
3226 Clouds 26 1009 83 6000 3.6 120 23:18 12.05.2020
3227 Clouds 26 1009 83 8000 3.6 120 22:42 12.05.2020
3228 Clouds 26 1009 83 8000 3.6 120 22:22 12.05.2020
3229 Clouds 26 1010 83 8000 2.6 130 21:57 12.05.2020
3230 Clouds 26 1010 83 8000 2.6 130 21:38 12.05.2020
3231 Clouds 26 1010 83 8000 2.6 130 21:19 12.05.2020
3232 Clouds 26 1010 83 8000 2.6 140 20:58 12.05.2020
3233 Clouds 26 1010 83 9000 2.6 130 20:39 12.05.2020
3234 Clouds 26 1010 83 9000 2.6 130 20:21 12.05.2020
3235 Clouds 26 1010 83 10000 3.6 120 19:57 12.05.2020
3236 Clouds 26 1010 83 10000 3.1 100 19:39 12.05.2020
3237 Clouds 26 1010 83 10000 3.1 100 19:20 12.05.2020
3238 Clouds 27 1011 78 10000 2.6 120 18:55 12.05.2020
3239 Clouds 27 1011 78 10000 2.1 120 18:36 12.05.2020
3240 Clouds 27 1011 74 10000 2.6 140 18:18 12.05.2020
3241 Clouds 27 1011 74 10000 2.1 140 17:41 12.05.2020
3242 Clouds 27 1011 74 10000 2.1 140 17:23 12.05.2020
3243 Clouds 27 1011 78 10000 2.1 160 16:47 12.05.2020
3244 Clouds 27 1011 78 10000 2.1 160 16:26 12.05.2020
3245 Clouds 28 1010 74 10000 3.1 150 15:56 12.05.2020
3246 Rain 28 1010 74 10000 3.6 140 15:37 12.05.2020
3247 Clouds 28 1010 69 10000 3.6 140 15:19 12.05.2020
3248 Clouds 28 1010 69 10000 3.6 140 14:56 12.05.2020
3249 Clouds 28 1010 74 10000 4.6 130 14:37 12.05.2020
3250 Clouds 29 1010 70 10000 3.1 130 14:19 12.05.2020
3251 Clouds 29 1010 70 10000 3.1 130 13:57 12.05.2020
3252 Clouds 29 1010 70 10000 2.1 130 13:39 12.05.2020
3253 Clouds 29 1010 70 10000 2.1 130 13:19 12.05.2020
3254 Clouds 29 1009 70 10000 1.5 90 12:57 12.05.2020
3255 Clouds 29 1009 70 10000 3.1 70 12:39 12.05.2020
3256 Clouds 29 1009 70 10000 3.1 80 12:21 12.05.2020
3257 Clouds 29 1009 70 10000 3.1 80 11:57 12.05.2020
3258 Clouds 30 1008 66 10000 3.1 90 11:38 12.05.2020
3259 Clouds 30 1008 66 10000 3.1 90 11:20 12.05.2020
3260 Clouds 29 1009 70 10000 3.1 80 10:56 12.05.2020
3261 Clouds 30 1009 66 10000 3.6 90 10:38 12.05.2020
3262 Clouds 30 1010 70 10000 3.1 50 10:18 12.05.2020
3263 Clouds 30 1010 70 10000 3.1 50 09:57 12.05.2020
3264 Clouds 29 1010 70 10000 2.6 60 09:38 12.05.2020
3265 Clouds 29 1010 70 10000 2.6 60 09:20 12.05.2020
3266 Clouds 30 1011 70 10000 2.6 30 08:41 12.05.2020
3267 Clouds 30 1011 70 10000 2.6 30 08:21 12.05.2020
3268 Clouds 28 1012 74 10000 2.6 40 07:55 12.05.2020
3269 Clouds 28 1012 74 10000 2.6 40 07:37 12.05.2020
3270 Clouds 27 1013 74 10000 2.6 50 07:18 12.05.2020
3271 Clouds 27 1013 78 10000 3.1 20 06:37 12.05.2020
3272 Clouds 27 1013 74 10000 3.1 10 06:19 12.05.2020
3273 Clouds 28 1013 74 10000 0.5 0 05:45 12.05.2020
3274 Rain 25 1013 88 6000 1.5 0 03:55 12.05.2020
3275 Rain 25 1013 83 10000 2.1 350 03:18 12.05.2020
3276 Rain 25 1012 83 10000 2.6 340 02:27 12.05.2020
3277 Rain 25 1012 83 10000 2.6 340 02:27 12.05.2020
3278 Clouds 26 1011 78 10000 3.6 330 01:35 12.05.2020
3279 Clouds 27 1010 78 10000 3.6 60 00:58 12.05.2020
3280 Clouds 27 1010 78 10000 4.1 90 00:24 12.05.2020
3281 Clouds 27 1009 78 10000 3.1 60 23:56 11.05.2020
3282 Clouds 27 1009 78 10000 4.1 80 23:37 11.05.2020
3283 Clouds 27 1009 83 10000 3.1 60 23:19 11.05.2020
3284 Clouds 27 1009 83 10000 3.1 60 22:55 11.05.2020
3285 Clouds 27 1009 83 10000 3.1 60 22:55 11.05.2020
3286 Clouds 27 1009 83 10000 3.1 70 22:37 11.05.2020
3287 Clouds 27 1009 83 10000 3.1 60 22:18 11.05.2020
3288 Clouds 27 1009 83 10000 3.1 60 21:54 11.05.2020
3289 Clouds 27 1008 83 10000 3.1 80 21:36 11.05.2020
3290 Clouds 27 1008 83 10000 2.6 80 21:18 11.05.2020
3291 Clouds 27 1008 83 10000 3.1 60 20:42 11.05.2020
3292 Clouds 27 1008 83 10000 3.1 60 20:21 11.05.2020
3293 Clouds 28 1008 78 10000 3.6 50 19:58 11.05.2020
3294 Clouds 27 1008 88 10000 3.6 60 19:40 11.05.2020
3295 Clouds 27 1008 88 10000 3.6 60 19:21 11.05.2020
3296 Clouds 27 1008 88 10000 3.6 60 18:56 11.05.2020
3297 Clouds 27 1008 88 10000 3.6 80 18:38 11.05.2020
3298 Rain 27 1009 88 10000 4.1 80 18:18 11.05.2020
3299 Rain 27 1009 88 10000 4.1 80 17:57 11.05.2020
3300 Clouds 28 1008 83 10000 4.1 100 17:38 11.05.2020
3301 Clouds 28 1008 78 10000 5.1 120 17:19 11.05.2020
3302 Clouds 29 1008 74 10000 4.6 120 16:42 11.05.2020
3303 Clouds 29 1008 74 10000 5.7 140 16:23 11.05.2020
3304 Clouds 29 1008 74 10000 5.7 140 15:59 11.05.2020
3305 Clouds 29 1008 74 10000 5.7 140 15:40 11.05.2020
3306 Clouds 29 1008 74 10000 5.7 140 15:19 11.05.2020
3307 Clouds 29 1008 74 10000 5.7 140 15:19 11.05.2020
3308 Rain 30 1007 70 10000 5.1 130 14:55 11.05.2020
3309 Clouds 30 1006 70 10000 5.1 120 14:37 11.05.2020
3310 Clouds 31 1007 66 10000 4.6 140 14:19 11.05.2020
3311 Rain 31 1006 66 10000 5.1 140 13:42 11.05.2020
3312 Rain 31 1006 66 10000 5.1 140 13:22 11.05.2020
3313 Rain 31 1006 66 10000 5.1 130 12:58 11.05.2020
3314 Clouds 32 1005 66 10000 6.2 130 12:40 11.05.2020
3315 Clouds 32 1005 66 10000 6.2 130 12:22 11.05.2020
3316 Clouds 32 1005 66 10000 5.1 130 11:57 11.05.2020
3317 Clouds 32 1005 70 10000 4.6 120 11:38 11.05.2020
3318 Clouds 32 1006 70 10000 5.7 130 11:20 11.05.2020
3319 Clouds 32 1006 70 10000 5.7 130 10:55 11.05.2020
3320 Clouds 32 1006 70 10000 5.1 120 10:37 11.05.2020
3321 Clouds 31 1007 74 10000 4.6 110 10:18 11.05.2020
3322 Clouds 31 1007 74 10000 4.6 110 09:55 11.05.2020
3323 Clouds 32 1007 70 10000 5.7 110 09:37 11.05.2020
3324 Clouds 32 1007 70 10000 5.7 110 09:37 11.05.2020
3325 Clouds 32 1008 70 10000 5.1 120 09:18 11.05.2020
3326 Clouds 32 1009 70 10000 4.1 120 08:40 11.05.2020
3327 Clouds 31 1009 70 10000 4.1 120 08:21 11.05.2020
3328 Clouds 32 1009 70 10000 4.1 90 07:50 11.05.2020
3329 Clouds 32 1009 70 10000 4.1 90 07:32 11.05.2020
3330 Clouds 31 1010 74 10000 4.1 100 06:55 11.05.2020
3331 Clouds 30 1010 79 10000 3.1 100 06:31 11.05.2020
3332 Clouds 30 1010 74 10000 3.6 100 05:31 11.05.2020
3333 Clouds 30 1010 74 10000 3.1 120 04:58 11.05.2020
3334 Clouds 29 1010 83 8000 3.6 100 03:46 11.05.2020
3335 Clouds 28 1010 83 9000 3.1 110 02:35 11.05.2020
3336 Clouds 28 1009 83 7000 3.1 100 01:47 11.05.2020
3337 Clouds 27 1009 88 7000 3.1 100 00:54 11.05.2020
3338 Clouds 27 1008 88 8000 3.1 90 00:27 11.05.2020
3339 Clouds 27 1008 88 9000 2.6 80 23:46 10.05.2020
3340 Clouds 27 1008 88 9000 2.6 80 23:27 10.05.2020
3341 Clouds 27 1008 88 9000 2.6 90 22:59 10.05.2020
3342 Clouds 27 1007 88 10000 4.1 100 22:41 10.05.2020
3343 Clouds 27 1007 88 10000 4.1 100 22:23 10.05.2020
3344 Clouds 27 1007 88 8000 4.1 90 21:46 10.05.2020
3345 Clouds 27 1007 88 8000 4.1 90 21:21 10.05.2020
3346 Clouds 27 1007 88 8000 4.1 90 21:21 10.05.2020
3347 Clouds 27 1007 88 8000 4.1 90 20:56 10.05.2020
3348 Clouds 28 1008 83 10000 4.1 100 20:38 10.05.2020
3349 Clouds 28 1008 83 9000 4.6 110 20:20 10.05.2020
3350 Clouds 28 1008 83 9000 4.6 110 19:54 10.05.2020
3351 Clouds 28 1008 83 6000 5.1 110 19:36 10.05.2020
3352 Clouds 28 1008 83 7000 5.1 120 19:18 10.05.2020
3353 Clouds 28 1008 83 7000 5.1 120 18:54 10.05.2020
3354 Rain 28 1008 83 10000 5.7 120 18:36 10.05.2020
3355 Clouds 29 1008 83 10000 5.7 120 18:18 10.05.2020
3356 Rain 29 1008 83 10000 5.7 120 17:41 10.05.2020
3357 Rain 29 1008 83 10000 5.7 120 17:22 10.05.2020
3358 Rain 30 1007 74 10000 4.6 120 16:59 10.05.2020
3359 Rain 30 1007 74 10000 3.6 110 16:41 10.05.2020
3360 Clouds 30 1007 74 10000 3.6 110 16:19 10.05.2020
3361 Clouds 31 1007 66 10000 3.6 130 15:55 10.05.2020
3362 Clouds 31 1006 66 10000 4.1 130 15:36 10.05.2020
3363 Clouds 32 1005 62 10000 4.6 130 15:18 10.05.2020
3364 Clouds 32 1005 62 10000 4.6 120 14:39 10.05.2020
3365 Clear 33 1005 59 10000 5.1 120 14:20 10.05.2020
3366 Clear 32 1005 62 10000 4.6 120 14:20 10.05.2020
3367 Clear 33 1005 59 10000 5.1 120 13:59 10.05.2020
3368 Clear 33 1005 59 10000 5.1 120 13:59 10.05.2020
3369 Clear 33 1005 59 10000 5.1 120 13:59 10.05.2020
3370 Clear 33 1004 63 10000 4.6 120 13:39 10.05.2020
3371 Clear 34 1004 59 10000 4.6 110 13:21 10.05.2020
3372 Clear 34 1004 59 10000 4.6 110 12:58 10.05.2020
3373 Clear 35 1004 53 10000 4.1 110 12:40 10.05.2020
3374 Clear 35 1004 53 10000 4.1 110 12:21 10.05.2020
3375 Clear 35 1004 53 10000 3.6 100 11:58 10.05.2020
3376 Clear 35 1004 53 10000 3.6 100 11:58 10.05.2020
3377 Clear 35 1004 53 10000 4.1 80 11:39 10.05.2020
3378 Clear 35 1004 53 10000 4.1 80 11:20 10.05.2020
3379 Clear 35 1005 56 10000 2.6 100 10:48 10.05.2020
3380 Clear 35 1005 56 10000 2.6 100 10:29 10.05.2020
3381 Clear 35 1006 47 10000 2.1 0 09:59 10.05.2020
3382 Clear 35 1006 47 10000 1.5 0 09:40 10.05.2020
3383 Clear 35 1007 50 10000 2.1 0 09:21 10.05.2020
3384 Clear 35 1007 50 10000 2.1 0 08:52 10.05.2020
3385 Clouds 34 1007 56 10000 1 0 08:24 10.05.2020
3386 Clouds 33 1008 63 10000 2.1 40 07:46 10.05.2020
3387 Clouds 33 1008 63 10000 2.1 40 07:21 10.05.2020
3388 Clouds 33 1009 63 10000 1.5 130 06:59 10.05.2020
3389 Clouds 32 1009 66 10000 2.1 110 06:37 10.05.2020
3390 Clouds 32 1009 66 10000 2.1 130 06:18 10.05.2020
3391 Clouds 31 1009 66 10000 2.1 80 05:42 10.05.2020
3392 Clouds 29 1009 79 7000 2.6 80 04:39 10.05.2020
3393 Clouds 29 1009 79 7000 2.6 80 04:20 10.05.2020
3394 Clouds 29 1008 79 6000 2.6 70 03:39 10.05.2020
3395 Clouds 28 1008 83 6000 2.6 60 02:53 10.05.2020
3396 Mist 27 1008 88 5000 2.1 40 02:24 10.05.2020
3397 Mist 27 1007 88 4000 3.1 50 01:43 10.05.2020
3398 Mist 27 1006 88 4600 2.6 50 01:21 10.05.2020
3399 Mist 27 1006 88 4600 2.6 50 00:55 10.05.2020
3400 Clouds 27 1006 88 6000 2.6 40 00:29 10.05.2020
3401 Clouds 27 1005 88 6000 3.1 30 23:59 09.05.2020
3402 Mist 27 1005 88 4800 2.6 70 23:39 09.05.2020
3403 Mist 27 1005 88 4800 2.6 70 23:20 09.05.2020
3404 Mist 27 1005 88 4500 1.5 80 22:44 09.05.2020
3405 Mist 27 1005 88 4500 1.5 80 22:24 09.05.2020
3406 Mist 28 1006 88 4500 2.6 50 21:59 09.05.2020
3407 Mist 28 1006 88 5000 3.1 110 21:41 09.05.2020
3408 Mist 28 1006 88 5000 3.1 110 21:41 09.05.2020
3409 Mist 28 1006 88 5000 3.1 110 21:21 09.05.2020
3410 Clouds 28 1006 88 6000 3.6 130 20:58 09.05.2020
3411 Clouds 28 1006 88 6000 3.6 140 20:38 09.05.2020
3412 Clouds 28 1006 88 6000 3.6 140 20:20 09.05.2020
3413 Clouds 27 1007 78 7000 1 0 19:56 09.05.2020
3414 Clouds 27 1007 74 7000 2.1 50 19:38 09.05.2020
3415 Clouds 27 1006 65 10000 3.1 130 19:19 09.05.2020
3416 Clouds 27 1006 65 10000 3.6 170 18:44 09.05.2020
3417 Clouds 27 1006 65 10000 3.6 170 18:26 09.05.2020
3418 Clouds 27 1009 65 10000 7.7 330 17:46 09.05.2020
3419 Clouds 27 1009 65 10000 7.7 330 17:23 09.05.2020
3420 Clouds 27 1009 65 10000 7.7 330 17:23 09.05.2020
3421 Clouds 29 1007 79 10000 3.1 120 16:57 09.05.2020
3422 Clouds 29 1007 83 10000 3.6 80 16:39 09.05.2020
3423 Rain 30 1007 79 10000 5.1 130 16:19 09.05.2020
3424 Rain 30 1007 79 10000 5.1 130 16:19 09.05.2020
3425 Rain 30 1006 79 9000 3.6 110 15:44 09.05.2020
3426 Rain 30 1006 79 9000 3.6 110 15:26 09.05.2020
3427 Clouds 30 1005 79 10000 4.6 110 14:57 09.05.2020
3428 Clear 31 1005 74 10000 5.1 130 14:39 09.05.2020
3429 Clouds 31 1004 79 9000 4.1 110 14:18 09.05.2020
3430 Clouds 31 1004 79 9000 4.1 110 13:56 09.05.2020
3431 Clouds 31 1004 74 10000 4.6 100 13:38 09.05.2020
3432 Clouds 31 1003 79 10000 5.1 110 13:18 09.05.2020
3433 Clouds 31 1003 79 10000 5.1 110 13:18 09.05.2020
3434 Clouds 32 1003 70 10000 4.6 110 12:41 09.05.2020
3435 Clouds 32 1003 70 10000 4.6 110 12:22 09.05.2020
3436 Clouds 34 1003 63 10000 3.6 80 11:45 09.05.2020
3437 Clouds 34 1003 63 10000 3.6 80 11:20 09.05.2020
3438 Clouds 34 1004 63 9000 3.6 90 10:56 09.05.2020
3439 Clouds 33 1004 70 9000 3.6 70 10:38 09.05.2020
3440 Clouds 33 1004 70 9000 3.6 70 10:19 09.05.2020
3441 Clouds 33 1005 66 6000 3.1 70 09:47 09.05.2020
3442 Clouds 33 1006 66 6000 2.1 0 09:20 09.05.2020
3443 Clouds 33 1006 66 6000 2.1 0 08:58 09.05.2020
3444 Mist 32 1006 70 4800 2.6 70 08:40 09.05.2020
3445 Mist 32 1007 70 4300 2.6 90 08:21 09.05.2020
3446 Mist 31 1007 74 3700 2.6 100 07:45 09.05.2020
3447 Mist 31 1007 74 3700 2.6 100 07:27 09.05.2020
3448 Mist 29 1008 79 3200 3.1 100 06:44 09.05.2020
3449 Mist 29 1008 74 3200 2.6 110 06:20 09.05.2020
3450 Mist 28 1009 78 3200 2.1 120 05:42 09.05.2020
3451 Mist 26 1009 83 4600 2.1 360 03:41 09.05.2020
3452 Mist 25 1008 88 5000 2.1 50 02:55 09.05.2020
3453 Clouds 25 1008 88 6000 2.6 80 02:30 09.05.2020
3454 Clouds 24 1007 94 6000 2.1 80 01:51 09.05.2020
3455 Clouds 24 1007 88 4800 2.6 70 01:22 09.05.2020
3456 Clouds 24 1007 88 4800 2.6 70 01:22 09.05.2020
3457 Mist 24 1007 94 5000 2.1 60 00:43 09.05.2020
3458 Mist 24 1007 94 5000 2.1 60 00:20 09.05.2020
3459 Clouds 24 1006 88 7000 1.07 325 23:45 08.05.2020
3460 Clouds 24 1006 88 7000 0.89 190 23:27 08.05.2020
3461 Clouds 24 1006 88 8000 1.5 330 22:56 08.05.2020
3462 Clouds 24 1006 94 6000 2.1 340 22:38 08.05.2020
3463 Mist 24 1006 88 5000 1 0 22:19 08.05.2020
3464 Mist 24 1006 88 5000 1 0 21:55 08.05.2020
3465 Mist 24 1006 94 5000 1 0 21:36 08.05.2020
3466 Clouds 24 1006 88 7000 1.5 160 21:18 08.05.2020
3467 Clouds 24 1006 88 7000 1.5 160 20:55 08.05.2020
3468 Clouds 24 1007 88 10000 0.5 0 20:37 08.05.2020
3469 Clouds 24 1007 88 9000 1 0 20:19 08.05.2020
3470 Clouds 24 1007 88 10000 3.1 100 19:42 08.05.2020
3471 Clouds 24 1007 88 10000 3.6 90 19:21 08.05.2020
3472 Rain 24 1008 88 10000 5.1 90 18:46 08.05.2020
3473 Rain 24 1008 88 10000 5.1 90 18:46 08.05.2020
3474 Rain 24 1008 88 10000 5.1 90 18:28 08.05.2020
3475 Thunderstorm 24 1009 88 10000 2.1 120 17:43 08.05.2020
3476 Thunderstorm 24 1008 88 9000 4.1 300 17:20 08.05.2020
3477 Thunderstorm 24 1008 88 9000 4.1 300 16:56 08.05.2020
3478 Thunderstorm 24 1007 88 10000 7.2 310 16:38 08.05.2020
3479 Thunderstorm 24 1007 88 10000 7.2 310 16:19 08.05.2020
3480 Thunderstorm 29 1005 79 10000 3.6 110 15:43 08.05.2020
3481 Clouds 29 1003 83 10000 4.6 100 15:22 08.05.2020
3482 Clouds 29 1003 83 10000 4.6 100 14:57 08.05.2020
3483 Clouds 30 1003 79 10000 4.1 100 14:39 08.05.2020
3484 Clouds 30 1003 79 10000 5.1 110 14:19 08.05.2020
3485 Clouds 30 1003 79 10000 5.1 110 13:55 08.05.2020
3486 Clouds 30 1002 79 10000 4.6 100 13:36 08.05.2020
3487 Clouds 31 1002 74 10000 5.7 110 13:18 08.05.2020
3488 Clouds 32 1001 70 10000 6.7 110 12:42 08.05.2020
3489 Clouds 32 1001 70 10000 6.7 110 12:23 08.05.2020
3490 Clouds 33 1002 70 10000 5.7 100 11:44 08.05.2020
3491 Clouds 33 1002 70 10000 5.7 100 11:23 08.05.2020
3492 Clouds 33 1002 70 10000 5.7 100 11:23 08.05.2020
3493 Clouds 33 1002 70 10000 5.1 100 10:59 08.05.2020
3494 Clouds 33 1003 70 10000 4.1 100 10:41 08.05.2020
3495 Clouds 33 1003 70 10000 4.1 90 10:19 08.05.2020
3496 Clouds 33 1003 70 10000 4.1 90 09:56 08.05.2020
3497 Clouds 33 1003 66 10000 3.6 80 09:38 08.05.2020
3498 Clouds 33 1004 66 10000 4.6 100 09:18 08.05.2020
3499 Clouds 32 1004 70 10000 3.6 110 08:42 08.05.2020
3500 Clouds 33 1005 66 10000 4.1 100 08:21 08.05.2020
3501 Clouds 32 1005 70 10000 3.6 90 07:43 08.05.2020
3502 Clouds 32 1005 70 10000 3.6 90 07:43 08.05.2020
3503 Clouds 32 1005 70 10000 3.6 90 07:24 08.05.2020
3504 Clouds 31 1006 70 10000 3.6 110 06:51 08.05.2020
3505 Clouds 31 1006 70 10000 3.6 110 06:23 08.05.2020
3506 Clouds 30 1006 79 10000 3.6 100 05:42 08.05.2020
3507 Clouds 29 1006 79 10000 3.6 110 04:32 08.05.2020
3508 Clouds 27 1005 88 9000 2.6 80 02:33 08.05.2020
3509 Clouds 26 1005 88 8000 2.6 80 01:47 08.05.2020
3510 Clouds 26 1005 88 8000 2.6 80 01:27 08.05.2020
3511 Clouds 26 1004 88 9000 3.1 80 00:52 08.05.2020
3512 Clouds 26 1004 88 9000 3.1 80 00:29 08.05.2020
3513 Clouds 27 1004 88 8000 3.1 80 23:58 07.05.2020
3514 Clouds 27 1003 88 8000 2.6 80 23:40 07.05.2020
3515 Clouds 27 1003 88 9000 3.1 90 23:21 07.05.2020
3516 Clouds 27 1003 88 9000 3.1 90 22:55 07.05.2020
3517 Clouds 27 1003 88 9000 3.1 90 22:37 07.05.2020
3518 Clouds 27 1003 88 9000 3.1 80 22:19 07.05.2020
3519 Clouds 27 1003 88 9000 3.1 80 21:55 07.05.2020
3520 Clouds 27 1003 88 10000 3.1 80 21:36 07.05.2020
3521 Clouds 27 1003 88 10000 3.1 100 21:18 07.05.2020
3522 Clouds 27 1004 88 9000 3.6 100 20:42 07.05.2020
3523 Clouds 27 1004 88 9000 3.6 100 20:21 07.05.2020
3524 Clouds 27 1003 88 10000 3.6 60 19:54 07.05.2020
3525 Clouds 27 1003 88 9000 3.6 70 19:36 07.05.2020
3526 Clouds 27 1004 88 9000 4.6 80 19:18 07.05.2020
3527 Clouds 27 1004 88 9000 4.6 70 18:41 07.05.2020
3528 Clouds 27 1004 88 9000 4.6 70 18:23 07.05.2020
3529 Clouds 28 1005 83 10000 4.1 130 17:43 07.05.2020
3530 Clouds 28 1005 83 10000 4.1 130 17:21 07.05.2020
3531 Clouds 28 1005 83 10000 4.1 130 17:21 07.05.2020
3532 Clouds 28 1005 83 10000 4.1 130 16:56 07.05.2020
3533 Clouds 28 1004 83 10000 4.1 110 16:38 07.05.2020
3534 Clouds 29 1004 79 10000 4.6 110 16:18 07.05.2020
3535 Clouds 29 1004 79 10000 4.6 110 15:55 07.05.2020
3536 Clouds 29 1003 79 10000 4.6 110 15:36 07.05.2020
3537 Clouds 29 1003 79 10000 4.6 100 15:18 07.05.2020
3538 Clouds 29 1002 79 10000 4.6 100 14:41 07.05.2020
3539 Clouds 29 1002 79 10000 4.6 100 14:20 07.05.2020
3540 Clouds 30 1002 79 10000 5.1 100 13:44 07.05.2020
3541 Clouds 30 1002 79 10000 5.1 100 13:25 07.05.2020
3542 Clouds 30 1002 79 10000 5.1 100 13:25 07.05.2020
3543 Clouds 31 1002 74 10000 5.1 100 12:44 07.05.2020
3544 Clouds 31 1002 74 10000 4.1 80 12:20 07.05.2020
3545 Clouds 31 1002 74 10000 4.1 80 11:58 07.05.2020
3546 Clouds 32 1002 70 10000 4.6 100 11:38 07.05.2020
3547 Clouds 32 1003 75 10000 5.1 80 11:20 07.05.2020
3548 Clouds 32 1003 70 10000 4.6 90 10:41 07.05.2020
3549 Clouds 32 1003 75 10000 3.6 90 10:22 07.05.2020
3550 Clouds 32 1004 70 10000 3.6 100 09:41 07.05.2020
3551 Clouds 32 1004 70 10000 3.6 100 09:20 07.05.2020
3552 Clouds 32 1004 70 9000 3.6 100 08:57 07.05.2020
3553 Clouds 32 1004 70 9000 3.6 100 08:57 07.05.2020
3554 Clouds 31 1005 74 8000 4.1 100 08:38 07.05.2020
3555 Clouds 31 1005 74 8000 4.1 100 08:20 07.05.2020
3556 Clouds 31 1006 74 7000 3.1 80 07:44 07.05.2020
3557 Clouds 31 1006 74 7000 3.1 80 07:25 07.05.2020
3558 Clouds 29 1007 79 6000 2.6 100 06:48 07.05.2020
3559 Clouds 29 1007 79 6000 2.6 100 06:24 07.05.2020
3560 Clouds 29 1007 79 7000 3.1 120 05:30 07.05.2020
3561 Clouds 28 1006 83 9000 2.6 120 03:55 07.05.2020
3562 Clouds 28 1006 83 10000 3.1 110 03:25 07.05.2020
3563 Clouds 27 1005 88 8000 2.6 90 02:42 07.05.2020
3564 Clouds 27 1005 88 8000 2.1 60 01:42 07.05.2020
3565 Clouds 27 1005 88 8000 2.1 60 01:23 07.05.2020
3566 Clouds 26 1004 94 8000 2.1 80 00:45 07.05.2020
3567 Clouds 26 1004 94 8000 2.1 80 00:27 07.05.2020
3568 Clouds 26 1004 94 7000 2.6 70 23:47 06.05.2020
3569 Clouds 26 1004 94 7000 2.6 70 23:25 06.05.2020
3570 Clouds 26 1004 94 7000 2.6 70 23:25 06.05.2020
3571 Clouds 26 1004 94 7000 2.6 70 22:57 06.05.2020
3572 Clouds 26 1004 94 7000 3.1 80 22:39 06.05.2020
3573 Clouds 26 1004 94 7000 3.1 80 22:19 06.05.2020
3574 Clouds 26 1004 94 9000 3.1 70 21:56 06.05.2020
3575 Clouds 27 1004 88 9000 2.6 60 21:38 06.05.2020
3576 Clouds 27 1004 88 9000 2.6 60 21:38 06.05.2020
3577 Clouds 27 1004 88 9000 2.6 60 21:38 06.05.2020
3578 Clouds 27 1004 88 9000 3.1 80 21:19 06.05.2020
3579 Clouds 27 1005 88 9000 3.1 90 20:42 06.05.2020
3580 Clouds 27 1005 88 9000 3.1 90 20:23 06.05.2020
3581 Clouds 27 1005 88 8000 3.1 90 19:58 06.05.2020
3582 Clouds 27 1005 88 10000 4.6 110 19:39 06.05.2020
3583 Clouds 27 1005 88 9000 4.6 100 19:20 06.05.2020
3584 Clouds 27 1005 88 9000 4.6 100 18:59 06.05.2020
3585 Clouds 27 1006 88 10000 3.6 80 18:39 06.05.2020
3586 Clouds 27 1006 88 10000 3.6 100 18:21 06.05.2020
3587 Clouds 27 1006 88 10000 3.6 100 17:58 06.05.2020
3588 Clouds 27 1006 88 10000 3.6 100 17:58 06.05.2020
3589 Clouds 28 1006 83 10000 3.1 100 17:39 06.05.2020
3590 Clouds 28 1006 83 10000 3.1 100 17:21 06.05.2020
3591 Clouds 28 1006 83 10000 4.6 110 16:58 06.05.2020
3592 Clouds 28 1005 83 10000 4.1 110 16:40 06.05.2020
3593 Clouds 28 1005 83 10000 4.1 110 16:20 06.05.2020
3594 Clouds 28 1005 78 10000 4.6 120 15:57 06.05.2020
3595 Clouds 29 1004 74 10000 4.6 110 15:39 06.05.2020
3596 Clouds 29 1004 74 10000 4.6 110 15:20 06.05.2020
3597 Clouds 29 1004 79 10000 4.1 100 14:42 06.05.2020
3598 Clouds 29 1003 79 10000 5.1 110 14:19 06.05.2020
3599 Clouds 29 1003 79 10000 5.1 110 13:59 06.05.2020
3600 Clouds 29 1003 79 10000 5.1 100 13:39 06.05.2020
3601 Clouds 30 1003 74 10000 5.7 90 13:20 06.05.2020
3602 Clouds 30 1003 74 10000 5.7 100 12:44 06.05.2020
3603 Clouds 30 1003 74 10000 5.7 100 12:26 06.05.2020
3604 Clouds 30 1003 74 10000 5.7 100 11:56 06.05.2020
3605 Clouds 31 1003 70 10000 5.1 90 11:37 06.05.2020
3606 Clouds 31 1003 74 10000 5.7 100 11:19 06.05.2020
3607 Clouds 31 1003 74 10000 5.7 100 10:56 06.05.2020
3608 Clouds 31 1004 74 10000 5.1 110 10:37 06.05.2020
3609 Clouds 31 1004 70 10000 6.2 120 10:18 06.05.2020
3610 Clouds 32 1004 66 10000 5.7 120 09:39 06.05.2020
3611 Clouds 32 1005 70 10000 5.7 100 09:21 06.05.2020
3612 Clouds 32 1005 66 10000 5.7 120 08:45 06.05.2020
3613 Clouds 32 1005 66 10000 5.7 120 08:22 06.05.2020
3614 Clouds 31 1006 74 10000 5.1 110 07:58 06.05.2020
3615 Clouds 31 1006 70 10000 4.6 110 07:39 06.05.2020
3616 Clouds 31 1006 70 10000 4.6 110 07:20 06.05.2020
3617 Clouds 30 1007 74 9000 3.6 110 06:49 06.05.2020
3618 Clouds 30 1007 74 8000 3.1 100 06:21 06.05.2020
3619 Clouds 30 1007 74 8000 3.1 100 05:50 06.05.2020
3620 Clouds 29 1007 74 9000 3.1 110 05:32 06.05.2020
3621 Clouds 28 1007 78 10000 2.6 90 03:55 06.05.2020
3622 Clouds 27 1007 83 10000 2.1 80 03:34 06.05.2020
3623 Clouds 27 1006 83 10000 3.1 80 02:58 06.05.2020
3624 Clouds 27 1006 83 10000 3.1 70 02:28 06.05.2020
3625 Clouds 26 1005 88 9000 2.6 60 01:46 06.05.2020
3626 Clouds 26 1005 88 9000 2.6 60 01:26 06.05.2020
3627 Clouds 26 1005 88 9000 2.1 50 00:45 06.05.2020
3628 Clouds 26 1004 88 10000 2.6 70 00:19 06.05.2020
3629 Clouds 26 1004 88 10000 2.6 60 23:42 05.05.2020
3630 Clouds 26 1004 88 10000 2.6 60 23:20 05.05.2020
3631 Clouds 26 1004 88 10000 2.6 70 22:55 05.05.2020
3632 Clouds 26 1004 88 10000 3.1 80 22:37 05.05.2020
3633 Clouds 26 1004 88 10000 3.1 80 22:18 05.05.2020
3634 Clouds 26 1004 88 8000 3.6 90 21:41 05.05.2020
3635 Clouds 26 1004 88 8000 3.6 90 21:22 05.05.2020
3636 Clouds 26 1005 88 8000 3.1 90 20:59 05.05.2020
3637 Clouds 26 1005 88 10000 3.1 100 20:40 05.05.2020
3638 Clouds 26 1005 88 10000 3.1 100 20:20 05.05.2020
3639 Clouds 26 1006 88 10000 4.1 100 19:59 05.05.2020
3640 Clouds 27 1006 83 10000 5.1 100 19:39 05.05.2020
3641 Clouds 27 1006 83 10000 5.1 100 19:21 05.05.2020
3642 Clouds 27 1006 83 10000 5.1 100 18:57 05.05.2020
3643 Clouds 27 1006 83 10000 5.1 100 18:57 05.05.2020
3644 Clouds 27 1007 83 10000 4.6 100 18:38 05.05.2020
3645 Clouds 27 1007 83 10000 4.6 100 18:19 05.05.2020
3646 Clouds 27 1007 83 10000 4.6 110 17:54 05.05.2020
3647 Clouds 27 1007 83 10000 4.1 90 17:36 05.05.2020
3648 Clouds 28 1007 83 10000 3.6 110 17:18 05.05.2020
3649 Clouds 28 1006 83 10000 4.6 120 16:38 05.05.2020
3650 Clouds 28 1006 83 10000 4.6 120 16:20 05.05.2020
3651 Clouds 28 1006 83 10000 4.6 120 15:57 05.05.2020
3652 Clouds 29 1006 79 10000 5.1 120 15:38 05.05.2020
3653 Clouds 29 1006 79 10000 5.1 120 15:20 05.05.2020
3654 Clouds 29 1005 79 10000 6.2 130 14:54 05.05.2020
3655 Clouds 29 1005 79 10000 5.7 120 14:36 05.05.2020
3656 Clouds 30 1004 74 10000 5.7 130 14:18 05.05.2020
3657 Clouds 30 1004 74 10000 5.7 130 13:54 05.05.2020
3658 Clouds 30 1004 74 10000 6.2 130 13:36 05.05.2020
3659 Clouds 31 1004 70 10000 5.7 120 13:18 05.05.2020
3660 Clouds 32 1004 70 10000 5.7 110 12:40 05.05.2020
3661 Clouds 32 1004 70 10000 5.7 110 12:22 05.05.2020
3662 Clouds 32 1004 66 10000 5.1 110 11:59 05.05.2020
3663 Clouds 33 1004 63 10000 4.6 120 11:40 05.05.2020
3664 Clouds 33 1004 66 10000 5.7 110 11:19 05.05.2020
3665 Clouds 33 1004 66 10000 5.7 110 10:55 05.05.2020
3666 Clouds 33 1004 66 10000 5.1 100 10:36 05.05.2020
3667 Clouds 33 1005 63 10000 5.1 100 10:18 05.05.2020
3668 Clouds 32 1005 66 10000 4.6 100 09:44 05.05.2020
3669 Clouds 32 1005 66 10000 4.6 100 09:44 05.05.2020
3670 Clouds 32 1005 66 10000 4.6 100 09:25 05.05.2020
3671 Clouds 33 1006 63 9000 3.1 110 08:43 05.05.2020
3672 Clouds 32 1007 70 9000 2.1 80 08:22 05.05.2020
3673 Clouds 32 1007 70 9000 2.1 80 07:59 05.05.2020
3674 Clouds 32 1007 66 9000 2.6 80 07:41 05.05.2020
3675 Clouds 32 1007 66 9000 2.6 80 07:19 05.05.2020
3676 Clouds 31 1008 70 8000 1.5 120 06:50 05.05.2020
3677 Clouds 31 1008 70 8000 1.5 120 06:29 05.05.2020
3678 Clouds 29 1009 79 7000 2.1 70 05:50 05.05.2020
3679 Clouds 29 1009 83 8000 2.1 140 04:52 05.05.2020
3680 Mist 27 1007 88 3400 3.1 100 02:28 05.05.2020
3681 Mist 27 1006 88 4700 3.6 110 00:54 05.05.2020
3682 Clouds 27 1006 88 7000 3.1 90 00:23 05.05.2020
3683 Clouds 27 1006 88 7000 3.6 100 23:48 04.05.2020
3684 Clouds 27 1006 88 7000 3.6 100 23:25 04.05.2020
3685 Clouds 27 1006 83 7000 3.6 100 22:57 04.05.2020
3686 Clouds 27 1006 83 7000 3.6 100 22:38 04.05.2020
3687 Clouds 27 1006 83 7000 3.6 100 22:38 04.05.2020
3688 Clouds 27 1006 83 7000 3.6 100 22:20 04.05.2020
3689 Clouds 27 1006 88 7000 3.6 110 21:56 04.05.2020
3690 Clouds 27 1006 88 7000 3.6 110 21:56 04.05.2020
3691 Clouds 27 1006 83 9000 4.1 110 21:35 04.05.2020
3692 Clouds 27 1006 83 10000 4.1 110 21:03 04.05.2020
3693 Clouds 27 1006 83 10000 4.1 110 21:03 04.05.2020
3694 Clouds 27 1006 83 10000 4.1 110 21:03 04.05.2020
3695 Clouds 27 1006 83 10000 4.1 110 21:03 04.05.2020
3696 Clouds 27 1006 83 10000 4.1 110 21:03 04.05.2020
3697 Clouds 27 1006 88 10000 3.6 120 20:38 04.05.2020
3698 Clouds 27 1006 88 10000 3.6 120 20:38 04.05.2020
3699 Clouds 27 1007 83 10000 4.1 110 20:18 04.05.2020
3700 Clouds 27 1007 88 10000 4.1 100 19:43 04.05.2020
3701 Clouds 27 1007 88 10000 4.1 100 19:22 04.05.2020
3702 Clouds 27 1007 83 9000 3.6 100 18:57 04.05.2020
3703 Clouds 28 1008 78 10000 5.7 120 18:38 04.05.2020
3704 Clouds 28 1008 78 10000 5.7 120 18:38 04.05.2020
3705 Clouds 28 1008 78 10000 5.1 130 18:18 04.05.2020
3706 Clouds 28 1008 78 10000 5.1 130 17:55 04.05.2020
3707 Clouds 28 1008 78 10000 5.1 130 17:55 04.05.2020
3708 Clouds 28 1008 78 10000 4.6 120 17:37 04.05.2020
3709 Clouds 28 1007 78 10000 5.1 120 17:18 04.05.2020
3710 Clouds 28 1007 83 10000 4.1 110 16:42 04.05.2020
3711 Clouds 28 1007 83 10000 4.1 110 16:22 04.05.2020
3712 Clouds 29 1006 79 10000 6.2 120 15:55 04.05.2020
3713 Clouds 29 1006 79 10000 6.2 120 15:37 04.05.2020
3714 Clouds 29 1006 79 10000 6.2 120 15:18 04.05.2020
3715 Clouds 30 1006 74 10000 6.2 120 14:42 04.05.2020
3716 Clouds 30 1006 74 10000 6.2 120 14:19 04.05.2020
3717 Clouds 32 1004 70 10000 6.7 120 12:49 04.05.2020
3718 Clear 33 1004 63 10000 5.1 120 12:26 04.05.2020
3719 Clear 33 1004 63 10000 5.1 120 12:26 04.05.2020
3720 Clear 33 1004 63 10000 5.1 120 12:26 04.05.2020
3721 Clouds 34 1005 59 10000 4.1 70 10:36 04.05.2020
3722 Clouds 34 1005 59 10000 4.1 70 10:36 04.05.2020
3723 Clouds 34 1005 59 10000 4.1 70 10:36 04.05.2020
3724 Clouds 34 1005 59 10000 4.1 70 10:36 04.05.2020
3725 Clear 34 1007 63 10000 3.1 70 09:26 04.05.2020
3726 Clear 34 1007 63 10000 3.1 70 09:26 04.05.2020
3727 Clear 34 1007 63 10000 3.1 70 09:26 04.05.2020
3728 Clear 34 1007 63 10000 3.1 70 09:26 04.05.2020
3729 Clouds 32 1009 66 7000 3.1 80 07:52 04.05.2020
3730 Clouds 32 1009 66 7000 3.1 80 07:33 04.05.2020
3731 Clouds 32 1009 66 7000 3.1 80 07:33 04.05.2020
3732 Clouds 32 1009 66 7000 3.1 80 07:33 04.05.2020
3733 Clouds 32 1009 66 7000 3.1 80 07:33 04.05.2020
3734 Clouds 32 1009 66 7000 3.1 80 07:33 04.05.2020
3735 Clouds 29 1010 70 10000 1.5 90 04:59 04.05.2020
3736 Clouds 28 1010 78 7000 3.1 130 03:28 04.05.2020
3737 Clouds 27 1009 83 6000 2.1 110 02:32 04.05.2020
3738 Mist 26 1008 88 4700 2.6 110 01:05 04.05.2020
3739 Clouds 27 1007 83 7000 2.6 130 23:46 03.05.2020
3740 Clouds 27 1007 83 7000 2.6 130 23:26 03.05.2020
3741 Clouds 27 1007 83 7000 2.6 130 23:00 03.05.2020
3742 Clouds 27 1007 83 7000 2.6 130 23:00 03.05.2020
3743 Clouds 27 1007 83 7000 3.1 130 22:40 03.05.2020
3744 Clouds 27 1007 83 7000 3.1 130 22:22 03.05.2020
3745 Mist 26 1007 88 5000 3.1 120 21:41 03.05.2020
3746 Mist 26 1007 88 5000 3.1 120 21:41 03.05.2020
3747 Clouds 26 1008 88 6000 2.6 100 21:21 03.05.2020
3748 Clouds 26 1007 88 8000 3.6 110 20:47 03.05.2020
3749 Clouds 26 1007 88 8000 3.6 110 20:23 03.05.2020
3750 Clouds 26 1008 88 9000 3.1 120 19:56 03.05.2020
3751 Clouds 26 1008 88 9000 3.1 120 19:56 03.05.2020
3752 Clouds 27 1009 83 10000 3.1 150 19:37 03.05.2020
3753 Clouds 27 1009 83 10000 3.1 150 19:37 03.05.2020
3754 Clouds 27 1009 83 10000 4.1 150 19:18 03.05.2020
3755 Clouds 27 1009 83 10000 5.1 150 18:39 03.05.2020
3756 Clouds 27 1009 83 10000 5.1 150 18:20 03.05.2020
3757 Clouds 27 1009 83 10000 4.6 150 17:54 03.05.2020
3758 Clouds 27 1009 83 10000 3.1 140 17:36 03.05.2020
3759 Clouds 28 1008 78 10000 4.1 140 17:18 03.05.2020
3760 Clouds 28 1008 83 10000 3.6 150 16:40 03.05.2020
3761 Clouds 28 1008 83 10000 4.1 150 16:18 03.05.2020
3762 Clouds 28 1008 83 10000 4.1 150 15:56 03.05.2020
3763 Clouds 29 1007 79 10000 3.6 150 15:37 03.05.2020
3764 Clouds 29 1006 74 9000 4.1 140 15:19 03.05.2020
3765 Clouds 29 1006 74 10000 4.1 130 14:43 03.05.2020
3766 Clouds 29 1006 74 10000 4.1 130 14:23 03.05.2020
3767 Clouds 29 1006 74 10000 4.1 130 14:23 03.05.2020
3768 Clouds 29 1006 74 10000 4.1 130 14:23 03.05.2020
3769 Clouds 30 1005 70 9000 3.6 120 14:02 03.05.2020
3770 Clouds 30 1005 70 10000 4.1 130 13:36 03.05.2020
3771 Clouds 30 1005 70 10000 4.1 130 13:36 03.05.2020
3772 Clouds 30 1005 70 10000 4.1 130 13:36 03.05.2020
3773 Clouds 31 1005 66 10000 2.6 110 12:48 03.05.2020
3774 Clouds 31 1005 66 10000 2.6 110 12:26 03.05.2020
3775 Clouds 31 1005 66 10000 2.6 120 11:57 03.05.2020
3776 Clouds 31 1006 66 10000 3.6 100 11:39 03.05.2020
3777 Clouds 31 1006 70 8000 3.1 90 11:20 03.05.2020
3778 Clouds 31 1006 70 8000 3.1 90 10:52 03.05.2020
3779 Clouds 31 1006 66 9000 2.6 120 10:24 03.05.2020
3780 Clouds 30 1007 70 9000 2.1 110 09:39 03.05.2020
3781 Clouds 30 1007 70 9000 2.1 110 09:39 03.05.2020
3782 Clouds 30 1008 70 7000 2.6 100 08:57 03.05.2020
3783 Clouds 30 1008 70 8000 2.1 160 08:32 03.05.2020
3784 Clouds 30 1008 70 8000 2.1 160 08:32 03.05.2020
3785 Clouds 30 1009 74 8000 2.6 150 07:40 03.05.2020
3786 Clouds 29 1010 74 9000 2.6 140 06:35 03.05.2020
3787 Clouds 28 1010 78 10000 3.6 140 05:49 03.05.2020
3788 Clouds 28 1010 78 10000 3.6 140 05:31 03.05.2020
3789 Clouds 27 1010 83 9000 2.1 100 04:27 03.05.2020
3790 Clouds 26 1010 88 6000 2.6 110 03:30 03.05.2020
3791 Drizzle 25 1009 94 3300 2.1 120 02:31 03.05.2020
3792 Drizzle 26 1008 88 4300 3.1 120 01:48 03.05.2020
3793 Drizzle 26 1008 88 4300 3.1 120 01:27 03.05.2020
3794 Clouds 26 1008 83 7000 3.6 130 00:57 03.05.2020
3795 Clouds 26 1008 83 7000 3.6 130 00:57 03.05.2020
3796 Clouds 26 1008 83 8000 3.6 120 00:38 03.05.2020
3797 Clouds 26 1008 83 8000 3.6 120 00:19 03.05.2020
3798 Clouds 26 1007 83 10000 3.6 120 23:44 02.05.2020
3799 Clouds 26 1007 83 10000 3.6 120 23:25 02.05.2020
3800 Clouds 26 1007 88 9000 3.6 110 22:44 02.05.2020
3801 Clouds 26 1007 88 9000 3.6 110 22:24 02.05.2020
3802 Clouds 26 1007 88 9000 4.1 100 21:58 02.05.2020
3803 Clouds 26 1007 88 8000 3.6 110 21:40 02.05.2020
3804 Clouds 26 1008 88 8000 3.1 90 21:19 02.05.2020
3805 Clouds 26 1008 88 8000 3.1 90 20:57 02.05.2020
3806 Clouds 26 1008 83 8000 4.1 120 20:37 02.05.2020
3807 Clouds 26 1008 83 7000 3.6 110 20:19 02.05.2020
3808 Clouds 26 1008 83 7000 3.6 110 19:57 02.05.2020
3809 Clouds 26 1008 83 10000 3.1 120 19:38 02.05.2020
3810 Clouds 26 1008 83 10000 3.1 120 19:38 02.05.2020
3811 Clouds 26 1008 83 10000 3.6 120 19:19 02.05.2020
3812 Clouds 26 1008 83 10000 4.1 140 18:42 02.05.2020
3813 Clouds 26 1008 83 10000 4.1 140 18:23 02.05.2020
3814 Clouds 26 1009 83 10000 4.6 140 17:58 02.05.2020
3815 Clouds 26 1008 83 10000 4.6 140 17:39 02.05.2020
3816 Clouds 27 1008 78 10000 4.1 130 17:20 02.05.2020
3817 Clouds 27 1008 78 10000 4.1 130 16:59 02.05.2020
3818 Clouds 27 1008 74 10000 4.1 140 16:39 02.05.2020
3819 Clouds 27 1008 74 10000 4.1 140 16:39 02.05.2020
3820 Clouds 27 1008 74 10000 4.1 140 16:21 02.05.2020
3821 Clouds 28 1007 69 10000 4.6 140 15:43 02.05.2020
3822 Clouds 28 1006 69 10000 5.1 140 15:20 02.05.2020
3823 Clouds 28 1006 69 10000 5.1 140 15:20 02.05.2020
3824 Clouds 28 1006 69 10000 5.1 140 14:58 02.05.2020
3825 Clouds 29 1006 66 10000 4.1 140 14:39 02.05.2020
3826 Clouds 29 1006 66 10000 4.1 140 14:20 02.05.2020
3827 Clouds 30 1006 62 10000 3.6 140 13:40 02.05.2020
3828 Clouds 30 1006 62 10000 3.6 140 13:22 02.05.2020
3829 Clouds 31 1005 62 10000 4.1 110 12:44 02.05.2020
3830 Clouds 31 1005 62 10000 4.1 110 12:25 02.05.2020
3831 Clouds 32 1005 55 10000 3.6 120 11:59 02.05.2020
3832 Clouds 32 1006 55 10000 2.6 120 11:41 02.05.2020
3833 Clouds 32 1006 52 10000 2.6 100 11:22 02.05.2020
3834 Clouds 32 1006 52 10000 2.6 100 11:22 02.05.2020
3835 Clouds 32 1006 52 10000 2.6 100 10:58 02.05.2020
3836 Clouds 32 1006 52 10000 2.6 170 10:38 02.05.2020
3837 Clouds 32 1006 55 10000 1.5 0 10:20 02.05.2020
3838 Clouds 32 1006 55 10000 1.5 0 09:56 02.05.2020
3839 Clouds 32 1007 52 10000 2.1 160 09:37 02.05.2020
3840 Clouds 31 1007 58 10000 1 0 09:19 02.05.2020
3841 Clouds 31 1008 58 10000 1.5 0 08:46 02.05.2020
3842 Clouds 31 1008 58 10000 1.5 0 08:26 02.05.2020
3843 Clouds 30 1009 62 10000 2.6 200 07:47 02.05.2020
3844 Clouds 30 1009 62 10000 2.6 200 07:28 02.05.2020
3845 Clouds 29 1010 66 9000 2.1 150 06:51 02.05.2020
3846 Clouds 28 1011 69 7000 2.1 170 05:29 02.05.2020
3847 Clouds 26 1011 74 7000 1.5 0 04:48 02.05.2020
3848 Clouds 26 1011 74 7000 1.5 0 04:24 02.05.2020
3849 Mist 24 1011 94 2500 1 0 02:44 02.05.2020
3850 Mist 24 1011 94 2500 1 0 02:23 02.05.2020
3851 Mist 23 1010 94 1500 1.5 30 01:48 02.05.2020
3852 Mist 23 1009 94 2100 1 40 00:46 02.05.2020
3853 Mist 23 1009 94 2100 1 40 00:25 02.05.2020
3854 Mist 23 1009 94 2100 1 0 23:57 01.05.2020
3855 Mist 23 1009 94 1400 1 40 23:38 01.05.2020
3856 Mist 23 1009 94 2000 0.5 0 23:19 01.05.2020
3857 Mist 23 1009 94 2000 0.5 0 22:54 01.05.2020
3858 Mist 23 1009 94 2800 2.1 90 22:36 01.05.2020
3859 Mist 23 1009 94 3100 1.5 100 22:18 01.05.2020
3860 Mist 23 1009 94 2600 2.1 110 21:41 01.05.2020
3861 Mist 23 1009 94 2600 2.1 110 21:21 01.05.2020
3862 Mist 24 1009 88 3000 2.1 80 20:58 01.05.2020
3863 Mist 24 1009 94 3600 1.5 90 20:40 01.05.2020
3864 Mist 24 1009 88 4000 2.6 70 20:20 01.05.2020
3865 Mist 24 1009 88 4000 2.6 70 19:59 01.05.2020
3866 Mist 24 1010 88 4500 1.5 50 19:41 01.05.2020
3867 Mist 24 1010 88 4500 1.5 50 19:21 01.05.2020
3868 Mist 23 1010 94 4600 1.5 60 18:56 01.05.2020
3869 Mist 23 1010 94 4900 1.5 80 18:38 01.05.2020
3870 Clouds 23 1010 94 6000 1.5 60 18:19 01.05.2020
3871 Clouds 23 1010 94 6000 1.5 60 18:19 01.05.2020
3872 Clouds 23 1011 94 7000 1 50 17:41 01.05.2020
3873 Clouds 23 1011 94 7000 1 50 17:41 01.05.2020
3874 Clouds 23 1011 94 7000 1 50 17:22 01.05.2020
3875 Clouds 23 1010 94 7000 1.5 90 16:58 01.05.2020
3876 Clouds 24 1010 88 8000 1.5 70 16:40 01.05.2020
3877 Clouds 24 1010 88 10000 1.5 50 16:20 01.05.2020
3878 Clouds 24 1010 88 8000 1.5 70 16:20 01.05.2020
3879 Clouds 24 1010 88 10000 1.5 50 15:57 01.05.2020
3880 Rain 24 1010 88 10000 1.5 60 15:39 01.05.2020
3881 Rain 24 1010 88 10000 1.5 60 15:19 01.05.2020
3882 Clouds 24 1010 88 10000 1.5 60 14:44 01.05.2020
3883 Clouds 24 1010 88 10000 1.5 60 14:25 01.05.2020
3884 Clouds 24 1010 88 10000 1 0 13:56 01.05.2020
3885 Clouds 24 1009 88 10000 1 0 13:38 01.05.2020
3886 Clouds 24 1009 88 10000 1 0 13:19 01.05.2020
3887 Clouds 25 1009 83 10000 1.5 350 12:55 01.05.2020
3888 Clouds 24 1009 88 10000 1.5 290 12:37 01.05.2020
3889 Clouds 24 1009 88 10000 3.1 280 12:18 01.05.2020
3890 Rain 24 1009 88 8000 3.6 260 11:41 01.05.2020
3891 Rain 24 1009 88 5000 1.5 250 11:23 01.05.2020
3892 Rain 24 1009 88 5000 1.5 250 10:57 01.05.2020
3893 Rain 24 1009 94 4500 1 0 10:38 01.05.2020
3894 Rain 24 1010 88 4500 2.1 180 10:19 01.05.2020
3895 Rain 24 1010 94 3100 2.1 90 09:43 01.05.2020
3896 Rain 24 1010 94 3100 2.1 90 09:19 01.05.2020
3897 Rain 24 1011 94 1700 2.1 40 08:54 01.05.2020
3898 Rain 24 1012 94 1800 2.6 90 08:36 01.05.2020
3899 Rain 25 1012 83 3500 3.1 30 08:18 01.05.2020
3900 Clouds 26 1012 78 8000 3.1 80 07:41 01.05.2020
3901 Clouds 26 1012 78 8000 3.1 80 07:21 01.05.2020
3902 Clouds 26 1012 78 8000 3.1 80 07:21 01.05.2020
3903 Clouds 27 1012 74 8000 3.6 90 06:39 01.05.2020
3904 Clouds 26 1013 78 8000 2.6 140 05:26 01.05.2020
3905 Clouds 25 1013 83 6000 3.6 110 04:19 01.05.2020
3906 Clouds 25 1012 83 6000 3.6 100 02:57 01.05.2020
3907 Mist 24 1012 88 5000 2.6 90 02:38 01.05.2020
3908 Mist 24 1012 83 5000 3.1 70 01:58 01.05.2020
3909 Mist 23 1012 88 5000 2.6 80 01:28 01.05.2020
3910 Mist 23 1011 88 5000 3.1 110 00:41 01.05.2020
3911 Mist 23 1011 88 5000 3.1 110 00:22 01.05.2020
3912 Mist 23 1011 88 5000 3.1 100 23:57 30.04.2020
3913 Mist 23 1011 88 5000 2.6 90 23:39 30.04.2020
3914 Mist 23 1010 88 5000 3.1 80 23:21 30.04.2020
3915 Mist 23 1010 88 5000 3.1 80 22:59 30.04.2020
3916 Mist 23 1010 88 5000 3.6 100 22:39 30.04.2020
3917 Rain 23 1011 88 6000 2.6 100 22:19 30.04.2020
3918 Rain 23 1011 88 6000 2.1 80 21:43 30.04.2020
3919 Rain 23 1011 88 6000 2.1 80 21:23 30.04.2020
3920 Clouds 24 1011 83 8000 3.1 120 20:58 30.04.2020
3921 Clouds 24 1011 83 7000 3.6 120 20:40 30.04.2020
3922 Clouds 24 1011 83 7000 3.6 120 20:19 30.04.2020
3923 Clouds 24 1012 83 7000 3.6 130 19:47 30.04.2020
3924 Clouds 24 1012 83 7000 3.6 130 19:27 30.04.2020
3925 Clouds 24 1012 83 7000 3.6 130 18:59 30.04.2020
3926 Clouds 25 1013 83 8000 4.1 130 18:39 30.04.2020
3927 Clouds 25 1013 83 8000 3.6 120 18:21 30.04.2020
3928 Clouds 25 1013 83 8000 3.6 120 17:58 30.04.2020
3929 Clouds 25 1013 78 9000 4.1 120 17:40 30.04.2020
3930 Clouds 25 1013 78 9000 4.1 120 17:21 30.04.2020
3931 Clouds 25 1013 83 9000 3.6 120 16:57 30.04.2020
3932 Clouds 26 1012 78 9000 3.6 130 16:38 30.04.2020
3933 Clouds 26 1012 78 10000 3.6 120 16:19 30.04.2020
3934 Clouds 27 1012 74 10000 3.6 130 15:48 30.04.2020
3935 Clouds 27 1012 74 10000 3.6 130 15:48 30.04.2020
3936 Clouds 27 1012 74 10000 3.6 130 15:25 30.04.2020
3937 Clouds 27 1011 74 10000 3.1 140 14:57 30.04.2020
3938 Clouds 28 1011 65 10000 3.1 140 14:39 30.04.2020
3939 Clouds 28 1011 65 10000 3.1 140 14:19 30.04.2020
3940 Clouds 28 1011 65 10000 3.1 140 13:55 30.04.2020
3941 Clouds 28 1011 65 10000 3.6 100 13:36 30.04.2020
3942 Clouds 29 1011 58 10000 3.6 120 13:18 30.04.2020
3943 Clouds 29 1011 62 10000 3.6 130 12:41 30.04.2020
3944 Clouds 29 1011 62 10000 3.6 130 12:41 30.04.2020
3945 Clouds 29 1011 62 10000 3.6 130 12:19 30.04.2020
3946 Clouds 29 1011 62 10000 3.6 130 11:57 30.04.2020
3947 Clouds 29 1011 58 10000 3.1 130 11:36 30.04.2020
3948 Clouds 29 1011 62 10000 2.6 160 11:18 30.04.2020
3949 Clouds 29 1012 58 10000 3.1 150 10:40 30.04.2020
3950 Clouds 29 1012 58 10000 3.1 150 10:21 30.04.2020
3951 Clouds 29 1012 58 10000 2.6 180 09:57 30.04.2020
3952 Clouds 29 1012 62 8000 2.1 180 09:38 30.04.2020
3953 Clouds 29 1013 58 8000 2.6 120 09:20 30.04.2020
3954 Clouds 28 1014 61 7000 2.6 130 08:46 30.04.2020
3955 Clouds 28 1014 61 7000 2.6 130 08:26 30.04.2020
3956 Clouds 27 1015 65 8000 3.1 90 07:44 30.04.2020
3957 Clouds 27 1015 65 8000 3.1 90 07:25 30.04.2020
3958 Clouds 26 1016 69 8000 2.1 80 06:53 30.04.2020
3959 Clouds 25 1016 69 8000 2.1 60 06:26 30.04.2020
3960 Clouds 25 1016 73 8000 2.1 70 05:46 30.04.2020
3961 Clouds 24 1017 78 10000 2.6 90 04:43 30.04.2020
3962 Clouds 24 1016 73 10000 3.1 90 04:19 30.04.2020
3963 Mist 23 1016 88 4300 2.1 80 02:48 30.04.2020
3964 Mist 23 1016 88 4300 2.1 80 02:26 30.04.2020
3965 Mist 23 1015 88 4000 2.6 90 01:36 30.04.2020
3966 Mist 22 1015 94 4300 2.1 90 00:42 30.04.2020
3967 Mist 22 1015 94 4300 2.1 90 00:20 30.04.2020
3968 Mist 22 1014 94 5000 2.1 90 23:57 29.04.2020
3969 Clouds 22 1014 88 6000 3.1 100 23:37 29.04.2020
3970 Clouds 23 1014 83 7000 2.1 110 23:19 29.04.2020
3971 Clouds 23 1014 83 7000 2.1 130 22:40 29.04.2020
3972 Clouds 23 1014 83 8000 2.6 140 22:21 29.04.2020
3973 Clouds 23 1014 83 8000 2.6 140 21:59 29.04.2020
3974 Clouds 23 1015 83 9000 2.6 140 21:37 29.04.2020
3975 Clouds 23 1015 83 9000 3.1 120 21:18 29.04.2020
3976 Clouds 23 1015 83 9000 3.1 120 20:55 29.04.2020
3977 Clouds 23 1015 83 9000 2.6 130 20:36 29.04.2020
3978 Clouds 23 1015 83 8000 2.1 110 20:18 29.04.2020
3979 Clouds 23 1016 88 8000 2.6 130 19:42 29.04.2020
3980 Clouds 24 1016 83 8000 2.1 150 19:20 29.04.2020
3981 Clouds 24 1016 83 8000 2.6 150 18:43 29.04.2020
3982 Clouds 24 1016 83 8000 2.6 150 18:25 29.04.2020
3983 Clouds 24 1016 78 9000 3.1 150 17:58 29.04.2020
3984 Clouds 24 1016 83 9000 3.6 150 17:40 29.04.2020
3985 Clouds 24 1016 83 9000 3.6 150 17:21 29.04.2020
3986 Clouds 25 1015 78 9000 3.6 140 16:39 29.04.2020
3987 Clouds 25 1015 78 8000 3.6 140 16:19 29.04.2020
3988 Clouds 25 1015 78 8000 3.6 140 15:57 29.04.2020
3989 Clouds 26 1015 69 9000 4.1 130 15:39 29.04.2020
3990 Clouds 26 1015 69 9000 4.1 130 15:21 29.04.2020
3991 Clouds 26 1014 69 9000 3.6 130 14:57 29.04.2020
3992 Clouds 27 1014 65 10000 3.1 120 14:38 29.04.2020
3993 Clouds 27 1014 65 10000 3.6 130 14:20 29.04.2020
3994 Clouds 28 1013 58 10000 3.6 140 13:42 29.04.2020
3995 Clouds 28 1013 58 10000 3.6 140 13:20 29.04.2020
3996 Clouds 28 1013 58 10000 3.6 140 13:20 29.04.2020
3997 Clouds 28 1013 58 10000 3.6 140 12:59 29.04.2020
3998 Clouds 28 1013 58 10000 3.6 150 12:40 29.04.2020
3999 Clouds 28 1013 58 10000 4.1 140 12:19 29.04.2020
4000 Clouds 29 1013 54 9000 3.6 130 11:40 29.04.2020
4001 Clouds 29 1013 54 9000 3.6 130 11:22 29.04.2020
4002 Clouds 29 1013 54 8000 3.1 130 10:59 29.04.2020
4003 Clouds 30 1013 48 10000 2.6 130 10:37 29.04.2020
4004 Clouds 30 1014 45 10000 2.1 0 10:19 29.04.2020
4005 Clouds 30 1014 48 10000 2.1 170 09:42 29.04.2020
4006 Clouds 30 1014 45 9000 2.1 70 09:24 29.04.2020
4007 Clouds 30 1014 45 9000 2.1 70 08:57 29.04.2020
4008 Clouds 29 1015 51 9000 2.1 130 08:39 29.04.2020
4009 Clouds 29 1015 51 9000 2.1 130 08:20 29.04.2020
4010 Clouds 29 1015 51 9000 2.6 0 07:42 29.04.2020
4011 Clouds 29 1015 51 9000 2.6 0 07:23 29.04.2020
4012 Clouds 28 1016 54 9000 2.6 100 06:50 29.04.2020
4013 Clouds 28 1016 54 9000 2.6 100 06:30 29.04.2020
4014 Clear 28 1017 54 6000 1.5 40 05:21 29.04.2020
4015 Clear 27 1017 57 6000 1.5 40 04:39 29.04.2020
4016 Mist 25 1017 69 4900 1 0 04:18 29.04.2020
4017 Mist 23 1016 78 3500 1.5 70 02:40 29.04.2020
4018 Mist 21 1015 83 2500 1.5 20 01:44 29.04.2020
4019 Mist 21 1015 83 2500 1.5 20 01:22 29.04.2020
4020 Mist 21 1014 88 3900 2.1 80 00:41 29.04.2020
4021 Mist 21 1014 88 3900 2.1 80 00:19 29.04.2020
4022 Mist 21 1014 83 4100 1.5 70 23:49 28.04.2020
4023 Mist 21 1014 83 4100 1.5 70 23:24 28.04.2020
4024 Mist 22 1015 78 4400 1.5 50 22:55 28.04.2020
4025 Mist 22 1015 78 4100 1.5 60 22:37 28.04.2020
4026 Mist 22 1015 78 4800 1.5 80 22:18 28.04.2020
4027 Mist 22 1015 78 4800 1.5 80 21:54 28.04.2020
4028 Mist 22 1015 78 4800 1.5 80 21:54 28.04.2020
4029 Mist 22 1015 78 4800 1.5 80 21:36 28.04.2020
4030 Mist 22 1015 78 5000 1.5 80 21:18 28.04.2020
4031 Clouds 22 1015 78 6000 2.1 90 20:41 28.04.2020
4032 Clouds 22 1015 78 6000 2.1 90 20:21 28.04.2020
4033 Clouds 22 1016 78 6000 2.1 90 19:59 28.04.2020
4034 Clouds 22 1016 78 6000 2.1 80 19:41 28.04.2020
4035 Clouds 23 1016 73 6000 2.6 120 19:22 28.04.2020
4036 Clouds 23 1016 73 6000 2.6 120 18:58 28.04.2020
4037 Clouds 24 1016 69 8000 2.6 140 18:38 28.04.2020
4038 Clouds 24 1016 69 8000 2.6 140 18:38 28.04.2020
4039 Clouds 24 1016 69 8000 2.6 130 18:19 28.04.2020
4040 Clouds 24 1016 69 8000 2.6 130 18:19 28.04.2020
4041 Clouds 25 1016 65 8000 3.6 140 17:38 28.04.2020
4042 Clouds 25 1016 61 9000 4.1 140 17:20 28.04.2020
4043 Clouds 25 1016 61 9000 4.1 140 16:59 28.04.2020
4044 Clouds 25 1015 61 10000 3.6 130 16:40 28.04.2020
4045 Clouds 25 1015 61 10000 3.6 130 16:22 28.04.2020
4046 Clouds 26 1015 57 10000 4.1 130 15:57 28.04.2020
4047 Clouds 26 1015 57 10000 3.6 140 15:39 28.04.2020
4048 Clouds 26 1015 57 10000 3.6 140 15:20 28.04.2020
4049 Clouds 27 1014 54 10000 4.1 140 14:56 28.04.2020
4050 Clouds 27 1014 54 10000 2.6 160 14:38 28.04.2020
4051 Clouds 28 1014 48 10000 3.1 150 14:19 28.04.2020
4052 Clouds 28 1014 48 10000 3.1 150 13:57 28.04.2020
4053 Clouds 29 1013 42 10000 2.6 150 13:37 28.04.2020
4054 Clouds 29 1013 45 10000 3.1 160 13:19 28.04.2020
4055 Clouds 30 1013 40 10000 3.6 120 12:43 28.04.2020
4056 Clouds 30 1013 40 10000 3.6 120 12:23 28.04.2020
4057 Clouds 30 1014 40 10000 2.6 60 11:43 28.04.2020
4058 Clouds 30 1014 40 10000 2.6 60 11:24 28.04.2020
4059 Clouds 30 1014 37 10000 1.5 90 10:58 28.04.2020
4060 Clouds 31 1014 35 10000 1 0 10:38 28.04.2020
4061 Clouds 31 1014 35 10000 1 0 10:38 28.04.2020
4062 Clouds 31 1014 35 10000 2.1 0 10:19 28.04.2020
4063 Clouds 31 1014 35 10000 2.1 0 09:55 28.04.2020
4064 Clouds 31 1015 33 10000 2.1 110 09:37 28.04.2020
4065 Clouds 30 1015 37 10000 1.5 0 09:18 28.04.2020
4066 Clouds 30 1016 40 10000 2.1 100 08:40 28.04.2020
4067 Clouds 30 1016 40 10000 2.1 100 08:22 28.04.2020
4068 Clouds 29 1017 48 10000 1 0 07:44 28.04.2020
4069 Clouds 29 1017 48 10000 1 0 07:44 28.04.2020
4070 Clouds 29 1017 48 10000 1.5 0 07:19 28.04.2020
4071 Clouds 28 1018 54 9000 1 0 06:44 28.04.2020
4072 Clouds 28 1018 54 9000 1 0 05:56 28.04.2020
4073 Clouds 27 1018 57 9000 1 0 05:37 28.04.2020
4074 Clouds 25 1018 65 9000 1 0 04:39 28.04.2020
4075 Clear 21 1018 83 6000 2.1 320 02:39 28.04.2020
4076 Mist 20 1018 88 4800 1.5 300 01:58 28.04.2020
4077 Clouds 20 1018 82 6000 1 250 01:22 28.04.2020
4078 Clouds 19 1017 88 7000 1 290 00:45 28.04.2020
4079 Clouds 19 1017 88 7000 1 290 00:19 28.04.2020
4080 Clouds 19 1017 88 7000 0.5 0 23:43 27.04.2020
4081 Clouds 19 1017 88 7000 0.5 0 23:21 27.04.2020
4082 Clouds 20 1017 82 8000 1 30 22:43 27.04.2020
4083 Clouds 20 1017 82 8000 1 30 22:23 27.04.2020
4084 Clouds 22 1017 73 8000 1.5 30 21:58 27.04.2020
4085 Clouds 21 1017 77 8000 1.5 40 21:39 27.04.2020
4086 Clouds 21 1017 77 8000 1.5 40 21:20 27.04.2020
4087 Clouds 21 1018 83 8000 1.5 10 20:58 27.04.2020
4088 Clouds 22 1018 73 8000 1 0 20:39 27.04.2020
4089 Clouds 22 1018 78 8000 0.5 0 20:21 27.04.2020
4090 Clouds 22 1018 78 8000 0.5 0 19:57 27.04.2020
4091 Clouds 22 1018 78 8000 2.1 100 19:37 27.04.2020
4092 Clouds 23 1019 69 8000 1 0 19:19 27.04.2020
4093 Clouds 23 1019 69 8000 1 0 18:55 27.04.2020
4094 Clouds 23 1019 73 8000 1.5 120 18:37 27.04.2020
4095 Clouds 23 1019 73 9000 2.6 130 18:18 27.04.2020
4096 Clouds 24 1018 64 10000 3.6 140 17:41 27.04.2020
4097 Clouds 24 1018 64 10000 3.6 140 17:19 27.04.2020
4098 Clouds 24 1017 64 9000 1 0 16:41 27.04.2020
4099 Clouds 24 1017 64 9000 1 0 16:22 27.04.2020
4100 Clouds 25 1017 61 8000 2.1 330 15:58 27.04.2020
4101 Clouds 25 1017 57 10000 1.5 300 15:40 27.04.2020
4102 Clouds 25 1016 53 10000 1.5 250 15:20 27.04.2020
4103 Clouds 25 1016 53 10000 1.5 250 14:58 27.04.2020
4104 Clouds 26 1016 50 10000 1 260 14:40 27.04.2020
4105 Clouds 26 1016 50 10000 1.5 270 14:19 27.04.2020
4106 Clouds 26 1016 50 10000 1.5 270 13:56 27.04.2020
4107 Clouds 26 1016 50 10000 2.1 280 13:36 27.04.2020
4108 Clouds 28 1016 39 10000 2.6 270 13:18 27.04.2020
4109 Clouds 29 1015 37 10000 2.1 280 12:42 27.04.2020
4110 Clouds 29 1015 37 10000 2.1 280 12:21 27.04.2020
4111 Clouds 29 1016 45 10000 3.6 290 11:42 27.04.2020
4112 Clouds 29 1016 45 10000 3.6 290 11:22 27.04.2020
4113 Clouds 29 1016 45 10000 3.6 270 10:59 27.04.2020
4114 Clouds 28 1016 48 10000 4.1 260 10:40 27.04.2020
4115 Clouds 28 1016 48 10000 4.1 260 10:22 27.04.2020
4116 Clouds 29 1016 45 10000 2.1 280 09:55 27.04.2020
4117 Clouds 29 1017 48 10000 2.1 250 09:36 27.04.2020
4118 Clouds 29 1017 48 10000 2.1 250 09:36 27.04.2020
4119 Clouds 29 1017 42 10000 3.1 270 09:18 27.04.2020
4120 Clouds 28 1018 51 10000 2.6 270 08:43 27.04.2020
4121 Clouds 28 1018 51 10000 2.6 270 08:25 27.04.2020
4122 Clouds 28 1019 51 10000 3.1 290 07:44 27.04.2020
4123 Clouds 28 1019 51 10000 3.1 290 07:22 27.04.2020
4124 Clouds 27 1019 54 10000 4.1 290 06:57 27.04.2020
4125 Clouds 26 1020 57 10000 3.6 290 06:27 27.04.2020
4126 Clouds 24 1020 64 10000 4.1 310 05:50 27.04.2020
4127 Clouds 22 1020 73 10000 4.1 290 04:51 27.04.2020
4128 Clouds 21 1020 77 7000 3.6 280 04:20 27.04.2020
4129 Mist 19 1020 88 4200 2.6 280 03:36 27.04.2020
4130 Mist 17 1019 93 2600 1.5 320 01:43 27.04.2020
4131 Mist 17 1019 93 2700 2.1 320 00:59 27.04.2020
4132 Mist 17 1019 88 4700 2.1 280 00:20 27.04.2020
4133 Mist 17 1019 88 4700 2.1 280 23:56 26.04.2020
4134 Mist 17 1018 93 5000 1.5 280 23:38 26.04.2020
4135 Mist 17 1018 93 5000 1.5 280 23:38 26.04.2020
4136 Mist 17 1018 93 5000 1.5 280 23:19 26.04.2020
4137 Mist 17 1018 93 5000 1 290 22:58 26.04.2020
4138 Mist 17 1018 93 5000 1 290 22:58 26.04.2020
4139 Clouds 17 1018 93 7000 1.5 300 22:39 26.04.2020
4140 Clouds 18 1018 88 8000 2.6 310 22:20 26.04.2020
4141 Clouds 18 1018 88 8000 2.6 310 21:57 26.04.2020
4142 Clouds 17 1019 93 7000 1.5 320 21:38 26.04.2020
4143 Clouds 17 1019 93 7000 2.6 290 21:18 26.04.2020
4144 Clouds 17 1019 93 7000 2.6 290 21:18 26.04.2020
4145 Clouds 17 1019 93 7000 2.6 290 21:18 26.04.2020
4146 Clouds 17 1019 93 7000 2.6 290 21:18 26.04.2020
4147 Clouds 17 1019 93 7000 2.6 290 21:18 26.04.2020
4148 Clouds 17 1019 93 7000 2.6 290 20:54 26.04.2020
4149 Clouds 18 1019 88 9000 2.1 300 20:36 26.04.2020
4150 Clouds 18 1020 88 8000 2.1 310 20:18 26.04.2020
4151 Clouds 18 1020 88 8000 2.1 310 19:56 26.04.2020
4152 Clouds 18 1020 93 7000 1 290 19:36 26.04.2020
4153 Clouds 19 1021 88 8000 2.1 300 19:18 26.04.2020
4154 Clouds 19 1021 88 9000 2.6 290 18:40 26.04.2020
4155 Clouds 19 1021 88 9000 2.6 290 18:21 26.04.2020
4156 Clouds 19 1020 88 9000 2.6 310 17:42 26.04.2020
4157 Clouds 19 1020 82 10000 2.6 310 17:22 26.04.2020
4158 Clouds 19 1020 82 10000 2.6 310 16:55 26.04.2020
4159 Clouds 19 1020 82 10000 3.6 300 16:37 26.04.2020
4160 Clouds 19 1020 82 10000 3.1 300 16:19 26.04.2020
4161 Clouds 19 1020 82 10000 3.1 300 15:56 26.04.2020
4162 Clouds 19 1020 82 10000 3.6 300 15:37 26.04.2020
4163 Rain 19 1020 82 10000 2.6 300 15:18 26.04.2020
4164 Rain 20 1019 77 10000 4.1 290 14:40 26.04.2020
4165 Rain 20 1019 77 10000 4.1 290 14:19 26.04.2020
4166 Rain 20 1019 77 10000 4.1 290 14:19 26.04.2020
4167 Rain 20 1019 77 10000 4.1 290 13:58 26.04.2020
4168 Clouds 21 1019 77 10000 3.6 290 13:39 26.04.2020
4169 Clouds 21 1019 77 10000 3.6 290 13:20 26.04.2020
4170 Clouds 21 1019 77 10000 2.6 280 12:54 26.04.2020
4171 Rain 22 1019 73 10000 3.1 270 12:36 26.04.2020
4172 Rain 22 1018 68 10000 2.6 320 12:18 26.04.2020
4173 Clouds 23 1019 64 10000 3.1 300 11:42 26.04.2020
4174 Clouds 23 1019 64 10000 3.1 300 11:23 26.04.2020
4175 Clouds 23 1019 64 10000 3.1 300 11:23 26.04.2020
4176 Clouds 22 1019 68 10000 2.6 290 10:58 26.04.2020
4177 Rain 22 1019 68 10000 2.6 300 10:40 26.04.2020
4178 Rain 22 1019 68 10000 2.6 300 10:40 26.04.2020
4179 Rain 22 1019 68 10000 2.6 300 10:22 26.04.2020
4180 Clouds 22 1019 68 10000 2.1 280 09:57 26.04.2020
4181 Rain 22 1019 68 10000 2.1 290 09:37 26.04.2020
4182 Rain 22 1019 64 10000 3.1 310 09:18 26.04.2020
4183 Clouds 23 1019 64 10000 3.1 290 08:41 26.04.2020
4184 Clouds 23 1019 64 10000 3.1 290 08:20 26.04.2020
4185 Clouds 23 1020 69 10000 3.6 300 07:48 26.04.2020
4186 Clouds 23 1020 69 10000 3.6 300 07:22 26.04.2020
4187 Clouds 21 1020 73 10000 3.1 310 06:45 26.04.2020
4188 Rain 21 1021 77 10000 3.6 290 06:18 26.04.2020
4189 Clouds 20 1021 82 9000 2.6 300 05:45 26.04.2020
4190 Clouds 20 1021 82 9000 2.6 300 05:25 26.04.2020
4191 Clouds 20 1022 82 7000 2.6 290 04:24 26.04.2020
4192 Rain 19 1021 88 6000 2.6 280 03:32 26.04.2020
4193 Rain 18 1021 93 6000 2.6 280 02:32 26.04.2020
4194 Rain 18 1020 93 5000 1.5 250 01:52 26.04.2020
4195 Rain 18 1020 93 5000 1.5 280 01:27 26.04.2020
4196 Clouds 19 1020 88 7000 2.1 290 00:40 26.04.2020
4197 Rain 19 1020 88 7000 2.1 270 00:19 26.04.2020
4198 Rain 19 1019 88 8000 2.1 270 23:39 25.04.2020
4199 Rain 19 1019 88 8000 2.1 270 23:21 25.04.2020
4200 Rain 19 1019 88 8000 2.1 270 22:59 25.04.2020
4201 Rain 19 1019 88 6000 1.5 310 22:40 25.04.2020
4202 Clouds 19 1019 88 8000 1.5 310 22:19 25.04.2020
4203 Clouds 19 1019 88 8000 1.5 310 21:56 25.04.2020
4204 Clouds 19 1019 88 8000 1 300 21:36 25.04.2020
4205 Clouds 19 1019 88 7000 1.5 310 21:18 25.04.2020
4206 Clouds 19 1020 88 6000 1.5 310 20:42 25.04.2020
4207 Clouds 19 1020 88 6000 1.5 310 20:22 25.04.2020
4208 Clouds 19 1020 88 7000 2.6 310 19:56 25.04.2020
4209 Clouds 19 1021 88 9000 3.6 290 19:38 25.04.2020
4210 Clouds 19 1021 88 9000 3.6 290 19:38 25.04.2020
4211 Clouds 19 1021 82 10000 2.1 310 19:19 25.04.2020
4212 Clouds 19 1021 82 9000 1.5 320 18:42 25.04.2020
4213 Clouds 19 1021 82 9000 1.5 320 18:21 25.04.2020
4214 Clouds 19 1021 82 9000 1.5 320 17:58 25.04.2020
4215 Clouds 19 1021 88 9000 1.5 290 17:39 25.04.2020
4216 Clouds 19 1021 88 9000 1.5 290 17:20 25.04.2020
4217 Clouds 19 1021 82 10000 0.5 310 16:58 25.04.2020
4218 Clouds 19 1020 82 10000 1.5 320 16:40 25.04.2020
4219 Clouds 19 1020 82 10000 1.5 320 16:21 25.04.2020
4220 Clouds 19 1020 82 10000 1 0 15:42 25.04.2020
4221 Clouds 19 1019 82 10000 1.5 310 15:21 25.04.2020
4222 Clouds 19 1019 82 10000 1.5 310 14:58 25.04.2020
4223 Clouds 19 1019 82 10000 1 300 14:39 25.04.2020
4224 Clouds 19 1019 82 10000 1 300 14:20 25.04.2020
4225 Clouds 19 1019 82 10000 1 300 14:20 25.04.2020
4226 Clouds 19 1019 82 10000 0.5 330 13:54 25.04.2020
4227 Clouds 20 1018 68 10000 0.5 0 13:36 25.04.2020
4228 Rain 20 1018 68 10000 1 30 13:18 25.04.2020
4229 Rain 20 1018 68 10000 1.5 90 12:42 25.04.2020
4230 Rain 20 1018 68 10000 1.5 90 12:21 25.04.2020
4231 Clouds 20 1017 68 10000 1.5 70 11:59 25.04.2020
4232 Clouds 21 1017 64 10000 2.1 50 11:41 25.04.2020
4233 Clouds 21 1017 64 10000 2.1 50 11:23 25.04.2020
4234 Clouds 20 1018 68 10000 1.5 310 10:45 25.04.2020
4235 Clouds 20 1018 68 10000 1.5 310 10:26 25.04.2020
4236 Clouds 20 1019 68 10000 2.1 290 09:57 25.04.2020
4237 Clouds 20 1019 72 10000 2.6 290 09:39 25.04.2020
4238 Clouds 21 1019 64 10000 2.1 330 09:21 25.04.2020
4239 Clouds 20 1019 72 10000 2.6 300 08:41 25.04.2020
4240 Clouds 20 1019 72 10000 2.6 300 08:41 25.04.2020
4241 Clouds 20 1019 72 10000 2.6 300 08:22 25.04.2020
4242 Clouds 20 1020 68 10000 2.1 280 07:59 25.04.2020
4243 Rain 19 1020 72 10000 2.6 270 07:41 25.04.2020
4244 Clouds 20 1020 68 10000 1.5 0 06:56 25.04.2020
4245 Clouds 19 1020 77 10000 2.6 300 06:36 25.04.2020
4246 Clouds 19 1021 72 10000 3.1 320 05:42 25.04.2020
4247 Clouds 19 1021 72 10000 3.1 320 05:23 25.04.2020
4248 Rain 17 1020 82 10000 1 0 03:19 25.04.2020
4249 Rain 17 1020 88 4700 1 310 02:25 25.04.2020
4250 Rain 17 1020 93 5000 2.33 329 01:55 25.04.2020
4251 Mist 17 1020 93 4600 1.5 320 01:37 25.04.2020
4252 Rain 17 1020 88 6000 2.1 300 01:18 25.04.2020
4253 Rain 17 1020 88 9000 2.1 310 00:37 25.04.2020
4254 Rain 17 1019 88 10000 2.1 290 23:55 24.04.2020
4255 Clouds 17 1019 88 10000 2.6 290 23:37 24.04.2020
4256 Rain 17 1019 93 7000 2.1 300 23:19 24.04.2020
4257 Rain 17 1019 88 8000 2.1 340 22:40 24.04.2020
4258 Rain 17 1019 88 8000 2.1 340 22:20 24.04.2020
4259 Rain 17 1019 93 6000 3.1 330 21:57 24.04.2020
4260 Rain 17 1020 93 5000 2.1 280 21:38 24.04.2020
4261 Clouds 18 1021 88 7000 2.1 300 21:20 24.04.2020
4262 Clouds 18 1021 88 7000 2.1 300 20:56 24.04.2020
4263 Clouds 18 1021 88 7000 1.5 320 20:38 24.04.2020
4264 Clouds 18 1021 88 6000 1.5 310 20:18 24.04.2020
4265 Clouds 18 1022 88 7000 2.1 300 19:41 24.04.2020
4266 Clouds 18 1023 88 6000 2.1 300 19:22 24.04.2020
4267 Clouds 18 1023 88 7000 2.1 310 18:46 24.04.2020
4268 Clouds 18 1023 88 7000 2.1 310 18:28 24.04.2020
4269 Clouds 18 1023 88 7000 2.1 320 17:58 24.04.2020
4270 Clouds 17 1022 93 7000 2.1 320 17:39 24.04.2020
4271 Clouds 18 1022 88 6000 1 330 17:20 24.04.2020
4272 Clouds 18 1022 88 6000 1 330 16:58 24.04.2020
4273 Clouds 18 1022 88 7000 1.5 310 16:40 24.04.2020
4274 Clouds 18 1022 88 7000 1.5 310 16:21 24.04.2020
4275 Clouds 18 1021 88 7000 1 0 15:42 24.04.2020
4276 Clouds 18 1021 88 7000 1 0 15:21 24.04.2020
4277 Rain 18 1021 88 6000 1.5 320 14:59 24.04.2020
4278 Clouds 18 1020 88 8000 1.5 330 14:38 24.04.2020
4279 Clouds 18 1020 88 8000 1.5 300 14:19 24.04.2020
4280 Rain 18 1020 82 10000 2.1 280 13:41 24.04.2020
4281 Rain 18 1020 82 10000 2.1 280 13:41 24.04.2020
4282 Rain 18 1020 82 10000 2.1 280 13:21 24.04.2020
4283 Clouds 18 1019 82 10000 2.1 310 12:58 24.04.2020
4284 Rain 18 1019 82 10000 1 0 12:40 24.04.2020
4285 Rain 18 1019 82 10000 1 0 12:20 24.04.2020
4286 Clouds 18 1019 77 10000 2.6 40 11:43 24.04.2020
4287 Clouds 18 1019 77 10000 2.6 40 11:23 24.04.2020
4288 Rain 18 1019 82 10000 2.1 30 10:59 24.04.2020
4289 Rain 18 1019 82 10000 2.1 20 10:38 24.04.2020
4290 Rain 17 1019 82 9000 2.6 360 10:20 24.04.2020
4291 Rain 17 1019 82 9000 2.6 360 10:20 24.04.2020
4292 Rain 17 1019 82 9000 2.6 360 09:55 24.04.2020
4293 Rain 17 1020 88 10000 3.1 30 09:36 24.04.2020
4294 Rain 17 1021 82 10000 2.6 10 09:18 24.04.2020
4295 Rain 17 1021 82 10000 3.6 0 08:42 24.04.2020
4296 Rain 17 1022 82 10000 2.6 340 08:20 24.04.2020
4297 Rain 17 1022 82 10000 2.6 340 07:56 24.04.2020
4298 Rain 17 1022 82 10000 2.6 340 07:56 24.04.2020
4299 Rain 18 1023 77 9000 3.1 330 07:38 24.04.2020
4300 Rain 18 1022 77 10000 4.1 360 07:19 24.04.2020
4301 Clouds 18 1022 77 10000 4.67 11 06:42 24.04.2020
4302 Rain 17 1023 82 10000 2.6 10 05:51 24.04.2020
4303 Rain 17 1023 82 10000 2.1 360 05:18 24.04.2020
4304 Thunderstorm 17 1022 82 6000 3.6 350 03:28 24.04.2020
4305 Clouds 17 1020 82 10000 3.6 10 02:49 24.04.2020
4306 Clouds 17 1020 82 10000 3.6 10 02:24 24.04.2020
4307 Rain 17 1019 88 10000 3.1 360 01:37 24.04.2020
4308 Rain 17 1019 88 10000 2.6 10 00:46 24.04.2020
4309 Rain 17 1019 88 10000 2.6 40 00:18 24.04.2020
4310 Rain 17 1020 82 10000 3.1 340 23:45 23.04.2020
4311 Rain 17 1020 82 10000 3.1 340 23:27 23.04.2020
4312 Rain 17 1018 88 9000 3.6 50 22:57 23.04.2020
4313 Rain 17 1017 88 9000 4.1 60 22:38 23.04.2020
4314 Rain 17 1018 88 10000 5.1 50 22:19 23.04.2020
4315 Rain 17 1018 88 10000 5.1 50 21:57 23.04.2020
4316 Rain 17 1018 88 10000 5.1 50 21:57 23.04.2020
4317 Rain 17 1018 88 10000 5.1 50 21:38 23.04.2020
4318 Rain 17 1018 88 10000 5.1 50 21:38 23.04.2020
4319 Thunderstorm 17 1019 88 9000 5.7 50 21:20 23.04.2020
4320 Rain 17 1019 88 9000 5.7 50 20:54 23.04.2020
4321 Rain 17 1019 88 9000 5.7 50 20:54 23.04.2020
4322 Thunderstorm 17 1020 93 4700 4.6 10 20:36 23.04.2020
4323 Thunderstorm 17 1020 93 4700 4.6 10 20:36 23.04.2020
4324 Thunderstorm 19 1020 72 10000 2.6 330 20:18 23.04.2020
4325 Clouds 19 1019 72 10000 3.6 360 19:42 23.04.2020
4326 Clouds 19 1019 72 10000 3.6 360 19:42 23.04.2020
4327 Clouds 19 1019 72 10000 3.6 360 19:22 23.04.2020
4328 -273 0 0 0 0 0 18:58 23.04.2020
4329 Clouds 19 1019 77 10000 4.1 10 18:39 23.04.2020
4330 Clouds 19 1019 77 10000 4.1 10 18:39 23.04.2020
4331 Clouds 19 1019 77 10000 4.1 10 18:21 23.04.2020
4332 Rain 18 1018 82 10000 5.1 20 17:56 23.04.2020
4333 Rain 18 1018 82 10000 6.2 20 17:38 23.04.2020
4334 Rain 18 1018 82 10000 6.2 20 17:20 23.04.2020
4335 Clouds 20 1017 68 10000 6.7 30 16:44 23.04.2020
4336 Clouds 20 1017 68 10000 6.7 30 16:44 23.04.2020
4337 Clouds 20 1017 68 10000 6.7 30 16:21 23.04.2020
4338 Clouds 20 1016 72 10000 5.7 40 15:43 23.04.2020
4339 Clouds 20 1016 72 10000 5.7 40 15:25 23.04.2020
4340 Clouds 20 1016 72 10000 4.6 50 15:00 23.04.2020
4341 Clouds 20 1016 72 10000 4.6 50 14:59 23.04.2020
4342 Clouds 20 1016 72 10000 5.1 50 14:41 23.04.2020
4343 Clouds 20 1015 72 10000 4.6 40 14:22 23.04.2020
4344 Clouds 20 1015 72 10000 4.6 40 13:58 23.04.2020
4345 Clouds 20 1015 72 10000 5.7 40 13:39 23.04.2020
4346 Clouds 20 1015 72 10000 5.7 40 13:20 23.04.2020
4347 Clouds 21 1015 73 10000 5.7 50 12:56 23.04.2020
4348 Clouds 21 1014 73 10000 6.2 50 12:38 23.04.2020
4349 Clouds 21 1014 73 10000 5.1 60 12:19 23.04.2020
4350 Clouds 22 1014 73 10000 5.1 50 11:46 23.04.2020
4351 Clouds 22 1014 73 10000 5.1 50 11:27 23.04.2020
4352 Clouds 22 1015 73 10000 5.1 50 10:56 23.04.2020
4353 Clouds 22 1015 73 10000 4.1 50 10:38 23.04.2020
4354 Clouds 22 1015 78 10000 4.1 70 10:19 23.04.2020
4355 Clouds 22 1016 78 10000 4.6 60 09:38 23.04.2020
4356 Clouds 22 1016 78 10000 3.6 50 09:18 23.04.2020
4357 Clouds 22 1017 78 10000 4.1 50 08:47 23.04.2020
4358 Clouds 22 1017 78 10000 4.1 50 08:29 23.04.2020
4359 Clouds 22 1017 78 10000 3.1 40 07:45 23.04.2020
4360 Clouds 22 1017 78 10000 3.1 40 07:24 23.04.2020
4361 Clouds 21 1017 83 10000 3.6 40 06:57 23.04.2020
4362 Clouds 21 1018 83 10000 4.6 50 06:39 23.04.2020
4363 Clouds 21 1018 88 10000 4.1 20 05:32 23.04.2020
4364 Clouds 20 1018 94 10000 1.5 20 04:54 23.04.2020
4365 Rain 20 1015 94 10000 3.6 50 02:40 23.04.2020
4366 Rain 20 1015 94 10000 3.6 50 02:22 23.04.2020
4367 Clouds 21 1015 83 10000 5.1 50 01:35 23.04.2020
4368 Clouds 20 1013 94 10000 4.1 70 00:49 23.04.2020
4369 Clouds 20 1013 94 10000 4.1 70 00:24 23.04.2020
4370 Clouds 20 1014 94 9000 2.6 80 23:50 22.04.2020
4371 Clouds 20 1014 94 9000 2.6 80 23:25 22.04.2020
4372 Drizzle 20 1013 94 6000 3.6 90 22:58 22.04.2020
4373 Clouds 21 1014 88 10000 4.1 60 22:38 22.04.2020
4374 Clouds 21 1014 88 10000 4.1 40 22:19 22.04.2020
4375 Clouds 21 1014 88 10000 4.1 40 21:56 22.04.2020
4376 Rain 20 1014 94 10000 4.1 70 21:38 22.04.2020
4377 Clouds 21 1014 88 10000 4.1 70 21:19 22.04.2020
4378 Clouds 21 1014 88 10000 5.7 110 20:43 22.04.2020
4379 Clouds 21 1014 88 10000 5.7 110 20:20 22.04.2020
4380 Rain 21 1013 94 10000 8.7 120 19:58 22.04.2020
4381 Rain 21 1015 94 10000 4.6 60 19:39 22.04.2020
4382 Clouds 23 1016 83 10000 5.7 40 19:19 22.04.2020
4383 Clouds 23 1016 83 10000 5.7 40 18:59 22.04.2020
4384 Rain 23 1015 88 10000 4.6 70 18:41 22.04.2020
4385 Rain 23 1015 88 10000 4.6 70 18:22 22.04.2020
4386 Clouds 23 1015 88 10000 3.6 70 17:57 22.04.2020
4387 Clouds 23 1014 88 10000 4.1 70 17:39 22.04.2020
4388 Rain 23 1014 88 9000 3.6 60 17:20 22.04.2020
4389 Rain 23 1014 94 6000 2.6 60 16:43 22.04.2020
4390 Rain 23 1014 94 6000 2.6 60 16:25 22.04.2020
4391 Rain 24 1012 83 9000 2.1 90 15:43 22.04.2020
4392 Rain 24 1012 83 9000 2.1 90 15:25 22.04.2020
4393 Clouds 24 1011 83 10000 3.1 80 14:59 22.04.2020
4394 Clouds 24 1011 83 10000 3.1 80 14:59 22.04.2020
4395 Clouds 24 1011 83 10000 3.1 80 14:59 22.04.2020
4396 Clouds 25 1010 73 10000 4.1 100 14:41 22.04.2020
4397 Clouds 25 1010 73 10000 4.1 100 14:20 22.04.2020
4398 Clouds 25 1009 73 10000 3.6 80 13:57 22.04.2020
4399 Clouds 25 1009 78 10000 3.1 70 13:39 22.04.2020
4400 Clouds 25 1009 78 10000 3.6 80 13:19 22.04.2020
4401 Clouds 25 1009 78 10000 5.1 90 12:42 22.04.2020
4402 Clouds 25 1009 78 10000 5.1 90 12:23 22.04.2020
4403 Clouds 25 1009 78 10000 5.1 90 12:23 22.04.2020
4404 Clouds 25 1008 83 10000 5.1 90 11:57 22.04.2020
4405 Clouds 26 1009 78 10000 4.1 80 11:36 22.04.2020
4406 Clouds 26 1009 78 10000 4.6 80 11:18 22.04.2020
4407 Clouds 27 1010 74 10000 3.6 80 10:41 22.04.2020
4408 Clouds 27 1010 74 10000 3.6 80 10:21 22.04.2020
4409 Clouds 25 1010 78 10000 4.6 70 09:41 22.04.2020
4410 Clouds 25 1010 78 10000 4.6 70 09:22 22.04.2020
4411 Clouds 25 1011 83 10000 5.1 70 08:58 22.04.2020
4412 Clouds 24 1012 83 10000 5.1 70 08:40 22.04.2020
4413 Clouds 23 1012 88 10000 5.7 40 08:22 22.04.2020
4414 Clouds 23 1012 88 10000 4.1 100 07:53 22.04.2020
4415 Clouds 23 1012 88 10000 4.1 100 07:28 22.04.2020
4416 Rain 22 1012 94 10000 5.7 120 06:53 22.04.2020
4417 Rain 22 1012 94 10000 5.7 120 06:53 22.04.2020
4418 Thunderstorm 21 1014 94 650 10.8 310 06:18 22.04.2020
4419 Rain 25 1013 94 2100 2.1 180 05:37 22.04.2020
4420 Mist 25 1012 94 4700 1.5 90 04:20 22.04.2020
4421 Mist 25 1012 94 4700 1.5 90 04:20 22.04.2020
4422 Drizzle 25 1011 88 2200 3.6 100 02:50 22.04.2020
4423 Drizzle 25 1010 88 1700 3.6 110 01:52 22.04.2020
4424 Rain 25 1010 88 1600 3.1 110 01:25 22.04.2020
4425 Drizzle 25 1010 88 4000 2.1 80 00:47 22.04.2020
4426 Drizzle 25 1010 88 4000 2.1 80 00:22 22.04.2020
4427 Clouds 25 1009 88 7000 2.6 80 23:59 21.04.2020
4428 Clouds 25 1009 88 6000 2.1 80 23:41 21.04.2020
4429 Clouds 25 1009 94 7000 2.6 90 23:18 21.04.2020
4430 Clouds 25 1009 94 6000 2.6 80 22:40 21.04.2020
4431 Clouds 25 1009 88 8000 3.6 80 22:21 21.04.2020
4432 Clouds 25 1009 88 8000 3.6 80 21:59 21.04.2020
4433 Clouds 25 1009 94 6000 3.1 90 21:40 21.04.2020
4434 Clouds 25 1009 94 6000 3.1 90 21:22 21.04.2020
4435 Mist 25 1009 94 5000 3.6 80 20:55 21.04.2020
4436 Mist 25 1010 94 5000 2.6 90 20:36 21.04.2020
4437 Clouds 25 1010 94 6000 3.1 100 20:18 21.04.2020
4438 Mist 25 1010 94 5000 3.1 100 19:40 21.04.2020
4439 Drizzle 26 1010 88 5000 3.6 110 19:19 21.04.2020
4440 Mist 26 1010 88 5000 3.6 110 18:57 21.04.2020
4441 Drizzle 25 1010 94 4400 4.1 120 18:38 21.04.2020
4442 Drizzle 26 1011 88 4400 4.1 130 18:19 21.04.2020
4443 Drizzle 26 1011 88 4400 4.1 130 18:19 21.04.2020
4444 Drizzle 26 1011 88 5000 4.6 110 17:41 21.04.2020
4445 Drizzle 26 1010 88 5000 4.6 120 17:22 21.04.2020
4446 Drizzle 26 1010 88 5000 4.6 120 16:59 21.04.2020
4447 Mist 26 1010 88 4600 5.1 120 16:38 21.04.2020
4448 Drizzle 26 1010 88 4600 5.1 120 16:38 21.04.2020
4449 Clouds 27 1010 83 9000 4.6 120 16:19 21.04.2020
4450 Clouds 27 1010 83 9000 4.6 120 15:56 21.04.2020
4451 Clouds 27 1009 83 10000 4.6 120 15:38 21.04.2020
4452 Clouds 27 1008 83 10000 5.1 120 15:19 21.04.2020
4453 Clouds 27 1008 83 8000 4.1 110 14:45 21.04.2020
4454 Clouds 27 1008 83 8000 4.1 110 14:25 21.04.2020
4455 Clouds 27 1008 83 7000 4.6 130 13:58 21.04.2020
4456 Clouds 28 1007 78 8000 4.6 130 13:38 21.04.2020
4457 Clouds 28 1007 78 8000 5.1 130 13:18 21.04.2020
4458 Clouds 28 1006 78 7000 6.2 120 12:39 21.04.2020
4459 Clouds 28 1006 78 7000 6.2 120 12:20 21.04.2020
4460 Clouds 28 1006 78 6000 5.1 110 11:58 21.04.2020
4461 Mist 28 1006 78 5000 3.6 100 11:39 21.04.2020
4462 Mist 28 1006 78 5000 5.7 110 11:19 21.04.2020
4463 Mist 28 1006 78 5000 5.7 110 10:59 21.04.2020
4464 Mist 28 1007 83 5000 5.7 110 10:40 21.04.2020
4465 Mist 28 1007 83 5000 5.7 110 10:22 21.04.2020
4466 Mist 29 1007 74 5000 6.2 100 09:59 21.04.2020
4467 Mist 29 1008 74 5000 4.6 110 09:36 21.04.2020
4468 Clouds 29 1008 74 6000 4.6 100 09:18 21.04.2020
4469 Clouds 29 1008 74 6000 3.6 100 08:43 21.04.2020
4470 Clouds 29 1008 74 6000 3.6 100 08:25 21.04.2020
4471 Mist 29 1009 74 5000 3.1 100 07:52 21.04.2020
4472 Clouds 29 1009 74 7000 3.6 80 07:27 21.04.2020
4473 Clouds 29 1010 74 7000 2.6 100 06:51 21.04.2020
4474 Clouds 29 1010 74 7000 2.6 100 06:51 21.04.2020
4475 Clouds 28 1010 74 6000 3.1 90 06:33 21.04.2020
4476 Mist 28 1011 78 5000 3.1 110 05:50 21.04.2020
4477 Clouds 28 1011 78 6000 3.1 100 04:57 21.04.2020
4478 Clouds 28 1011 78 6000 3.1 100 04:57 21.04.2020
4479 Clouds 26 1010 88 6000 2.6 100 03:46 21.04.2020
4480 Clouds 26 1010 88 7000 2.1 110 02:41 21.04.2020
4481 Mist 25 1009 94 5000 2.1 100 01:30 21.04.2020
4482 Clouds 26 1009 88 6000 2.1 100 00:38 21.04.2020
4483 Clouds 26 1009 83 7000 2.6 110 23:58 20.04.2020
4484 Clouds 26 1008 83 8000 2.6 110 23:40 20.04.2020
4485 Clouds 26 1008 83 8000 3.6 130 23:19 20.04.2020
4486 Clouds 26 1008 83 8000 3.6 130 22:54 20.04.2020
4487 Clouds 26 1008 83 8000 3.6 120 22:36 20.04.2020
4488 Clouds 26 1008 83 8000 4.1 120 22:18 20.04.2020
4489 Clouds 26 1008 83 8000 4.1 120 21:54 20.04.2020
4490 Clouds 26 1008 88 7000 3.6 100 21:36 20.04.2020
4491 Clouds 26 1009 88 7000 3.1 80 21:18 20.04.2020
4492 Clouds 26 1009 88 8000 3.6 100 20:41 20.04.2020
4493 Clouds 26 1009 88 7000 3.1 100 20:19 20.04.2020
4494 Clouds 26 1009 88 7000 3.1 100 19:59 20.04.2020
4495 Clouds 26 1009 88 7000 4.1 100 19:40 20.04.2020
4496 Clouds 26 1009 88 7000 4.1 100 19:20 20.04.2020
4497 Clouds 25 1009 88 8000 3.6 100 18:55 20.04.2020
4498 Clouds 25 1009 88 8000 3.6 100 18:36 20.04.2020
4499 Clouds 26 1009 83 9000 3.6 100 18:18 20.04.2020
4500 Clouds 27 1010 78 9000 5.1 130 17:43 20.04.2020
4501 Clouds 27 1011 83 9000 4.1 130 17:22 20.04.2020
4502 Clouds 27 1011 83 9000 4.1 130 16:59 20.04.2020
4503 Clouds 27 1010 83 9000 4.1 130 16:40 20.04.2020
4504 Clouds 27 1010 83 9000 4.6 130 16:19 20.04.2020
4505 Clouds 27 1010 83 9000 4.6 130 16:19 20.04.2020
4506 Clouds 27 1009 83 10000 5.1 140 15:45 20.04.2020
4507 Clouds 27 1009 83 10000 5.1 140 15:25 20.04.2020
4508 Clouds 27 1009 83 9000 3.1 120 14:59 20.04.2020
4509 Clouds 27 1008 83 10000 3.6 100 14:40 20.04.2020
4510 Clouds 28 1008 78 10000 3.6 110 14:19 20.04.2020
4511 Clouds 28 1008 78 10000 3.6 110 13:56 20.04.2020
4512 Clouds 29 1008 74 10000 1 0 13:37 20.04.2020
4513 Clouds 29 1008 74 10000 4.1 0 13:19 20.04.2020
4514 Clouds 29 1007 74 10000 3.6 100 12:42 20.04.2020
4515 Clouds 29 1007 74 10000 3.6 100 12:21 20.04.2020
4516 Clouds 29 1007 74 10000 4.6 90 11:42 20.04.2020
4517 Clouds 29 1007 74 10000 4.6 90 11:23 20.04.2020
4518 Clouds 30 1008 70 10000 4.1 100 10:57 20.04.2020
4519 Clouds 30 1008 70 10000 4.1 110 10:39 20.04.2020
4520 Clouds 30 1008 70 10000 4.6 110 10:20 20.04.2020
4521 Clouds 30 1008 70 10000 4.6 110 09:58 20.04.2020
4522 Clouds 30 1009 70 10000 5.1 130 09:39 20.04.2020
4523 Clouds 30 1009 70 10000 5.1 130 09:21 20.04.2020
4524 Clouds 30 1009 66 10000 6.2 150 08:42 20.04.2020
4525 Clouds 30 1009 66 10000 6.2 150 08:23 20.04.2020
4526 Clouds 30 1010 66 10000 5.1 140 07:53 20.04.2020
4527 Clouds 29 1011 70 10000 5.1 150 07:30 20.04.2020
4528 Clouds 29 1011 70 10000 5.1 150 07:29 20.04.2020
4529 Clouds 29 1011 70 10000 5.1 150 06:58 20.04.2020
4530 Clouds 28 1012 69 10000 4.1 150 06:37 20.04.2020
4531 Clouds 28 1012 74 10000 4.6 140 05:44 20.04.2020
4532 Clouds 27 1013 83 10000 3.6 130 04:28 20.04.2020
4533 Clouds 25 1011 88 7000 4.1 130 02:47 20.04.2020
4534 Clouds 25 1011 88 7000 4.6 130 01:56 20.04.2020
4535 Clouds 25 1011 88 6000 4.6 130 01:28 20.04.2020
4536 Mist 24 1010 94 5000 2.1 100 00:39 20.04.2020
4537 Mist 24 1010 94 5000 1.5 100 23:59 19.04.2020
4538 Mist 24 1009 94 4900 2.6 100 23:39 19.04.2020
4539 Mist 24 1009 94 4900 2.6 100 23:20 19.04.2020
4540 Mist 24 1009 94 4600 3.1 100 22:43 19.04.2020
4541 Mist 24 1009 94 4600 3.1 100 22:23 19.04.2020
4542 Mist 24 1009 94 3900 2.6 110 21:59 19.04.2020
4543 Mist 25 1010 88 4100 2.6 110 21:41 19.04.2020
4544 Mist 25 1010 88 4100 2.6 110 21:21 19.04.2020
4545 Mist 25 1010 88 5000 3.1 110 20:55 19.04.2020
4546 Clouds 25 1010 88 9000 3.6 130 20:37 19.04.2020
4547 Clouds 25 1010 88 9000 3.6 130 20:19 19.04.2020
4548 Clouds 26 1010 83 7000 4.6 130 19:41 19.04.2020
4549 Clouds 26 1010 83 7000 4.6 130 19:23 19.04.2020
4550 Clouds 26 1011 83 9000 4.1 130 18:58 19.04.2020
4551 Clouds 25 1011 88 8000 4.1 130 18:40 19.04.2020
4552 Clouds 25 1011 88 7000 4.1 150 18:21 19.04.2020
4553 Clouds 25 1011 88 7000 4.1 150 17:59 19.04.2020
4554 Clouds 25 1010 88 9000 5.1 130 17:40 19.04.2020
4555 Clouds 26 1010 83 9000 5.7 130 17:22 19.04.2020
4556 Clouds 26 1010 83 9000 5.7 130 16:58 19.04.2020
4557 Clouds 26 1010 83 9000 4.6 130 16:39 19.04.2020
4558 Clouds 26 1010 83 9000 4.6 130 16:21 19.04.2020
4559 Clouds 27 1009 83 10000 4.1 130 15:43 19.04.2020
4560 Clouds 27 1009 83 10000 4.1 130 15:23 19.04.2020
4561 Clouds 27 1009 83 10000 3.6 130 14:56 19.04.2020
4562 Clouds 27 1008 83 9000 3.6 120 14:38 19.04.2020
4563 Clouds 27 1008 83 9000 3.6 120 14:19 19.04.2020
4564 Clouds 27 1008 83 9000 4.1 100 13:40 19.04.2020
4565 Clouds 28 1007 78 8000 4.1 100 13:21 19.04.2020
4566 Clouds 28 1007 78 8000 4.1 100 12:58 19.04.2020
4567 Clouds 28 1007 78 8000 3.1 100 12:40 19.04.2020
4568 Clouds 28 1007 78 8000 3.1 100 12:20 19.04.2020
4569 Clouds 28 1007 78 6000 2.6 60 11:37 19.04.2020
4570 Mist 27 1008 83 5000 2.6 70 11:19 19.04.2020
4571 Mist 27 1008 83 5000 2.6 70 10:58 19.04.2020
4572 Drizzle 26 1008 88 4000 3.1 80 10:39 19.04.2020
4573 Mist 27 1008 78 5000 3.6 100 10:19 19.04.2020
4574 Mist 28 1009 78 5000 3.1 100 09:46 19.04.2020
4575 Mist 28 1009 78 5000 3.1 100 09:28 19.04.2020
4576 Clouds 27 1010 78 6000 3.1 100 08:42 19.04.2020
4577 Clouds 27 1010 78 6000 3.1 100 08:24 19.04.2020
4578 Mist 27 1010 78 4900 3.6 110 07:59 19.04.2020
4579 Mist 26 1010 88 4300 2.1 110 07:41 19.04.2020
4580 Mist 26 1010 88 4300 2.1 110 07:23 19.04.2020
4581 Mist 26 1010 88 4300 2.1 110 07:23 19.04.2020
4582 Mist 26 1011 83 4500 3.6 110 06:30 19.04.2020
4583 Mist 26 1011 88 5000 3.1 110 05:56 19.04.2020
4584 Mist 26 1012 88 3300 2.6 80 04:48 19.04.2020
4585 Mist 25 1011 88 5000 2.1 90 02:59 19.04.2020
4586 Mist 25 1010 88 5000 1.5 90 02:21 19.04.2020
4587 Mist 25 1009 88 3900 2.1 80 01:39 19.04.2020
4588 Clouds 25 1008 88 8000 3.6 100 00:49 19.04.2020
4589 Clouds 25 1008 88 8000 3.6 100 00:25 19.04.2020
4590 Clouds 24 1008 94 7000 3.6 110 23:56 18.04.2020
4591 Clouds 25 1008 88 7000 4.1 110 23:36 18.04.2020
4592 Clouds 25 1008 88 6000 4.1 100 23:18 18.04.2020
4593 Clouds 25 1008 88 6000 4.6 110 22:41 18.04.2020
4594 Clouds 25 1008 88 6000 4.6 110 22:21 18.04.2020
4595 Clouds 25 1008 88 6000 5.1 100 21:57 18.04.2020
4596 Clouds 25 1008 88 6000 4.1 100 21:37 18.04.2020
4597 Clouds 25 1008 88 6000 4.1 100 21:37 18.04.2020
4598 Clouds 25 1009 88 6000 4.6 100 21:19 18.04.2020
4599 Clouds 25 1009 88 6000 4.1 90 20:42 18.04.2020
4600 Clouds 25 1009 88 6000 4.1 90 20:22 18.04.2020
4601 Clouds 25 1009 88 7000 4.6 110 19:56 18.04.2020
4602 Clouds 25 1009 88 7000 4.6 110 19:56 18.04.2020
4603 Clouds 25 1009 88 7000 4.6 110 19:56 18.04.2020
4604 Clouds 25 1009 88 7000 4.6 110 19:37 18.04.2020
4605 Clouds 25 1009 88 7000 4.6 110 19:19 18.04.2020
4606 Clouds 25 1010 88 9000 5.1 120 18:38 18.04.2020
4607 Clouds 25 1010 88 9000 5.1 120 18:19 18.04.2020
4608 Clouds 25 1010 83 9000 5.7 120 17:45 18.04.2020
4609 Clouds 25 1010 83 9000 5.7 120 17:21 18.04.2020
4610 Clouds 26 1010 83 10000 5.7 120 16:58 18.04.2020
4611 Clouds 26 1010 83 10000 5.7 120 16:38 18.04.2020
4612 Clouds 26 1010 83 10000 5.7 120 16:20 18.04.2020
4613 Clouds 26 1009 83 10000 5.1 120 15:40 18.04.2020
4614 Clouds 26 1009 83 10000 5.1 120 15:22 18.04.2020
4615 Clouds 27 1008 78 10000 5.7 130 14:47 18.04.2020
4616 Clouds 27 1008 78 10000 5.7 130 14:47 18.04.2020
4617 Clouds 27 1008 78 10000 5.7 130 14:29 18.04.2020
4618 Clouds 28 1007 74 10000 6.2 130 13:59 18.04.2020
4619 Rain 29 1007 70 10000 5.7 130 13:41 18.04.2020
4620 Clouds 29 1007 70 10000 5.1 130 13:20 18.04.2020
4621 Clouds 30 1006 66 10000 5.1 140 12:42 18.04.2020
4622 Clouds 30 1006 66 10000 5.1 140 12:24 18.04.2020
4623 Clouds 30 1006 66 10000 5.1 120 11:56 18.04.2020
4624 Clouds 30 1007 66 10000 5.7 130 11:37 18.04.2020
4625 Clouds 31 1007 62 10000 6.2 110 11:19 18.04.2020
4626 Clouds 31 1007 62 10000 6.2 110 10:41 18.04.2020
4627 Clouds 31 1007 62 10000 6.2 110 10:21 18.04.2020
4628 Clouds 32 1008 59 10000 4.1 110 09:58 18.04.2020
4629 Clouds 32 1008 55 10000 3.1 140 09:38 18.04.2020
4630 Clouds 32 1009 59 10000 2.6 160 09:20 18.04.2020
4631 Clouds 30 1010 62 10000 3.1 170 08:42 18.04.2020
4632 Clouds 30 1010 62 10000 3.1 170 08:21 18.04.2020
4633 Clouds 29 1011 70 8000 3.6 110 07:42 18.04.2020
4634 Clouds 29 1011 70 8000 3.6 110 07:20 18.04.2020
4635 Clouds 28 1012 74 8000 4.1 150 06:39 18.04.2020
4636 Mist 27 1013 78 5000 3.6 140 05:48 18.04.2020
4637 Mist 26 1013 83 4600 3.6 150 04:54 18.04.2020
4638 Mist 25 1013 83 3900 3.1 180 04:29 18.04.2020
4639 Mist 23 1012 94 2000 3.1 120 02:58 18.04.2020
4640 Mist 23 1013 94 1400 1.5 120 02:40 18.04.2020
4641 Rain 23 1012 94 1900 3.1 90 02:19 18.04.2020
4642 Mist 23 1012 94 4600 1.5 70 01:36 18.04.2020
4643 Clouds 24 1012 83 8000 1 0 00:51 18.04.2020
4644 Clouds 24 1012 83 8000 1 0 00:24 18.04.2020
4645 Clouds 24 1012 83 9000 1.5 360 23:57 17.04.2020
4646 Clouds 23 1011 88 8000 1.5 340 23:38 17.04.2020
4647 Clouds 23 1011 88 8000 1.5 80 23:19 17.04.2020
4648 Clouds 23 1011 88 8000 1.5 80 22:56 17.04.2020
4649 Clouds 24 1011 83 8000 2.6 100 22:37 17.04.2020
4650 Clouds 24 1011 83 8000 1.5 10 22:19 17.04.2020
4651 Clouds 24 1010 83 8000 1.5 90 21:43 17.04.2020
4652 Clouds 23 1011 88 7000 1.5 80 21:21 17.04.2020
4653 Clouds 23 1011 88 7000 1.5 80 20:57 17.04.2020
4654 Clouds 23 1011 88 8000 4.1 90 20:38 17.04.2020
4655 Clouds 24 1012 83 9000 1.5 110 20:19 17.04.2020
4656 Clouds 24 1012 83 9000 1.5 110 19:57 17.04.2020
4657 Clouds 24 1013 83 9000 2.1 160 19:39 17.04.2020
4658 Clouds 24 1013 83 9000 2.1 160 19:39 17.04.2020
4659 Clouds 24 1013 83 9000 2.1 160 19:21 17.04.2020
4660 Rain 24 1013 83 10000 5.1 140 18:44 17.04.2020
4661 Rain 24 1013 83 10000 5.1 140 18:23 17.04.2020
4662 Rain 24 1013 83 10000 5.1 140 18:23 17.04.2020
4663 Clouds 24 1013 83 10000 4.6 150 17:55 17.04.2020
4664 Clouds 24 1013 88 10000 3.1 170 17:36 17.04.2020
4665 Clouds 24 1013 88 9000 3.1 150 17:18 17.04.2020
4666 Clouds 24 1013 88 9000 3.1 140 16:41 17.04.2020
4667 Clouds 24 1013 88 9000 3.1 140 16:22 17.04.2020
4668 Mist 24 1011 88 4700 5.1 130 15:41 17.04.2020
4669 Mist 24 1011 88 4700 5.1 130 15:23 17.04.2020
4670 Clouds 24 1011 94 7000 4.6 130 14:56 17.04.2020
4671 Clouds 24 1011 94 7000 4.1 140 14:37 17.04.2020
4672 Clouds 25 1010 88 6000 2.6 100 14:19 17.04.2020
4673 Clouds 25 1009 88 7000 4.6 120 13:40 17.04.2020
4674 Clouds 25 1009 88 6000 3.1 130 13:20 17.04.2020
4675 Clouds 25 1009 88 6000 3.1 130 12:58 17.04.2020
4676 Rain 24 1009 94 2400 2.6 110 12:40 17.04.2020
4677 Mist 25 1009 88 4500 2.1 90 12:21 17.04.2020
4678 Mist 25 1009 88 3500 3.6 130 11:40 17.04.2020
4679 Mist 25 1009 88 2400 3.1 130 11:19 17.04.2020
4680 Mist 25 1010 88 3500 4.1 110 10:44 17.04.2020
4681 Mist 25 1010 88 3500 4.1 110 10:23 17.04.2020
4682 Clouds 25 1010 88 6000 4.1 120 09:59 17.04.2020
4683 Clouds 26 1011 78 10000 5.1 150 09:40 17.04.2020
4684 Clouds 26 1011 78 10000 5.1 150 09:20 17.04.2020
4685 Clouds 26 1012 78 10000 4.1 150 08:49 17.04.2020
4686 Clouds 26 1012 78 10000 4.1 150 08:28 17.04.2020
4687 Clouds 25 1012 83 10000 4.6 150 07:58 17.04.2020
4688 Clouds 25 1013 83 10000 4.6 150 07:40 17.04.2020
4689 Clouds 26 1013 78 10000 4.6 150 07:19 17.04.2020
4690 Clouds 26 1013 78 10000 5.1 150 06:44 17.04.2020
4691 Clouds 26 1013 83 10000 4.6 160 05:58 17.04.2020
4692 Mist 24 1013 88 5000 4.1 130 03:27 17.04.2020
4693 Mist 24 1012 88 4200 3.1 130 02:55 17.04.2020
4694 Rain 23 1011 94 3400 2.1 110 01:46 17.04.2020
4695 Rain 23 1011 94 2500 2.6 100 01:22 17.04.2020
4696 Rain 23 1010 94 2300 3.1 100 00:21 17.04.2020
4697 Rain 23 1010 94 2300 3.1 100 23:55 16.04.2020
4698 Rain 23 1010 94 2200 2.1 90 23:37 16.04.2020
4699 Rain 23 1010 94 2200 2.1 90 23:19 16.04.2020
4700 Rain 23 1010 94 2100 2.1 110 22:40 16.04.2020
4701 Rain 23 1010 94 2100 2.1 110 22:22 16.04.2020
4702 Mist 23 1010 94 2100 2.1 110 21:58 16.04.2020
4703 Mist 23 1010 94 2000 1.5 100 21:40 16.04.2020
4704 Mist 23 1010 94 2000 1.5 100 21:19 16.04.2020
4705 Rain 23 1011 94 1400 1.5 70 20:42 16.04.2020
4706 Rain 23 1011 94 1400 1.5 70 20:42 16.04.2020
4707 Rain 23 1011 94 1400 1.5 70 20:22 16.04.2020
4708 Rain 23 1011 94 2300 1 0 19:59 16.04.2020
4709 Rain 23 1012 94 3100 1 80 19:39 16.04.2020
4710 Mist 23 1011 94 3700 2.6 110 19:19 16.04.2020
4711 Mist 23 1011 94 4200 3.1 120 18:55 16.04.2020
4712 Mist 23 1011 94 4200 3.1 120 18:36 16.04.2020
4713 Rain 23 1012 94 3900 3.6 100 18:18 16.04.2020
4714 Mist 23 1012 94 4400 3.6 110 17:42 16.04.2020
4715 Mist 23 1012 94 4400 3.6 110 17:23 16.04.2020
4716 Mist 24 1012 88 5000 3.6 100 16:55 16.04.2020
4717 Mist 24 1011 88 5000 3.6 100 16:36 16.04.2020
4718 Mist 24 1010 88 5000 3.1 100 16:18 16.04.2020
4719 Clouds 24 1010 88 6000 3.6 100 15:40 16.04.2020
4720 Clouds 24 1010 88 6000 3.6 100 15:19 16.04.2020
4721 Clouds 24 1010 88 6000 3.6 100 14:56 16.04.2020
4722 Clouds 24 1009 88 6000 4.1 100 14:37 16.04.2020
4723 Clouds 24 1009 88 6000 4.1 100 14:37 16.04.2020
4724 Mist 24 1009 88 5000 3.6 90 14:19 16.04.2020
4725 Mist 24 1009 88 3100 2.1 50 13:42 16.04.2020
4726 Mist 24 1008 88 2700 2.1 50 13:23 16.04.2020
4727 Mist 24 1008 88 2700 2.1 50 12:58 16.04.2020
4728 Mist 24 1008 83 2900 2.6 60 12:40 16.04.2020
4729 Mist 24 1008 83 3400 2.6 60 12:20 16.04.2020
4730 Mist 24 1008 83 3400 2.6 60 11:59 16.04.2020
4731 Mist 24 1009 83 3300 2.6 80 11:41 16.04.2020
4732 Mist 24 1009 83 3300 2.6 80 11:21 16.04.2020
4733 Mist 24 1009 83 2800 2.1 50 10:55 16.04.2020
4734 Drizzle 23 1009 88 2200 2.6 50 10:37 16.04.2020
4735 Drizzle 24 1009 83 3300 3.1 70 10:18 16.04.2020
4736 Mist 24 1010 83 3200 3.1 70 09:39 16.04.2020
4737 Mist 24 1011 83 3600 3.1 70 09:21 16.04.2020
4738 Mist 24 1011 83 3600 3.1 70 08:59 16.04.2020
4739 Mist 24 1011 83 3600 2.6 90 08:41 16.04.2020
4740 Mist 24 1011 83 3600 2.6 90 08:21 16.04.2020
4741 Mist 24 1012 78 3600 3.1 140 07:44 16.04.2020
4742 Mist 24 1012 78 3600 3.1 140 07:24 16.04.2020
4743 Mist 24 1013 78 3000 3.6 120 06:42 16.04.2020
4744 Mist 24 1013 78 4300 4.1 120 06:23 16.04.2020
4745 Mist 23 1014 78 5000 4.1 120 04:54 16.04.2020
4746 Mist 23 1014 78 5000 4.1 120 04:54 16.04.2020
4747 Mist 22 1013 83 3400 2.1 110 03:39 16.04.2020
4748 Mist 22 1013 83 3000 1.5 100 03:21 16.04.2020
4749 Mist 22 1013 83 3000 2.1 110 02:43 16.04.2020
4750 Mist 22 1012 83 2900 2.1 130 01:58 16.04.2020
4751 Mist 22 1011 83 3200 2.6 130 00:57 16.04.2020
4752 Mist 22 1011 83 4900 2.1 130 00:26 16.04.2020
4753 Mist 22 1011 83 4600 2.1 120 23:55 15.04.2020
4754 Mist 22 1011 83 5000 2.6 130 23:37 15.04.2020
4755 Mist 22 1011 83 5000 2.6 130 23:19 15.04.2020
4756 Mist 21 1011 88 4700 1.5 100 22:39 15.04.2020
4757 Mist 21 1011 83 4200 1.5 110 22:21 15.04.2020
4758 Mist 21 1011 83 4200 1.5 110 21:56 15.04.2020
4759 Mist 21 1011 83 5000 2.1 100 21:38 15.04.2020
4760 Mist 21 1011 83 5000 2.1 100 21:20 15.04.2020
4761 Mist 21 1012 83 4800 3.1 110 20:55 15.04.2020
4762 Mist 21 1012 83 4800 3.1 110 20:55 15.04.2020
4763 Clouds 22 1012 78 7000 3.1 110 20:37 15.04.2020
4764 Mist 22 1013 78 5000 2.1 130 20:19 15.04.2020
4765 Clouds 22 1013 78 7000 1 0 19:41 15.04.2020
4766 Clouds 22 1013 78 7000 2.1 110 19:20 15.04.2020
4767 Clouds 22 1013 78 7000 2.1 110 19:20 15.04.2020
4768 Clouds 22 1013 78 8000 2.6 100 18:43 15.04.2020
4769 Clouds 22 1014 73 9000 3.6 120 18:23 15.04.2020
4770 Clouds 22 1014 73 9000 3.6 120 17:58 15.04.2020
4771 Clouds 22 1013 73 9000 4.1 120 17:39 15.04.2020
4772 Clouds 22 1013 73 9000 4.1 120 17:20 15.04.2020
4773 Clouds 22 1013 78 9000 4.6 130 16:56 15.04.2020
4774 Clouds 22 1013 78 8000 5.1 130 16:37 15.04.2020
4775 Clouds 23 1012 73 8000 4.6 140 16:19 15.04.2020
4776 Clouds 23 1012 73 8000 4.6 140 15:57 15.04.2020
4777 Clouds 23 1012 73 8000 5.7 130 15:38 15.04.2020
4778 Clouds 23 1012 73 8000 5.7 130 15:19 15.04.2020
4779 Clouds 23 1012 73 7000 4.6 120 14:57 15.04.2020
4780 Clouds 23 1012 73 7000 4.6 110 14:38 15.04.2020
4781 Clouds 23 1012 73 7000 4.6 110 14:20 15.04.2020
4782 Mist 23 1011 73 5000 4.6 120 13:57 15.04.2020
4783 Mist 24 1011 69 5000 5.1 130 13:38 15.04.2020
4784 Mist 24 1011 69 5000 5.1 130 13:19 15.04.2020
4785 Haze 24 1011 69 4800 5.1 120 12:42 15.04.2020
4786 Haze 24 1011 69 4800 5.1 120 12:23 15.04.2020
4787 Haze 24 1011 69 5000 5.7 120 11:59 15.04.2020
4788 Haze 24 1011 69 5000 5.7 120 11:59 15.04.2020
4789 Clouds 25 1011 65 6000 5.1 130 11:40 15.04.2020
4790 Clouds 25 1011 65 6000 5.1 130 11:22 15.04.2020
4791 Clouds 26 1011 61 8000 5.1 120 10:40 15.04.2020
4792 Clouds 26 1011 61 8000 5.1 120 10:21 15.04.2020
4793 Clouds 26 1011 57 10000 3.6 120 09:58 15.04.2020
4794 Clouds 26 1012 57 10000 3.1 70 09:40 15.04.2020
4795 Clouds 26 1012 57 10000 3.1 70 09:21 15.04.2020
4796 Clouds 26 1012 57 8000 3.6 80 08:58 15.04.2020
4797 Clouds 26 1013 57 8000 1.5 0 08:39 15.04.2020
4798 Clouds 25 1014 57 7000 2.1 80 08:19 15.04.2020
4799 Clouds 25 1014 57 7000 2.1 80 08:19 15.04.2020
4800 Clouds 25 1015 57 6000 1.5 0 07:51 15.04.2020
4801 Clouds 25 1015 57 6000 1.5 0 07:31 15.04.2020
4802 Clouds 25 1016 61 6000 2.6 120 06:33 15.04.2020
4803 Haze 24 1016 57 5000 1.5 200 05:50 15.04.2020
4804 Haze 22 1017 68 5000 2.6 150 04:50 15.04.2020
4805 Clouds 22 1017 68 6000 2.1 0 04:26 15.04.2020
4806 Mist 20 1017 72 5000 2.1 80 03:26 15.04.2020
4807 Mist 19 1017 77 5000 1.5 80 02:52 15.04.2020
4808 Mist 17 1016 88 3200 2.1 100 01:54 15.04.2020
4809 Mist 17 1016 88 3200 2.1 100 01:25 15.04.2020
4810 Mist 17 1016 88 5000 2.1 80 00:52 15.04.2020
4811 Mist 17 1016 88 5000 2.1 80 00:31 15.04.2020
4812 Clouds 18 1015 82 6000 1.5 70 23:57 14.04.2020
4813 Mist 18 1015 82 5000 2.6 50 23:39 14.04.2020
4814 Mist 18 1015 82 5000 2.6 50 23:21 14.04.2020
4815 Mist 18 1015 82 5000 2.6 50 22:58 14.04.2020
4816 Mist 17 1015 82 5000 2.6 60 22:39 14.04.2020
4817 Mist 17 1015 82 5000 2.6 60 22:21 14.04.2020
4818 Mist 17 1016 82 5000 2.6 50 21:57 14.04.2020
4819 Mist 17 1016 82 5000 3.1 60 21:39 14.04.2020
4820 Mist 17 1016 82 5000 3.1 60 21:20 14.04.2020
4821 Mist 17 1016 82 5000 3.1 60 20:58 14.04.2020
4822 Mist 17 1016 82 5000 2.6 60 20:39 14.04.2020
4823 Mist 17 1016 82 5000 2.6 60 20:21 14.04.2020
4824 Mist 17 1016 82 5000 2.6 60 20:21 14.04.2020
4825 Clouds 18 1017 77 7000 2.1 60 19:41 14.04.2020
4826 Clouds 18 1017 77 7000 2.1 60 19:23 14.04.2020
4827 Clouds 18 1017 72 8000 2.1 90 18:59 14.04.2020
4828 Clouds 18 1017 72 10000 1.5 60 18:40 14.04.2020
4829 Clouds 18 1017 72 10000 1.5 60 18:21 14.04.2020
4830 Clouds 19 1017 68 10000 1.5 130 17:58 14.04.2020
4831 Clouds 20 1017 60 10000 4.1 140 17:39 14.04.2020
4832 Clouds 20 1017 60 10000 3.6 140 17:20 14.04.2020
4833 Clouds 20 1017 60 10000 3.6 140 16:57 14.04.2020
4834 Clouds 20 1016 60 10000 3.6 150 16:38 14.04.2020
4835 Clouds 20 1016 60 10000 3.6 150 16:20 14.04.2020
4836 Clouds 21 1016 60 10000 4.6 140 15:56 14.04.2020
4837 Clouds 22 1016 60 10000 3.1 130 15:37 14.04.2020
4838 Clear 22 1016 60 10000 3.1 130 15:18 14.04.2020
4839 Clear 22 1015 60 9000 3.1 130 14:55 14.04.2020
4840 Clear 22 1015 60 9000 3.1 130 14:55 14.04.2020
4841 Clear 22 1015 60 9000 3.1 110 14:37 14.04.2020
4842 Clear 22 1014 60 9000 3.1 110 14:19 14.04.2020
4843 Clear 23 1014 56 10000 3.1 100 13:43 14.04.2020
4844 Clear 23 1014 56 10000 3.1 100 13:24 14.04.2020
4845 Clear 24 1014 50 10000 1.5 130 12:54 14.04.2020
4846 Clear 24 1014 47 10000 1 0 12:36 14.04.2020
4847 Clear 25 1014 47 10000 1.5 160 12:18 14.04.2020
4848 Clear 25 1014 47 10000 1 0 11:40 14.04.2020
4849 Clear 25 1014 47 10000 1 0 11:22 14.04.2020
4850 Clear 25 1014 47 10000 2.6 180 10:47 14.04.2020
4851 Clear 25 1014 47 10000 2.6 180 10:28 14.04.2020
4852 Clouds 24 1014 50 10000 2.1 190 09:59 14.04.2020
4853 Clear 24 1015 47 10000 1.5 0 09:40 14.04.2020
4854 Clouds 25 1016 48 0 1.15 104 09:22 14.04.2020
4855 Clouds 23 1016 49 10000 1.5 0 08:44 14.04.2020
4856 Clouds 23 1016 49 10000 1.5 0 08:25 14.04.2020
4857 Clouds 23 1016 49 10000 1 0 07:58 14.04.2020
4858 Clouds 23 1017 49 10000 1.5 0 07:40 14.04.2020
4859 Clouds 22 1018 56 10000 1.5 0 07:21 14.04.2020
4860 Clouds 21 1018 56 10000 2.1 10 06:35 14.04.2020
4861 Clouds 18 1019 77 7000 2.1 300 04:49 14.04.2020
4862 Mist 16 1020 87 5000 3.1 280 03:22 14.04.2020
4863 Mist 14 1019 93 5000 2.1 280 02:18 14.04.2020
4864 Mist 14 1019 93 5000 2.1 280 01:25 14.04.2020
4865 Clouds 14 1019 87 10000 3.1 280 00:42 14.04.2020
4866 Clouds 14 1018 87 7000 1.5 140 00:19 14.04.2020
4867 Clouds 14 1018 87 7000 1.5 140 23:47 13.04.2020
4868 Clouds 14 1018 87 7000 1.5 140 23:27 13.04.2020
4869 Clouds 14 1018 93 7000 1 0 22:59 13.04.2020
4870 Clouds 14 1018 93 6000 2.1 330 22:41 13.04.2020
4871 Clouds 14 1018 93 6000 2.1 330 22:22 13.04.2020
4872 Mist 14 1018 93 5000 2.1 320 21:56 13.04.2020
4873 Mist 14 1018 87 5000 1.5 310 21:37 13.04.2020
4874 Mist 14 1018 87 5000 1.5 310 21:19 13.04.2020
4875 Mist 14 1018 93 5000 2.1 350 20:55 13.04.2020
4876 Mist 14 1019 93 4100 2.1 320 20:37 13.04.2020
4877 Mist 15 1019 87 5000 1 0 20:18 13.04.2020
4878 Clouds 15 1020 82 8000 1 250 19:39 13.04.2020
4879 Clouds 15 1020 82 8000 1 250 19:39 13.04.2020
4880 Clouds 15 1021 87 8000 1 280 19:20 13.04.2020
4881 Clouds 15 1021 87 8000 1 280 18:59 13.04.2020
4882 Clouds 15 1021 87 7000 1.5 320 18:39 13.04.2020
4883 Clouds 15 1022 87 8000 2.1 280 18:20 13.04.2020
4884 Clouds 15 1022 87 8000 2.1 280 17:58 13.04.2020
4885 Clouds 15 1022 87 8000 2.1 280 17:58 13.04.2020
4886 Clouds 15 1022 87 8000 2.1 280 17:58 13.04.2020
4887 Clouds 15 1022 87 9000 2.1 280 17:38 13.04.2020
4888 Clouds 15 1022 87 9000 2.1 280 17:38 13.04.2020
4889 Clouds 15 1022 87 9000 2.1 280 17:19 13.04.2020
4890 Clouds 15 1022 87 9000 1.5 270 16:58 13.04.2020
4891 Clouds 15 1021 87 10000 2.1 280 16:40 13.04.2020
4892 Clouds 15 1021 87 10000 2.1 280 16:20 13.04.2020
4893 Clouds 15 1021 87 10000 2.1 290 15:58 13.04.2020
4894 Clouds 15 1020 87 9000 1.5 290 15:39 13.04.2020
4895 Clouds 15 1020 87 10000 1 280 15:21 13.04.2020
4896 Clouds 15 1020 87 10000 1 280 14:54 13.04.2020
4897 Clouds 15 1020 87 10000 1 290 14:36 13.04.2020
4898 Clouds 15 1020 82 10000 1 290 14:18 13.04.2020
4899 Clouds 16 1020 77 10000 1.5 300 13:54 13.04.2020
4900 Clouds 16 1020 77 10000 1.5 300 13:36 13.04.2020
4901 Clouds 16 1020 77 10000 1.5 290 13:18 13.04.2020
4902 Clouds 16 1020 77 10000 1.5 290 12:55 13.04.2020
4903 Rain 16 1020 77 10000 2.6 310 12:37 13.04.2020
4904 Clouds 16 1019 77 10000 2.6 310 12:18 13.04.2020
4905 Clouds 16 1019 77 10000 1 0 11:41 13.04.2020
4906 Clouds 16 1020 77 10000 1.5 250 11:18 13.04.2020
4907 Clouds 16 1020 77 10000 1.5 250 10:56 13.04.2020
4908 Clouds 16 1020 77 10000 2.1 220 10:37 13.04.2020
4909 Clouds 16 1020 77 10000 2.1 220 10:19 13.04.2020
4910 Rain 16 1021 72 10000 1.5 270 09:45 13.04.2020
4911 Rain 16 1021 72 10000 1.5 270 09:26 13.04.2020
4912 Rain 17 1022 72 10000 2.6 180 08:51 13.04.2020
4913 Rain 17 1022 72 10000 2.6 180 08:31 13.04.2020
4914 Rain 18 1022 68 10000 2.6 180 07:59 13.04.2020
4915 Rain 18 1022 59 10000 2.1 30 07:39 13.04.2020
4916 Rain 17 1023 67 10000 1.5 350 07:20 13.04.2020
4917 Rain 17 1023 72 10000 2.1 340 06:47 13.04.2020
4918 Rain 17 1023 72 10000 3.1 20 05:59 13.04.2020
4919 Rain 16 1023 82 10000 2.1 30 05:30 13.04.2020
4920 Rain 16 1024 77 10000 3.1 360 04:52 13.04.2020
4921 Rain 17 1022 77 10000 4.6 360 04:22 13.04.2020
4922 Rain 17 1022 77 10000 4.1 10 03:46 13.04.2020
4923 Rain 17 1022 82 10000 2.6 360 02:50 13.04.2020
4924 Rain 17 1020 82 10000 2.6 330 01:54 13.04.2020
4925 Rain 17 1020 88 10000 2.6 340 01:35 13.04.2020
4926 Rain 17 1020 88 10000 0.5 0 00:55 13.04.2020
4927 Rain 17 1020 88 10000 2.1 340 00:36 13.04.2020
4928 Clouds 18 1019 82 10000 2.1 320 00:18 13.04.2020
4929 Clouds 18 1020 88 10000 2.1 290 23:42 12.04.2020
4930 Clouds 18 1020 88 10000 2.1 290 23:22 12.04.2020
4931 Clouds 18 1020 88 9000 3.1 320 22:55 12.04.2020
4932 Clouds 18 1020 88 10000 3.1 310 22:36 12.04.2020
4933 Clouds 18 1020 88 10000 3.1 310 22:18 12.04.2020
4934 Clouds 18 1020 88 10000 1.5 330 21:38 12.04.2020
4935 Clouds 18 1020 88 10000 1.5 330 21:20 12.04.2020
4936 Clouds 18 1020 82 10000 2.1 320 20:54 12.04.2020
4937 Clouds 18 1020 82 10000 2.1 320 20:36 12.04.2020
4938 Clouds 18 1020 88 8000 1 280 20:18 12.04.2020
4939 Clouds 18 1020 88 8000 1.5 320 19:41 12.04.2020
4940 Clouds 18 1020 88 8000 2.1 330 19:20 12.04.2020
4941 Clouds 18 1020 88 8000 2.1 330 18:58 12.04.2020
4942 Clouds 18 1020 88 8000 2.1 330 18:58 12.04.2020
4943 Clouds 18 1020 88 8000 2.1 330 18:39 12.04.2020
4944 Clouds 18 1021 88 8000 2.1 320 18:19 12.04.2020
4945 Clouds 18 1021 88 8000 2.1 290 17:55 12.04.2020
4946 Clouds 18 1021 88 8000 2.1 290 17:36 12.04.2020
4947 Clouds 18 1021 88 8000 2.1 290 17:18 12.04.2020
4948 Clouds 18 1021 88 10000 2.1 310 16:41 12.04.2020
4949 Clouds 18 1020 88 9000 2.1 310 16:21 12.04.2020
4950 Clouds 18 1020 88 9000 2.1 310 15:52 12.04.2020
4951 Clouds 18 1020 88 9000 2.1 330 15:31 12.04.2020
4952 Clouds 18 1020 88 7000 3.1 320 14:57 12.04.2020
4953 Clouds 18 1020 88 9000 2.6 300 14:39 12.04.2020
4954 Clouds 18 1020 88 9000 2.6 300 14:20 12.04.2020
4955 Clouds 19 1019 82 10000 2.1 300 13:43 12.04.2020
4956 Clouds 19 1019 82 10000 2.1 300 13:25 12.04.2020
4957 Clouds 19 1019 82 10000 2.1 300 13:25 12.04.2020
4958 Clouds 19 1019 82 10000 2.1 300 12:56 12.04.2020
4959 Clouds 19 1019 77 10000 1.5 340 12:38 12.04.2020
4960 Clouds 19 1018 72 10000 2.1 340 12:19 12.04.2020
4961 Clouds 19 1018 72 10000 2.1 340 11:57 12.04.2020
4962 Clouds 20 1019 64 10000 2.6 40 11:37 12.04.2020
4963 Clouds 20 1019 64 10000 2.6 40 11:18 12.04.2020
4964 Clouds 20 1019 64 10000 2.6 40 11:18 12.04.2020
4965 Clouds 19 1019 68 10000 2.1 20 10:55 12.04.2020
4966 Clouds 19 1019 68 10000 2.1 20 10:55 12.04.2020
4967 Clouds 19 1019 72 10000 2.1 330 10:37 12.04.2020
4968 Clouds 19 1019 72 10000 2.1 330 10:18 12.04.2020
4969 Rain 19 1020 77 10000 2.6 360 09:40 12.04.2020
4970 Rain 19 1020 77 10000 2.6 360 09:22 12.04.2020
4971 Rain 19 1020 77 10000 2.6 360 09:00 12.04.2020
4972 Clouds 19 1020 77 10000 4.1 30 08:41 12.04.2020
4973 Clouds 19 1020 77 10000 4.1 30 08:23 12.04.2020
4974 Rain 19 1021 77 10000 4.1 20 07:45 12.04.2020
4975 Rain 19 1021 77 10000 4.1 20 07:19 12.04.2020
4976 Rain 19 1021 77 10000 4.1 30 06:35 12.04.2020
4977 Rain 19 1021 77 10000 5.1 40 05:55 12.04.2020
4978 Thunderstorm 18 1021 88 10000 2.1 10 05:36 12.04.2020
4979 Thunderstorm 22 1019 60 10000 6.7 20 03:44 12.04.2020
4980 Thunderstorm 22 1019 60 10000 6.7 20 03:24 12.04.2020
4981 Clouds 22 1016 60 10000 7.2 60 02:34 12.04.2020
4982 Clouds 22 1015 64 10000 7.2 60 01:51 12.04.2020
4983 Clouds 22 1015 73 10000 6.2 50 00:58 12.04.2020
4984 Clouds 22 1015 73 10000 6.7 40 00:39 12.04.2020
4985 Clouds 22 1014 78 10000 6.2 50 00:19 12.04.2020
4986 Rain 22 1014 83 10000 5.7 50 23:46 11.04.2020
4987 Rain 22 1014 83 10000 5.7 50 23:25 11.04.2020
4988 Mist 23 1014 94 2700 3.6 60 22:42 11.04.2020
4989 Mist 23 1014 94 2700 3.6 60 22:23 11.04.2020
4990 Mist 23 1014 94 2000 2.1 60 21:57 11.04.2020
4991 Mist 23 1014 94 2200 1.5 60 21:37 11.04.2020
4992 Mist 23 1014 94 2200 1.5 60 21:37 11.04.2020
4993 Mist 23 1014 94 2200 1.5 60 21:19 11.04.2020
4994 Mist 23 1014 94 1600 1.5 50 20:58 11.04.2020
4995 Mist 23 1015 94 2900 1 0 20:39 11.04.2020
4996 Mist 23 1015 94 2900 1 0 20:20 11.04.2020
4997 Mist 24 1015 88 4500 1 100 19:58 11.04.2020
4998 Mist 25 1015 83 5000 1.5 150 19:39 11.04.2020
4999 Mist 25 1015 83 5000 1.5 150 19:19 11.04.2020
5000 Mist 25 1015 83 5000 1.5 150 18:56 11.04.2020
5001 Mist 25 1015 83 5000 1.5 150 18:56 11.04.2020
5002 Mist 25 1015 88 3800 1.5 100 18:38 11.04.2020
5003 Mist 25 1015 88 3500 1.5 80 18:20 11.04.2020
5004 Mist 25 1015 88 3900 2.1 90 17:58 11.04.2020
5005 Mist 25 1015 88 3900 2.1 90 17:40 11.04.2020
5006 Mist 25 1015 88 3900 2.1 90 17:20 11.04.2020
5007 Mist 25 1015 88 4400 2.1 80 16:55 11.04.2020
5008 Mist 26 1014 83 4700 2.1 70 16:37 11.04.2020
5009 Mist 26 1013 83 4100 2.1 40 16:18 11.04.2020
5010 Mist 26 1012 83 4700 1 0 15:37 11.04.2020
5011 Mist 26 1012 83 4900 2.1 70 15:19 11.04.2020
5012 Mist 26 1012 83 5000 2.1 70 14:42 11.04.2020
5013 Mist 26 1012 83 5000 2.1 70 14:24 11.04.2020
5014 Mist 27 1011 78 4400 2.6 60 13:59 11.04.2020
5015 Mist 27 1011 78 4600 2.6 70 13:39 11.04.2020
5016 Mist 27 1011 78 4600 2.6 70 13:39 11.04.2020
5017 Mist 27 1010 74 5000 3.6 70 13:19 11.04.2020
5018 Mist 27 1010 74 5000 3.6 70 12:42 11.04.2020
5019 Mist 27 1010 74 5000 3.6 70 12:42 11.04.2020
5020 Mist 28 1010 69 5000 3.6 60 12:20 11.04.2020
5021 Mist 28 1010 69 5000 3.6 60 11:57 11.04.2020
5022 Mist 28 1010 69 5000 3.6 70 11:39 11.04.2020
5023 Mist 28 1010 69 5000 3.6 70 11:19 11.04.2020
5024 Haze 28 1011 69 5000 3.6 80 10:43 11.04.2020
5025 Haze 28 1011 69 5000 3.6 80 10:22 11.04.2020
5026 Haze 29 1011 66 5000 3.1 80 09:59 11.04.2020
5027 Haze 29 1012 66 5000 2.1 80 09:39 11.04.2020
5028 Mist 28 1012 69 5000 2.1 90 09:21 11.04.2020
5029 Mist 28 1012 69 5000 2.1 90 08:49 11.04.2020
5030 Mist 27 1013 69 4900 1 0 08:28 11.04.2020
5031 Mist 27 1013 69 4800 1.5 30 07:53 11.04.2020
5032 Mist 27 1014 69 4500 1 0 07:34 11.04.2020
5033 Mist 25 1014 78 4200 2.1 240 06:51 11.04.2020
5034 Mist 25 1015 78 4400 2.1 210 06:20 11.04.2020
5035 Mist 25 1015 78 4400 2.1 210 05:55 11.04.2020
5036 Mist 24 1015 83 4200 1.5 120 03:41 11.04.2020
5037 Mist 23 1014 88 2600 0.5 0 02:24 11.04.2020
5038 Mist 22 1014 94 2300 1 0 01:24 11.04.2020
5039 Mist 23 1013 88 5000 1.5 120 00:44 11.04.2020
5040 Mist 23 1012 88 4600 2.6 90 00:20 11.04.2020
5041 Mist 23 1012 88 4600 2.6 90 00:20 11.04.2020
5042 Mist 23 1012 88 4600 2.6 90 23:57 10.04.2020
5043 Mist 23 1013 88 4700 2.1 270 23:38 10.04.2020
5044 Mist 23 1014 88 5000 1.5 250 23:19 10.04.2020
5045 Mist 23 1013 88 5000 1.5 180 22:44 10.04.2020
5046 Mist 23 1013 88 5000 1.5 180 22:22 10.04.2020
5047 Mist 23 1013 88 5000 1.5 160 21:58 10.04.2020
5048 Clouds 23 1013 88 6000 3.1 160 21:40 10.04.2020
5049 Clouds 23 1013 88 6000 3.1 160 21:20 10.04.2020
5050 Clouds 23 1015 88 6000 1.5 350 20:44 10.04.2020
5051 Clouds 23 1015 88 6000 3.36 157 20:24 10.04.2020
5052 Clouds 23 1015 88 6000 3.36 157 19:59 10.04.2020
5053 Rain 23 1015 88 6000 2.6 170 19:41 10.04.2020
5054 Rain 24 1015 83 8000 2.1 130 19:21 10.04.2020
5055 Rain 24 1015 83 8000 2.1 130 19:21 10.04.2020
5056 Clouds 24 1016 83 8000 1.5 80 18:58 10.04.2020
5057 Rain 24 1015 83 8000 2.1 130 18:58 10.04.2020
5058 Clouds 24 1016 83 8000 1.5 80 18:40 10.04.2020
5059 Clouds 24 1016 83 8000 1.5 80 18:21 10.04.2020
5060 Clouds 24 1016 83 8000 1.5 80 17:58 10.04.2020
5061 Clouds 24 1015 83 8000 3.1 110 17:40 10.04.2020
5062 Clouds 24 1015 83 8000 4.1 110 17:20 10.04.2020
5063 Clouds 24 1015 83 8000 4.1 110 16:57 10.04.2020
5064 Clouds 24 1015 83 8000 3.1 110 16:38 10.04.2020
5065 Clouds 24 1014 83 9000 3.6 110 16:20 10.04.2020
5066 Clouds 24 1014 83 9000 3.6 110 15:56 10.04.2020
5067 Clouds 24 1013 83 9000 4.6 130 15:37 10.04.2020
5068 Clouds 24 1013 83 9000 4.6 130 15:37 10.04.2020
5069 Clouds 25 1013 78 9000 6.2 130 15:18 10.04.2020
5070 Clouds 25 1013 78 9000 6.2 130 14:56 10.04.2020
5071 Clouds 26 1012 78 9000 6.2 130 14:38 10.04.2020
5072 Clouds 26 1012 78 9000 6.2 130 14:38 10.04.2020
5073 Clouds 26 1012 74 7000 5.1 130 14:18 10.04.2020
5074 Mist 26 1012 74 4400 2.6 70 13:43 10.04.2020
5075 Mist 26 1012 74 4400 2.6 70 13:21 10.04.2020
5076 Mist 27 1011 69 5000 2.6 50 12:43 10.04.2020
5077 Mist 27 1011 69 5000 2.6 60 12:23 10.04.2020
5078 Mist 27 1011 69 5000 2.6 60 11:56 10.04.2020
5079 Haze 27 1011 69 5000 3.1 60 11:38 10.04.2020
5080 Haze 27 1011 69 5000 3.1 60 11:20 10.04.2020
5081 Mist 26 1012 74 4900 3.1 50 10:44 10.04.2020
5082 Mist 26 1012 74 4900 3.1 50 10:23 10.04.2020
5083 Mist 26 1012 74 5000 3.6 80 09:57 10.04.2020
5084 Mist 26 1013 69 5000 3.1 50 09:38 10.04.2020
5085 Mist 26 1014 69 4800 2.6 60 09:18 10.04.2020
5086 Mist 26 1014 69 4400 3.1 60 08:42 10.04.2020
5087 Mist 26 1014 69 4400 3.1 60 08:23 10.04.2020
5088 Mist 25 1016 69 4100 3.1 90 07:45 10.04.2020
5089 Mist 25 1016 69 4100 3.6 70 07:24 10.04.2020
5090 Mist 25 1017 69 3900 3.1 90 06:49 10.04.2020
5091 Mist 25 1017 69 3900 3.1 90 06:28 10.04.2020
5092 Mist 23 1017 78 4300 1.5 80 05:40 10.04.2020
5093 Mist 23 1017 78 4200 2.1 80 04:58 10.04.2020
5094 Mist 23 1017 78 3900 2.1 70 03:49 10.04.2020
5095 Mist 22 1017 83 3600 2.6 80 03:30 10.04.2020
5096 Mist 22 1017 83 3100 1.5 80 02:48 10.04.2020
5097 Mist 22 1016 83 2500 1 70 02:28 10.04.2020
5098 Mist 21 1015 88 3300 1.5 90 01:30 10.04.2020
5099 Mist 21 1015 83 5000 1.5 50 00:50 10.04.2020
5100 Mist 21 1015 83 5000 1.5 80 00:23 10.04.2020
5101 Mist 21 1015 83 5000 1.5 80 23:55 09.04.2020
5102 Clouds 21 1015 83 6000 1 0 23:37 09.04.2020
5103 Clouds 21 1015 83 6000 1 0 23:19 09.04.2020
5104 Clouds 21 1015 83 6000 1 0 22:41 09.04.2020
5105 Clouds 21 1015 83 6000 1 0 22:22 09.04.2020
5106 Clouds 21 1015 88 6000 1 360 21:45 09.04.2020
5107 Clouds 21 1015 88 6000 1 360 21:26 09.04.2020
5108 Mist 21 1015 83 5000 1.5 50 20:59 09.04.2020
5109 Clouds 22 1015 78 6000 2.1 100 20:40 09.04.2020
5110 Clouds 22 1015 78 6000 2.1 100 20:20 09.04.2020
5111 Clouds 22 1016 78 6000 2.1 150 19:41 09.04.2020
5112 Mist 22 1016 78 5000 3.1 120 19:23 09.04.2020
5113 Mist 22 1016 78 5000 3.1 120 18:59 09.04.2020
5114 Clouds 22 1017 78 6000 2.1 150 18:40 09.04.2020
5115 Mist 22 1017 83 5000 2.6 150 18:18 09.04.2020
5116 Mist 22 1017 83 4800 2.6 130 17:40 09.04.2020
5117 Mist 22 1017 83 4800 2.6 130 17:21 09.04.2020
5118 Mist 23 1016 78 4400 3.6 140 16:42 09.04.2020
5119 Mist 23 1016 78 4800 3.6 150 16:23 09.04.2020
5120 Mist 23 1016 78 4800 3.6 150 15:58 09.04.2020
5121 Mist 23 1016 78 5000 3.6 130 15:39 09.04.2020
5122 Mist 23 1016 78 5000 3.6 130 15:39 09.04.2020
5123 Mist 23 1016 78 5000 3.6 130 15:39 09.04.2020
5124 Mist 23 1015 78 5000 3.6 140 15:21 09.04.2020
5125 Mist 23 1015 78 5000 3.6 140 14:59 09.04.2020
5126 Mist 24 1014 73 5000 3.6 130 14:39 09.04.2020
5127 Mist 24 1014 73 5000 3.6 130 14:20 09.04.2020
5128 Haze 25 1014 69 4800 2.6 150 13:42 09.04.2020
5129 Haze 25 1014 69 4800 2.6 150 13:24 09.04.2020
5130 Clouds 25 1014 65 7000 3.1 130 12:59 09.04.2020
5131 Clouds 25 1013 65 7000 2.6 110 12:39 09.04.2020
5132 Clouds 26 1013 57 8000 2.1 160 12:20 09.04.2020
5133 Clouds 26 1013 57 8000 2.1 160 12:20 09.04.2020
5134 Clouds 26 1013 57 8000 2.1 160 11:55 09.04.2020
5135 Clouds 26 1013 61 9000 2.1 180 11:36 09.04.2020
5136 Clouds 26 1014 61 7000 1.5 0 11:18 09.04.2020
5137 Clouds 26 1014 61 7000 1.5 150 10:41 09.04.2020
5138 Clouds 26 1014 61 7000 1.5 150 10:22 09.04.2020
5139 Clouds 26 1014 61 7000 1.5 150 10:22 09.04.2020
5140 Clouds 25 1014 65 7000 2.1 160 09:58 09.04.2020
5141 Clouds 25 1015 65 6000 1.5 0 09:39 09.04.2020
5142 Clouds 25 1015 65 6000 1.5 0 09:21 09.04.2020
5143 Haze 25 1016 65 5000 1.5 0 08:44 09.04.2020
5144 Haze 25 1016 65 5000 1.5 0 08:24 09.04.2020
5145 Haze 25 1017 65 5000 1 0 07:59 09.04.2020
5146 Mist 24 1018 69 4300 2.1 250 07:36 09.04.2020
5147 Mist 24 1018 69 4300 2.1 250 07:18 09.04.2020
5148 Mist 24 1019 69 4300 2.1 250 06:26 09.04.2020
5149 Mist 23 1019 78 5000 2.6 270 05:46 09.04.2020
5150 Mist 22 1019 78 4500 1.5 310 04:26 09.04.2020
5151 Mist 22 1019 78 4500 1.5 310 04:26 09.04.2020
5152 Mist 20 1018 94 2200 1 0 02:32 09.04.2020
5153 Mist 20 1017 88 2200 1 280 01:44 09.04.2020
5154 Mist 20 1017 88 2200 1 280 01:24 09.04.2020
5155 Mist 20 1016 88 2800 2.1 330 00:43 09.04.2020
5156 Mist 20 1016 94 2300 2.1 330 00:20 09.04.2020
5157 Mist 20 1016 94 2300 2.1 330 00:20 09.04.2020
5158 Mist 20 1016 94 2300 2.1 330 23:59 08.04.2020
5159 Mist 20 1016 94 1800 1 310 23:41 08.04.2020
5160 Mist 20 1016 88 2000 1.5 280 23:21 08.04.2020
5161 Mist 20 1016 88 2000 1.5 280 22:44 08.04.2020
5162 Mist 20 1017 88 3500 2.1 240 22:24 08.04.2020
5163 Mist 20 1017 88 3500 2.1 240 21:57 08.04.2020
5164 Rain 20 1017 88 3700 1.5 230 21:38 08.04.2020
5165 Mist 20 1017 88 3900 1.5 290 21:19 08.04.2020
5166 Mist 20 1017 88 3900 1.5 290 20:57 08.04.2020
5167 Rain 20 1017 88 4500 1 300 20:38 08.04.2020
5168 Rain 20 1017 88 4500 1 300 20:20 08.04.2020
5169 Mist 20 1018 94 4000 1 350 19:42 08.04.2020
5170 Mist 20 1018 88 4100 0.5 0 19:22 08.04.2020
5171 Mist 20 1018 88 4100 0.5 0 18:59 08.04.2020
5172 Mist 21 1018 83 5000 1 0 18:40 08.04.2020
5173 Mist 21 1018 83 5000 1 0 18:22 08.04.2020
5174 Mist 21 1018 83 4900 0.5 0 17:44 08.04.2020
5175 Mist 20 1017 88 4700 0.5 0 17:22 08.04.2020
5176 Mist 20 1017 88 4700 0.5 0 17:22 08.04.2020
5177 Mist 20 1017 88 4700 0.5 0 16:59 08.04.2020
5178 Mist 20 1017 94 3500 0.5 0 16:41 08.04.2020
5179 Mist 20 1016 88 4800 3.04 133 16:22 08.04.2020
5180 Clouds 21 1015 83 6000 1 250 15:40 08.04.2020
5181 Clouds 21 1015 83 6000 1 250 15:21 08.04.2020
5182 Clouds 21 1015 83 6000 1.5 260 14:59 08.04.2020
5183 Clouds 21 1015 83 6000 1.5 260 14:41 08.04.2020
5184 Clouds 21 1015 83 6000 1.5 260 14:22 08.04.2020
5185 Clouds 21 1015 83 6000 1.5 260 14:22 08.04.2020
5186 Mist 22 1014 78 5000 1 330 13:45 08.04.2020
5187 Mist 23 1014 69 5000 0.5 0 13:22 08.04.2020
5188 Mist 23 1014 69 5000 0.5 0 12:58 08.04.2020
5189 Haze 23 1014 69 5000 1 0 12:40 08.04.2020
5190 Clouds 23 1014 69 6000 1 0 12:18 08.04.2020
5191 Haze 23 1014 69 5000 1.5 300 11:42 08.04.2020
5192 Haze 23 1014 69 5000 1.5 300 11:23 08.04.2020
5193 Mist 23 1014 73 5000 1.5 250 10:59 08.04.2020
5194 Mist 23 1014 73 5000 1.5 250 10:41 08.04.2020
5195 Mist 23 1015 73 5000 2.1 260 10:21 08.04.2020
5196 Mist 23 1015 73 5000 2.1 260 09:59 08.04.2020
5197 Mist 23 1015 73 5000 2.6 270 09:41 08.04.2020
5198 Mist 23 1015 73 5000 2.6 270 09:19 08.04.2020
5199 Mist 22 1015 78 5000 2.6 250 08:58 08.04.2020
5200 Mist 21 1016 77 5000 3.1 260 08:39 08.04.2020
5201 Mist 21 1016 77 5000 3.1 260 08:20 08.04.2020
5202 Mist 22 1017 73 4100 2.6 310 07:43 08.04.2020
5203 Mist 21 1017 83 3400 2.6 300 07:21 08.04.2020
5204 Mist 20 1018 88 3900 2.6 270 06:29 08.04.2020
5205 Mist 19 1018 93 2800 2.1 290 04:58 08.04.2020
5206 Mist 18 1017 93 1400 2.1 330 02:50 08.04.2020
5207 Drizzle 18 1016 93 1400 1.5 320 02:22 08.04.2020
5208 Drizzle 18 1016 93 1400 1.5 320 01:56 08.04.2020
5209 Drizzle 18 1016 93 1800 1 300 01:28 08.04.2020
5210 Drizzle 19 1015 88 2500 1 0 00:47 08.04.2020
5211 Drizzle 19 1015 88 2500 1 0 00:25 08.04.2020
5212 Mist 19 1015 88 3600 1.5 90 23:56 07.04.2020
5213 Mist 19 1015 88 3900 2.6 120 23:37 07.04.2020
5214 Mist 19 1015 88 3900 2.6 120 23:18 07.04.2020
5215 Mist 19 1015 88 4700 2.1 100 22:54 07.04.2020
5216 Mist 19 1015 88 4600 1.5 70 22:54 07.04.2020
5217 Mist 19 1015 88 4600 1.5 70 22:36 07.04.2020
5218 Mist 19 1015 88 4900 1.5 80 22:18 07.04.2020
5219 Mist 19 1015 88 4700 2.1 80 21:42 07.04.2020
5220 Mist 19 1015 88 4700 2.1 80 21:21 07.04.2020
5221 Mist 20 1015 82 4900 1 30 20:58 07.04.2020
5222 Mist 20 1015 82 4900 1 30 20:39 07.04.2020
5223 Mist 20 1015 82 4900 1 30 20:21 07.04.2020
5224 Clouds 20 1016 77 6000 1 0 19:57 07.04.2020
5225 Clouds 20 1016 77 6000 1.5 150 19:37 07.04.2020
5226 Clouds 20 1016 77 6000 1.5 150 19:19 07.04.2020
5227 Clouds 20 1016 77 6000 2.1 170 18:57 07.04.2020
5228 Clouds 20 1016 77 6000 2.1 150 18:39 07.04.2020
5229 Clouds 20 1016 77 7000 2.6 130 18:19 07.04.2020
5230 Clouds 20 1016 77 7000 2.1 110 17:45 07.04.2020
5231 Clouds 20 1016 77 7000 1.5 100 17:21 07.04.2020
5232 Clouds 20 1015 77 8000 1 110 16:47 07.04.2020
5233 Clouds 20 1015 77 8000 1 110 16:29 07.04.2020
5234 Clouds 20 1015 72 8000 1.5 140 15:58 07.04.2020
5235 Clear 21 1014 68 9000 2.1 160 15:40 07.04.2020
5236 Clear 21 1014 68 9000 2.1 160 15:22 07.04.2020
5237 Clear 21 1014 68 10000 1.5 180 14:41 07.04.2020
5238 Clouds 21 1014 68 10000 1.5 180 14:22 07.04.2020
5239 Clouds 21 1013 73 10000 1.5 120 13:57 07.04.2020
5240 Clouds 21 1013 73 10000 2.6 100 13:37 07.04.2020
5241 Clouds 23 1013 64 10000 1.5 80 13:18 07.04.2020
5242 Clouds 23 1013 64 10000 1.5 80 12:55 07.04.2020
5243 Clouds 23 1013 64 10000 1 0 12:36 07.04.2020
5244 Clouds 23 1013 64 10000 1 0 12:36 07.04.2020
5245 Clouds 23 1013 60 10000 1.5 330 12:18 07.04.2020
5246 Clouds 23 1013 60 10000 1.5 330 12:18 07.04.2020
5247 Clouds 23 1013 64 10000 0.5 0 11:42 07.04.2020
5248 Clouds 23 1013 64 10000 0.5 0 11:24 07.04.2020
5249 Clouds 23 1013 64 10000 1 0 10:58 07.04.2020
5250 Clouds 23 1014 60 10000 1.5 0 10:37 07.04.2020
5251 Clouds 23 1014 60 10000 1.5 0 10:19 07.04.2020
5252 Clouds 22 1015 68 10000 2.1 300 09:45 07.04.2020
5253 Clouds 22 1015 68 10000 2.1 300 09:18 07.04.2020
5254 Clouds 22 1015 64 10000 2.6 310 08:55 07.04.2020
5255 Clouds 21 1016 68 10000 2.1 300 08:36 07.04.2020
5256 Clouds 21 1016 68 9000 1.5 280 08:18 07.04.2020
5257 Clouds 21 1017 73 8000 2.6 290 07:40 07.04.2020
5258 Clouds 21 1017 73 8000 2.6 290 07:40 07.04.2020
5259 Clouds 20 1018 77 7000 2.1 310 07:21 07.04.2020
5260 Clouds 20 1018 77 6000 2.1 320 06:49 07.04.2020
5261 Mist 19 1018 88 3600 3.1 290 06:21 07.04.2020
5262 Mist 18 1018 88 2700 2.1 290 05:38 07.04.2020
5263 Mist 17 1018 93 4000 2.6 320 04:40 07.04.2020
5264 Mist 17 1018 88 5000 1 0 03:25 07.04.2020
5265 Rain 16 1017 93 2900 1 110 02:48 07.04.2020
5266 Thunderstorm 17 1016 88 8000 2.1 40 01:48 07.04.2020
5267 Thunderstorm 17 1016 88 8000 2.1 40 01:24 07.04.2020
5268 Rain 17 1015 88 7000 3.6 360 00:28 07.04.2020
5269 Clouds 18 1015 77 10000 3.1 30 23:44 06.04.2020
5270 Clouds 18 1015 77 10000 3.1 30 23:23 06.04.2020
5271 Clouds 19 1015 68 10000 3.1 40 22:57 06.04.2020
5272 Clouds 18 1016 77 10000 3.1 360 22:37 06.04.2020
5273 Clouds 18 1016 77 10000 3.1 360 22:19 06.04.2020
5274 Clouds 18 1015 82 10000 2.6 350 21:56 06.04.2020
5275 Clouds 18 1015 82 9000 2.1 30 21:38 06.04.2020
5276 Clouds 18 1015 82 9000 2.1 30 21:18 06.04.2020
5277 Clouds 18 1015 88 9000 2.1 50 20:42 06.04.2020
5278 Clouds 18 1015 88 9000 2.1 50 20:23 06.04.2020
5279 Clouds 18 1016 82 10000 1 70 19:59 06.04.2020
5280 Clouds 18 1016 82 9000 1.5 60 19:40 06.04.2020
5281 Clouds 18 1017 82 9000 1.5 60 19:22 06.04.2020
5282 Clouds 18 1017 82 10000 1.5 70 18:55 06.04.2020
5283 Clouds 18 1017 82 10000 1.5 60 18:36 06.04.2020
5284 Clouds 18 1017 82 10000 1.5 60 18:18 06.04.2020
5285 Clouds 18 1016 82 10000 1.5 80 17:41 06.04.2020
5286 Clouds 18 1016 82 10000 1.5 70 17:19 06.04.2020
5287 Clouds 18 1016 88 10000 1.5 100 16:50 06.04.2020
5288 Clouds 18 1016 88 10000 1.5 100 16:31 06.04.2020
5289 Clouds 18 1015 82 10000 1.5 70 15:40 06.04.2020
5290 Clouds 19 1014 77 10000 2.6 100 13:45 06.04.2020
5291 Clouds 19 1014 77 10000 2.6 100 13:23 06.04.2020
5292 Clouds 19 1013 72 10000 2.1 100 12:53 06.04.2020
5293 Clouds 19 1013 72 10000 2.1 100 12:53 06.04.2020
5294 Clouds 19 1013 72 10000 2.1 100 12:53 06.04.2020
5295 Clouds 19 1013 72 10000 2.1 100 12:53 06.04.2020
5296 Clouds 19 1013 72 10000 2.1 100 12:53 06.04.2020
5297 Clouds 19 1013 72 10000 2.1 110 12:21 06.04.2020
5298 Clouds 19 1013 72 10000 2.1 110 12:21 06.04.2020
5299 Clouds 20 1013 72 10000 2.1 70 11:54 06.04.2020
5300 Clouds 20 1013 72 10000 2.1 70 11:54 06.04.2020
5301 Clouds 20 1013 68 10000 1.5 30 11:28 06.04.2020
5302 Clouds 20 1013 68 10000 1.5 30 11:28 06.04.2020
5303 Clouds 20 1013 68 10000 1.5 30 11:28 06.04.2020
5304 Clouds 20 1013 68 10000 1.5 30 11:28 06.04.2020
5305 Clouds 20 1013 68 10000 1.5 30 11:28 06.04.2020
5306 Clouds 20 1014 68 10000 1 0 10:49 06.04.2020
5307 Clouds 20 1014 68 10000 1 0 10:49 06.04.2020
5308 Clouds 20 1014 68 10000 1 0 10:49 06.04.2020
5309 Clouds 20 1014 68 10000 1 0 10:49 06.04.2020
5310 Clouds 20 1014 68 10000 1 0 10:49 06.04.2020
5311 Clouds 19 1014 72 10000 1 0 10:21 06.04.2020
5312 Clouds 19 1015 72 10000 1 0 09:43 06.04.2020
5313 Clouds 19 1015 72 10000 1 0 09:43 06.04.2020
5314 Clouds 18 1015 82 9000 1 0 09:20 06.04.2020
5315 Clouds 18 1016 82 7000 1 0 08:51 06.04.2020
5316 Clouds 18 1016 88 7000 2.1 280 08:30 06.04.2020
5317 Rain 17 1017 93 7000 2.1 320 07:26 06.04.2020
5318 Clouds 17 1019 88 10000 1.5 330 06:34 06.04.2020
5319 Clouds 17 1019 88 10000 0.5 0 06:01 06.04.2020
5320 Rain 17 1019 88 5000 2.1 320 04:18 06.04.2020
5321 Rain 16 1019 93 8000 2.1 300 02:56 06.04.2020
5322 Rain 16 1018 93 6000 2.6 290 01:57 06.04.2020
5323 Rain 16 1018 93 6000 2.6 290 01:57 06.04.2020
5324 Thunderstorm 16 1016 93 7000 3.6 60 00:59 06.04.2020
5325 Thunderstorm 16 1017 87 10000 1 0 00:29 06.04.2020
5326 Thunderstorm 16 1017 87 10000 1 0 00:29 06.04.2020
5327 Thunderstorm 16 1017 87 10000 1.5 360 23:59 05.04.2020
5328 Clouds 16 1017 87 10000 2.1 360 23:40 05.04.2020
5329 Clouds 16 1017 87 10000 2.1 360 23:21 05.04.2020
5330 Clouds 16 1017 87 10000 2.1 360 23:21 05.04.2020
5331 Clouds 16 1017 87 10000 2.1 360 23:21 05.04.2020
5332 Rain 16 1017 87 10000 3.1 360 22:54 05.04.2020
5333 Thunderstorm 16 1017 87 7000 2.6 0 22:36 05.04.2020
5334 Thunderstorm 16 1017 87 7000 2.6 0 22:18 05.04.2020
5335 Thunderstorm 16 1017 87 10000 1.5 340 21:43 05.04.2020
5336 Thunderstorm 16 1017 87 10000 1.5 340 21:43 05.04.2020
5337 Thunderstorm 16 1017 87 10000 1.5 340 21:43 05.04.2020
5338 Clouds 16 1018 87 10000 1.5 30 21:23 05.04.2020
5339 Rain 16 1019 87 6000 2.6 10 20:25 05.04.2020
5340 Rain 16 1020 87 6000 2.1 330 19:43 05.04.2020
5341 Rain 16 1020 87 4700 2.6 360 19:24 05.04.2020
5342 Clouds 16 1019 87 10000 3.6 40 18:49 05.04.2020
5343 Clouds 16 1019 87 10000 3.6 40 18:18 05.04.2020
5344 Clouds 16 1019 87 10000 3.6 40 18:18 05.04.2020
5345 Clouds 17 1019 77 10000 5.1 20 17:49 05.04.2020
5346 Clouds 17 1019 77 10000 5.1 20 17:49 05.04.2020
5347 Clouds 17 1019 77 10000 5.1 20 17:49 05.04.2020
5348 Clouds 17 1019 77 10000 5.1 20 17:49 05.04.2020
5349 Clouds 17 1019 77 10000 5.1 20 17:49 05.04.2020
5350 Clouds 18 1019 68 10000 3.6 30 17:22 05.04.2020
5351 Clouds 18 1019 68 10000 3.1 20 16:47 05.04.2020
5352 Clouds 18 1019 68 10000 3.1 20 16:47 05.04.2020
5353 Clouds 18 1019 68 10000 3.1 10 16:19 05.04.2020
5354 Clouds 18 1019 68 10000 3.1 10 16:19 05.04.2020
5355 Clouds 18 1019 68 10000 2.6 10 15:45 05.04.2020
5356 Clouds 18 1018 72 10000 2.6 10 15:26 05.04.2020
5357 Clouds 18 1018 72 10000 2.6 10 15:26 05.04.2020
5358 Clouds 18 1018 72 10000 2.6 10 14:48 05.04.2020
5359 Clouds 18 1018 72 10000 2.6 10 14:48 05.04.2020
5360 Clouds 18 1018 72 10000 2.6 10 14:48 05.04.2020
5361 Clouds 18 1018 72 10000 2.6 10 14:48 05.04.2020
5362 Clouds 18 1017 72 10000 2.1 10 13:59 05.04.2020
5363 Clouds 18 1017 72 10000 2.6 10 13:40 05.04.2020
5364 Clouds 18 1017 72 10000 2.6 10 13:40 05.04.2020
5365 Clouds 18 1017 72 10000 2.6 10 13:40 05.04.2020
5366 Clouds 18 1017 72 10000 3.1 10 12:20 05.04.2020
5367 Clouds 18 1017 72 10000 3.1 10 12:20 05.04.2020
5368 Clouds 18 1017 72 10000 3.1 10 12:20 05.04.2020
5369 Clouds 18 1016 72 10000 4.1 10 11:39 05.04.2020
5370 Clouds 18 1016 72 10000 4.1 10 11:19 05.04.2020
5371 Clouds 19 1017 68 10000 4.6 10 10:47 05.04.2020
5372 Clouds 19 1017 68 10000 4.6 10 10:22 05.04.2020
5373 Clouds 19 1017 68 10000 4.6 10 10:22 05.04.2020
5374 Clouds 19 1017 68 10000 4.1 360 09:53 05.04.2020
5375 Clouds 19 1017 68 10000 4.1 10 09:26 05.04.2020
5376 Clouds 19 1017 68 10000 4.1 10 09:26 05.04.2020
5377 Clouds 20 1018 64 10000 4.1 10 08:31 05.04.2020
5378 Clouds 20 1018 64 10000 4.1 10 08:31 05.04.2020
5379 Clouds 20 1018 64 10000 4.1 10 08:31 05.04.2020
5380 Clouds 20 1018 64 10000 4.1 10 08:31 05.04.2020
5381 Clouds 20 1018 64 10000 4.1 10 08:31 05.04.2020
5382 Clouds 19 1021 68 10000 3.6 10 05:53 05.04.2020
5383 Clouds 19 1021 68 10000 3.6 10 05:53 05.04.2020
5384 Clouds 19 1021 68 10000 3.6 10 05:49 05.04.2020
5385 Clouds 19 1021 68 10000 3.6 10 05:49 05.04.2020
5386 Clouds 19 1020 68 10000 4.6 20 04:29 05.04.2020
5387 Clouds 18 1020 68 10000 5.1 10 03:27 05.04.2020
5388 Clouds 18 1019 72 10000 3.6 30 02:18 05.04.2020
5389 Clouds 18 1018 72 10000 4.1 40 01:42 05.04.2020
5390 Clouds 18 1018 77 10000 4.6 30 00:52 05.04.2020
5391 Clouds 18 1018 77 10000 4.6 30 00:52 05.04.2020
5392 Clouds 17 1017 82 10000 3.1 20 00:23 05.04.2020
5393 Clouds 17 1017 82 10000 3.1 30 23:58 04.04.2020
5394 Rain 17 1017 82 10000 5.1 10 23:39 04.04.2020
5395 Rain 17 1017 82 10000 5.1 10 23:21 04.04.2020
5396 Clouds 17 1017 82 10000 4.6 360 22:56 04.04.2020
5397 Clouds 17 1017 82 10000 3.6 10 22:38 04.04.2020
5398 Clouds 17 1017 82 10000 3.6 10 22:19 04.04.2020
5399 Clouds 18 1017 77 10000 4.1 360 21:55 04.04.2020
5400 Clouds 18 1018 82 10000 3.6 360 21:37 04.04.2020
5401 Clouds 18 1018 82 10000 3.6 360 21:18 04.04.2020
5402 Clouds 18 1017 77 10000 4.1 30 20:43 04.04.2020
5403 Clouds 18 1017 77 10000 4.1 30 20:23 04.04.2020
5404 Clouds 18 1019 82 10000 4.1 360 19:59 04.04.2020
5405 Clouds 18 1019 82 10000 4.1 360 19:59 04.04.2020
5406 Rain 18 1018 82 10000 3.6 30 19:39 04.04.2020
5407 Rain 18 1018 82 10000 3.6 30 19:20 04.04.2020
5408 Clouds 18 1019 82 10000 4.1 360 18:58 04.04.2020
5409 Clouds 18 1019 82 10000 2.6 20 18:39 04.04.2020
5410 Clouds 18 1019 82 10000 2.6 20 18:19 04.04.2020
5411 Clouds 18 1019 82 10000 3.6 30 17:58 04.04.2020
5412 Clouds 18 1019 82 10000 4.1 40 17:38 04.04.2020
5413 Clouds 18 1019 82 10000 4.1 40 17:19 04.04.2020
5414 Clouds 18 1018 82 10000 4.6 40 16:42 04.04.2020
5415 Clouds 18 1018 82 10000 4.6 40 16:23 04.04.2020
5416 Drizzle 18 1018 82 10000 5.1 50 15:57 04.04.2020
5417 Clouds 18 1018 88 10000 3.6 40 15:38 04.04.2020
5418 Clouds 18 1018 88 10000 3.6 40 15:19 04.04.2020
5419 Drizzle 19 1017 82 10000 4.1 40 14:44 04.04.2020
5420 Clouds 19 1017 82 10000 3.1 50 14:23 04.04.2020
5421 Clouds 19 1016 82 10000 4.6 40 13:57 04.04.2020
5422 Clouds 19 1016 82 10000 4.6 40 13:38 04.04.2020
5423 Clouds 19 1016 82 10000 4.6 40 13:20 04.04.2020
5424 Clouds 19 1015 82 10000 4.6 40 12:55 04.04.2020
5425 Clouds 19 1015 82 10000 4.1 40 12:36 04.04.2020
5426 Clouds 20 1015 72 10000 5.1 50 12:18 04.04.2020
5427 Clouds 20 1015 72 10000 5.1 50 11:40 04.04.2020
5428 Clouds 20 1015 77 10000 5.1 50 11:21 04.04.2020
5429 Clouds 20 1015 77 10000 5.1 30 10:57 04.04.2020
5430 Clouds 20 1015 77 10000 5.1 30 10:39 04.04.2020
5431 Clouds 20 1015 77 10000 6.2 30 10:21 04.04.2020
5432 Clouds 21 1015 73 10000 5.7 20 09:55 04.04.2020
5433 Clouds 21 1016 77 10000 4.6 30 09:37 04.04.2020
5434 Clouds 21 1016 77 10000 4.6 30 09:19 04.04.2020
5435 Clouds 20 1016 77 10000 3.6 10 08:42 04.04.2020
5436 Clouds 20 1017 77 10000 5.1 30 08:21 04.04.2020
5437 Clouds 20 1017 77 10000 5.1 30 07:47 04.04.2020
5438 Clouds 20 1017 77 10000 3.6 20 07:28 04.04.2020
5439 Rain 19 1018 82 10000 3.6 10 06:57 04.04.2020
5440 Clouds 19 1018 82 10000 3.6 360 06:20 04.04.2020
5441 Clouds 19 1018 82 10000 3.6 360 05:45 04.04.2020
5442 Clouds 19 1018 82 10000 3.6 20 05:24 04.04.2020
5443 Clouds 19 1018 88 10000 4.6 30 04:33 04.04.2020
5444 Rain 19 1018 82 10000 5.7 40 03:55 04.04.2020
5445 Clouds 19 1017 88 10000 5.7 40 03:22 04.04.2020
5446 Clouds 19 1016 88 10000 6.2 30 02:38 04.04.2020
5447 Clouds 19 1016 88 10000 5.1 40 02:20 04.04.2020
5448 Clouds 19 1015 88 10000 4.1 40 01:26 04.04.2020
5449 Clouds 19 1015 88 10000 5.1 50 00:52 04.04.2020
5450 Clouds 19 1014 88 10000 5.1 50 00:30 04.04.2020
5451 Rain 19 1014 93 5000 5.7 50 23:41 03.04.2020
5452 Rain 20 1014 88 10000 2.6 40 23:22 03.04.2020
5453 Clouds 19 1014 93 10000 4.1 40 22:59 03.04.2020
5454 Clouds 19 1014 93 10000 4.1 40 22:40 03.04.2020
5455 Clouds 19 1014 93 10000 4.6 40 22:19 03.04.2020
5456 Clouds 19 1014 93 10000 4.6 50 21:45 03.04.2020
5457 Clouds 20 1014 88 10000 5.7 40 21:26 03.04.2020
5458 Clouds 19 1014 93 10000 5.7 50 20:57 03.04.2020
5459 Clouds 20 1014 88 10000 5.1 50 20:39 03.04.2020
5460 Clouds 20 1014 88 10000 5.1 50 20:21 03.04.2020
5461 Clouds 20 1014 88 10000 5.1 50 19:58 03.04.2020
5462 Clouds 20 1015 88 10000 4.1 50 19:39 03.04.2020
5463 Clouds 20 1015 88 10000 4.1 50 19:21 03.04.2020
5464 Clouds 20 1015 88 10000 4.1 50 18:59 03.04.2020
5465 Clouds 20 1015 88 10000 4.1 50 18:59 03.04.2020
5466 Clouds 20 1015 88 10000 3.1 60 18:41 03.04.2020
5467 Clouds 20 1014 88 7000 4.1 60 18:23 03.04.2020
5468 Clouds 20 1014 88 7000 4.1 60 17:55 03.04.2020
5469 Clouds 20 1014 88 10000 5.1 50 17:37 03.04.2020
5470 Clouds 20 1014 88 10000 5.1 50 17:18 03.04.2020
5471 Clouds 20 1014 94 10000 5.1 50 16:44 03.04.2020
5472 Clouds 20 1014 94 10000 5.1 50 16:22 03.04.2020
5473 Clouds 20 1014 94 9000 5.1 50 15:58 03.04.2020
5474 Clouds 20 1014 94 9000 5.1 50 15:40 03.04.2020
5475 Clouds 20 1013 94 7000 5.7 50 15:21 03.04.2020
5476 Rain 25 1013 87 0 4.25 131 14:56 03.04.2020
5477 Rain 25 1013 87 0 4.25 131 14:37 03.04.2020
5478 Drizzle 20 1012 94 4800 4.6 50 14:19 03.04.2020
5479 Drizzle 20 1012 94 4800 4.6 50 13:43 03.04.2020
5480 Drizzle 20 1012 94 4800 4.6 50 13:25 03.04.2020
5481 Rain 21 1011 94 4500 4.1 60 12:55 03.04.2020
5482 Rain 21 1011 94 3500 4.6 50 12:37 03.04.2020
5483 Rain 21 1011 94 4400 3.1 50 12:18 03.04.2020
5484 Rain 21 1011 94 4400 3.1 50 11:41 03.04.2020
5485 Rain 21 1011 94 3900 3.1 50 11:23 03.04.2020
5486 Drizzle 21 1011 94 5000 3.6 50 10:59 03.04.2020
5487 Drizzle 21 1012 94 1600 3.1 60 10:40 03.04.2020
5488 Drizzle 21 1012 94 1600 3.1 60 10:21 03.04.2020
5489 Drizzle 22 1012 94 1300 2.6 50 09:59 03.04.2020
5490 Rain 22 1012 94 1700 2.1 60 09:40 03.04.2020
5491 Rain 22 1012 94 1700 2.1 60 09:22 03.04.2020
5492 Rain 22 1012 94 1200 2.1 60 08:57 03.04.2020
5493 Rain 22 1012 94 1200 2.1 60 08:38 03.04.2020
5494 Rain 21 1013 94 1400 3.1 70 08:20 03.04.2020
5495 Rain 22 1014 94 1100 3.1 40 07:48 03.04.2020
5496 Drizzle 22 1014 94 1700 1.5 40 07:29 03.04.2020
5497 Drizzle 22 1015 94 1200 1 0 06:42 03.04.2020
5498 Drizzle 22 1015 94 1200 1 0 06:23 03.04.2020
5499 Mist 22 1015 94 1700 1 0 05:39 03.04.2020
5500 Mist 21 1015 94 1600 1 0 03:42 03.04.2020
5501 Rain 21 1014 94 1300 1 290 02:56 03.04.2020
5502 Mist 21 1014 94 1500 1.5 260 02:27 03.04.2020
5503 Mist 21 1013 94 2400 1.5 290 01:22 03.04.2020
5504 Rain 21 1013 94 1800 2.6 270 00:37 03.04.2020
5505 Rain 21 1013 94 1800 2.6 270 00:19 03.04.2020
5506 Rain 21 1012 94 1900 2.6 260 23:42 02.04.2020
5507 Drizzle 21 1012 94 2000 1.5 250 23:23 02.04.2020
5508 Drizzle 21 1012 94 1800 1 0 22:58 02.04.2020
5509 Drizzle 21 1012 94 2000 1.5 80 22:38 02.04.2020
5510 Drizzle 21 1012 94 2000 1.5 80 22:20 02.04.2020
5511 Drizzle 21 1012 94 2500 1 0 21:39 02.04.2020
5512 Drizzle 21 1012 94 2500 1 0 21:39 02.04.2020
5513 Drizzle 21 1012 94 2500 1 0 21:20 02.04.2020
5514 Mist 21 1012 94 4600 1.5 80 20:58 02.04.2020
5515 Mist 21 1012 94 4600 1.5 80 20:40 02.04.2020
5516 Mist 21 1012 94 5000 2.1 60 20:21 02.04.2020
5517 Mist 21 1013 94 5000 0.5 0 19:44 02.04.2020
5518 Mist 21 1013 94 4800 2.1 90 19:21 02.04.2020
5519 Mist 21 1013 94 4700 2.1 100 19:21 02.04.2020
5520 Mist 21 1013 94 4700 2.1 100 18:58 02.04.2020
5521 Mist 21 1013 94 4500 1.5 100 18:39 02.04.2020
5522 Mist 21 1013 94 4500 1.5 100 18:20 02.04.2020
5523 Mist 21 1013 94 4900 2.1 110 17:56 02.04.2020
5524 Mist 21 1013 94 4800 1 0 17:38 02.04.2020
5525 Mist 21 1013 94 4800 1 0 17:18 02.04.2020
5526 Mist 21 1013 88 4800 1.5 70 16:55 02.04.2020
5527 Mist 21 1013 88 4900 1.5 70 16:36 02.04.2020
5528 Mist 21 1013 88 4900 1.5 70 16:18 02.04.2020
5529 Mist 21 1012 88 4800 1.5 90 15:44 02.04.2020
5530 Mist 21 1012 88 4800 1.5 90 15:44 02.04.2020
5531 Mist 21 1012 88 4800 1.5 90 15:44 02.04.2020
5532 Mist 21 1012 88 4800 1.5 90 15:44 02.04.2020
5533 Mist 21 1012 88 4800 2.1 100 15:21 02.04.2020
5534 Mist 21 1012 88 5000 0.5 0 14:58 02.04.2020
5535 Clouds 21 1012 88 6000 1 0 14:39 02.04.2020
5536 Clouds 21 1012 88 6000 1 0 14:19 02.04.2020
5537 Mist 21 1012 88 4900 3.68 126 13:56 02.04.2020
5538 Mist 21 1011 88 3900 1 0 13:38 02.04.2020
5539 Mist 21 1011 88 3900 1 0 13:19 02.04.2020
5540 Mist 20 1011 94 4600 1.5 40 12:46 02.04.2020
5541 Mist 20 1011 94 5000 2.1 50 12:20 02.04.2020
5542 Mist 20 1011 94 5000 2.1 70 11:58 02.04.2020
5543 Clouds 20 1011 94 6000 2.6 50 11:39 02.04.2020
5544 Clouds 20 1011 94 6000 2.6 50 11:39 02.04.2020
5545 Clouds 20 1011 94 6000 2.6 50 11:39 02.04.2020
5546 Clouds 20 1011 94 6000 2.6 50 11:21 02.04.2020
5547 Clouds 20 1011 94 9000 2.1 50 10:57 02.04.2020
5548 Clouds 20 1011 94 8000 2.6 50 10:39 02.04.2020
5549 Clouds 20 1011 94 8000 2.6 50 10:21 02.04.2020
5550 Clouds 20 1012 94 7000 2.1 60 09:59 02.04.2020
5551 Clouds 20 1012 94 7000 2.1 60 09:41 02.04.2020
5552 Clouds 20 1012 94 6000 1 0 09:21 02.04.2020
5553 Clouds 20 1013 94 9000 1.5 30 08:48 02.04.2020
5554 Drizzle 20 1013 94 4700 1 50 08:28 02.04.2020
5555 Drizzle 20 1014 88 4100 1 0 07:57 02.04.2020
5556 Clouds 20 1014 88 6000 1 0 07:38 02.04.2020
5557 Clouds 20 1014 88 6000 1 0 07:19 02.04.2020
5558 Drizzle 19 1015 93 3000 1.5 20 06:24 02.04.2020
5559 Drizzle 19 1015 93 3400 2.1 350 05:46 02.04.2020
5560 Drizzle 19 1015 93 3300 1 20 04:55 02.04.2020
5561 Drizzle 19 1014 93 2100 1 10 02:19 02.04.2020
5562 Clouds 19 1012 88 7000 1.5 360 00:59 02.04.2020
5563 Clouds 19 1012 88 7000 1 30 00:38 02.04.2020
5564 Clouds 19 1012 88 7000 1 30 00:19 02.04.2020
5565 Clouds 18 1012 93 7000 1 0 23:39 01.04.2020
5566 Clouds 18 1012 93 7000 1 0 23:19 01.04.2020
5567 Clouds 18 1012 93 6000 1.5 50 22:56 01.04.2020
5568 Drizzle 18 1012 93 6000 3.1 30 22:37 01.04.2020
5569 Drizzle 18 1012 93 6000 3.1 30 22:19 01.04.2020
5570 Drizzle 19 1012 93 4100 2.1 40 21:39 01.04.2020
5571 Drizzle 19 1012 93 3500 1.5 20 21:19 01.04.2020
5572 Drizzle 19 1013 88 4400 1.5 10 20:56 01.04.2020
5573 Mist 19 1013 88 4700 2.1 20 20:38 01.04.2020
5574 Mist 19 1013 88 4700 2.1 20 20:19 01.04.2020
5575 Mist 19 1013 88 4500 1.5 10 19:57 01.04.2020
5576 Mist 19 1013 88 4100 2.1 50 19:37 01.04.2020
5577 Mist 19 1013 88 4100 2.1 50 19:37 01.04.2020
5578 Mist 19 1014 88 4100 1.5 30 19:19 01.04.2020
5579 Drizzle 19 1014 88 4200 1.5 50 18:41 01.04.2020
5580 Drizzle 19 1014 88 4200 1.5 50 18:21 01.04.2020
5581 Clouds 19 1013 88 4000 1.5 40 17:56 01.04.2020
5582 Clouds 19 1013 88 6000 2.1 50 17:37 01.04.2020
5583 Clouds 19 1013 88 6000 2.1 50 17:18 01.04.2020
5584 Clouds 20 1013 82 8000 2.1 40 16:55 01.04.2020
5585 Clouds 20 1013 82 9000 2.1 50 16:36 01.04.2020
5586 Clouds 20 1013 82 9000 2.1 50 16:18 01.04.2020
5587 Clouds 20 1012 82 10000 2.1 40 15:42 01.04.2020
5588 Clouds 20 1012 82 10000 2.1 40 15:22 01.04.2020
5589 Clouds 20 1011 82 10000 2.1 30 14:58 01.04.2020
5590 Clouds 20 1011 82 10000 2.1 50 14:39 01.04.2020
5591 Clouds 20 1011 82 10000 2.1 50 14:20 01.04.2020
5592 Clouds 20 1011 82 10000 2.1 40 13:59 01.04.2020
5593 Clouds 20 1010 77 10000 3.1 40 13:38 01.04.2020
5594 Clouds 20 1010 77 10000 3.1 40 13:19 01.04.2020
5595 Clouds 20 1010 77 10000 3.6 40 12:56 01.04.2020
5596 Clouds 20 1010 77 10000 3.6 50 12:37 01.04.2020
5597 Clouds 20 1010 77 10000 3.6 50 12:18 01.04.2020
5598 Clouds 20 1010 77 10000 3.6 50 11:54 01.04.2020
5599 Clouds 20 1010 77 10000 3.1 40 11:36 01.04.2020
5600 Clouds 20 1010 77 10000 3.1 40 11:18 01.04.2020
5601 Clouds 21 1010 73 10000 3.1 50 10:38 01.04.2020
5602 Clouds 21 1010 73 10000 3.1 50 10:20 01.04.2020
5603 Clouds 21 1011 73 10000 3.6 40 09:57 01.04.2020
5604 Clouds 21 1011 73 10000 3.1 50 09:39 01.04.2020
5605 Clouds 21 1011 73 10000 3.1 50 09:19 01.04.2020
5606 Clouds 21 1012 73 10000 3.1 30 08:42 01.04.2020
5607 Clouds 21 1013 73 10000 2.6 50 08:18 01.04.2020
5608 Clouds 20 1014 77 10000 1.5 0 07:46 01.04.2020
5609 Clouds 20 1014 77 10000 1.5 0 07:21 01.04.2020
5610 Clouds 20 1015 77 10000 2.1 20 06:52 01.04.2020
5611 Clouds 19 1015 77 10000 3.1 10 06:27 01.04.2020
5612 Clouds 19 1016 77 10000 3.6 40 05:58 01.04.2020
5613 Clouds 19 1016 77 10000 3.1 50 04:33 01.04.2020
5614 Clouds 18 1015 82 9000 3.1 40 03:32 01.04.2020
5615 Clouds 18 1015 82 7000 2.1 30 02:56 01.04.2020
5616 Clouds 17 1014 88 8000 2.6 40 01:59 01.04.2020
5617 Clouds 17 1014 88 9000 3.1 40 01:39 01.04.2020
5618 Clouds 17 1014 88 9000 3.1 40 01:18 01.04.2020
5619 Clouds 17 1013 88 8000 3.1 40 00:46 01.04.2020
5620 Clouds 17 1013 88 6000 3.1 40 00:21 01.04.2020
5621 Clouds 17 1013 88 6000 2.6 40 23:48 31.03.2020
5622 Clouds 17 1013 88 6000 2.6 40 23:27 31.03.2020
5623 Clouds 17 1013 88 8000 2.6 40 22:58 31.03.2020
5624 Clouds 17 1013 88 8000 2.6 40 22:37 31.03.2020
5625 Clouds 17 1013 88 7000 3.1 40 22:19 31.03.2020
5626 Clouds 17 1013 88 7000 3.1 40 21:56 31.03.2020
5627 Clouds 18 1013 77 9000 3.1 20 21:38 31.03.2020
5628 Clouds 18 1013 77 9000 3.1 20 21:19 31.03.2020
5629 Clouds 19 1013 72 10000 2.6 30 20:55 31.03.2020
5630 Clouds 19 1013 72 10000 2.6 30 20:36 31.03.2020
5631 Clouds 19 1013 72 10000 2.6 30 20:36 31.03.2020
5632 Clouds 19 1013 72 10000 2.6 20 20:18 31.03.2020
5633 Clouds 19 1014 72 10000 2.1 40 19:42 31.03.2020
5634 Clouds 19 1014 72 10000 2.1 40 19:42 31.03.2020
5635 Clouds 19 1014 72 10000 2.1 40 19:42 31.03.2020
5636 Clouds 19 1014 77 10000 1.5 50 19:23 31.03.2020
5637 Clouds 19 1014 77 10000 1.5 50 18:58 31.03.2020
5638 Clouds 19 1014 77 10000 1.5 50 18:39 31.03.2020
5639 Clouds 19 1014 82 10000 1 70 18:18 31.03.2020
5640 Clouds 19 1014 82 10000 1 70 17:55 31.03.2020
5641 Clouds 19 1014 82 10000 1 70 17:55 31.03.2020
5642 Clouds 19 1014 77 10000 1.5 60 17:37 31.03.2020
5643 Clouds 19 1014 77 10000 1.5 60 17:18 31.03.2020
5644 Clouds 19 1013 77 10000 1.5 40 16:40 31.03.2020
5645 Clouds 19 1013 77 10000 1.5 40 16:19 31.03.2020
5646 Clouds 19 1013 77 10000 2.1 40 15:57 31.03.2020
5647 Clouds 19 1013 77 10000 2.1 50 15:39 31.03.2020
5648 Clouds 19 1013 77 10000 2.1 50 15:21 31.03.2020
5649 Clouds 19 1012 77 10000 1.5 50 14:57 31.03.2020
5650 Clouds 19 1012 77 10000 2.1 40 14:38 31.03.2020
5651 Clouds 19 1012 77 10000 2.1 40 14:20 31.03.2020
5652 Clouds 19 1011 77 10000 2.6 40 13:43 31.03.2020
5653 Clouds 19 1011 77 10000 2.6 40 13:20 31.03.2020
5654 Clouds 19 1011 77 10000 2.6 40 13:20 31.03.2020
5655 Clouds 19 1011 77 10000 2.6 40 13:20 31.03.2020
5656 Clouds 19 1011 72 10000 3.1 30 12:56 31.03.2020
5657 Clouds 19 1011 72 10000 3.6 20 12:38 31.03.2020
5658 Clouds 19 1011 72 10000 3.6 20 12:19 31.03.2020
5659 Clouds 19 1011 72 10000 3.6 30 11:39 31.03.2020
5660 Clouds 19 1011 72 10000 3.6 30 11:20 31.03.2020
5661 Clouds 19 1011 72 10000 3.6 30 10:58 31.03.2020
5662 Clouds 19 1011 72 10000 4.1 40 10:40 31.03.2020
5663 Clouds 19 1011 72 10000 4.1 40 10:21 31.03.2020
5664 Clouds 19 1012 77 10000 4.1 40 09:56 31.03.2020
5665 Clouds 19 1012 77 10000 4.1 30 09:37 31.03.2020
5666 Clouds 19 1012 77 10000 4.1 30 09:19 31.03.2020
5667 Clouds 18 1013 82 10000 5.1 30 08:56 31.03.2020
5668 Clouds 18 1013 82 10000 5.1 30 08:56 31.03.2020
5669 Clouds 18 1013 82 10000 5.1 30 08:56 31.03.2020
5670 Clouds 18 1013 82 10000 4.6 40 08:37 31.03.2020
5671 Clouds 18 1013 82 10000 4.6 40 08:19 31.03.2020
5672 Clouds 18 1014 82 10000 5.1 30 07:54 31.03.2020
5673 Clouds 18 1014 82 10000 5.7 30 07:36 31.03.2020
5674 Clouds 18 1014 82 10000 5.1 30 07:18 31.03.2020
5675 Clouds 18 1015 82 10000 5.1 30 06:42 31.03.2020
5676 Clouds 18 1015 82 10000 5.1 30 05:53 31.03.2020
5677 Clouds 18 1015 82 10000 4.6 40 05:26 31.03.2020
5678 Clouds 17 1013 93 10000 4.6 30 02:57 31.03.2020
5679 Clouds 18 1012 88 8000 4.1 40 01:47 31.03.2020
5680 Clouds 18 1011 88 8000 3.1 30 01:27 31.03.2020
5681 Clouds 18 1010 93 9000 2.6 40 00:43 31.03.2020
5682 Clouds 18 1010 93 9000 2.6 40 00:23 31.03.2020
5683 Rain 18 1010 93 6000 2.1 40 23:41 30.03.2020
5684 -273 0 0 0 0 0 23:20 30.03.2020
5685 Drizzle 18 1009 93 5000 3.1 40 23:20 30.03.2020
5686 Mist 18 1009 93 5000 3.1 40 22:58 30.03.2020
5687 Mist 18 1009 93 5000 3.1 50 22:38 30.03.2020
5688 Mist 18 1009 93 5000 3.1 50 22:19 30.03.2020
5689 Drizzle 18 1009 93 5000 3.6 60 21:57 30.03.2020
5690 Drizzle 18 1009 93 4900 3.1 50 21:38 30.03.2020
5691 Drizzle 18 1009 93 4900 3.1 50 21:20 30.03.2020
5692 Drizzle 18 1009 93 4900 3.1 50 21:20 30.03.2020
5693 Rain 18 1009 93 5000 3.6 60 20:58 30.03.2020
5694 Rain 18 1010 93 4700 2.6 70 20:39 30.03.2020
5695 Rain 18 1010 93 4700 2.6 70 20:19 30.03.2020
5696 Drizzle 18 1010 93 4700 3.6 50 19:54 30.03.2020
5697 Drizzle 18 1010 93 4200 3.1 50 19:36 30.03.2020
5698 Drizzle 18 1010 93 4200 3.1 50 19:18 30.03.2020
5699 Drizzle 18 1011 93 4800 3.1 50 18:41 30.03.2020
5700 Drizzle 18 1011 93 4800 3.1 50 18:23 30.03.2020
5701 Drizzle 17 1010 93 4800 2.6 50 17:57 30.03.2020
5702 Drizzle 18 1010 93 4700 2.6 60 17:39 30.03.2020
5703 Drizzle 18 1010 93 4700 2.6 60 17:19 30.03.2020
5704 Drizzle 17 1010 93 4800 3.6 50 16:57 30.03.2020
5705 Drizzle 18 1010 88 4800 3.1 60 16:39 30.03.2020
5706 Drizzle 18 1010 88 4800 3.1 60 16:20 30.03.2020
5707 Drizzle 18 1010 88 4800 2.6 50 15:55 30.03.2020
5708 Drizzle 17 1009 93 4500 3.6 60 15:37 30.03.2020
5709 Drizzle 17 1009 93 4500 3.6 60 15:18 30.03.2020
5710 Drizzle 17 1009 93 5000 4.1 60 14:55 30.03.2020
5711 Drizzle 17 1009 93 5000 4.1 60 14:36 30.03.2020
5712 Drizzle 17 1009 93 5000 4.1 60 14:18 30.03.2020
5713 Drizzle 17 1008 93 5000 4.1 50 13:44 30.03.2020
5714 Drizzle 17 1008 93 5000 4.1 50 13:21 30.03.2020
5715 Drizzle 18 1008 88 7000 4.1 60 12:59 30.03.2020
5716 Clouds 18 1008 88 10000 4.6 50 12:41 30.03.2020
5717 Clouds 18 1008 88 10000 4.6 50 12:19 30.03.2020
5718 Clouds 18 1007 88 10000 4.6 50 11:57 30.03.2020
5719 Clouds 18 1007 88 10000 5.7 50 11:38 30.03.2020
5720 Clouds 18 1007 88 10000 5.7 50 11:20 30.03.2020
5721 Clouds 19 1008 82 10000 6.2 50 10:40 30.03.2020
5722 Clouds 19 1008 82 10000 6.2 60 10:22 30.03.2020
5723 Clouds 19 1008 82 10000 6.7 60 09:56 30.03.2020
5724 Clouds 20 1009 77 10000 7.2 50 09:38 30.03.2020
5725 Clouds 20 1009 77 10000 7.2 50 09:19 30.03.2020
5726 Clouds 19 1009 82 10000 6.7 50 08:42 30.03.2020
5727 Clouds 20 1009 77 10000 7.2 50 08:22 30.03.2020
5728 Clouds 20 1010 77 10000 6.7 50 07:49 30.03.2020
5729 Clouds 19 1010 82 10000 7.7 50 07:31 30.03.2020
5730 Clouds 20 1011 77 10000 6.2 50 06:56 30.03.2020
5731 Clouds 20 1011 77 10000 6.7 50 06:31 30.03.2020
5732 Clouds 20 1011 82 10000 7.7 50 05:53 30.03.2020
5733 Clouds 20 1012 82 10000 7.7 50 05:22 30.03.2020
5734 Clouds 20 1012 82 10000 7.2 50 04:23 30.03.2020
5735 Clouds 20 1011 82 10000 6.7 50 03:38 30.03.2020
5736 Rain 20 1010 94 10000 6.2 60 02:37 30.03.2020
5737 Rain 21 1009 94 7000 5.1 50 01:35 30.03.2020
5738 Clouds 24 1008 94 6000 7.2 50 00:47 30.03.2020
5739 Clouds 25 1008 88 7000 3.1 110 00:21 30.03.2020
5740 Clouds 25 1007 88 6000 2.6 100 23:41 29.03.2020
5741 Clouds 25 1007 88 7000 2.6 100 23:23 29.03.2020
5742 Rain 25 1007 88 9000 3.1 100 22:57 29.03.2020
5743 Clouds 25 1007 88 10000 4.1 120 22:37 29.03.2020
5744 Clouds 25 1007 88 10000 4.1 120 22:19 29.03.2020
5745 Clouds 25 1007 88 10000 4.1 110 21:40 29.03.2020
5746 Clouds 25 1007 88 10000 4.1 110 21:21 29.03.2020
5747 Clouds 25 1007 88 9000 4.1 100 20:56 29.03.2020
5748 Clouds 25 1007 88 9000 4.1 100 20:56 29.03.2020
5749 Clouds 25 1008 88 10000 3.6 110 20:38 29.03.2020
5750 Clouds 25 1008 88 10000 3.6 110 20:19 29.03.2020
5751 Clouds 25 1008 88 10000 3.6 110 19:59 29.03.2020
5752 Clouds 25 1008 88 10000 3.6 110 19:59 29.03.2020
5753 Clouds 25 1008 88 10000 3.1 100 19:41 29.03.2020
5754 Clouds 25 1008 88 10000 3.6 110 19:23 29.03.2020
5755 Clouds 25 1008 88 10000 3.6 110 18:57 29.03.2020
5756 Clouds 25 1008 88 10000 4.6 110 18:39 29.03.2020
5757 Clouds 25 1008 88 10000 4.1 110 18:20 29.03.2020
5758 Clouds 25 1008 88 10000 4.1 110 17:56 29.03.2020
5759 Clouds 25 1008 88 10000 4.1 120 17:38 29.03.2020
5760 Clouds 25 1008 88 10000 4.1 120 17:19 29.03.2020
5761 Clouds 25 1008 88 10000 3.6 110 16:57 29.03.2020
5762 Clouds 25 1007 88 10000 4.6 110 16:38 29.03.2020
5763 Clouds 25 1007 88 10000 4.6 110 16:38 29.03.2020
5764 Clouds 25 1007 88 10000 4.6 110 16:19 29.03.2020
5765 Clouds 26 1007 83 10000 4.6 120 15:43 29.03.2020
5766 Clouds 26 1006 83 10000 4.1 120 15:25 29.03.2020
5767 Clouds 26 1006 83 10000 4.1 110 14:59 29.03.2020
5768 Clouds 26 1006 83 10000 4.6 120 14:40 29.03.2020
5769 Clouds 26 1006 83 10000 4.6 120 14:40 29.03.2020
5770 Clouds 26 1006 83 10000 4.6 120 14:20 29.03.2020
5771 Clouds 26 1005 83 10000 4.6 130 13:58 29.03.2020
5772 Clouds 27 1005 78 10000 4.6 130 13:40 29.03.2020
5773 Clouds 27 1005 78 10000 4.6 130 13:20 29.03.2020
5774 Clouds 27 1005 78 10000 6.2 140 12:56 29.03.2020
5775 Clouds 27 1005 78 10000 6.2 140 12:37 29.03.2020
5776 Clouds 27 1005 78 10000 6.2 140 12:37 29.03.2020
5777 Clouds 28 1004 74 10000 6.2 140 12:19 29.03.2020
5778 Clouds 28 1004 74 10000 6.2 140 11:55 29.03.2020
5779 Clouds 28 1005 74 10000 6.2 140 11:37 29.03.2020
5780 Clouds 28 1005 74 10000 6.2 140 11:18 29.03.2020
5781 Clouds 27 1005 78 10000 7.7 140 10:38 29.03.2020
5782 Clouds 27 1005 78 10000 7.7 140 10:19 29.03.2020
5783 Clouds 27 1006 78 10000 5.7 150 09:41 29.03.2020
5784 Clouds 27 1006 78 10000 5.7 150 09:22 29.03.2020
5785 Clouds 26 1007 83 10000 5.7 130 08:54 29.03.2020
5786 Clouds 26 1008 83 8000 4.6 130 08:36 29.03.2020
5787 Clouds 26 1008 83 8000 4.6 130 08:18 29.03.2020
5788 Clouds 25 1009 88 7000 4.6 140 07:42 29.03.2020
5789 Clouds 25 1010 88 7000 5.1 140 07:21 29.03.2020
5790 Clouds 25 1011 83 8000 4.6 140 05:46 29.03.2020
5791 Clouds 24 1011 88 6000 4.1 130 04:27 29.03.2020
5792 Drizzle 23 1010 94 4400 2.6 130 03:31 29.03.2020
5793 Rain 23 1010 94 2400 2.1 110 01:51 29.03.2020
5794 Rain 23 1010 88 2400 1.5 80 01:23 29.03.2020
5795 Rain 22 1009 94 2800 2.1 80 00:56 29.03.2020
5796 Rain 22 1009 94 4200 2.1 90 00:32 29.03.2020
5797 Rain 22 1008 94 2400 2.1 120 23:43 28.03.2020
5798 Rain 22 1008 94 2400 2.1 120 23:24 28.03.2020
5799 Drizzle 22 1008 94 2300 2.6 110 22:59 28.03.2020
5800 Rain 22 1008 94 2000 2.6 110 22:39 28.03.2020
5801 Rain 22 1008 94 2000 2.6 110 22:20 28.03.2020
5802 Rain 22 1008 94 1900 2.6 110 21:54 28.03.2020
5803 Rain 22 1008 94 2100 3.1 110 21:36 28.03.2020
5804 Rain 22 1008 94 2100 3.1 110 21:18 28.03.2020
5805 Rain 23 1008 88 2600 3.1 110 20:41 28.03.2020
5806 Clouds 23 1009 88 6000 3.6 130 20:23 28.03.2020
5807 Clouds 23 1009 88 6000 4.6 130 19:57 28.03.2020
5808 Clouds 23 1009 83 7000 5.7 130 19:39 28.03.2020
5809 Clouds 23 1009 83 7000 5.7 130 19:20 28.03.2020
5810 Clouds 23 1009 83 7000 5.7 130 19:20 28.03.2020
5811 Clouds 24 1010 83 7000 5.1 130 18:58 28.03.2020
5812 Clouds 24 1010 78 9000 5.1 130 18:38 28.03.2020
5813 Clouds 24 1010 78 10000 4.6 140 18:19 28.03.2020
5814 Clouds 24 1010 78 10000 4.6 140 18:19 28.03.2020
5815 Clouds 24 1010 83 10000 5.1 130 17:39 28.03.2020
5816 Clouds 24 1010 83 8000 5.1 130 17:20 28.03.2020
5817 Clouds 24 1010 83 8000 5.1 130 16:43 28.03.2020
5818 Clouds 24 1010 83 8000 5.1 130 16:20 28.03.2020
5819 Clouds 24 1009 83 7000 4.1 130 15:58 28.03.2020
5820 Clouds 25 1009 83 6000 4.6 130 15:39 28.03.2020
5821 Clouds 25 1009 83 6000 4.6 130 15:19 28.03.2020
5822 Clouds 25 1009 83 6000 4.1 130 14:43 28.03.2020
5823 Clouds 25 1008 83 6000 4.6 120 14:24 28.03.2020
5824 Clouds 25 1008 83 7000 4.1 130 13:59 28.03.2020
5825 Clouds 25 1008 83 7000 4.6 130 13:38 28.03.2020
5826 Clouds 25 1008 83 7000 4.6 130 13:19 28.03.2020
5827 Clouds 26 1007 78 8000 6.2 130 12:39 28.03.2020
5828 Clouds 26 1007 78 8000 6.2 130 12:21 28.03.2020
5829 Clouds 26 1007 78 10000 5.7 130 11:42 28.03.2020
5830 Clouds 27 1007 74 10000 5.7 130 11:21 28.03.2020
5831 Clouds 27 1007 74 10000 5.7 130 10:56 28.03.2020
5832 Clouds 27 1007 74 10000 5.1 130 10:37 28.03.2020
5833 Clouds 27 1007 74 10000 5.1 130 10:18 28.03.2020
5834 Clouds 27 1008 74 10000 6.2 130 09:41 28.03.2020
5835 Clouds 27 1008 74 10000 6.2 130 09:22 28.03.2020
5836 Clouds 28 1008 65 10000 4.6 140 08:45 28.03.2020
5837 Clouds 28 1009 61 10000 4.6 160 08:27 28.03.2020
5838 Clouds 28 1009 65 10000 5.1 160 07:59 28.03.2020
5839 Clouds 28 1010 69 10000 4.6 160 07:41 28.03.2020
5840 Clouds 28 1010 69 10000 4.1 160 06:54 28.03.2020
5841 Clouds 27 1011 74 10000 4.6 160 06:29 28.03.2020
5842 Clouds 27 1012 74 10000 3.6 150 05:38 28.03.2020
5843 Clouds 26 1012 83 10000 2.6 130 05:19 28.03.2020
5844 Clouds 25 1013 88 7000 3.1 130 04:39 28.03.2020
5845 Clouds 26 1012 83 6000 3.1 120 02:52 28.03.2020
5846 Mist 25 1012 88 4400 2.1 70 01:48 28.03.2020
5847 Mist 25 1011 88 4400 2.1 70 01:23 28.03.2020
5848 Mist 25 1011 88 5000 1.5 60 00:52 28.03.2020
5849 Clouds 25 1010 88 5000 2.1 80 00:28 28.03.2020
5850 Clouds 25 1010 88 8000 2.1 60 23:44 27.03.2020
5851 Clouds 25 1010 88 8000 2.1 60 23:26 27.03.2020
5852 Clouds 25 1010 88 8000 2.1 60 22:57 27.03.2020
5853 Clouds 25 1010 88 8000 2.6 80 22:39 27.03.2020
5854 Clouds 25 1010 88 8000 2.6 80 22:39 27.03.2020
5855 Clouds 25 1010 88 8000 2.6 80 22:20 27.03.2020
5856 Clouds 25 1010 88 6000 2.6 80 21:58 27.03.2020
5857 Rain 25 1010 88 6000 2.6 130 21:40 27.03.2020
5858 Rain 25 1010 88 6000 2.6 130 21:22 27.03.2020
5859 Rain 25 1010 88 6000 2.6 130 21:22 27.03.2020
5860 Clouds 26 1010 83 7000 3.1 80 20:56 27.03.2020
5861 Clouds 25 1010 88 9000 2.6 80 20:37 27.03.2020
5862 Clouds 25 1010 88 9000 2.6 80 20:19 27.03.2020
5863 Clouds 26 1010 83 9000 2.6 90 19:43 27.03.2020
5864 Clouds 26 1010 83 9000 2.6 90 19:23 27.03.2020
5865 Clouds 26 1010 83 9000 2.6 90 18:57 27.03.2020
5866 Clouds 26 1010 83 10000 3.6 100 18:39 27.03.2020
5867 Clouds 26 1010 83 9000 3.6 110 18:20 27.03.2020
5868 Clouds 26 1010 83 9000 3.1 120 17:41 27.03.2020
5869 Clouds 26 1010 83 10000 4.1 120 17:21 27.03.2020
5870 Clouds 26 1010 83 10000 4.1 120 16:57 27.03.2020
5871 Clouds 26 1010 83 10000 4.1 130 16:38 27.03.2020
5872 Clouds 26 1010 83 10000 4.1 130 16:20 27.03.2020
5873 Clouds 26 1009 83 10000 4.1 120 15:42 27.03.2020
5874 Clouds 25 1010 91 0 3.04 125 15:24 27.03.2020
5875 Clouds 25 1010 91 0 3.04 125 14:48 27.03.2020
5876 Clouds 25 1010 91 0 3.04 125 14:25 27.03.2020
5877 Clouds 26 1008 85 0 2.99 113 13:58 27.03.2020
5878 Clouds 26 1008 85 0 2.99 113 13:40 27.03.2020
5879 Clouds 26 1008 85 0 2.99 113 13:21 27.03.2020
5880 Clouds 26 1007 84 0 3.34 112 12:57 27.03.2020
5881 Clouds 26 1007 84 0 3.34 112 12:39 27.03.2020
5882 Clouds 26 1007 84 0 3.34 112 12:18 27.03.2020
5883 Clouds 26 1007 84 0 3.34 112 11:41 27.03.2020
5884 Clouds 26 1007 84 0 3.34 112 11:23 27.03.2020
5885 Clouds 32 1006 61 0 4.87 120 10:55 27.03.2020
5886 Clouds 32 1006 61 0 4.87 120 10:37 27.03.2020
5887 Clouds 32 1006 61 0 4.87 120 10:18 27.03.2020
5888 Clouds 32 1006 61 0 4.87 120 09:56 27.03.2020
5889 Clouds 32 1006 61 0 4.87 120 09:37 27.03.2020
5890 Clouds 32 1006 61 0 4.87 120 09:18 27.03.2020
5891 Clouds 32 1006 61 0 4.87 120 08:56 27.03.2020
5892 Clouds 32 1006 61 0 4.87 120 08:37 27.03.2020
5893 Clouds 30 1008 64 0 3.15 161 08:19 27.03.2020
5894 Clouds 31 1009 59 0 2.85 151 07:50 27.03.2020
5895 Clouds 31 1009 59 0 2.85 151 07:23 27.03.2020
5896 Clouds 31 1009 59 0 2.85 151 06:51 27.03.2020
5897 Clouds 31 1009 59 0 2.85 151 06:33 27.03.2020
5898 Clouds 27 1012 75 0 3.66 166 04:23 27.03.2020
5899 Clouds 27 1012 75 0 3.66 166 02:25 27.03.2020
5900 Clouds 25 1010 86 0 3.19 162 01:23 27.03.2020
5901 Clouds 25 1010 85 0 2.98 161 00:48 27.03.2020
5902 Clouds 25 1010 85 0 2.98 161 00:23 27.03.2020
5903 Clouds 25 1010 85 0 2.98 161 23:43 26.03.2020
5904 Clouds 25 1010 85 0 2.98 161 23:21 26.03.2020
5905 Clouds 25 1008 86 0 3.61 156 22:58 26.03.2020
5906 Clouds 25 1008 86 0 3.61 156 22:37 26.03.2020
5907 Clouds 25 1008 86 0 3.61 156 22:19 26.03.2020
5908 Clouds 25 1008 86 0 3.61 156 21:55 26.03.2020
5909 Clouds 25 1008 86 0 3.61 156 21:37 26.03.2020
5910 Clouds 25 1008 86 0 3.61 156 21:18 26.03.2020
5911 Clouds 25 1008 86 0 3.61 156 20:41 26.03.2020
5912 Clouds 25 1008 86 0 3.61 156 20:23 26.03.2020
5913 Clouds 25 1009 87 0 4.43 155 19:58 26.03.2020
5914 Clouds 25 1009 87 0 4.43 155 19:40 26.03.2020
5915 Clouds 25 1009 87 0 4.43 155 19:40 26.03.2020
5916 Clouds 25 1009 87 0 4.43 155 19:22 26.03.2020
5917 Clouds 25 1009 87 0 4.43 155 18:59 26.03.2020
5918 Clouds 25 1009 87 0 4.43 155 18:41 26.03.2020
5919 Clouds 25 1009 87 0 4.43 155 18:23 26.03.2020
5920 Clouds 25 1009 87 0 4.43 155 17:45 26.03.2020
5921 Clouds 25 1010 87 0 4.69 143 17:20 26.03.2020
5922 Clouds 25 1010 87 0 4.69 143 16:59 26.03.2020
5923 Clouds 25 1010 87 0 4.69 143 16:39 26.03.2020
5924 Clouds 25 1010 87 0 4.69 143 16:21 26.03.2020
5925 Clouds 25 1010 87 0 4.69 143 15:56 26.03.2020
5926 Clouds 25 1010 87 0 4.69 143 15:38 26.03.2020
5927 Clouds 25 1010 87 0 4.69 143 15:19 26.03.2020
5928 Clouds 25 1010 87 0 4.69 143 14:43 26.03.2020
5929 Clouds 25 1010 87 0 4.69 143 14:25 26.03.2020
5930 Clouds 25 1008 85 0 4.4 133 13:56 26.03.2020
5931 Clouds 25 1008 85 0 4.4 133 13:56 26.03.2020
5932 Clouds 25 1008 85 0 4.4 133 13:38 26.03.2020
5933 Rain 25 1008 83 0 3.92 145 13:20 26.03.2020
5934 Rain 25 1008 83 0 3.92 145 12:39 26.03.2020
5935 Rain 25 1008 83 0 3.92 145 12:20 26.03.2020
5936 Rain 25 1008 83 0 3.92 145 11:55 26.03.2020
5937 Rain 25 1008 83 0 3.92 145 11:37 26.03.2020
5938 Rain 30 1007 65 0 6.32 147 11:18 26.03.2020
5939 Rain 30 1007 65 0 6.32 147 10:42 26.03.2020
5940 Rain 30 1007 65 0 6.32 147 10:20 26.03.2020
5941 Rain 30 1007 65 0 6.32 147 09:45 26.03.2020
5942 Rain 30 1007 65 0 6.32 147 09:21 26.03.2020
5943 Rain 30 1007 65 0 6.32 147 08:57 26.03.2020
5944 Rain 30 1007 65 0 6.32 147 08:38 26.03.2020
5945 Clouds 30 1009 62 0 5.34 150 08:19 26.03.2020
5946 Clouds 30 1009 62 0 5.34 150 07:45 26.03.2020
5947 Clouds 30 1009 62 0 5.34 150 07:23 26.03.2020
5948 Clouds 30 1009 62 0 5.34 150 06:57 26.03.2020
5949 Clouds 30 1009 62 0 5.34 150 06:27 26.03.2020
5950 Rain 28 1012 70 0 5 164 05:22 26.03.2020
5951 Rain 28 1012 70 0 5 164 03:45 26.03.2020
5952 Rain 28 1012 70 0 5 164 02:56 26.03.2020
5953 Rain 24 1010 85 0 4.14 162 01:50 26.03.2020
5954 Rain 24 1010 85 0 4.01 162 00:55 26.03.2020
5955 Rain 24 1010 85 0 4.01 162 00:22 26.03.2020
5956 Rain 24 1010 85 0 4.01 162 23:41 25.03.2020
5957 Rain 24 1009 85 0 3.95 157 23:21 25.03.2020
5958 Rain 24 1009 85 0 3.95 157 22:42 25.03.2020
5959 Rain 24 1009 85 0 3.95 157 22:21 25.03.2020
5960 Rain 24 1009 85 0 3.95 157 21:56 25.03.2020
5961 Rain 24 1009 85 0 3.95 157 21:38 25.03.2020
5962 Rain 24 1009 85 0 3.95 157 21:38 25.03.2020
5963 Rain 24 1009 85 0 3.95 157 21:19 25.03.2020
5964 Rain 24 1009 85 0 3.95 157 20:55 25.03.2020
5965 Rain 24 1009 85 0 3.95 157 20:37 25.03.2020
5966 Clouds 24 1010 85 0 4.3 160 20:18 25.03.2020
5967 Clouds 24 1010 85 0 4.3 160 19:43 25.03.2020
5968 Clouds 24 1010 85 0 4.3 160 19:23 25.03.2020
5969 Clouds 24 1009 86 0 3.96 160 18:58 25.03.2020
5970 Clouds 24 1010 85 0 4.3 160 18:39 25.03.2020
5971 Clouds 24 1010 85 0 4.3 160 18:21 25.03.2020
5972 Clouds 24 1010 85 0 4.3 160 17:55 25.03.2020
5973 Clouds 24 1010 85 0 4.3 160 17:37 25.03.2020
5974 Clouds 25 1011 83 0 4.64 164 17:18 25.03.2020
5975 Clouds 25 1011 83 0 4.64 164 16:43 25.03.2020
5976 Clouds 25 1011 83 0 4.64 164 16:24 25.03.2020
5977 Clouds 25 1011 83 0 5.77 149 15:57 25.03.2020
5978 Clouds 25 1011 83 0 5.77 149 15:38 25.03.2020
5979 Clouds 25 1011 83 0 5.77 149 15:19 25.03.2020
5980 Clouds 25 1011 83 0 5.77 149 15:19 25.03.2020
5981 Clouds 25 1011 83 0 5.77 149 14:42 25.03.2020
5982 Rain 25 1009 79 0 4.87 146 14:21 25.03.2020
5983 Rain 25 1009 79 0 4.87 146 13:46 25.03.2020
5984 Rain 25 1009 79 0 4.87 146 13:27 25.03.2020
5985 Rain 25 1009 79 0 4.87 146 12:57 25.03.2020
5986 Rain 26 1009 78 0 5.62 142 12:37 25.03.2020
5987 Rain 26 1009 78 0 5.62 142 12:19 25.03.2020
5988 Rain 26 1009 78 0 5.62 142 11:43 25.03.2020
5989 Rain 29 1008 62 0 6.84 160 11:22 25.03.2020
5990 Rain 29 1008 62 0 6.84 160 10:59 25.03.2020
5991 Rain 29 1008 62 0 6.84 160 10:41 25.03.2020
5992 Rain 29 1008 62 0 6.84 160 10:19 25.03.2020
5993 Rain 29 1008 62 0 6.84 160 09:59 25.03.2020
5994 Rain 29 1008 62 0 6.84 160 09:41 25.03.2020
5995 Rain 29 1008 62 0 6.84 160 09:22 25.03.2020
5996 Rain 29 1008 62 0 6.84 160 08:55 25.03.2020
5997 Rain 29 1008 62 0 6.84 160 08:37 25.03.2020
5998 Rain 31 1009 57 0 6.36 165 08:18 25.03.2020
5999 Rain 31 1009 57 0 6.39 166 07:39 25.03.2020
6000 Rain 31 1009 57 0 6.39 166 07:19 25.03.2020
6001 Rain 31 1009 57 0 6.39 166 06:46 25.03.2020
6002 Rain 31 1009 57 0 6.39 166 06:25 25.03.2020
6003 Rain 31 1009 57 0 6.39 166 05:50 25.03.2020
6004 Rain 28 1013 67 0 4.64 173 04:59 25.03.2020
6005 Rain 28 1013 67 0 4.64 173 04:36 25.03.2020
6006 Rain 28 1013 67 0 4.64 173 03:34 25.03.2020
6007 Rain 24 1011 87 0 3.24 149 01:57 25.03.2020
6008 Rain 24 1011 85 0 3.18 149 01:20 25.03.2020
6009 Rain 24 1011 85 0 3.18 149 00:43 25.03.2020
6010 Rain 24 1011 85 0 3.18 149 00:19 25.03.2020
6011 Rain 24 1011 85 0 3.18 149 23:42 24.03.2020
6012 Rain 24 1011 88 0 3.06 136 23:22 24.03.2020
6013 Rain 24 1011 88 0 3.06 136 22:55 24.03.2020
6014 Rain 24 1011 88 0 3.06 136 22:37 24.03.2020
6015 Rain 24 1011 88 0 3.06 136 22:37 24.03.2020
6016 Rain 24 1011 88 0 3.06 136 22:37 24.03.2020
6017 Rain 24 1011 88 0 3.06 136 22:19 24.03.2020
6018 Rain 24 1011 88 0 3.06 136 21:54 24.03.2020
6019 Rain 24 1011 88 0 3.06 136 21:36 24.03.2020
6020 Rain 24 1011 88 0 3.06 136 21:36 24.03.2020
6021 Rain 24 1011 88 0 3.06 136 21:18 24.03.2020
6022 Rain 24 1011 88 0 3.06 136 20:41 24.03.2020
6023 Rain 24 1011 88 0 3.06 136 20:23 24.03.2020
6024 Rain 23 1011 89 0 3.43 145 19:54 24.03.2020
6025 Rain 23 1011 89 0 3.43 145 19:36 24.03.2020
6026 Rain 23 1011 89 0 3.43 145 19:18 24.03.2020
6027 Rain 23 1011 89 0 3.43 145 18:54 24.03.2020
6028 Rain 23 1011 89 0 3.43 145 18:36 24.03.2020
6029 Rain 23 1011 89 0 3.43 145 18:36 24.03.2020
6030 Rain 23 1011 89 0 3.43 145 18:18 24.03.2020
6031 Rain 23 1011 89 0 3.43 145 17:41 24.03.2020
6032 Clouds 23 1012 87 0 2.94 144 17:22 24.03.2020
6033 Clouds 24 1011 88 8000 2.6 110 16:57 24.03.2020
6034 Clouds 24 1011 88 9000 3.1 110 16:39 24.03.2020
6035 Clouds 24 1011 88 9000 3.1 110 16:20 24.03.2020
6036 Clouds 25 1011 83 9000 4.1 110 15:44 24.03.2020
6037 Clouds 25 1011 83 9000 4.1 110 15:25 24.03.2020
6038 Clouds 25 1011 83 10000 4.1 110 14:59 24.03.2020
6039 Clouds 25 1010 83 10000 4.6 110 14:40 24.03.2020
6040 Clouds 25 1010 73 0 6.31 143 14:18 24.03.2020
6041 Clouds 25 1010 73 0 6.31 143 13:42 24.03.2020
6042 Clouds 25 1010 74 0 5.41 144 13:22 24.03.2020
6043 Clouds 25 1010 74 0 5.41 144 12:47 24.03.2020
6044 Clouds 25 1010 74 0 5.41 144 12:28 24.03.2020
6045 Clouds 25 1010 74 0 5.41 144 11:58 24.03.2020
6046 Clouds 25 1010 74 0 5.41 144 11:39 24.03.2020
6047 Clouds 28 1008 54 10000 6.2 120 11:19 24.03.2020
6048 Clouds 29 1009 58 10000 5.7 140 10:42 24.03.2020
6049 Clouds 29 1009 58 10000 5.7 140 10:19 24.03.2020
6050 Clouds 29 1009 58 10000 5.7 150 09:55 24.03.2020
6051 Clouds 28 1009 65 10000 5.7 130 09:37 24.03.2020
6052 Clouds 28 1009 65 10000 5.7 130 09:19 24.03.2020
6053 Clouds 29 1010 58 10000 6.7 150 08:38 24.03.2020
6054 Clouds 29 1010 58 10000 6.7 150 08:20 24.03.2020
6055 Clouds 29 1011 62 10000 6.2 140 07:47 24.03.2020
6056 Clouds 29 1011 58 10000 6.2 150 07:23 24.03.2020
6057 Clouds 29 1012 58 10000 5.7 170 06:50 24.03.2020
6058 Clouds 29 1012 58 10000 5.7 170 06:24 24.03.2020
6059 Clouds 27 1014 69 10000 4.1 170 04:57 24.03.2020
6060 Clouds 25 1014 78 10000 4.1 140 03:46 24.03.2020
6061 Clouds 25 1014 83 7000 3.1 120 02:45 24.03.2020
6062 Mist 23 1013 94 2000 2.6 90 01:38 24.03.2020
6063 Mist 23 1012 94 3000 3.1 100 00:42 24.03.2020
6064 Mist 23 1012 94 3000 3.1 100 00:22 24.03.2020
6065 Mist 23 1012 88 3000 2.6 110 23:39 23.03.2020
6066 Mist 23 1012 88 3000 2.6 110 23:21 23.03.2020
6067 Mist 23 1012 88 4000 2.6 70 22:45 23.03.2020
6068 Mist 23 1012 88 3000 2.6 70 22:24 23.03.2020
6069 Mist 23 1012 94 3300 2.1 70 21:58 23.03.2020
6070 Mist 23 1012 94 3500 2.6 90 21:40 23.03.2020
6071 Mist 23 1012 94 3500 2.6 90 21:20 23.03.2020
6072 Mist 23 1012 94 3400 2.1 80 20:56 23.03.2020
6073 Mist 22 1012 94 3000 2.1 80 20:38 23.03.2020
6074 Mist 22 1012 94 3000 2.1 80 20:19 23.03.2020
6075 Mist 23 1013 94 4100 2.1 100 19:44 23.03.2020
6076 Mist 23 1013 94 4100 2.1 100 19:24 23.03.2020
6077 Mist 23 1013 94 4000 2.1 100 18:56 23.03.2020
6078 Mist 23 1013 94 4200 1.5 120 18:38 23.03.2020
6079 Mist 23 1013 94 5000 1.5 140 18:20 23.03.2020
6080 Mist 23 1013 94 5000 1.5 140 17:42 23.03.2020
6081 Mist 24 1013 88 5000 3.6 140 17:21 23.03.2020
6082 Mist 24 1013 88 5000 3.6 140 16:56 23.03.2020
6083 Mist 24 1013 88 5000 3.1 120 16:38 23.03.2020
6084 Mist 24 1013 88 5000 3.1 120 16:19 23.03.2020
6085 Clouds 24 1012 88 7000 4.1 130 15:41 23.03.2020
6086 Clouds 24 1012 88 7000 4.1 130 15:19 23.03.2020
6087 Clouds 24 1012 88 10000 3.1 100 14:38 23.03.2020
6088 Clouds 24 1012 88 10000 3.1 100 14:20 23.03.2020
6089 Clouds 24 1012 88 10000 1.5 120 13:58 23.03.2020
6090 Clouds 24 1012 83 10000 0.5 0 13:40 23.03.2020
6091 Clouds 24 1012 83 10000 0.5 0 13:40 23.03.2020
6092 Clouds 24 1012 83 10000 0.5 0 13:20 23.03.2020
6093 Rain 25 1010 83 6000 5.1 160 12:44 23.03.2020
6094 Rain 26 1010 78 4900 3.6 160 12:25 23.03.2020
6095 Rain 26 1010 78 4900 3.6 160 11:58 23.03.2020
6096 Clouds 27 1010 74 7000 2.6 100 11:39 23.03.2020
6097 Clouds 27 1010 74 7000 3.1 90 11:19 23.03.2020
6098 Clouds 27 1010 74 7000 3.1 90 10:56 23.03.2020
6099 Clouds 27 1010 74 6000 3.1 80 10:37 23.03.2020
6100 Clouds 27 1010 74 6000 3.1 80 10:19 23.03.2020
6101 Clouds 27 1010 74 6000 3.6 80 09:43 23.03.2020
6102 Mist 27 1010 74 5000 3.1 80 09:21 23.03.2020
6103 Mist 28 1012 69 4800 3.6 90 08:40 23.03.2020
6104 Mist 28 1012 69 4800 3.6 90 08:20 23.03.2020
6105 Mist 27 1012 74 5000 2.6 80 07:59 23.03.2020
6106 Mist 27 1012 74 5000 2.6 80 07:59 23.03.2020
6107 Mist 27 1013 78 5000 2.1 80 07:40 23.03.2020
6108 Mist 27 1013 78 5000 2.1 80 07:19 23.03.2020
6109 Mist 26 1013 78 4700 1.5 90 06:48 23.03.2020
6110 Mist 24 1015 88 3600 2.1 360 05:50 23.03.2020
6111 Rain 23 1015 94 1600 2.6 330 04:41 23.03.2020
6112 Mist 24 1014 88 2000 1.5 190 03:24 23.03.2020
6113 Mist 23 1013 94 1600 2.1 140 01:50 23.03.2020
6114 Mist 23 1011 94 2700 4.6 130 00:50 23.03.2020
6115 Mist 23 1011 94 2700 4.6 130 00:31 23.03.2020
6116 Mist 23 1011 94 3900 3.6 80 23:45 22.03.2020
6117 Mist 23 1011 94 3900 3.6 80 23:25 22.03.2020
6118 Thunderstorm 23 1011 94 3800 3.01 142 22:44 22.03.2020
6119 Thunderstorm 23 1011 94 3800 3.01 142 22:22 22.03.2020
6120 Clouds 24 1012 88 3900 2.6 260 21:55 22.03.2020
6121 Clouds 24 1012 88 7000 1.5 250 21:37 22.03.2020
6122 Clouds 24 1012 88 7000 1.5 250 21:18 22.03.2020
6123 Clouds 24 1012 88 8000 1 0 20:45 22.03.2020
6124 Clouds 24 1011 88 8000 3.1 0 20:24 22.03.2020
6125 Clouds 24 1011 88 7000 5.1 140 19:57 22.03.2020
6126 Clouds 24 1011 88 6000 6.7 130 19:39 22.03.2020
6127 Clouds 24 1011 88 6000 6.7 130 19:20 22.03.2020
6128 Clouds 24 1012 88 7000 4.6 130 18:58 22.03.2020
6129 Clouds 24 1013 88 8000 3.6 130 18:40 22.03.2020
6130 Clouds 24 1013 88 8000 3.6 130 18:21 22.03.2020
6131 Clouds 24 1013 94 7000 2.1 160 17:57 22.03.2020
6132 Clouds 25 1013 88 7000 3.1 150 17:38 22.03.2020
6133 Rain 25 1013 88 7000 2.6 160 17:20 22.03.2020
6134 Rain 25 1013 88 7000 2.6 160 16:57 22.03.2020
6135 Clouds 25 1013 88 8000 2.6 170 16:39 22.03.2020
6136 Clouds 25 1013 88 8000 2.6 170 16:39 22.03.2020
6137 Clouds 25 1013 88 8000 2.6 170 16:20 22.03.2020
6138 Rain 25 1013 88 8000 2.6 160 15:40 22.03.2020
6139 Clouds 25 1012 88 8000 3.6 140 15:20 22.03.2020
6140 Rain 25 1012 88 7000 2.1 160 14:46 22.03.2020
6141 Rain 25 1012 88 7000 2.1 160 14:46 22.03.2020
6142 Rain 25 1011 88 6000 2.6 130 14:19 22.03.2020
6143 Rain 25 1010 88 6000 5.7 130 13:44 22.03.2020
6144 Rain 25 1010 88 6000 5.7 130 13:20 22.03.2020
6145 Rain 25 1011 88 6000 4.1 120 12:58 22.03.2020
6146 Rain 26 1010 83 7000 3.6 110 12:39 22.03.2020
6147 Clouds 26 1010 83 10000 5.1 130 12:19 22.03.2020
6148 Clouds 26 1010 83 10000 3.1 130 11:43 22.03.2020
6149 Clouds 26 1010 83 10000 3.1 130 11:25 22.03.2020
6150 Clouds 26 1009 83 10000 4.6 120 10:58 22.03.2020
6151 Clouds 27 1009 78 10000 5.1 110 10:40 22.03.2020
6152 Clouds 27 1009 78 10000 5.1 110 10:21 22.03.2020
6153 Clouds 27 1009 78 10000 5.7 110 09:45 22.03.2020
6154 Clouds 28 1009 74 10000 5.1 130 09:27 22.03.2020
6155 Clouds 28 1010 74 10000 4.6 100 08:48 22.03.2020
6156 Clouds 28 1010 74 7000 3.1 120 08:29 22.03.2020
6157 Clouds 28 1011 69 6000 3.1 100 07:54 22.03.2020
6158 Clouds 28 1011 74 6000 2.1 0 07:36 22.03.2020
6159 Clouds 27 1013 74 6000 2.1 0 06:41 22.03.2020
6160 Mist 26 1014 78 4000 1.5 150 05:41 22.03.2020
6161 Mist 25 1014 83 4200 2.1 170 04:34 22.03.2020
6162 Mist 24 1012 88 3500 2.6 160 01:36 22.03.2020
6163 Mist 24 1012 88 3400 2.6 130 00:49 22.03.2020
6164 Mist 24 1011 88 4700 2.6 140 00:29 22.03.2020
6165 Mist 24 1011 88 5000 2.6 140 23:45 21.03.2020
6166 Mist 24 1011 88 5000 1.5 140 23:21 21.03.2020
6167 Mist 24 1011 88 5000 1.5 40 22:58 21.03.2020
6168 Mist 24 1011 88 4500 0.5 0 22:37 21.03.2020
6169 Mist 24 1011 88 4500 0.5 0 22:18 21.03.2020
6170 Mist 24 1010 88 4100 1.5 120 21:56 21.03.2020
6171 Mist 24 1010 88 3500 1.5 100 21:37 21.03.2020
6172 Mist 24 1010 88 3500 1.5 100 21:18 21.03.2020
6173 Mist 24 1011 88 3300 2.1 100 20:42 21.03.2020
6174 Mist 24 1011 94 3300 2.1 90 20:20 21.03.2020
6175 Mist 24 1011 88 3500 2.1 100 19:45 21.03.2020
6176 Mist 24 1012 94 3500 1.5 80 19:25 21.03.2020
6177 Mist 24 1012 88 3600 3.1 110 18:59 21.03.2020
6178 Mist 24 1012 88 4500 2.6 100 18:40 21.03.2020
6179 Mist 24 1012 88 4400 3.6 100 18:20 21.03.2020
6180 Mist 24 1012 88 4400 3.6 100 17:57 21.03.2020
6181 Clouds 24 1012 88 6000 4.1 120 17:39 21.03.2020
6182 Clouds 24 1013 88 8000 3.1 110 17:20 21.03.2020
6183 Clouds 24 1012 88 9000 5.7 130 16:41 21.03.2020
6184 Clouds 24 1012 88 9000 5.7 130 16:22 21.03.2020
6185 Clouds 24 1013 88 7000 4.6 130 15:57 21.03.2020
6186 Clouds 24 1012 88 7000 4.1 120 15:39 21.03.2020
6187 Clouds 24 1012 88 7000 4.1 120 15:20 21.03.2020
6188 Clouds 25 1011 78 7000 4.6 130 14:54 21.03.2020
6189 Clouds 25 1011 83 7000 5.1 130 14:36 21.03.2020
6190 Clouds 25 1011 83 7000 5.1 130 14:36 21.03.2020
6191 Clouds 25 1011 83 7000 5.1 130 14:18 21.03.2020
6192 Clouds 25 1010 78 10000 5.7 130 13:57 21.03.2020
6193 Clouds 26 1010 74 8000 4.6 120 13:38 21.03.2020
6194 Clouds 26 1010 74 8000 4.6 120 13:19 21.03.2020
6195 Clouds 26 1009 78 6000 3.1 130 12:40 21.03.2020
6196 Clouds 26 1009 78 6000 3.6 130 12:20 21.03.2020
6197 Clouds 26 1009 78 6000 3.6 130 11:59 21.03.2020
6198 Clouds 26 1008 78 6000 4.1 120 11:39 21.03.2020
6199 Clouds 26 1009 74 6000 4.6 110 11:19 21.03.2020
6200 Clouds 26 1009 74 6000 4.6 110 11:19 21.03.2020
6201 Clouds 26 1009 74 6000 4.6 110 10:57 21.03.2020
6202 Clouds 26 1009 74 6000 4.6 110 10:57 21.03.2020
6203 Mist 27 1008 69 4600 4.1 110 10:39 21.03.2020
6204 Mist 27 1008 69 4600 4.1 110 10:21 21.03.2020
6205 Mist 27 1008 69 4600 4.1 110 10:20 21.03.2020
6206 Mist 27 1009 69 5000 5.1 110 09:58 21.03.2020
6207 Haze 27 1009 69 5000 4.1 120 09:37 21.03.2020
6208 Haze 27 1009 69 5000 4.1 120 09:19 21.03.2020
6209 Clouds 27 1009 69 7000 3.6 120 08:45 21.03.2020
6210 Clouds 27 1010 69 8000 2.6 160 08:25 21.03.2020
6211 Clouds 27 1011 65 8000 3.6 150 07:52 21.03.2020
6212 Clouds 27 1011 65 8000 1.5 0 07:32 21.03.2020
6213 Clouds 27 1012 69 7000 1.5 0 06:48 21.03.2020
6214 Clouds 26 1013 74 7000 1.5 200 06:29 21.03.2020
6215 Clouds 25 1014 73 7000 2.6 200 05:48 21.03.2020
6216 Clouds 26 1014 65 7000 2.1 190 05:18 21.03.2020
6217 Mist 24 1014 83 3700 1 0 03:26 21.03.2020
6218 Mist 22 1014 88 2400 1.5 170 02:34 21.03.2020
6219 Mist 21 1013 94 1500 3.1 110 01:38 21.03.2020
6220 Mist 21 1013 94 1500 3.1 110 01:18 21.03.2020
6221 Rain 21 1013 94 1600 1 60 00:38 21.03.2020
6222 Rain 21 1013 94 1400 2.1 340 23:58 20.03.2020
6223 Drizzle 21 1013 94 1600 2.6 340 23:40 20.03.2020
6224 Mist 21 1012 94 2900 0.5 0 23:18 20.03.2020
6225 Mist 21 1011 94 3200 1.5 100 22:41 20.03.2020
6226 Mist 21 1011 94 3200 1.5 100 22:22 20.03.2020
6227 Mist 21 1011 94 3700 2.1 120 21:56 20.03.2020
6228 Mist 21 1011 94 3700 2.6 110 21:38 20.03.2020
6229 Mist 21 1011 94 3700 2.6 110 21:18 20.03.2020
6230 Mist 21 1011 94 3700 2.6 110 20:57 20.03.2020
6231 Mist 21 1012 94 4000 2.1 100 20:38 20.03.2020
6232 Mist 21 1012 94 4000 2.1 100 20:18 20.03.2020
6233 Mist 21 1013 94 4200 0.5 0 19:45 20.03.2020
6234 Mist 21 1013 94 4200 0.5 0 19:19 20.03.2020
6235 Mist 21 1013 94 4200 0.5 0 19:19 20.03.2020
6236 Mist 21 1013 94 4100 1.5 0 18:55 20.03.2020
6237 Mist 21 1012 94 3400 2.6 110 18:37 20.03.2020
6238 Mist 21 1011 94 3300 5.1 120 18:19 20.03.2020
6239 Mist 21 1012 94 3100 5.1 110 17:39 20.03.2020
6240 Mist 22 1013 88 5000 3.1 90 17:21 20.03.2020
6241 Mist 22 1013 88 5000 3.1 90 17:21 20.03.2020
6242 Mist 22 1013 88 5000 3.1 90 16:59 20.03.2020
6243 Clouds 22 1015 88 6000 4.1 270 16:41 20.03.2020
6244 Clouds 22 1015 88 6000 4.1 270 16:19 20.03.2020
6245 Clouds 23 1013 78 7000 2.6 130 15:43 20.03.2020
6246 Clouds 23 1013 78 7000 2.6 130 15:22 20.03.2020
6247 Clouds 23 1012 78 8000 2.1 90 14:56 20.03.2020
6248 Clouds 23 1011 78 8000 4.1 110 14:38 20.03.2020
6249 Clouds 23 1011 78 8000 4.1 110 14:19 20.03.2020
6250 Clouds 23 1011 78 8000 2.1 100 13:45 20.03.2020
6251 Clouds 23 1011 78 9000 3.1 110 13:19 20.03.2020
6252 Clouds 23 1010 78 7000 3.6 100 12:41 20.03.2020
6253 Clouds 23 1010 78 7000 3.6 100 12:23 20.03.2020
6254 Clouds 23 1010 78 7000 4.1 100 11:58 20.03.2020
6255 Clouds 24 1010 69 7000 5.1 110 11:38 20.03.2020
6256 Clouds 24 1010 69 7000 4.1 120 11:19 20.03.2020
6257 Clouds 25 1010 65 7000 3.1 90 10:42 20.03.2020
6258 Clouds 25 1010 65 7000 3.1 90 10:21 20.03.2020
6259 Clouds 25 1010 65 9000 2.6 100 09:58 20.03.2020
6260 Clouds 25 1010 65 10000 2.1 80 09:39 20.03.2020
6261 Clouds 25 1010 65 10000 2.1 80 09:19 20.03.2020
6262 Clouds 25 1012 61 10000 1.5 90 08:42 20.03.2020
6263 Clouds 25 1012 61 10000 1.5 90 08:22 20.03.2020
6264 Clouds 25 1012 61 10000 1.5 0 07:54 20.03.2020
6265 Clouds 24 1013 64 10000 2.1 120 07:36 20.03.2020
6266 Clouds 24 1013 64 10000 2.1 120 07:18 20.03.2020
6267 Clouds 23 1015 69 10000 1.5 0 06:41 20.03.2020
6268 Clouds 23 1015 69 10000 1.5 0 06:41 20.03.2020
6269 Clouds 23 1016 64 10000 1 0 04:52 20.03.2020
6270 Clouds 21 1016 73 8000 1 0 03:40 20.03.2020
6271 Clouds 20 1016 82 7000 1 60 02:20 20.03.2020
6272 Clouds 19 1014 88 7000 1 60 00:59 20.03.2020
6273 Clouds 19 1014 88 9000 1 80 00:31 20.03.2020
6274 Clouds 19 1013 88 9000 1 50 23:49 19.03.2020
6275 Clouds 19 1013 88 9000 1 50 23:28 19.03.2020
6276 Clouds 19 1013 88 9000 1 100 22:57 19.03.2020
6277 Clouds 19 1013 88 10000 1 70 22:38 19.03.2020
6278 Clouds 19 1013 88 10000 1 70 22:19 19.03.2020
6279 Clouds 19 1013 88 10000 0.5 70 21:42 19.03.2020
6280 Clouds 19 1014 93 10000 1.08 8 21:20 19.03.2020
6281 Clouds 19 1014 93 9000 1.08 8 20:59 19.03.2020
6282 Clouds 20 1014 88 10000 1 330 20:41 19.03.2020
6283 Clouds 20 1015 88 10000 0.5 90 20:22 19.03.2020
6284 Clouds 20 1015 88 10000 0.5 90 19:55 19.03.2020
6285 Clouds 19 1015 88 10000 0.5 0 19:37 19.03.2020
6286 Clouds 19 1015 88 10000 0.5 0 19:19 19.03.2020
6287 Clouds 19 1015 93 8000 1.5 360 18:54 19.03.2020
6288 Clouds 20 1016 88 7000 0.36 15 18:36 19.03.2020
6289 Clouds 20 1016 88 6000 1 330 18:18 19.03.2020
6290 Clouds 20 1016 88 6000 1 330 17:41 19.03.2020
6291 Clouds 20 1017 88 8000 0.5 0 17:19 19.03.2020
6292 Clouds 20 1017 88 9000 1 290 16:44 19.03.2020
6293 Clouds 20 1017 88 9000 1 290 16:24 19.03.2020
6294 Clouds 20 1016 88 7000 1 0 15:46 19.03.2020
6295 Clouds 20 1016 88 6000 1.5 330 15:27 19.03.2020
6296 Clouds 20 1015 88 7000 1.5 300 14:58 19.03.2020
6297 Clouds 20 1015 88 9000 2.1 280 14:40 19.03.2020
6298 Clouds 20 1015 88 9000 2.1 280 14:19 19.03.2020
6299 Clouds 20 1014 72 10000 1.5 340 13:40 19.03.2020
6300 Clouds 20 1014 72 10000 1 0 13:19 19.03.2020
6301 Clouds 20 1014 72 10000 1 0 12:55 19.03.2020
6302 Clouds 20 1013 72 10000 1.5 360 12:37 19.03.2020
6303 Clouds 21 1013 68 10000 2.1 360 12:18 19.03.2020
6304 Clouds 21 1013 68 10000 2.1 360 11:41 19.03.2020
6305 Clouds 21 1013 73 10000 1.5 10 11:23 19.03.2020
6306 Clouds 21 1013 73 10000 1.5 10 10:56 19.03.2020
6307 Clouds 21 1012 73 10000 2.1 340 10:36 19.03.2020
6308 Clouds 21 1012 73 10000 2.1 340 10:18 19.03.2020
6309 Clouds 21 1012 73 10000 3.1 20 09:44 19.03.2020
6310 Clouds 21 1013 68 10000 3.1 10 09:25 19.03.2020
6311 Clouds 21 1013 68 10000 3.1 10 08:48 19.03.2020
6312 Clouds 21 1014 68 10000 1.5 10 08:23 19.03.2020
6313 Clouds 21 1014 68 10000 1.5 10 08:23 19.03.2020
6314 Clouds 21 1014 68 10000 2.1 350 07:59 19.03.2020
6315 Clouds 20 1015 77 10000 3.6 350 07:38 19.03.2020
6316 Clouds 20 1015 77 10000 3.6 350 07:19 19.03.2020
6317 Clouds 20 1016 77 10000 4.1 360 06:27 19.03.2020
6318 Clouds 20 1016 82 10000 4.1 360 05:25 19.03.2020
6319 Clouds 20 1016 82 10000 3.1 360 04:51 19.03.2020
6320 Clouds 19 1016 88 10000 4.1 30 04:21 19.03.2020
6321 Rain 18 1014 93 8000 3.6 10 01:58 19.03.2020
6322 Rain 18 1013 93 6000 2.1 360 00:53 19.03.2020
6323 Rain 18 1012 100 7000 1 0 00:19 19.03.2020
6324 Rain 18 1012 93 6000 2.21 39 23:43 18.03.2020
6325 Rain 18 1012 93 6000 2.21 39 23:23 18.03.2020
6326 Rain 18 1011 93 5000 0.5 360 22:43 18.03.2020
6327 Rain 18 1011 93 5000 0.5 360 22:23 18.03.2020
6328 Clouds 18 1011 93 9000 1 0 21:57 18.03.2020
6329 Rain 18 1011 93 7000 1.5 40 21:39 18.03.2020
6330 Rain 18 1011 93 7000 1.5 40 21:20 18.03.2020
6331 Rain 18 1012 93 7000 1 0 20:55 18.03.2020
6332 Rain 18 1012 93 6000 2.1 30 20:37 18.03.2020
6333 Rain 18 1012 93 6000 2.1 30 20:19 18.03.2020
6334 Rain 18 1013 93 6000 2.1 30 19:41 18.03.2020
6335 Rain 18 1013 93 6000 2.1 30 19:21 18.03.2020
6336 Rain 18 1013 93 6000 2.1 30 19:21 18.03.2020
6337 Rain 18 1013 93 5000 2.1 30 18:57 18.03.2020
6338 Rain 19 1013 93 6000 1.5 20 18:38 18.03.2020
6339 Rain 18 1013 93 5000 2.1 30 18:19 18.03.2020
6340 Drizzle 19 1013 93 4800 1.5 30 17:55 18.03.2020
6341 Drizzle 19 1013 93 4800 1.5 30 17:37 18.03.2020
6342 Rain 19 1013 88 7000 1 0 17:18 18.03.2020
6343 Clouds 19 1013 88 10000 2.1 20 16:42 18.03.2020
6344 Clouds 19 1013 88 10000 2.1 20 16:20 18.03.2020
6345 Clouds 19 1013 88 10000 2.1 20 16:20 18.03.2020
6346 Clouds 19 1013 88 10000 2.1 20 16:20 18.03.2020
6347 Clouds 18 1013 93 9000 1.5 60 15:57 18.03.2020
6348 Clouds 18 1013 93 8000 1.5 50 15:38 18.03.2020
6349 Clouds 18 1013 93 8000 1.5 50 15:19 18.03.2020
6350 Rain 18 1012 93 8000 1 30 14:42 18.03.2020
6351 Rain 18 1012 93 8000 1 30 14:21 18.03.2020
6352 Clouds 18 1012 93 9000 2.1 20 13:41 18.03.2020
6353 Clouds 18 1012 93 9000 2.1 20 13:19 18.03.2020
6354 Clouds 18 1011 93 8000 2.6 50 12:44 18.03.2020
6355 Clouds 18 1011 93 7000 3.1 50 12:21 18.03.2020
6356 Clouds 19 1011 88 10000 3.1 40 11:59 18.03.2020
6357 Clouds 19 1011 88 10000 3.1 40 11:37 18.03.2020
6358 Clouds 19 1011 88 10000 3.1 40 11:37 18.03.2020
6359 Clouds 19 1011 88 8000 2.6 50 11:18 18.03.2020
6360 Clouds 19 1011 88 8000 2.6 50 10:56 18.03.2020
6361 Clouds 19 1011 88 8000 2.6 50 10:56 18.03.2020
6362 Drizzle 19 1011 88 4100 3.1 50 10:36 18.03.2020
6363 Drizzle 19 1011 88 4100 3.1 50 10:18 18.03.2020
6364 Clouds 19 1011 88 8000 4.6 40 09:42 18.03.2020
6365 Drizzle 19 1011 88 7000 4.1 40 09:23 18.03.2020
6366 Drizzle 19 1011 88 8000 4.1 50 08:54 18.03.2020
6367 Drizzle 19 1012 88 8000 4.6 50 08:36 18.03.2020
6368 Drizzle 19 1012 88 8000 4.6 50 08:18 18.03.2020
6369 Drizzle 18 1013 93 4200 4.1 40 07:39 18.03.2020
6370 Drizzle 18 1013 93 4200 4.1 40 07:21 18.03.2020
6371 Clouds 19 1014 88 9000 4.1 40 06:42 18.03.2020
6372 Drizzle 19 1015 88 7000 4.6 40 05:43 18.03.2020
6373 Clouds 19 1016 88 10000 5.1 40 05:18 18.03.2020
6374 Drizzle 18 1016 93 5000 3.6 40 03:21 18.03.2020
6375 Drizzle 18 1016 93 4000 4.1 50 02:37 18.03.2020
6376 Drizzle 18 1016 93 4000 4.1 50 02:37 18.03.2020
6377 Drizzle 18 1016 93 4000 4.1 50 02:37 18.03.2020
6378 Clouds 19 1015 88 10000 4.6 50 01:45 18.03.2020
6379 Clouds 19 1014 88 10000 3.1 60 01:19 18.03.2020
6380 Clouds 18 1014 93 10000 3.6 70 00:21 18.03.2020
6381 Clouds 18 1014 93 8000 5.1 60 23:42 17.03.2020
6382 Clouds 18 1014 93 9000 4.6 50 23:21 17.03.2020
6383 Clouds 18 1014 93 10000 4.6 50 22:46 17.03.2020
6384 Clouds 18 1014 93 10000 4.6 50 22:28 17.03.2020
6385 Clouds 18 1013 93 10000 4.1 50 21:44 17.03.2020
6386 Clouds 19 1014 93 10000 4.6 70 21:25 17.03.2020
6387 Thunderstorm 19 1014 93 5000 4.6 60 20:58 17.03.2020
6388 Rain 19 1014 93 10000 6.7 40 20:38 17.03.2020
6389 Rain 19 1014 93 10000 6.7 40 20:19 17.03.2020
6390 Rain 19 1014 93 5000 5.7 50 19:42 17.03.2020
6391 Clouds 19 1015 93 10000 5.1 40 19:19 17.03.2020
6392 Clouds 19 1015 93 10000 5.1 40 18:57 17.03.2020
6393 Rain 20 1015 94 7000 6.2 40 18:39 17.03.2020
6394 Rain 20 1015 94 6000 5.1 70 18:21 17.03.2020
6395 Rain 20 1016 94 5000 5.7 50 17:56 17.03.2020
6396 Rain 20 1016 94 5000 5.7 50 17:37 17.03.2020
6397 Rain 20 1016 94 6000 4.6 40 17:18 17.03.2020
6398 Rain 20 1016 100 4500 4.1 50 16:41 17.03.2020
6399 Rain 20 1016 100 4500 4.1 50 16:19 17.03.2020
6400 Rain 21 1015 94 5000 5.7 50 15:45 17.03.2020
6401 Rain 21 1016 94 6000 5.1 40 15:22 17.03.2020
6402 Rain 21 1015 94 5000 5.1 50 14:44 17.03.2020
6403 Rain 22 1015 94 3000 4.6 60 14:25 17.03.2020
6404 Drizzle 23 1014 94 2000 3.6 80 13:57 17.03.2020
6405 Drizzle 23 1014 94 1900 3.6 90 13:39 17.03.2020
6406 Drizzle 23 1014 94 1900 3.6 90 13:21 17.03.2020
6407 Drizzle 23 1014 94 1900 3.6 90 13:21 17.03.2020
6408 Drizzle 23 1013 94 1700 3.6 100 12:43 17.03.2020
6409 Drizzle 23 1013 94 1700 3.6 100 12:24 17.03.2020
6410 Drizzle 23 1013 94 1500 3.6 100 11:48 17.03.2020
6411 Drizzle 23 1013 94 1500 3.6 100 11:29 17.03.2020
6412 Drizzle 23 1012 94 1100 2.6 90 10:58 17.03.2020
6413 Drizzle 23 1012 94 700 1.5 50 10:40 17.03.2020
6414 Drizzle 23 1012 94 700 1.5 50 10:22 17.03.2020
6415 Drizzle 23 1012 94 800 1.5 60 09:59 17.03.2020
6416 Drizzle 22 1013 94 900 5.36 139 09:40 17.03.2020
6417 Drizzle 22 1013 94 900 5.36 139 09:19 17.03.2020
6418 Drizzle 22 1013 94 800 1 330 08:48 17.03.2020
6419 Drizzle 23 1013 88 1200 0.5 0 08:23 17.03.2020
6420 Mist 23 1014 88 3700 1 0 07:50 17.03.2020
6421 Mist 23 1014 88 4100 1 0 07:28 17.03.2020
6422 Mist 23 1015 88 4400 0.5 0 06:59 17.03.2020
6423 Mist 23 1015 88 4400 0.5 0 06:34 17.03.2020
6424 Mist 21 1017 94 2100 1 0 05:49 17.03.2020
6425 Drizzle 21 1018 94 2600 2.1 280 03:43 17.03.2020
6426 Drizzle 21 1017 94 2000 2.6 270 02:46 17.03.2020
6427 Drizzle 21 1017 94 1400 2.1 270 01:43 17.03.2020
6428 Drizzle 21 1016 94 1400 1.5 280 01:24 17.03.2020
6429 Drizzle 21 1015 94 2600 2.6 280 00:31 17.03.2020
6430 Drizzle 21 1015 94 2000 1 240 23:45 16.03.2020
6431 Drizzle 21 1015 94 2000 1 240 23:25 16.03.2020
6432 Drizzle 21 1014 94 1700 2.52 155 22:41 16.03.2020
6433 Drizzle 21 1014 94 1700 2.52 155 22:23 16.03.2020
6434 Drizzle 21 1014 94 1400 2.52 155 21:57 16.03.2020
6435 Drizzle 21 1014 94 1400 2.52 155 21:57 16.03.2020
6436 Drizzle 21 1014 94 1600 1 0 21:38 16.03.2020
6437 Drizzle 21 1014 94 1600 1 0 21:20 16.03.2020
6438 Drizzle 21 1015 94 1600 1 90 20:55 16.03.2020
6439 Drizzle 21 1015 94 1500 1 50 20:37 16.03.2020
6440 Drizzle 21 1015 94 1500 1 50 20:18 16.03.2020
6441 Drizzle 21 1015 94 1500 1 50 20:18 16.03.2020
6442 Drizzle 21 1015 94 1800 1 40 19:40 16.03.2020
6443 Drizzle 21 1015 94 1800 1 40 19:20 16.03.2020
6444 Drizzle 21 1016 94 1400 1.5 50 18:41 16.03.2020
6445 Mist 21 1016 94 2100 1.5 40 18:20 16.03.2020
6446 Drizzle 21 1016 94 1700 1.5 70 17:47 16.03.2020
6447 Drizzle 21 1016 94 1600 1 0 17:26 16.03.2020
6448 Drizzle 21 1016 94 1600 1 0 16:58 16.03.2020
6449 Drizzle 21 1016 94 1500 1.5 90 16:40 16.03.2020
6450 Drizzle 21 1016 94 1500 1.5 90 16:22 16.03.2020
6451 Drizzle 21 1016 94 1500 2.1 70 15:43 16.03.2020
6452 Drizzle 21 1016 94 1400 1.5 70 15:24 16.03.2020
6453 Drizzle 21 1016 94 1800 2.1 80 14:48 16.03.2020
6454 Drizzle 21 1016 94 2100 2.1 70 14:24 16.03.2020
6455 Mist 21 1015 94 3100 2.1 40 13:51 16.03.2020
6456 Mist 21 1015 94 3100 2.1 40 13:29 16.03.2020
6457 Mist 21 1014 94 3300 2.1 50 12:58 16.03.2020
6458 Mist 21 1014 88 2400 2.1 60 12:39 16.03.2020
6459 Mist 21 1014 88 2100 2.6 80 12:20 16.03.2020
6460 Drizzle 21 1013 88 1900 2.6 80 11:43 16.03.2020
6461 Mist 21 1013 88 2100 3.1 70 11:25 16.03.2020
6462 Mist 21 1013 94 2600 2.6 70 10:45 16.03.2020
6463 Mist 21 1013 94 2600 2.6 70 10:24 16.03.2020
6464 Mist 21 1013 94 2700 2.6 80 09:56 16.03.2020
6465 Drizzle 21 1013 94 1800 2.6 70 09:37 16.03.2020
6466 Drizzle 21 1013 94 1800 2.6 70 09:19 16.03.2020
6467 Mist 21 1014 88 2600 1 0 08:41 16.03.2020
6468 Mist 21 1014 88 2600 1 0 08:21 16.03.2020
6469 Drizzle 20 1015 94 1600 1.5 20 07:42 16.03.2020
6470 Drizzle 20 1015 94 1600 1.5 20 07:19 16.03.2020
6471 Drizzle 20 1016 94 1300 1 330 06:29 16.03.2020
6472 Drizzle 20 1017 94 1000 1 350 05:59 16.03.2020
6473 Drizzle 20 1018 94 1200 1 0 04:21 16.03.2020
6474 Drizzle 19 1016 93 1400 1.5 50 01:46 16.03.2020
6475 Drizzle 19 1016 93 1700 1.5 70 00:45 16.03.2020
6476 Drizzle 19 1015 93 2700 1.5 70 00:25 16.03.2020
6477 Mist 19 1015 93 1900 2.6 30 23:39 15.03.2020
6478 Mist 19 1015 93 1900 2.6 30 23:18 15.03.2020
6479 Drizzle 19 1014 93 1800 1 50 22:41 15.03.2020
6480 Drizzle 19 1014 93 1800 1 50 22:20 15.03.2020
6481 Mist 19 1014 93 1600 1 50 21:39 15.03.2020
6482 Mist 19 1014 93 1600 1 50 21:21 15.03.2020
6483 Drizzle 19 1014 93 1400 1 80 20:55 15.03.2020
6484 Drizzle 19 1015 93 1400 1 70 20:36 15.03.2020
6485 Drizzle 19 1015 93 1400 1 70 20:18 15.03.2020
6486 Drizzle 19 1015 93 1800 1.5 50 19:42 15.03.2020
6487 Mist 19 1016 93 2500 1.5 40 19:24 15.03.2020
6488 Mist 19 1016 88 3000 2.1 60 18:59 15.03.2020
6489 Mist 19 1016 88 3700 2.1 80 18:39 15.03.2020
6490 Mist 19 1016 88 3700 2.1 80 18:21 15.03.2020
6491 Mist 19 1016 88 3800 2.6 80 17:55 15.03.2020
6492 Mist 20 1016 82 4500 2.1 70 17:36 15.03.2020
6493 Mist 20 1017 82 5000 1 0 17:18 15.03.2020
6494 Mist 20 1017 82 5000 1.5 70 16:42 15.03.2020
6495 Mist 20 1017 82 5000 1.5 70 16:24 15.03.2020
6496 Mist 20 1017 82 5000 1.5 60 15:57 15.03.2020
6497 Mist 20 1017 82 5000 1.5 60 15:57 15.03.2020
6498 Mist 20 1017 82 5000 1.5 70 15:38 15.03.2020
6499 Mist 20 1017 82 5000 1.5 70 15:19 15.03.2020
6500 Mist 20 1017 82 5000 1.5 60 14:46 15.03.2020
6501 Clouds 19 1016 88 6000 1.5 70 14:24 15.03.2020
6502 Mist 20 1016 82 5000 1.5 50 13:57 15.03.2020
6503 Mist 19 1015 82 5000 2.1 50 13:38 15.03.2020
6504 Mist 19 1015 82 5000 2.1 50 13:19 15.03.2020
6505 Mist 19 1015 82 4200 2.1 60 12:43 15.03.2020
6506 Mist 19 1015 82 4500 3.1 60 12:25 15.03.2020
6507 Mist 19 1015 82 4500 3.1 60 11:54 15.03.2020
6508 Mist 20 1015 77 4600 2.6 50 11:36 15.03.2020
6509 Mist 20 1015 77 4300 2.1 60 11:18 15.03.2020
6510 Mist 19 1015 82 4700 2.6 60 10:41 15.03.2020
6511 Mist 19 1015 82 4700 2.6 60 10:23 15.03.2020
6512 Mist 19 1015 82 4800 2.6 60 09:59 15.03.2020
6513 Mist 19 1015 82 4800 2.6 60 09:59 15.03.2020
6514 Mist 20 1015 77 5000 1.5 60 09:39 15.03.2020
6515 Mist 20 1015 77 5000 1.5 60 09:20 15.03.2020
6516 Mist 19 1016 82 5000 2.1 30 08:41 15.03.2020
6517 Mist 20 1016 77 5000 2.1 50 08:20 15.03.2020
6518 Mist 19 1017 82 5000 1.5 70 07:50 15.03.2020
6519 Rain 19 1017 82 4600 2.1 60 07:23 15.03.2020
6520 Mist 19 1018 82 5000 2.1 50 06:44 15.03.2020
6521 Clouds 20 1019 77 6000 2.6 50 05:49 15.03.2020
6522 Clouds 21 1020 68 8000 1.5 50 04:57 15.03.2020
6523 Clouds 21 1020 68 10000 2.1 90 04:39 15.03.2020
6524 Clouds 21 1020 68 10000 2.1 90 04:20 15.03.2020
6525 Clouds 21 1020 68 10000 2.6 70 03:19 15.03.2020
6526 Clouds 21 1020 68 8000 1.5 70 02:23 15.03.2020
6527 Clouds 21 1018 68 8000 1.96 44 00:59 15.03.2020
6528 Clouds 20 1018 77 9000 1.96 44 00:40 15.03.2020
6529 Clouds 20 1018 77 9000 1.96 44 00:19 15.03.2020
6530 Clouds 21 1017 73 9000 1 40 23:39 14.03.2020
6531 Clouds 21 1017 73 10000 0.5 0 23:20 14.03.2020
6532 Clouds 21 1017 73 10000 0.5 0 22:56 14.03.2020
6533 Clouds 21 1017 68 10000 1 120 22:38 14.03.2020
6534 Clouds 21 1017 68 10000 1 120 22:19 14.03.2020
6535 Clouds 21 1017 68 10000 1 50 21:55 14.03.2020
6536 Clouds 21 1017 73 9000 1.5 70 21:36 14.03.2020
6537 Clouds 21 1017 73 9000 1.5 70 21:36 14.03.2020
6538 Clouds 21 1017 73 9000 1.5 70 21:18 14.03.2020
6539 Clouds 20 1018 77 10000 1.5 70 20:56 14.03.2020
6540 Clouds 20 1018 77 10000 1.5 70 20:56 14.03.2020
6541 Clouds 21 1018 73 10000 1 0 20:38 14.03.2020
6542 Clouds 21 1018 73 10000 1 0 20:18 14.03.2020
6543 Clouds 21 1019 77 9000 1 0 19:41 14.03.2020
6544 Clouds 21 1019 77 9000 1.5 70 19:20 14.03.2020
6545 Clouds 21 1019 73 9000 1 80 18:40 14.03.2020
6546 Clouds 21 1019 73 9000 1 80 18:40 14.03.2020
6547 Clouds 21 1019 73 10000 1 0 18:20 14.03.2020
6548 Clouds 21 1020 73 10000 0.5 0 17:42 14.03.2020
6549 Clouds 21 1019 77 10000 1 0 17:23 14.03.2020
6550 Clouds 21 1019 77 10000 1 0 17:23 14.03.2020
6551 Clouds 21 1019 77 10000 1 0 16:58 14.03.2020
6552 Clouds 21 1019 77 10000 1 0 16:38 14.03.2020
6553 Clouds 21 1019 77 10000 1 0 16:19 14.03.2020
6554 Clouds 21 1019 77 10000 1 0 15:44 14.03.2020
6555 Clouds 21 1019 73 10000 1 0 15:22 14.03.2020
6556 Clouds 21 1018 77 10000 1.5 60 14:40 14.03.2020
6557 Clouds 21 1018 77 10000 1.5 60 14:21 14.03.2020
6558 Clouds 21 1017 73 10000 2.1 80 13:57 14.03.2020
6559 Clouds 21 1016 73 10000 2.1 80 13:38 14.03.2020
6560 Clouds 21 1016 77 10000 3.1 110 13:19 14.03.2020
6561 Clouds 22 1016 73 7000 1 0 12:44 14.03.2020
6562 Clouds 22 1016 73 7000 1 0 12:25 14.03.2020
6563 Rain 22 1016 78 6000 1 0 11:45 14.03.2020
6564 Clouds 22 1015 73 10000 1 0 11:26 14.03.2020
6565 Clouds 22 1015 68 10000 1.5 40 10:55 14.03.2020
6566 Clouds 22 1015 68 10000 1.5 40 10:36 14.03.2020
6567 Clouds 22 1015 68 10000 1.5 40 10:18 14.03.2020
6568 Clouds 22 1015 73 10000 2.6 360 09:41 14.03.2020
6569 Clouds 22 1015 73 10000 2.6 360 09:22 14.03.2020
6570 Clouds 22 1016 73 10000 3.1 360 08:47 14.03.2020
6571 Clouds 23 1016 69 10000 3.1 20 08:27 14.03.2020
6572 Clouds 22 1017 73 10000 2.6 360 07:48 14.03.2020
6573 Clouds 22 1017 73 10000 2.6 360 07:23 14.03.2020
6574 Clouds 22 1017 73 10000 3.1 30 06:59 14.03.2020
6575 Clouds 22 1018 73 10000 3.6 30 06:39 14.03.2020
6576 Clouds 23 1019 69 10000 3.6 50 04:57 14.03.2020
6577 Clouds 23 1018 64 10000 5.1 60 03:40 14.03.2020
6578 Clouds 23 1018 64 10000 5.7 60 02:53 14.03.2020
6579 Clouds 23 1017 69 10000 4.6 50 01:50 14.03.2020
6580 Rain 22 1016 88 8000 4.1 70 00:36 14.03.2020
6581 Clouds 22 1015 88 7000 4.1 60 23:44 13.03.2020
6582 Clouds 22 1015 88 7000 4.1 60 23:23 13.03.2020
6583 Clouds 22 1015 88 8000 4.6 70 22:46 13.03.2020
6584 Clouds 22 1015 94 8000 3.1 70 22:24 13.03.2020
6585 Rain 23 1015 83 7000 4.6 60 21:42 13.03.2020
6586 Rain 23 1015 83 7000 4.6 60 21:19 13.03.2020
6587 Clouds 24 1015 88 6000 2.1 50 20:43 13.03.2020
6588 Clouds 24 1014 88 6000 1.5 70 20:23 13.03.2020
6589 Clouds 24 1014 88 8000 0.5 0 19:59 13.03.2020
6590 Clouds 24 1015 88 8000 0.5 0 19:40 13.03.2020
6591 Clouds 24 1015 88 8000 0.5 0 19:22 13.03.2020
6592 Clouds 25 1015 83 7000 1 0 18:44 13.03.2020
6593 Clouds 24 1015 88 7000 1 80 18:23 13.03.2020
6594 Clouds 25 1015 83 8000 1 0 17:43 13.03.2020
6595 Clouds 24 1015 88 8000 1 80 17:21 13.03.2020
6596 Clouds 24 1015 88 8000 1 80 16:59 13.03.2020
6597 Clouds 24 1015 88 8000 1.5 100 16:39 13.03.2020
6598 Clouds 24 1015 88 8000 1.5 100 16:20 13.03.2020
6599 Clouds 25 1015 83 9000 2.6 130 15:46 13.03.2020
6600 Clouds 25 1014 83 9000 2.6 130 15:23 13.03.2020
6601 Clouds 25 1014 88 7000 3.6 140 14:59 13.03.2020
6602 Clouds 25 1014 88 6000 3.6 130 14:40 13.03.2020
6603 Clouds 25 1014 88 6000 3.6 130 14:21 13.03.2020
6604 Clouds 26 1012 83 10000 5.1 120 13:43 13.03.2020
6605 Clouds 26 1012 83 10000 5.1 120 13:24 13.03.2020
6606 Clouds 26 1012 83 10000 4.6 120 12:59 13.03.2020
6607 Clouds 26 1011 83 10000 4.6 110 12:38 13.03.2020
6608 Clouds 26 1011 83 10000 4.6 110 12:20 13.03.2020
6609 Mist 27 1010 78 5000 3.6 110 11:56 13.03.2020
6610 Mist 27 1010 78 5000 3.6 110 11:36 13.03.2020
6611 Mist 27 1010 78 5000 3.6 110 11:36 13.03.2020
6612 Mist 27 1010 78 5000 3.1 90 11:18 13.03.2020
6613 Mist 28 1010 69 4200 2.6 70 10:46 13.03.2020
6614 Mist 28 1010 69 4200 2.6 70 10:26 13.03.2020
6615 Mist 28 1010 74 4900 3.1 90 09:48 13.03.2020
6616 Mist 28 1010 69 5000 3.6 90 09:30 13.03.2020
6617 Mist 28 1011 69 4300 2.1 90 08:59 13.03.2020
6618 Mist 27 1011 74 4100 1.5 30 08:38 13.03.2020
6619 Mist 27 1011 74 4100 1.5 30 08:38 13.03.2020
6620 Mist 27 1011 74 4100 1.5 30 08:20 13.03.2020
6621 Mist 27 1012 74 3800 1.5 0 07:44 13.03.2020
6622 Mist 27 1012 74 3800 1.5 0 07:25 13.03.2020
6623 Mist 27 1013 74 3100 1.5 360 06:46 13.03.2020
6624 Mist 26 1014 78 3100 1 0 06:21 13.03.2020
6625 Mist 26 1014 78 3100 1 0 05:45 13.03.2020
6626 Mist 25 1015 83 2100 2.1 270 04:57 13.03.2020
6627 Mist 24 1015 88 1700 2.6 270 04:25 13.03.2020
6628 Mist 23 1014 94 1200 2.1 270 02:42 13.03.2020
6629 Mist 23 1013 94 1200 2.89 144 01:37 13.03.2020
6630 Mist 23 1013 94 1200 3.02 144 01:18 13.03.2020
6631 Rain 23 1012 94 1500 1 0 00:39 13.03.2020
6632 Rain 23 1012 94 1500 1 0 00:18 13.03.2020
6633 Drizzle 23 1011 94 1400 1 50 23:38 12.03.2020
6634 Drizzle 23 1011 94 1700 1 50 23:19 12.03.2020
6635 Drizzle 23 1011 94 1700 1 60 22:44 12.03.2020
6636 Drizzle 23 1011 94 1700 1 60 22:25 12.03.2020
6637 Drizzle 23 1011 94 1800 1 80 21:55 12.03.2020
6638 Drizzle 23 1011 94 1800 1.5 80 21:37 12.03.2020
6639 Drizzle 23 1011 94 1800 1.5 80 21:18 12.03.2020
6640 Drizzle 23 1011 94 2000 1 0 20:42 12.03.2020
6641 Drizzle 23 1011 94 2000 1 0 20:20 12.03.2020
6642 Rain 23 1012 94 1600 2.6 110 19:42 12.03.2020
6643 Rain 23 1012 94 1600 2.6 110 19:21 12.03.2020
6644 Rain 23 1012 94 2300 2.6 120 18:58 12.03.2020
6645 Mist 23 1012 94 4000 2.6 120 18:39 12.03.2020
6646 Mist 23 1012 94 4000 2.6 120 18:21 12.03.2020
6647 Mist 23 1012 88 4500 3.1 110 17:41 12.03.2020
6648 Mist 23 1012 88 4500 3.1 110 17:22 12.03.2020
6649 Rain 23 1012 88 4800 3.6 120 16:58 12.03.2020
6650 Rain 23 1012 88 4800 3.6 120 16:40 12.03.2020
6651 Rain 23 1012 88 4800 3.6 120 16:21 12.03.2020
6652 Mist 24 1012 83 5000 3.6 120 15:48 12.03.2020
6653 Clouds 24 1011 83 6000 3.6 120 15:28 12.03.2020
6654 Clouds 24 1011 83 6000 3.6 120 15:28 12.03.2020
6655 Clouds 24 1011 83 6000 4.1 120 14:54 12.03.2020
6656 Clouds 24 1011 83 6000 4.1 120 14:54 12.03.2020
6657 Clouds 24 1011 83 6000 4.1 120 14:54 12.03.2020
6658 Mist 24 1010 83 3900 2.6 100 14:36 12.03.2020
6659 Mist 24 1010 83 3900 2.6 100 14:18 12.03.2020
6660 Mist 24 1009 83 4800 2.6 90 13:38 12.03.2020
6661 Mist 24 1009 83 4800 2.6 90 13:20 12.03.2020
6662 Mist 24 1009 78 4300 3.1 110 12:43 12.03.2020
6663 Mist 24 1009 78 4300 3.1 110 12:22 12.03.2020
6664 Mist 24 1009 78 4300 3.1 110 11:58 12.03.2020
6665 Mist 24 1009 78 5000 3.1 110 11:39 12.03.2020
6666 Clouds 25 1009 69 7000 3.1 140 11:20 12.03.2020
6667 Clouds 25 1009 69 7000 3.1 140 10:59 12.03.2020
6668 Clouds 25 1009 69 9000 3.6 140 10:40 12.03.2020
6669 Clouds 25 1009 69 9000 3.6 140 10:22 12.03.2020
6670 Clouds 25 1009 69 10000 3.1 140 09:47 12.03.2020
6671 Clouds 25 1009 69 9000 2.6 70 09:28 12.03.2020
6672 Clouds 24 1010 73 7000 2.1 70 08:46 12.03.2020
6673 Clouds 25 1010 69 6000 1.5 130 08:21 12.03.2020
6674 Clouds 24 1011 73 6000 1.5 200 07:59 12.03.2020
6675 Clouds 24 1011 73 7000 2.1 180 07:41 12.03.2020
6676 Clouds 24 1012 69 8000 2.1 170 07:21 12.03.2020
6677 Clouds 24 1012 69 8000 2.1 170 07:21 12.03.2020
6678 Mist 23 1014 83 4100 2.1 120 05:55 12.03.2020
6679 Mist 23 1014 83 4100 2.1 120 05:27 12.03.2020
6680 Mist 21 1014 94 1800 2.1 100 02:43 12.03.2020
6681 Mist 20 1013 100 1800 1 80 01:38 12.03.2020
6682 Mist 20 1013 100 1800 1 80 01:20 12.03.2020
6683 Mist 20 1013 94 2300 1 80 00:41 12.03.2020
6684 Mist 20 1012 94 1800 2.1 100 23:56 11.03.2020
6685 Drizzle 20 1012 94 1500 1.5 80 23:26 11.03.2020
6686 Drizzle 20 1012 94 1500 1.5 80 22:55 11.03.2020
6687 Drizzle 20 1012 94 1500 2.1 90 22:37 11.03.2020
6688 Drizzle 20 1012 94 1500 2.1 90 22:18 11.03.2020
6689 Drizzle 20 1012 94 2400 2.1 110 21:41 11.03.2020
6690 Drizzle 20 1012 94 2400 2.1 110 21:23 11.03.2020
6691 Rain 20 1012 94 2300 2.6 130 20:59 11.03.2020
6692 Drizzle 20 1012 94 2000 2.1 120 20:40 11.03.2020
6693 Drizzle 20 1012 94 2000 2.1 120 20:20 11.03.2020
6694 Rain 20 1013 94 2200 2.1 120 19:57 11.03.2020
6695